<?xml version="1.0" encoding="UTF-8" standalone="no" ?>
<gpx xmlns="http://www.topografix.com/GPX/1/1" xmlns:xsi="http://www.w3.org/2001/XMLSchema-instance" xsi:schemaLocation="http://www.topografix.com/GPX/1/1 http://www.topografix.com/GPX/1/1/gpx.xsd" version="1.1" creator="VisuGPX - https://www.visugpx.com">
  <metadata>
    <name>Rallye des Blanchisseurs 2018</name>
  </metadata>
  <trk>
    <name><![CDATA[Rallye des Blanchisseurs]]></name>
    <trkseg>
      <trkpt lat="45.74582" lon="4.72257">
        <ele>285</ele>
        <time>2018-09-02T06:14:17Z</time>
      </trkpt>
      <trkpt lat="45.74574" lon="4.7226">
        <ele>285</ele>
        <time>2018-09-02T06:14:36Z</time>
      </trkpt>
      <trkpt lat="45.74569" lon="4.72258">
        <ele>285</ele>
        <time>2018-09-02T06:14:39Z</time>
      </trkpt>
      <trkpt lat="45.74566" lon="4.72267">
        <ele>284.8</ele>
        <time>2018-09-02T06:14:42Z</time>
      </trkpt>
      <trkpt lat="45.74566" lon="4.7227">
        <ele>284.8</ele>
        <time>2018-09-02T06:14:43Z</time>
      </trkpt>
      <trkpt lat="45.74565" lon="4.72283">
        <ele>284.5</ele>
        <time>2018-09-02T06:14:46Z</time>
      </trkpt>
      <trkpt lat="45.74565" lon="4.72298">
        <ele>284.2</ele>
        <time>2018-09-02T06:14:49Z</time>
      </trkpt>
      <trkpt lat="45.74563" lon="4.72318">
        <ele>283.8</ele>
        <time>2018-09-02T06:14:53Z</time>
      </trkpt>
      <trkpt lat="45.74563" lon="4.72334">
        <ele>283.4</ele>
        <time>2018-09-02T06:14:56Z</time>
      </trkpt>
      <trkpt lat="45.74563" lon="4.72346">
        <ele>283</ele>
        <time>2018-09-02T06:14:58Z</time>
      </trkpt>
      <trkpt lat="45.74563" lon="4.72379">
        <ele>283.2</ele>
        <time>2018-09-02T06:15:04Z</time>
      </trkpt>
      <trkpt lat="45.74563" lon="4.724">
        <ele>283.6</ele>
        <time>2018-09-02T06:15:08Z</time>
      </trkpt>
      <trkpt lat="45.74564" lon="4.72427">
        <ele>283.9</ele>
        <time>2018-09-02T06:15:13Z</time>
      </trkpt>
      <trkpt lat="45.74564" lon="4.72438">
        <ele>283.9</ele>
        <time>2018-09-02T06:15:15Z</time>
      </trkpt>
      <trkpt lat="45.74565" lon="4.72467">
        <ele>284</ele>
        <time>2018-09-02T06:15:20Z</time>
      </trkpt>
      <trkpt lat="45.74566" lon="4.72491">
        <ele>283.9</ele>
        <time>2018-09-02T06:15:24Z</time>
      </trkpt>
      <trkpt lat="45.74566" lon="4.7251">
        <ele>283.8</ele>
        <time>2018-09-02T06:15:27Z</time>
      </trkpt>
      <trkpt lat="45.74567" lon="4.72544">
        <ele>283.8</ele>
        <time>2018-09-02T06:15:32Z</time>
      </trkpt>
      <trkpt lat="45.74568" lon="4.72604">
        <ele>283.2</ele>
        <time>2018-09-02T06:15:40Z</time>
      </trkpt>
      <trkpt lat="45.74569" lon="4.72664">
        <ele>282</ele>
        <time>2018-09-02T06:15:48Z</time>
      </trkpt>
      <trkpt lat="45.74566" lon="4.72678">
        <ele>281.4</ele>
        <time>2018-09-02T06:15:51Z</time>
      </trkpt>
      <trkpt lat="45.7456" lon="4.72673">
        <ele>281.7</ele>
        <time>2018-09-02T06:15:53Z</time>
      </trkpt>
      <trkpt lat="45.74555" lon="4.72663">
        <ele>282.1</ele>
        <time>2018-09-02T06:15:55Z</time>
      </trkpt>
      <trkpt lat="45.74546" lon="4.72649">
        <ele>282.6</ele>
        <time>2018-09-02T06:15:58Z</time>
      </trkpt>
      <trkpt lat="45.74543" lon="4.72645">
        <ele>283</ele>
        <time>2018-09-02T06:15:59Z</time>
      </trkpt>
      <trkpt lat="45.74537" lon="4.72636">
        <ele>283</ele>
        <time>2018-09-02T06:16:01Z</time>
      </trkpt>
      <trkpt lat="45.7453" lon="4.72627">
        <ele>283</ele>
        <time>2018-09-02T06:16:03Z</time>
      </trkpt>
      <trkpt lat="45.74523" lon="4.72626">
        <ele>282.9</ele>
        <time>2018-09-02T06:16:05Z</time>
      </trkpt>
      <trkpt lat="45.74519" lon="4.72627">
        <ele>282.8</ele>
        <time>2018-09-02T06:16:06Z</time>
      </trkpt>
      <trkpt lat="45.74516" lon="4.72629">
        <ele>282.7</ele>
        <time>2018-09-02T06:16:07Z</time>
      </trkpt>
      <trkpt lat="45.74504" lon="4.72635">
        <ele>282.3</ele>
        <time>2018-09-02T06:16:10Z</time>
      </trkpt>
      <trkpt lat="45.745" lon="4.72637">
        <ele>282.2</ele>
        <time>2018-09-02T06:16:11Z</time>
      </trkpt>
      <trkpt lat="45.74483" lon="4.72644">
        <ele>281.3</ele>
        <time>2018-09-02T06:16:15Z</time>
      </trkpt>
      <trkpt lat="45.74474" lon="4.72647">
        <ele>281</ele>
        <time>2018-09-02T06:16:17Z</time>
      </trkpt>
      <trkpt lat="45.74454" lon="4.72653">
        <ele>280</ele>
        <time>2018-09-02T06:16:21Z</time>
      </trkpt>
      <trkpt lat="45.74439" lon="4.72659">
        <ele>280</ele>
        <time>2018-09-02T06:16:24Z</time>
      </trkpt>
      <trkpt lat="45.74418" lon="4.72666">
        <ele>279.1</ele>
        <time>2018-09-02T06:16:28Z</time>
      </trkpt>
      <trkpt lat="45.74392" lon="4.72674">
        <ele>278</ele>
        <time>2018-09-02T06:16:33Z</time>
      </trkpt>
      <trkpt lat="45.74372" lon="4.72682">
        <ele>277</ele>
        <time>2018-09-02T06:16:37Z</time>
      </trkpt>
      <trkpt lat="45.74353" lon="4.72689">
        <ele>277</ele>
        <time>2018-09-02T06:16:41Z</time>
      </trkpt>
      <trkpt lat="45.74349" lon="4.72691">
        <ele>277</ele>
        <time>2018-09-02T06:16:42Z</time>
      </trkpt>
      <trkpt lat="45.74335" lon="4.72694">
        <ele>276.8</ele>
        <time>2018-09-02T06:16:45Z</time>
      </trkpt>
      <trkpt lat="45.74331" lon="4.72693">
        <ele>276.6</ele>
        <time>2018-09-02T06:16:46Z</time>
      </trkpt>
      <trkpt lat="45.74326" lon="4.72693">
        <ele>276.3</ele>
        <time>2018-09-02T06:16:47Z</time>
      </trkpt>
      <trkpt lat="45.74311" lon="4.72699">
        <ele>275.6</ele>
        <time>2018-09-02T06:16:50Z</time>
      </trkpt>
      <trkpt lat="45.74306" lon="4.72701">
        <ele>275.3</ele>
        <time>2018-09-02T06:16:51Z</time>
      </trkpt>
      <trkpt lat="45.74285" lon="4.7271">
        <ele>274.2</ele>
        <time>2018-09-02T06:16:55Z</time>
      </trkpt>
      <trkpt lat="45.74268" lon="4.72719">
        <ele>273.3</ele>
        <time>2018-09-02T06:16:58Z</time>
      </trkpt>
      <trkpt lat="45.74258" lon="4.72726">
        <ele>272.7</ele>
        <time>2018-09-02T06:17:00Z</time>
      </trkpt>
      <trkpt lat="45.74241" lon="4.72736">
        <ele>271.8</ele>
        <time>2018-09-02T06:17:03Z</time>
      </trkpt>
      <trkpt lat="45.74229" lon="4.72742">
        <ele>271.2</ele>
        <time>2018-09-02T06:17:05Z</time>
      </trkpt>
      <trkpt lat="45.74209" lon="4.72747">
        <ele>270</ele>
        <time>2018-09-02T06:17:08Z</time>
      </trkpt>
      <trkpt lat="45.74182" lon="4.72753">
        <ele>268.1</ele>
        <time>2018-09-02T06:17:12Z</time>
      </trkpt>
      <trkpt lat="45.74175" lon="4.72754">
        <ele>267.6</ele>
        <time>2018-09-02T06:17:13Z</time>
      </trkpt>
      <trkpt lat="45.74151" lon="4.72756">
        <ele>266</ele>
        <time>2018-09-02T06:17:17Z</time>
      </trkpt>
      <trkpt lat="45.74146" lon="4.72757">
        <ele>266</ele>
        <time>2018-09-02T06:17:18Z</time>
      </trkpt>
      <trkpt lat="45.74135" lon="4.72765">
        <ele>266</ele>
        <time>2018-09-02T06:17:20Z</time>
      </trkpt>
      <trkpt lat="45.74126" lon="4.72775">
        <ele>266</ele>
        <time>2018-09-02T06:17:22Z</time>
      </trkpt>
      <trkpt lat="45.74121" lon="4.7278">
        <ele>265.9</ele>
        <time>2018-09-02T06:17:23Z</time>
      </trkpt>
      <trkpt lat="45.74111" lon="4.72788">
        <ele>265.7</ele>
        <time>2018-09-02T06:17:25Z</time>
      </trkpt>
      <trkpt lat="45.74101" lon="4.72796">
        <ele>265.7</ele>
        <time>2018-09-02T06:17:27Z</time>
      </trkpt>
      <trkpt lat="45.74085" lon="4.72809">
        <ele>266</ele>
        <time>2018-09-02T06:17:30Z</time>
      </trkpt>
      <trkpt lat="45.74074" lon="4.72816">
        <ele>265.9</ele>
        <time>2018-09-02T06:17:32Z</time>
      </trkpt>
      <trkpt lat="45.74063" lon="4.72823">
        <ele>265.7</ele>
        <time>2018-09-02T06:17:34Z</time>
      </trkpt>
      <trkpt lat="45.7404" lon="4.72836">
        <ele>265</ele>
        <time>2018-09-02T06:17:38Z</time>
      </trkpt>
      <trkpt lat="45.74028" lon="4.72841">
        <ele>264.3</ele>
        <time>2018-09-02T06:17:40Z</time>
      </trkpt>
      <trkpt lat="45.74002" lon="4.72847">
        <ele>261.9</ele>
        <time>2018-09-02T06:17:44Z</time>
      </trkpt>
      <trkpt lat="45.73988" lon="4.7285">
        <ele>259.4</ele>
        <time>2018-09-02T06:17:46Z</time>
      </trkpt>
      <trkpt lat="45.73948" lon="4.72863">
        <ele>256</ele>
        <time>2018-09-02T06:17:51Z</time>
      </trkpt>
      <trkpt lat="45.73926" lon="4.72887">
        <ele>251</ele>
        <time>2018-09-02T06:17:54Z</time>
      </trkpt>
      <trkpt lat="45.73922" lon="4.72894">
        <ele>250.5</ele>
        <time>2018-09-02T06:17:55Z</time>
      </trkpt>
      <trkpt lat="45.7392" lon="4.72898">
        <ele>249.9</ele>
        <time>2018-09-02T06:17:56Z</time>
      </trkpt>
      <trkpt lat="45.7391" lon="4.72917">
        <ele>249.2</ele>
        <time>2018-09-02T06:18:01Z</time>
      </trkpt>
      <trkpt lat="45.73898" lon="4.72945">
        <ele>248.3</ele>
        <time>2018-09-02T06:18:07Z</time>
      </trkpt>
      <trkpt lat="45.73893" lon="4.72964">
        <ele>248</ele>
        <time>2018-09-02T06:18:11Z</time>
      </trkpt>
      <trkpt lat="45.73892" lon="4.72994">
        <ele>247.7</ele>
        <time>2018-09-02T06:18:15Z</time>
      </trkpt>
      <trkpt lat="45.73892" lon="4.73003">
        <ele>247.7</ele>
        <time>2018-09-02T06:18:16Z</time>
      </trkpt>
      <trkpt lat="45.7389" lon="4.73038">
        <ele>247.6</ele>
        <time>2018-09-02T06:18:20Z</time>
      </trkpt>
      <trkpt lat="45.73887" lon="4.73054">
        <ele>247.6</ele>
        <time>2018-09-02T06:18:22Z</time>
      </trkpt>
      <trkpt lat="45.73885" lon="4.7306">
        <ele>247.5</ele>
        <time>2018-09-02T06:18:23Z</time>
      </trkpt>
      <trkpt lat="45.73884" lon="4.73063">
        <ele>247.4</ele>
        <time>2018-09-02T06:18:24Z</time>
      </trkpt>
      <trkpt lat="45.73882" lon="4.73065">
        <ele>247.1</ele>
        <time>2018-09-02T06:18:25Z</time>
      </trkpt>
      <trkpt lat="45.73877" lon="4.7307">
        <ele>246.7</ele>
        <time>2018-09-02T06:18:27Z</time>
      </trkpt>
      <trkpt lat="45.73871" lon="4.73078">
        <ele>245.9</ele>
        <time>2018-09-02T06:18:29Z</time>
      </trkpt>
      <trkpt lat="45.73864" lon="4.731">
        <ele>244.7</ele>
        <time>2018-09-02T06:18:32Z</time>
      </trkpt>
      <trkpt lat="45.73861" lon="4.73107">
        <ele>244.1</ele>
        <time>2018-09-02T06:18:33Z</time>
      </trkpt>
      <trkpt lat="45.73856" lon="4.73121">
        <ele>243.2</ele>
        <time>2018-09-02T06:18:35Z</time>
      </trkpt>
      <trkpt lat="45.73853" lon="4.73134">
        <ele>242.5</ele>
        <time>2018-09-02T06:18:37Z</time>
      </trkpt>
      <trkpt lat="45.7385" lon="4.7314">
        <ele>242.1</ele>
        <time>2018-09-02T06:18:38Z</time>
      </trkpt>
      <trkpt lat="45.73848" lon="4.73146">
        <ele>241.7</ele>
        <time>2018-09-02T06:18:39Z</time>
      </trkpt>
      <trkpt lat="45.73846" lon="4.7315">
        <ele>241.6</ele>
        <time>2018-09-02T06:18:40Z</time>
      </trkpt>
      <trkpt lat="45.7384" lon="4.73153">
        <ele>241.3</ele>
        <time>2018-09-02T06:18:42Z</time>
      </trkpt>
      <trkpt lat="45.73835" lon="4.73153">
        <ele>241</ele>
        <time>2018-09-02T06:18:44Z</time>
      </trkpt>
      <trkpt lat="45.73833" lon="4.73154">
        <ele>240.9</ele>
        <time>2018-09-02T06:18:45Z</time>
      </trkpt>
      <trkpt lat="45.73831" lon="4.73155">
        <ele>240.7</ele>
        <time>2018-09-02T06:18:46Z</time>
      </trkpt>
      <trkpt lat="45.7383" lon="4.73157">
        <ele>240.5</ele>
        <time>2018-09-02T06:18:47Z</time>
      </trkpt>
      <trkpt lat="45.73829" lon="4.73159">
        <ele>240.2</ele>
        <time>2018-09-02T06:18:48Z</time>
      </trkpt>
      <trkpt lat="45.73828" lon="4.73168">
        <ele>239.3</ele>
        <time>2018-09-02T06:18:51Z</time>
      </trkpt>
      <trkpt lat="45.73828" lon="4.73172">
        <ele>239.2</ele>
        <time>2018-09-02T06:18:52Z</time>
      </trkpt>
      <trkpt lat="45.73836" lon="4.73183">
        <ele>238.4</ele>
        <time>2018-09-02T06:18:55Z</time>
      </trkpt>
      <trkpt lat="45.7384" lon="4.73186">
        <ele>238.1</ele>
        <time>2018-09-02T06:18:56Z</time>
      </trkpt>
      <trkpt lat="45.73847" lon="4.73191">
        <ele>238.3</ele>
        <time>2018-09-02T06:18:58Z</time>
      </trkpt>
      <trkpt lat="45.73851" lon="4.73192">
        <ele>238.4</ele>
        <time>2018-09-02T06:18:59Z</time>
      </trkpt>
      <trkpt lat="45.73857" lon="4.73193">
        <ele>238.6</ele>
        <time>2018-09-02T06:19:00Z</time>
      </trkpt>
      <trkpt lat="45.73868" lon="4.73192">
        <ele>238.9</ele>
        <time>2018-09-02T06:19:02Z</time>
      </trkpt>
      <trkpt lat="45.7388" lon="4.73194">
        <ele>239.2</ele>
        <time>2018-09-02T06:19:05Z</time>
      </trkpt>
      <trkpt lat="45.73883" lon="4.73198">
        <ele>239.2</ele>
        <time>2018-09-02T06:19:08Z</time>
      </trkpt>
      <trkpt lat="45.73883" lon="4.732">
        <ele>239.2</ele>
        <time>2018-09-02T06:20:02Z</time>
      </trkpt>
      <trkpt lat="45.73882" lon="4.73203">
        <ele>239.2</ele>
        <time>2018-09-02T06:20:04Z</time>
      </trkpt>
      <trkpt lat="45.73881" lon="4.73208">
        <ele>239.1</ele>
        <time>2018-09-02T06:20:06Z</time>
      </trkpt>
      <trkpt lat="45.73881" lon="4.73211">
        <ele>239.1</ele>
        <time>2018-09-02T06:20:07Z</time>
      </trkpt>
      <trkpt lat="45.73879" lon="4.73217">
        <ele>239.1</ele>
        <time>2018-09-02T06:20:09Z</time>
      </trkpt>
      <trkpt lat="45.73874" lon="4.73224">
        <ele>239</ele>
        <time>2018-09-02T06:20:12Z</time>
      </trkpt>
      <trkpt lat="45.7387" lon="4.7323">
        <ele>239.4</ele>
        <time>2018-09-02T06:20:14Z</time>
      </trkpt>
      <trkpt lat="45.73868" lon="4.73233">
        <ele>239.8</ele>
        <time>2018-09-02T06:20:15Z</time>
      </trkpt>
      <trkpt lat="45.73865" lon="4.73236">
        <ele>240.4</ele>
        <time>2018-09-02T06:20:16Z</time>
      </trkpt>
      <trkpt lat="45.73861" lon="4.73242">
        <ele>240.5</ele>
        <time>2018-09-02T06:20:18Z</time>
      </trkpt>
      <trkpt lat="45.73855" lon="4.73247">
        <ele>240.9</ele>
        <time>2018-09-02T06:20:20Z</time>
      </trkpt>
      <trkpt lat="45.7385" lon="4.73247">
        <ele>241.7</ele>
        <time>2018-09-02T06:20:22Z</time>
      </trkpt>
      <trkpt lat="45.73847" lon="4.73247">
        <ele>242.6</ele>
        <time>2018-09-02T06:20:23Z</time>
      </trkpt>
      <trkpt lat="45.73844" lon="4.73245">
        <ele>243.5</ele>
        <time>2018-09-02T06:20:24Z</time>
      </trkpt>
      <trkpt lat="45.73828" lon="4.73237">
        <ele>245.5</ele>
        <time>2018-09-02T06:20:30Z</time>
      </trkpt>
      <trkpt lat="45.73822" lon="4.73226">
        <ele>245.8</ele>
        <time>2018-09-02T06:20:33Z</time>
      </trkpt>
      <trkpt lat="45.73817" lon="4.73221">
        <ele>245.9</ele>
        <time>2018-09-02T06:20:35Z</time>
      </trkpt>
      <trkpt lat="45.7381" lon="4.73212">
        <ele>246</ele>
        <time>2018-09-02T06:20:38Z</time>
      </trkpt>
      <trkpt lat="45.73808" lon="4.73204">
        <ele>246</ele>
        <time>2018-09-02T06:20:40Z</time>
      </trkpt>
      <trkpt lat="45.73805" lon="4.73194">
        <ele>246</ele>
        <time>2018-09-02T06:20:42Z</time>
      </trkpt>
      <trkpt lat="45.73801" lon="4.73177">
        <ele>245.7</ele>
        <time>2018-09-02T06:20:45Z</time>
      </trkpt>
      <trkpt lat="45.738" lon="4.73171">
        <ele>245.6</ele>
        <time>2018-09-02T06:20:46Z</time>
      </trkpt>
      <trkpt lat="45.738" lon="4.73158">
        <ele>245.4</ele>
        <time>2018-09-02T06:20:48Z</time>
      </trkpt>
      <trkpt lat="45.73801" lon="4.73145">
        <ele>245.2</ele>
        <time>2018-09-02T06:20:50Z</time>
      </trkpt>
      <trkpt lat="45.738" lon="4.73132">
        <ele>245.1</ele>
        <time>2018-09-02T06:20:52Z</time>
      </trkpt>
      <trkpt lat="45.738" lon="4.73119">
        <ele>244.9</ele>
        <time>2018-09-02T06:20:54Z</time>
      </trkpt>
      <trkpt lat="45.738" lon="4.73105">
        <ele>244.8</ele>
        <time>2018-09-02T06:20:56Z</time>
      </trkpt>
      <trkpt lat="45.738" lon="4.73099">
        <ele>244.7</ele>
        <time>2018-09-02T06:20:57Z</time>
      </trkpt>
      <trkpt lat="45.738" lon="4.7308">
        <ele>244.5</ele>
        <time>2018-09-02T06:21:00Z</time>
      </trkpt>
      <trkpt lat="45.73799" lon="4.73054">
        <ele>244.1</ele>
        <time>2018-09-02T06:21:04Z</time>
      </trkpt>
      <trkpt lat="45.73798" lon="4.73034">
        <ele>243.8</ele>
        <time>2018-09-02T06:21:07Z</time>
      </trkpt>
      <trkpt lat="45.73798" lon="4.72997">
        <ele>243.3</ele>
        <time>2018-09-02T06:21:13Z</time>
      </trkpt>
      <trkpt lat="45.738" lon="4.72927">
        <ele>242.2</ele>
        <time>2018-09-02T06:21:24Z</time>
      </trkpt>
      <trkpt lat="45.73803" lon="4.72908">
        <ele>241.8</ele>
        <time>2018-09-02T06:21:27Z</time>
      </trkpt>
      <trkpt lat="45.73808" lon="4.72885">
        <ele>241.3</ele>
        <time>2018-09-02T06:21:31Z</time>
      </trkpt>
      <trkpt lat="45.73809" lon="4.72878">
        <ele>241.2</ele>
        <time>2018-09-02T06:21:32Z</time>
      </trkpt>
      <trkpt lat="45.73807" lon="4.72861">
        <ele>240.8</ele>
        <time>2018-09-02T06:21:35Z</time>
      </trkpt>
      <trkpt lat="45.7381" lon="4.72837">
        <ele>240.2</ele>
        <time>2018-09-02T06:21:39Z</time>
      </trkpt>
      <trkpt lat="45.73811" lon="4.72831">
        <ele>240.1</ele>
        <time>2018-09-02T06:21:40Z</time>
      </trkpt>
      <trkpt lat="45.73809" lon="4.728">
        <ele>239.3</ele>
        <time>2018-09-02T06:21:45Z</time>
      </trkpt>
      <trkpt lat="45.73806" lon="4.72778">
        <ele>238.9</ele>
        <time>2018-09-02T06:21:48Z</time>
      </trkpt>
      <trkpt lat="45.73802" lon="4.72765">
        <ele>238.7</ele>
        <time>2018-09-02T06:21:50Z</time>
      </trkpt>
      <trkpt lat="45.738" lon="4.72754">
        <ele>238.6</ele>
        <time>2018-09-02T06:21:53Z</time>
      </trkpt>
      <trkpt lat="45.73801" lon="4.72749">
        <ele>238.6</ele>
        <time>2018-09-02T06:21:57Z</time>
      </trkpt>
      <trkpt lat="45.73804" lon="4.72747">
        <ele>238.6</ele>
        <time>2018-09-02T06:21:59Z</time>
      </trkpt>
      <trkpt lat="45.73813" lon="4.72744">
        <ele>238.7</ele>
        <time>2018-09-02T06:22:04Z</time>
      </trkpt>
      <trkpt lat="45.73811" lon="4.72743">
        <ele>238.8</ele>
        <time>2018-09-02T06:22:06Z</time>
      </trkpt>
      <trkpt lat="45.73808" lon="4.72743">
        <ele>238.8</ele>
        <time>2018-09-02T06:22:07Z</time>
      </trkpt>
      <trkpt lat="45.73804" lon="4.72744">
        <ele>239</ele>
        <time>2018-09-02T06:22:08Z</time>
      </trkpt>
      <trkpt lat="45.7379" lon="4.72751">
        <ele>239</ele>
        <time>2018-09-02T06:22:11Z</time>
      </trkpt>
      <trkpt lat="45.73778" lon="4.72759">
        <ele>239.2</ele>
        <time>2018-09-02T06:22:15Z</time>
      </trkpt>
      <trkpt lat="45.73773" lon="4.72747">
        <ele>239.4</ele>
        <time>2018-09-02T06:22:30Z</time>
      </trkpt>
      <trkpt lat="45.73774" lon="4.72744">
        <ele>239.5</ele>
        <time>2018-09-02T06:22:31Z</time>
      </trkpt>
      <trkpt lat="45.73775" lon="4.72741">
        <ele>239.5</ele>
        <time>2018-09-02T06:22:32Z</time>
      </trkpt>
      <trkpt lat="45.73771" lon="4.72717">
        <ele>239.8</ele>
        <time>2018-09-02T06:22:46Z</time>
      </trkpt>
      <trkpt lat="45.7377" lon="4.72707">
        <ele>239.9</ele>
        <time>2018-09-02T06:22:49Z</time>
      </trkpt>
      <trkpt lat="45.73768" lon="4.72698">
        <ele>240.1</ele>
        <time>2018-09-02T06:22:52Z</time>
      </trkpt>
      <trkpt lat="45.73765" lon="4.72677">
        <ele>240.3</ele>
        <time>2018-09-02T06:22:56Z</time>
      </trkpt>
      <trkpt lat="45.73761" lon="4.7265">
        <ele>240.9</ele>
        <time>2018-09-02T06:23:02Z</time>
      </trkpt>
      <trkpt lat="45.73763" lon="4.7263">
        <ele>241.8</ele>
        <time>2018-09-02T06:23:07Z</time>
      </trkpt>
      <trkpt lat="45.73764" lon="4.72627">
        <ele>241.9</ele>
        <time>2018-09-02T06:23:08Z</time>
      </trkpt>
      <trkpt lat="45.73763" lon="4.72615">
        <ele>242.3</ele>
        <time>2018-09-02T06:23:12Z</time>
      </trkpt>
      <trkpt lat="45.7376" lon="4.7259">
        <ele>243.7</ele>
        <time>2018-09-02T06:23:19Z</time>
      </trkpt>
      <trkpt lat="45.73758" lon="4.72556">
        <ele>245</ele>
        <time>2018-09-02T06:23:26Z</time>
      </trkpt>
      <trkpt lat="45.73761" lon="4.72521">
        <ele>246.2</ele>
        <time>2018-09-02T06:23:32Z</time>
      </trkpt>
      <trkpt lat="45.73762" lon="4.72495">
        <ele>246.4</ele>
        <time>2018-09-02T06:23:37Z</time>
      </trkpt>
      <trkpt lat="45.73762" lon="4.72489">
        <ele>246.3</ele>
        <time>2018-09-02T06:23:38Z</time>
      </trkpt>
      <trkpt lat="45.73764" lon="4.72453">
        <ele>245.7</ele>
        <time>2018-09-02T06:23:44Z</time>
      </trkpt>
      <trkpt lat="45.73758" lon="4.7243">
        <ele>245.5</ele>
        <time>2018-09-02T06:23:49Z</time>
      </trkpt>
      <trkpt lat="45.73742" lon="4.72411">
        <ele>245.4</ele>
        <time>2018-09-02T06:23:54Z</time>
      </trkpt>
      <trkpt lat="45.73731" lon="4.7239">
        <ele>245.2</ele>
        <time>2018-09-02T06:23:59Z</time>
      </trkpt>
      <trkpt lat="45.73725" lon="4.72361">
        <ele>244.4</ele>
        <time>2018-09-02T06:24:04Z</time>
      </trkpt>
      <trkpt lat="45.73716" lon="4.72335">
        <ele>243.6</ele>
        <time>2018-09-02T06:24:09Z</time>
      </trkpt>
      <trkpt lat="45.73714" lon="4.72308">
        <ele>243</ele>
        <time>2018-09-02T06:24:14Z</time>
      </trkpt>
      <trkpt lat="45.73717" lon="4.72289">
        <ele>243</ele>
        <time>2018-09-02T06:24:18Z</time>
      </trkpt>
      <trkpt lat="45.73718" lon="4.72276">
        <ele>243.7</ele>
        <time>2018-09-02T06:24:23Z</time>
      </trkpt>
      <trkpt lat="45.73718" lon="4.72272">
        <ele>243.9</ele>
        <time>2018-09-02T06:24:24Z</time>
      </trkpt>
      <trkpt lat="45.73723" lon="4.72259">
        <ele>245.4</ele>
        <time>2018-09-02T06:24:28Z</time>
      </trkpt>
      <trkpt lat="45.7373" lon="4.7225">
        <ele>246.9</ele>
        <time>2018-09-02T06:24:31Z</time>
      </trkpt>
      <trkpt lat="45.73732" lon="4.72246">
        <ele>247.6</ele>
        <time>2018-09-02T06:24:33Z</time>
      </trkpt>
      <trkpt lat="45.73731" lon="4.72242">
        <ele>247.9</ele>
        <time>2018-09-02T06:24:35Z</time>
      </trkpt>
      <trkpt lat="45.73729" lon="4.72238">
        <ele>248.2</ele>
        <time>2018-09-02T06:24:37Z</time>
      </trkpt>
      <trkpt lat="45.73727" lon="4.72237">
        <ele>248.3</ele>
        <time>2018-09-02T06:24:38Z</time>
      </trkpt>
      <trkpt lat="45.73717" lon="4.72236">
        <ele>247.9</ele>
        <time>2018-09-02T06:24:42Z</time>
      </trkpt>
      <trkpt lat="45.73713" lon="4.72236">
        <ele>247.5</ele>
        <time>2018-09-02T06:24:43Z</time>
      </trkpt>
      <trkpt lat="45.73704" lon="4.72241">
        <ele>246.7</ele>
        <time>2018-09-02T06:24:47Z</time>
      </trkpt>
      <trkpt lat="45.73694" lon="4.72247">
        <ele>246.3</ele>
        <time>2018-09-02T06:24:52Z</time>
      </trkpt>
      <trkpt lat="45.73689" lon="4.72249">
        <ele>246.4</ele>
        <time>2018-09-02T06:24:54Z</time>
      </trkpt>
      <trkpt lat="45.73682" lon="4.72252">
        <ele>246.3</ele>
        <time>2018-09-02T06:24:57Z</time>
      </trkpt>
      <trkpt lat="45.73677" lon="4.72253">
        <ele>246.3</ele>
        <time>2018-09-02T06:24:59Z</time>
      </trkpt>
      <trkpt lat="45.73672" lon="4.72253">
        <ele>246.3</ele>
        <time>2018-09-02T06:25:01Z</time>
      </trkpt>
      <trkpt lat="45.73657" lon="4.72253">
        <ele>246.5</ele>
        <time>2018-09-02T06:25:05Z</time>
      </trkpt>
      <trkpt lat="45.73645" lon="4.72251">
        <ele>247.2</ele>
        <time>2018-09-02T06:25:08Z</time>
      </trkpt>
      <trkpt lat="45.73638" lon="4.7225">
        <ele>247.8</ele>
        <time>2018-09-02T06:25:10Z</time>
      </trkpt>
      <trkpt lat="45.73635" lon="4.72249">
        <ele>248.1</ele>
        <time>2018-09-02T06:25:11Z</time>
      </trkpt>
      <trkpt lat="45.73629" lon="4.72246">
        <ele>248.8</ele>
        <time>2018-09-02T06:25:13Z</time>
      </trkpt>
      <trkpt lat="45.73621" lon="4.72241">
        <ele>249.9</ele>
        <time>2018-09-02T06:25:16Z</time>
      </trkpt>
      <trkpt lat="45.73619" lon="4.7224">
        <ele>250.2</ele>
        <time>2018-09-02T06:25:17Z</time>
      </trkpt>
      <trkpt lat="45.73605" lon="4.72227">
        <ele>252.1</ele>
        <time>2018-09-02T06:25:26Z</time>
      </trkpt>
      <trkpt lat="45.73599" lon="4.72216">
        <ele>251.9</ele>
        <time>2018-09-02T06:25:32Z</time>
      </trkpt>
      <trkpt lat="45.73596" lon="4.72213">
        <ele>252.1</ele>
        <time>2018-09-02T06:25:34Z</time>
      </trkpt>
      <trkpt lat="45.7359" lon="4.7221">
        <ele>252.7</ele>
        <time>2018-09-02T06:25:38Z</time>
      </trkpt>
      <trkpt lat="45.73585" lon="4.72208">
        <ele>253.2</ele>
        <time>2018-09-02T06:25:40Z</time>
      </trkpt>
      <trkpt lat="45.7358" lon="4.72203">
        <ele>253.8</ele>
        <time>2018-09-02T06:25:42Z</time>
      </trkpt>
      <trkpt lat="45.73575" lon="4.72195">
        <ele>254.5</ele>
        <time>2018-09-02T06:25:45Z</time>
      </trkpt>
      <trkpt lat="45.73572" lon="4.72189">
        <ele>254.8</ele>
        <time>2018-09-02T06:25:47Z</time>
      </trkpt>
      <trkpt lat="45.73568" lon="4.72175">
        <ele>255.2</ele>
        <time>2018-09-02T06:25:50Z</time>
      </trkpt>
      <trkpt lat="45.73566" lon="4.72166">
        <ele>255.8</ele>
        <time>2018-09-02T06:25:52Z</time>
      </trkpt>
      <trkpt lat="45.73565" lon="4.72152">
        <ele>256.4</ele>
        <time>2018-09-02T06:25:55Z</time>
      </trkpt>
      <trkpt lat="45.73564" lon="4.72136">
        <ele>257.5</ele>
        <time>2018-09-02T06:25:58Z</time>
      </trkpt>
      <trkpt lat="45.73558" lon="4.72096">
        <ele>260.3</ele>
        <time>2018-09-02T06:26:05Z</time>
      </trkpt>
      <trkpt lat="45.73554" lon="4.72079">
        <ele>261.4</ele>
        <time>2018-09-02T06:26:09Z</time>
      </trkpt>
      <trkpt lat="45.73549" lon="4.72055">
        <ele>263.5</ele>
        <time>2018-09-02T06:26:15Z</time>
      </trkpt>
      <trkpt lat="45.73547" lon="4.72041">
        <ele>264</ele>
        <time>2018-09-02T06:26:19Z</time>
      </trkpt>
      <trkpt lat="45.73549" lon="4.72038">
        <ele>264</ele>
        <time>2018-09-02T06:26:20Z</time>
      </trkpt>
      <trkpt lat="45.73563" lon="4.72029">
        <ele>264</ele>
        <time>2018-09-02T06:26:25Z</time>
      </trkpt>
      <trkpt lat="45.73566" lon="4.72026">
        <ele>263.3</ele>
        <time>2018-09-02T06:26:26Z</time>
      </trkpt>
      <trkpt lat="45.73569" lon="4.72022">
        <ele>262.9</ele>
        <time>2018-09-02T06:26:27Z</time>
      </trkpt>
      <trkpt lat="45.73575" lon="4.72009">
        <ele>262</ele>
        <time>2018-09-02T06:26:30Z</time>
      </trkpt>
      <trkpt lat="45.73575" lon="4.71981">
        <ele>260.5</ele>
        <time>2018-09-02T06:26:35Z</time>
      </trkpt>
      <trkpt lat="45.73577" lon="4.71938">
        <ele>257.4</ele>
        <time>2018-09-02T06:26:42Z</time>
      </trkpt>
      <trkpt lat="45.73588" lon="4.71904">
        <ele>254.2</ele>
        <time>2018-09-02T06:26:48Z</time>
      </trkpt>
      <trkpt lat="45.73602" lon="4.71875">
        <ele>251.5</ele>
        <time>2018-09-02T06:26:54Z</time>
      </trkpt>
      <trkpt lat="45.73611" lon="4.71853">
        <ele>251.4</ele>
        <time>2018-09-02T06:26:59Z</time>
      </trkpt>
      <trkpt lat="45.73619" lon="4.71836">
        <ele>252.4</ele>
        <time>2018-09-02T06:27:03Z</time>
      </trkpt>
      <trkpt lat="45.73626" lon="4.71828">
        <ele>252.8</ele>
        <time>2018-09-02T06:27:07Z</time>
      </trkpt>
      <trkpt lat="45.73628" lon="4.7182">
        <ele>253.1</ele>
        <time>2018-09-02T06:27:12Z</time>
      </trkpt>
      <trkpt lat="45.73629" lon="4.71818">
        <ele>253.2</ele>
        <time>2018-09-02T06:27:13Z</time>
      </trkpt>
      <trkpt lat="45.73631" lon="4.718">
        <ele>253.7</ele>
        <time>2018-09-02T06:27:18Z</time>
      </trkpt>
      <trkpt lat="45.73631" lon="4.71797">
        <ele>253.8</ele>
        <time>2018-09-02T06:27:19Z</time>
      </trkpt>
      <trkpt lat="45.73634" lon="4.71778">
        <ele>254.2</ele>
        <time>2018-09-02T06:27:23Z</time>
      </trkpt>
      <trkpt lat="45.73633" lon="4.7177">
        <ele>254.3</ele>
        <time>2018-09-02T06:27:25Z</time>
      </trkpt>
      <trkpt lat="45.73631" lon="4.71765">
        <ele>254.4</ele>
        <time>2018-09-02T06:27:26Z</time>
      </trkpt>
      <trkpt lat="45.73627" lon="4.71759">
        <ele>254.7</ele>
        <time>2018-09-02T06:27:27Z</time>
      </trkpt>
      <trkpt lat="45.73619" lon="4.71735">
        <ele>256.1</ele>
        <time>2018-09-02T06:27:31Z</time>
      </trkpt>
      <trkpt lat="45.73619" lon="4.71725">
        <ele>256.8</ele>
        <time>2018-09-02T06:27:33Z</time>
      </trkpt>
      <trkpt lat="45.73619" lon="4.71709">
        <ele>257.7</ele>
        <time>2018-09-02T06:27:36Z</time>
      </trkpt>
      <trkpt lat="45.73624" lon="4.71677">
        <ele>258.5</ele>
        <time>2018-09-02T06:27:42Z</time>
      </trkpt>
      <trkpt lat="45.73632" lon="4.71639">
        <ele>259.7</ele>
        <time>2018-09-02T06:27:49Z</time>
      </trkpt>
      <trkpt lat="45.73645" lon="4.71613">
        <ele>256.8</ele>
        <time>2018-09-02T06:27:55Z</time>
      </trkpt>
      <trkpt lat="45.73653" lon="4.71608">
        <ele>254.8</ele>
        <time>2018-09-02T06:27:57Z</time>
      </trkpt>
      <trkpt lat="45.73657" lon="4.71607">
        <ele>253.9</ele>
        <time>2018-09-02T06:27:58Z</time>
      </trkpt>
      <trkpt lat="45.73664" lon="4.71599">
        <ele>252.1</ele>
        <time>2018-09-02T06:28:00Z</time>
      </trkpt>
      <trkpt lat="45.73686" lon="4.71577">
        <ele>246.7</ele>
        <time>2018-09-02T06:28:07Z</time>
      </trkpt>
      <trkpt lat="45.7369" lon="4.71576">
        <ele>246.1</ele>
        <time>2018-09-02T06:28:08Z</time>
      </trkpt>
      <trkpt lat="45.73706" lon="4.71571">
        <ele>246.2</ele>
        <time>2018-09-02T06:28:13Z</time>
      </trkpt>
      <trkpt lat="45.73709" lon="4.7157">
        <ele>246.2</ele>
        <time>2018-09-02T06:28:14Z</time>
      </trkpt>
      <trkpt lat="45.73715" lon="4.71571">
        <ele>246.3</ele>
        <time>2018-09-02T06:28:16Z</time>
      </trkpt>
      <trkpt lat="45.7372" lon="4.71571">
        <ele>246.6</ele>
        <time>2018-09-02T06:28:18Z</time>
      </trkpt>
      <trkpt lat="45.73726" lon="4.71571">
        <ele>246.9</ele>
        <time>2018-09-02T06:28:20Z</time>
      </trkpt>
      <trkpt lat="45.73729" lon="4.71571">
        <ele>247</ele>
        <time>2018-09-02T06:28:21Z</time>
      </trkpt>
      <trkpt lat="45.73734" lon="4.71577">
        <ele>246.9</ele>
        <time>2018-09-02T06:28:24Z</time>
      </trkpt>
      <trkpt lat="45.73736" lon="4.7158">
        <ele>247</ele>
        <time>2018-09-02T06:28:25Z</time>
      </trkpt>
      <trkpt lat="45.73745" lon="4.71584">
        <ele>247.5</ele>
        <time>2018-09-02T06:28:29Z</time>
      </trkpt>
      <trkpt lat="45.73748" lon="4.71585">
        <ele>247.7</ele>
        <time>2018-09-02T06:28:30Z</time>
      </trkpt>
      <trkpt lat="45.73752" lon="4.71587">
        <ele>247.9</ele>
        <time>2018-09-02T06:28:32Z</time>
      </trkpt>
      <trkpt lat="45.73759" lon="4.71594">
        <ele>248.5</ele>
        <time>2018-09-02T06:28:37Z</time>
      </trkpt>
      <trkpt lat="45.7376" lon="4.71596">
        <ele>248.6</ele>
        <time>2018-09-02T06:28:38Z</time>
      </trkpt>
      <trkpt lat="45.73764" lon="4.71599">
        <ele>248.8</ele>
        <time>2018-09-02T06:28:41Z</time>
      </trkpt>
      <trkpt lat="45.73766" lon="4.716">
        <ele>248.9</ele>
        <time>2018-09-02T06:28:43Z</time>
      </trkpt>
      <trkpt lat="45.73769" lon="4.71596">
        <ele>249.2</ele>
        <time>2018-09-02T06:28:49Z</time>
      </trkpt>
      <trkpt lat="45.73768" lon="4.71594">
        <ele>250.8</ele>
        <time>2018-09-02T06:28:50Z</time>
      </trkpt>
      <trkpt lat="45.73767" lon="4.71587">
        <ele>251</ele>
        <time>2018-09-02T06:28:52Z</time>
      </trkpt>
      <trkpt lat="45.73762" lon="4.71573">
        <ele>251.5</ele>
        <time>2018-09-02T06:28:55Z</time>
      </trkpt>
      <trkpt lat="45.7376" lon="4.71568">
        <ele>251.6</ele>
        <time>2018-09-02T06:28:56Z</time>
      </trkpt>
      <trkpt lat="45.73749" lon="4.7155">
        <ele>252</ele>
        <time>2018-09-02T06:29:00Z</time>
      </trkpt>
      <trkpt lat="45.73744" lon="4.7154">
        <ele>250.8</ele>
        <time>2018-09-02T06:29:02Z</time>
      </trkpt>
      <trkpt lat="45.73742" lon="4.71531">
        <ele>249.8</ele>
        <time>2018-09-02T06:29:04Z</time>
      </trkpt>
      <trkpt lat="45.73743" lon="4.71523">
        <ele>249</ele>
        <time>2018-09-02T06:29:06Z</time>
      </trkpt>
      <trkpt lat="45.73744" lon="4.71515">
        <ele>248.2</ele>
        <time>2018-09-02T06:29:08Z</time>
      </trkpt>
      <trkpt lat="45.73744" lon="4.71508">
        <ele>247.5</ele>
        <time>2018-09-02T06:29:10Z</time>
      </trkpt>
      <trkpt lat="45.73743" lon="4.71507">
        <ele>247.2</ele>
        <time>2018-09-02T06:29:11Z</time>
      </trkpt>
      <trkpt lat="45.73741" lon="4.71508">
        <ele>247.2</ele>
        <time>2018-09-02T06:29:12Z</time>
      </trkpt>
      <trkpt lat="45.73741" lon="4.71517">
        <ele>248.7</ele>
        <time>2018-09-02T06:29:15Z</time>
      </trkpt>
      <trkpt lat="45.73752" lon="4.71524">
        <ele>251.2</ele>
        <time>2018-09-02T06:29:19Z</time>
      </trkpt>
      <trkpt lat="45.73767" lon="4.71515">
        <ele>252</ele>
        <time>2018-09-02T06:29:24Z</time>
      </trkpt>
      <trkpt lat="45.73768" lon="4.71498">
        <ele>258.9</ele>
        <time>2018-09-02T06:29:28Z</time>
      </trkpt>
      <trkpt lat="45.73766" lon="4.71491">
        <ele>259</ele>
        <time>2018-09-02T06:29:30Z</time>
      </trkpt>
      <trkpt lat="45.73762" lon="4.71479">
        <ele>259.2</ele>
        <time>2018-09-02T06:29:34Z</time>
      </trkpt>
      <trkpt lat="45.73753" lon="4.7146">
        <ele>259.2</ele>
        <time>2018-09-02T06:29:40Z</time>
      </trkpt>
      <trkpt lat="45.73743" lon="4.71442">
        <ele>258.6</ele>
        <time>2018-09-02T06:29:47Z</time>
      </trkpt>
      <trkpt lat="45.73741" lon="4.71439">
        <ele>258.6</ele>
        <time>2018-09-02T06:29:48Z</time>
      </trkpt>
      <trkpt lat="45.73737" lon="4.71429">
        <ele>258.3</ele>
        <time>2018-09-02T06:29:52Z</time>
      </trkpt>
      <trkpt lat="45.7373" lon="4.71412">
        <ele>258.3</ele>
        <time>2018-09-02T06:29:58Z</time>
      </trkpt>
      <trkpt lat="45.73726" lon="4.71399">
        <ele>258.3</ele>
        <time>2018-09-02T06:30:02Z</time>
      </trkpt>
      <trkpt lat="45.73722" lon="4.71387">
        <ele>258.2</ele>
        <time>2018-09-02T06:30:06Z</time>
      </trkpt>
      <trkpt lat="45.73721" lon="4.71383">
        <ele>258.1</ele>
        <time>2018-09-02T06:30:07Z</time>
      </trkpt>
      <trkpt lat="45.73716" lon="4.71371">
        <ele>257.7</ele>
        <time>2018-09-02T06:30:11Z</time>
      </trkpt>
      <trkpt lat="45.73712" lon="4.71343">
        <ele>256.5</ele>
        <time>2018-09-02T06:30:19Z</time>
      </trkpt>
      <trkpt lat="45.73706" lon="4.71306">
        <ele>254.4</ele>
        <time>2018-09-02T06:30:29Z</time>
      </trkpt>
      <trkpt lat="45.73704" lon="4.71277">
        <ele>252.6</ele>
        <time>2018-09-02T06:30:34Z</time>
      </trkpt>
      <trkpt lat="45.73704" lon="4.71239">
        <ele>250.9</ele>
        <time>2018-09-02T06:30:39Z</time>
      </trkpt>
      <trkpt lat="45.73706" lon="4.71224">
        <ele>251</ele>
        <time>2018-09-02T06:30:41Z</time>
      </trkpt>
      <trkpt lat="45.73707" lon="4.71211">
        <ele>250.8</ele>
        <time>2018-09-02T06:30:43Z</time>
      </trkpt>
      <trkpt lat="45.73709" lon="4.71182">
        <ele>250.3</ele>
        <time>2018-09-02T06:30:47Z</time>
      </trkpt>
      <trkpt lat="45.73711" lon="4.71173">
        <ele>250.2</ele>
        <time>2018-09-02T06:30:48Z</time>
      </trkpt>
      <trkpt lat="45.73714" lon="4.71154">
        <ele>249.9</ele>
        <time>2018-09-02T06:30:50Z</time>
      </trkpt>
      <trkpt lat="45.73722" lon="4.71118">
        <ele>250.6</ele>
        <time>2018-09-02T06:30:54Z</time>
      </trkpt>
      <trkpt lat="45.73723" lon="4.7111">
        <ele>250.9</ele>
        <time>2018-09-02T06:30:55Z</time>
      </trkpt>
      <trkpt lat="45.73724" lon="4.71096">
        <ele>251.3</ele>
        <time>2018-09-02T06:30:57Z</time>
      </trkpt>
      <trkpt lat="45.73723" lon="4.71087">
        <ele>251.6</ele>
        <time>2018-09-02T06:30:59Z</time>
      </trkpt>
      <trkpt lat="45.73723" lon="4.71069">
        <ele>252.3</ele>
        <time>2018-09-02T06:31:04Z</time>
      </trkpt>
      <trkpt lat="45.73725" lon="4.71063">
        <ele>252.6</ele>
        <time>2018-09-02T06:31:07Z</time>
      </trkpt>
      <trkpt lat="45.73726" lon="4.7106">
        <ele>252.9</ele>
        <time>2018-09-02T06:31:09Z</time>
      </trkpt>
      <trkpt lat="45.73727" lon="4.71057">
        <ele>253.2</ele>
        <time>2018-09-02T06:31:11Z</time>
      </trkpt>
      <trkpt lat="45.73729" lon="4.71055">
        <ele>253.5</ele>
        <time>2018-09-02T06:31:13Z</time>
      </trkpt>
      <trkpt lat="45.7374" lon="4.71044">
        <ele>255.5</ele>
        <time>2018-09-02T06:32:06Z</time>
      </trkpt>
      <trkpt lat="45.73741" lon="4.71044">
        <ele>255.9</ele>
        <time>2018-09-02T06:32:07Z</time>
      </trkpt>
      <trkpt lat="45.73744" lon="4.71043">
        <ele>256.3</ele>
        <time>2018-09-02T06:32:09Z</time>
      </trkpt>
      <trkpt lat="45.73749" lon="4.71041">
        <ele>257.1</ele>
        <time>2018-09-02T06:32:12Z</time>
      </trkpt>
      <trkpt lat="45.73753" lon="4.7104">
        <ele>257.8</ele>
        <time>2018-09-02T06:32:15Z</time>
      </trkpt>
      <trkpt lat="45.73754" lon="4.7104">
        <ele>258</ele>
        <time>2018-09-02T06:32:16Z</time>
      </trkpt>
      <trkpt lat="45.73757" lon="4.71039">
        <ele>258.5</ele>
        <time>2018-09-02T06:32:18Z</time>
      </trkpt>
      <trkpt lat="45.73763" lon="4.71037">
        <ele>259.8</ele>
        <time>2018-09-02T06:32:22Z</time>
      </trkpt>
      <trkpt lat="45.73767" lon="4.71034">
        <ele>260.5</ele>
        <time>2018-09-02T06:32:25Z</time>
      </trkpt>
      <trkpt lat="45.73771" lon="4.71029">
        <ele>261.3</ele>
        <time>2018-09-02T06:32:29Z</time>
      </trkpt>
      <trkpt lat="45.73773" lon="4.71026">
        <ele>261.6</ele>
        <time>2018-09-02T06:32:31Z</time>
      </trkpt>
      <trkpt lat="45.73777" lon="4.71023">
        <ele>262.2</ele>
        <time>2018-09-02T06:32:34Z</time>
      </trkpt>
      <trkpt lat="45.73781" lon="4.71018">
        <ele>262.9</ele>
        <time>2018-09-02T06:32:37Z</time>
      </trkpt>
      <trkpt lat="45.73823" lon="4.70992">
        <ele>269.2</ele>
        <time>2018-09-02T06:33:06Z</time>
      </trkpt>
      <trkpt lat="45.73825" lon="4.7099">
        <ele>269.3</ele>
        <time>2018-09-02T06:33:08Z</time>
      </trkpt>
      <trkpt lat="45.73831" lon="4.70984">
        <ele>270</ele>
        <time>2018-09-02T06:33:13Z</time>
      </trkpt>
      <trkpt lat="45.73836" lon="4.70978">
        <ele>270.8</ele>
        <time>2018-09-02T06:33:17Z</time>
      </trkpt>
      <trkpt lat="45.73838" lon="4.70975">
        <ele>271.1</ele>
        <time>2018-09-02T06:33:19Z</time>
      </trkpt>
      <trkpt lat="45.7384" lon="4.70971">
        <ele>271.4</ele>
        <time>2018-09-02T06:33:21Z</time>
      </trkpt>
      <trkpt lat="45.73843" lon="4.70965">
        <ele>272</ele>
        <time>2018-09-02T06:33:25Z</time>
      </trkpt>
      <trkpt lat="45.73844" lon="4.70964">
        <ele>272.2</ele>
        <time>2018-09-02T06:33:26Z</time>
      </trkpt>
      <trkpt lat="45.73849" lon="4.70954">
        <ele>273.1</ele>
        <time>2018-09-02T06:33:31Z</time>
      </trkpt>
      <trkpt lat="45.73858" lon="4.70932">
        <ele>274.7</ele>
        <time>2018-09-02T06:33:43Z</time>
      </trkpt>
      <trkpt lat="45.73861" lon="4.70874">
        <ele>277.6</ele>
        <time>2018-09-02T06:34:09Z</time>
      </trkpt>
      <trkpt lat="45.7386" lon="4.70865">
        <ele>278.1</ele>
        <time>2018-09-02T06:34:14Z</time>
      </trkpt>
      <trkpt lat="45.73861" lon="4.70861">
        <ele>278.4</ele>
        <time>2018-09-02T06:34:16Z</time>
      </trkpt>
      <trkpt lat="45.7386" lon="4.7085">
        <ele>278.9</ele>
        <time>2018-09-02T06:34:22Z</time>
      </trkpt>
      <trkpt lat="45.73859" lon="4.70833">
        <ele>279.7</ele>
        <time>2018-09-02T06:34:29Z</time>
      </trkpt>
      <trkpt lat="45.7386" lon="4.70823">
        <ele>280.3</ele>
        <time>2018-09-02T06:34:35Z</time>
      </trkpt>
      <trkpt lat="45.7386" lon="4.70821">
        <ele>280.4</ele>
        <time>2018-09-02T06:34:36Z</time>
      </trkpt>
      <trkpt lat="45.73861" lon="4.70817">
        <ele>280.7</ele>
        <time>2018-09-02T06:34:38Z</time>
      </trkpt>
      <trkpt lat="45.73862" lon="4.70813">
        <ele>281</ele>
        <time>2018-09-02T06:34:40Z</time>
      </trkpt>
      <trkpt lat="45.73862" lon="4.70811">
        <ele>281.1</ele>
        <time>2018-09-02T06:34:41Z</time>
      </trkpt>
      <trkpt lat="45.73863" lon="4.7081">
        <ele>281.3</ele>
        <time>2018-09-02T06:34:42Z</time>
      </trkpt>
      <trkpt lat="45.73864" lon="4.70806">
        <ele>281.5</ele>
        <time>2018-09-02T06:34:44Z</time>
      </trkpt>
      <trkpt lat="45.73867" lon="4.70797">
        <ele>282</ele>
        <time>2018-09-02T06:34:47Z</time>
      </trkpt>
      <trkpt lat="45.73867" lon="4.70793">
        <ele>282.2</ele>
        <time>2018-09-02T06:34:48Z</time>
      </trkpt>
      <trkpt lat="45.73868" lon="4.7079">
        <ele>282.4</ele>
        <time>2018-09-02T06:34:49Z</time>
      </trkpt>
      <trkpt lat="45.73869" lon="4.70787">
        <ele>282.5</ele>
        <time>2018-09-02T06:34:50Z</time>
      </trkpt>
      <trkpt lat="45.73871" lon="4.70778">
        <ele>283.1</ele>
        <time>2018-09-02T06:34:53Z</time>
      </trkpt>
      <trkpt lat="45.73872" lon="4.70772">
        <ele>283.5</ele>
        <time>2018-09-02T06:34:55Z</time>
      </trkpt>
      <trkpt lat="45.73873" lon="4.70769">
        <ele>283.7</ele>
        <time>2018-09-02T06:34:56Z</time>
      </trkpt>
      <trkpt lat="45.73881" lon="4.70746">
        <ele>285.4</ele>
        <time>2018-09-02T06:35:03Z</time>
      </trkpt>
      <trkpt lat="45.73891" lon="4.70737">
        <ele>286.1</ele>
        <time>2018-09-02T06:35:09Z</time>
      </trkpt>
      <trkpt lat="45.73894" lon="4.70738">
        <ele>286.1</ele>
        <time>2018-09-02T06:35:10Z</time>
      </trkpt>
      <trkpt lat="45.73901" lon="4.70741">
        <ele>286</ele>
        <time>2018-09-02T06:35:13Z</time>
      </trkpt>
      <trkpt lat="45.73907" lon="4.70742">
        <ele>285.8</ele>
        <time>2018-09-02T06:35:15Z</time>
      </trkpt>
      <trkpt lat="45.73933" lon="4.70751">
        <ele>285.2</ele>
        <time>2018-09-02T06:35:23Z</time>
      </trkpt>
      <trkpt lat="45.73959" lon="4.70756">
        <ele>285.4</ele>
        <time>2018-09-02T06:35:31Z</time>
      </trkpt>
      <trkpt lat="45.7398" lon="4.70754">
        <ele>285.8</ele>
        <time>2018-09-02T06:35:37Z</time>
      </trkpt>
      <trkpt lat="45.74009" lon="4.70751">
        <ele>291</ele>
        <time>2018-09-02T06:35:45Z</time>
      </trkpt>
      <trkpt lat="45.7402" lon="4.70747">
        <ele>291.4</ele>
        <time>2018-09-02T06:35:48Z</time>
      </trkpt>
      <trkpt lat="45.74029" lon="4.70743">
        <ele>292</ele>
        <time>2018-09-02T06:35:51Z</time>
      </trkpt>
      <trkpt lat="45.74036" lon="4.7074">
        <ele>292.5</ele>
        <time>2018-09-02T06:35:53Z</time>
      </trkpt>
      <trkpt lat="45.74053" lon="4.70734">
        <ele>293.2</ele>
        <time>2018-09-02T06:35:58Z</time>
      </trkpt>
      <trkpt lat="45.74077" lon="4.70727">
        <ele>293.4</ele>
        <time>2018-09-02T06:36:05Z</time>
      </trkpt>
      <trkpt lat="45.74097" lon="4.7072">
        <ele>293.5</ele>
        <time>2018-09-02T06:36:11Z</time>
      </trkpt>
      <trkpt lat="45.74112" lon="4.70716">
        <ele>294</ele>
        <time>2018-09-02T06:36:16Z</time>
      </trkpt>
      <trkpt lat="45.74136" lon="4.70705">
        <ele>295.5</ele>
        <time>2018-09-02T06:36:23Z</time>
      </trkpt>
      <trkpt lat="45.74159" lon="4.70698">
        <ele>295.6</ele>
        <time>2018-09-02T06:36:30Z</time>
      </trkpt>
      <trkpt lat="45.74175" lon="4.70692">
        <ele>295.7</ele>
        <time>2018-09-02T06:36:35Z</time>
      </trkpt>
      <trkpt lat="45.74198" lon="4.70685">
        <ele>295.8</ele>
        <time>2018-09-02T06:36:42Z</time>
      </trkpt>
      <trkpt lat="45.74216" lon="4.7068">
        <ele>295.8</ele>
        <time>2018-09-02T06:36:48Z</time>
      </trkpt>
      <trkpt lat="45.74225" lon="4.70677">
        <ele>295.9</ele>
        <time>2018-09-02T06:36:51Z</time>
      </trkpt>
      <trkpt lat="45.74233" lon="4.70675">
        <ele>296.2</ele>
        <time>2018-09-02T06:36:54Z</time>
      </trkpt>
      <trkpt lat="45.74236" lon="4.70674">
        <ele>296.4</ele>
        <time>2018-09-02T06:36:55Z</time>
      </trkpt>
      <trkpt lat="45.74251" lon="4.70673">
        <ele>297.6</ele>
        <time>2018-09-02T06:37:00Z</time>
      </trkpt>
      <trkpt lat="45.74257" lon="4.70673">
        <ele>297.9</ele>
        <time>2018-09-02T06:37:02Z</time>
      </trkpt>
      <trkpt lat="45.74263" lon="4.7067">
        <ele>298</ele>
        <time>2018-09-02T06:37:05Z</time>
      </trkpt>
      <trkpt lat="45.74266" lon="4.70664">
        <ele>298.3</ele>
        <time>2018-09-02T06:37:07Z</time>
      </trkpt>
      <trkpt lat="45.74269" lon="4.70655">
        <ele>298.6</ele>
        <time>2018-09-02T06:37:09Z</time>
      </trkpt>
      <trkpt lat="45.7427" lon="4.70641">
        <ele>298.9</ele>
        <time>2018-09-02T06:37:12Z</time>
      </trkpt>
      <trkpt lat="45.74269" lon="4.70627">
        <ele>299.2</ele>
        <time>2018-09-02T06:37:15Z</time>
      </trkpt>
      <trkpt lat="45.74266" lon="4.70613">
        <ele>299.4</ele>
        <time>2018-09-02T06:37:18Z</time>
      </trkpt>
      <trkpt lat="45.74265" lon="4.70609">
        <ele>299.5</ele>
        <time>2018-09-02T06:37:19Z</time>
      </trkpt>
      <trkpt lat="45.74262" lon="4.70595">
        <ele>299.7</ele>
        <time>2018-09-02T06:37:22Z</time>
      </trkpt>
      <trkpt lat="45.74257" lon="4.70565">
        <ele>300</ele>
        <time>2018-09-02T06:37:28Z</time>
      </trkpt>
      <trkpt lat="45.74248" lon="4.7053">
        <ele>300</ele>
        <time>2018-09-02T06:37:35Z</time>
      </trkpt>
      <trkpt lat="45.74243" lon="4.70488">
        <ele>300.6</ele>
        <time>2018-09-02T06:37:43Z</time>
      </trkpt>
      <trkpt lat="45.74241" lon="4.70472">
        <ele>300.9</ele>
        <time>2018-09-02T06:37:46Z</time>
      </trkpt>
      <trkpt lat="45.74239" lon="4.70447">
        <ele>301.6</ele>
        <time>2018-09-02T06:37:51Z</time>
      </trkpt>
      <trkpt lat="45.74237" lon="4.70399">
        <ele>302.6</ele>
        <time>2018-09-02T06:38:00Z</time>
      </trkpt>
      <trkpt lat="45.74236" lon="4.70382">
        <ele>302.9</ele>
        <time>2018-09-02T06:38:03Z</time>
      </trkpt>
      <trkpt lat="45.7424" lon="4.70356">
        <ele>302.7</ele>
        <time>2018-09-02T06:38:08Z</time>
      </trkpt>
      <trkpt lat="45.74241" lon="4.7035">
        <ele>302.7</ele>
        <time>2018-09-02T06:38:09Z</time>
      </trkpt>
      <trkpt lat="45.74246" lon="4.70305">
        <ele>302.2</ele>
        <time>2018-09-02T06:38:17Z</time>
      </trkpt>
      <trkpt lat="45.74246" lon="4.70299">
        <ele>302.2</ele>
        <time>2018-09-02T06:38:18Z</time>
      </trkpt>
      <trkpt lat="45.74249" lon="4.70273">
        <ele>301.9</ele>
        <time>2018-09-02T06:38:22Z</time>
      </trkpt>
      <trkpt lat="45.74253" lon="4.70247">
        <ele>301.7</ele>
        <time>2018-09-02T06:38:26Z</time>
      </trkpt>
      <trkpt lat="45.74262" lon="4.70185">
        <ele>301.3</ele>
        <time>2018-09-02T06:38:35Z</time>
      </trkpt>
      <trkpt lat="45.74273" lon="4.70126">
        <ele>301</ele>
        <time>2018-09-02T06:38:43Z</time>
      </trkpt>
      <trkpt lat="45.7428" lon="4.70093">
        <ele>301</ele>
        <time>2018-09-02T06:38:48Z</time>
      </trkpt>
      <trkpt lat="45.74283" lon="4.70082">
        <ele>301</ele>
        <time>2018-09-02T06:38:50Z</time>
      </trkpt>
      <trkpt lat="45.74297" lon="4.70055">
        <ele>300.4</ele>
        <time>2018-09-02T06:38:56Z</time>
      </trkpt>
      <trkpt lat="45.74302" lon="4.70047">
        <ele>300.2</ele>
        <time>2018-09-02T06:38:58Z</time>
      </trkpt>
      <trkpt lat="45.74318" lon="4.70017">
        <ele>300</ele>
        <time>2018-09-02T06:39:05Z</time>
      </trkpt>
      <trkpt lat="45.7432" lon="4.70013">
        <ele>300</ele>
        <time>2018-09-02T06:39:06Z</time>
      </trkpt>
      <trkpt lat="45.74339" lon="4.69985">
        <ele>300.8</ele>
        <time>2018-09-02T06:39:14Z</time>
      </trkpt>
      <trkpt lat="45.74354" lon="4.69967">
        <ele>301.4</ele>
        <time>2018-09-02T06:39:19Z</time>
      </trkpt>
      <trkpt lat="45.74364" lon="4.69959">
        <ele>301.8</ele>
        <time>2018-09-02T06:39:22Z</time>
      </trkpt>
      <trkpt lat="45.74381" lon="4.69948">
        <ele>302.7</ele>
        <time>2018-09-02T06:39:27Z</time>
      </trkpt>
      <trkpt lat="45.74391" lon="4.69944">
        <ele>303.1</ele>
        <time>2018-09-02T06:39:30Z</time>
      </trkpt>
      <trkpt lat="45.74404" lon="4.69939">
        <ele>303.8</ele>
        <time>2018-09-02T06:39:35Z</time>
      </trkpt>
      <trkpt lat="45.74407" lon="4.69937">
        <ele>303.9</ele>
        <time>2018-09-02T06:39:37Z</time>
      </trkpt>
      <trkpt lat="45.74408" lon="4.69936">
        <ele>304.1</ele>
        <time>2018-09-02T06:39:47Z</time>
      </trkpt>
      <trkpt lat="45.74411" lon="4.69933">
        <ele>304.3</ele>
        <time>2018-09-02T06:39:49Z</time>
      </trkpt>
      <trkpt lat="45.74413" lon="4.69929">
        <ele>304.5</ele>
        <time>2018-09-02T06:39:50Z</time>
      </trkpt>
      <trkpt lat="45.74417" lon="4.69914">
        <ele>305</ele>
        <time>2018-09-02T06:39:53Z</time>
      </trkpt>
      <trkpt lat="45.74427" lon="4.69905">
        <ele>305.2</ele>
        <time>2018-09-02T06:39:56Z</time>
      </trkpt>
      <trkpt lat="45.74431" lon="4.69903">
        <ele>305.3</ele>
        <time>2018-09-02T06:39:57Z</time>
      </trkpt>
      <trkpt lat="45.74456" lon="4.69885">
        <ele>305.6</ele>
        <time>2018-09-02T06:40:04Z</time>
      </trkpt>
      <trkpt lat="45.74467" lon="4.69878">
        <ele>305.8</ele>
        <time>2018-09-02T06:40:07Z</time>
      </trkpt>
      <trkpt lat="45.74471" lon="4.69876">
        <ele>305.8</ele>
        <time>2018-09-02T06:40:08Z</time>
      </trkpt>
      <trkpt lat="45.74478" lon="4.69873">
        <ele>305.9</ele>
        <time>2018-09-02T06:40:10Z</time>
      </trkpt>
      <trkpt lat="45.74504" lon="4.69853">
        <ele>306.2</ele>
        <time>2018-09-02T06:40:17Z</time>
      </trkpt>
      <trkpt lat="45.74515" lon="4.69839">
        <ele>306.5</ele>
        <time>2018-09-02T06:40:21Z</time>
      </trkpt>
      <trkpt lat="45.74523" lon="4.69828">
        <ele>307</ele>
        <time>2018-09-02T06:40:24Z</time>
      </trkpt>
      <trkpt lat="45.74534" lon="4.69813">
        <ele>308</ele>
        <time>2018-09-02T06:40:28Z</time>
      </trkpt>
      <trkpt lat="45.74544" lon="4.69798">
        <ele>309</ele>
        <time>2018-09-02T06:40:32Z</time>
      </trkpt>
      <trkpt lat="45.74546" lon="4.69794">
        <ele>309.1</ele>
        <time>2018-09-02T06:40:33Z</time>
      </trkpt>
      <trkpt lat="45.7455" lon="4.69774">
        <ele>309.1</ele>
        <time>2018-09-02T06:40:37Z</time>
      </trkpt>
      <trkpt lat="45.74549" lon="4.69744">
        <ele>309.4</ele>
        <time>2018-09-02T06:40:42Z</time>
      </trkpt>
      <trkpt lat="45.74548" lon="4.69731">
        <ele>309.6</ele>
        <time>2018-09-02T06:40:44Z</time>
      </trkpt>
      <trkpt lat="45.74546" lon="4.69688">
        <ele>310.6</ele>
        <time>2018-09-02T06:40:51Z</time>
      </trkpt>
      <trkpt lat="45.74545" lon="4.69668">
        <ele>310.8</ele>
        <time>2018-09-02T06:40:54Z</time>
      </trkpt>
      <trkpt lat="45.74543" lon="4.69611">
        <ele>311.1</ele>
        <time>2018-09-02T06:41:03Z</time>
      </trkpt>
      <trkpt lat="45.74542" lon="4.69575">
        <ele>311.4</ele>
        <time>2018-09-02T06:41:09Z</time>
      </trkpt>
      <trkpt lat="45.74541" lon="4.69556">
        <ele>311.6</ele>
        <time>2018-09-02T06:41:12Z</time>
      </trkpt>
      <trkpt lat="45.74541" lon="4.69538">
        <ele>311.8</ele>
        <time>2018-09-02T06:41:15Z</time>
      </trkpt>
      <trkpt lat="45.7454" lon="4.69514">
        <ele>312.7</ele>
        <time>2018-09-02T06:41:20Z</time>
      </trkpt>
      <trkpt lat="45.74538" lon="4.69497">
        <ele>313.1</ele>
        <time>2018-09-02T06:41:24Z</time>
      </trkpt>
      <trkpt lat="45.74536" lon="4.6946">
        <ele>313.5</ele>
        <time>2018-09-02T06:41:30Z</time>
      </trkpt>
      <trkpt lat="45.74535" lon="4.69436">
        <ele>314</ele>
        <time>2018-09-02T06:41:34Z</time>
      </trkpt>
      <trkpt lat="45.74534" lon="4.69404">
        <ele>315.5</ele>
        <time>2018-09-02T06:41:39Z</time>
      </trkpt>
      <trkpt lat="45.74534" lon="4.69399">
        <ele>315.8</ele>
        <time>2018-09-02T06:41:40Z</time>
      </trkpt>
      <trkpt lat="45.74533" lon="4.69375">
        <ele>316.2</ele>
        <time>2018-09-02T06:41:44Z</time>
      </trkpt>
      <trkpt lat="45.74531" lon="4.69357">
        <ele>316.4</ele>
        <time>2018-09-02T06:41:47Z</time>
      </trkpt>
      <trkpt lat="45.74531" lon="4.69328">
        <ele>316.8</ele>
        <time>2018-09-02T06:41:53Z</time>
      </trkpt>
      <trkpt lat="45.74522" lon="4.69309">
        <ele>317</ele>
        <time>2018-09-02T06:41:59Z</time>
      </trkpt>
      <trkpt lat="45.7452" lon="4.69302">
        <ele>317</ele>
        <time>2018-09-02T06:42:01Z</time>
      </trkpt>
      <trkpt lat="45.74521" lon="4.69298">
        <ele>317</ele>
        <time>2018-09-02T06:42:02Z</time>
      </trkpt>
      <trkpt lat="45.74522" lon="4.69288">
        <ele>316.9</ele>
        <time>2018-09-02T06:42:04Z</time>
      </trkpt>
      <trkpt lat="45.74522" lon="4.69283">
        <ele>316.9</ele>
        <time>2018-09-02T06:42:05Z</time>
      </trkpt>
      <trkpt lat="45.74525" lon="4.69238">
        <ele>316.8</ele>
        <time>2018-09-02T06:42:13Z</time>
      </trkpt>
      <trkpt lat="45.74522" lon="4.69193">
        <ele>316.7</ele>
        <time>2018-09-02T06:42:21Z</time>
      </trkpt>
      <trkpt lat="45.74515" lon="4.69147">
        <ele>316.8</ele>
        <time>2018-09-02T06:42:29Z</time>
      </trkpt>
      <trkpt lat="45.74514" lon="4.69134">
        <ele>316.9</ele>
        <time>2018-09-02T06:42:31Z</time>
      </trkpt>
      <trkpt lat="45.74515" lon="4.69108">
        <ele>317.4</ele>
        <time>2018-09-02T06:42:35Z</time>
      </trkpt>
      <trkpt lat="45.7452" lon="4.69056">
        <ele>317.9</ele>
        <time>2018-09-02T06:42:43Z</time>
      </trkpt>
      <trkpt lat="45.74522" lon="4.69051">
        <ele>318</ele>
        <time>2018-09-02T06:42:44Z</time>
      </trkpt>
      <trkpt lat="45.74529" lon="4.69036">
        <ele>318</ele>
        <time>2018-09-02T06:42:48Z</time>
      </trkpt>
      <trkpt lat="45.74536" lon="4.69034">
        <ele>318</ele>
        <time>2018-09-02T06:42:52Z</time>
      </trkpt>
      <trkpt lat="45.74538" lon="4.69035">
        <ele>318</ele>
        <time>2018-09-02T06:42:53Z</time>
      </trkpt>
      <trkpt lat="45.74543" lon="4.69035">
        <ele>318</ele>
        <time>2018-09-02T06:42:55Z</time>
      </trkpt>
      <trkpt lat="45.7455" lon="4.69033">
        <ele>318.1</ele>
        <time>2018-09-02T06:42:59Z</time>
      </trkpt>
      <trkpt lat="45.7455" lon="4.6902">
        <ele>318.3</ele>
        <time>2018-09-02T06:43:02Z</time>
      </trkpt>
      <trkpt lat="45.74549" lon="4.69015">
        <ele>318.3</ele>
        <time>2018-09-02T06:43:03Z</time>
      </trkpt>
      <trkpt lat="45.74546" lon="4.6899">
        <ele>318.5</ele>
        <time>2018-09-02T06:43:07Z</time>
      </trkpt>
      <trkpt lat="45.74543" lon="4.68978">
        <ele>318.6</ele>
        <time>2018-09-02T06:43:09Z</time>
      </trkpt>
      <trkpt lat="45.7454" lon="4.68958">
        <ele>318.8</ele>
        <time>2018-09-02T06:43:12Z</time>
      </trkpt>
      <trkpt lat="45.74535" lon="4.68938">
        <ele>319</ele>
        <time>2018-09-02T06:43:15Z</time>
      </trkpt>
      <trkpt lat="45.74523" lon="4.689">
        <ele>319.9</ele>
        <time>2018-09-02T06:43:21Z</time>
      </trkpt>
      <trkpt lat="45.74505" lon="4.68853">
        <ele>320.8</ele>
        <time>2018-09-02T06:43:29Z</time>
      </trkpt>
      <trkpt lat="45.74488" lon="4.68808">
        <ele>321.5</ele>
        <time>2018-09-02T06:43:37Z</time>
      </trkpt>
      <trkpt lat="45.74485" lon="4.68803">
        <ele>321.6</ele>
        <time>2018-09-02T06:43:38Z</time>
      </trkpt>
      <trkpt lat="45.7448" lon="4.68786">
        <ele>322</ele>
        <time>2018-09-02T06:43:41Z</time>
      </trkpt>
      <trkpt lat="45.74477" lon="4.68775">
        <ele>322</ele>
        <time>2018-09-02T06:43:43Z</time>
      </trkpt>
      <trkpt lat="45.74472" lon="4.68759">
        <ele>322</ele>
        <time>2018-09-02T06:43:46Z</time>
      </trkpt>
      <trkpt lat="45.74456" lon="4.6872">
        <ele>322.6</ele>
        <time>2018-09-02T06:43:53Z</time>
      </trkpt>
      <trkpt lat="45.74454" lon="4.68714">
        <ele>322.7</ele>
        <time>2018-09-02T06:43:54Z</time>
      </trkpt>
      <trkpt lat="45.74438" lon="4.68677">
        <ele>324.3</ele>
        <time>2018-09-02T06:44:01Z</time>
      </trkpt>
      <trkpt lat="45.74435" lon="4.68672">
        <ele>324.5</ele>
        <time>2018-09-02T06:44:02Z</time>
      </trkpt>
      <trkpt lat="45.74427" lon="4.68656">
        <ele>325</ele>
        <time>2018-09-02T06:44:05Z</time>
      </trkpt>
      <trkpt lat="45.74417" lon="4.68637">
        <ele>325.5</ele>
        <time>2018-09-02T06:44:09Z</time>
      </trkpt>
      <trkpt lat="45.74414" lon="4.68633">
        <ele>325.6</ele>
        <time>2018-09-02T06:44:10Z</time>
      </trkpt>
      <trkpt lat="45.74404" lon="4.68621">
        <ele>326.1</ele>
        <time>2018-09-02T06:44:13Z</time>
      </trkpt>
      <trkpt lat="45.7439" lon="4.68607">
        <ele>327</ele>
        <time>2018-09-02T06:44:17Z</time>
      </trkpt>
      <trkpt lat="45.74378" lon="4.68599">
        <ele>327.9</ele>
        <time>2018-09-02T06:44:20Z</time>
      </trkpt>
      <trkpt lat="45.74367" lon="4.68591">
        <ele>328.4</ele>
        <time>2018-09-02T06:44:23Z</time>
      </trkpt>
      <trkpt lat="45.74358" lon="4.68584">
        <ele>328.8</ele>
        <time>2018-09-02T06:44:26Z</time>
      </trkpt>
      <trkpt lat="45.7435" lon="4.6858">
        <ele>329.2</ele>
        <time>2018-09-02T06:44:28Z</time>
      </trkpt>
      <trkpt lat="45.74347" lon="4.68578">
        <ele>329.7</ele>
        <time>2018-09-02T06:44:29Z</time>
      </trkpt>
      <trkpt lat="45.7433" lon="4.68571">
        <ele>332</ele>
        <time>2018-09-02T06:44:33Z</time>
      </trkpt>
      <trkpt lat="45.74317" lon="4.68567">
        <ele>332.6</ele>
        <time>2018-09-02T06:44:36Z</time>
      </trkpt>
      <trkpt lat="45.74303" lon="4.68564">
        <ele>332.9</ele>
        <time>2018-09-02T06:44:39Z</time>
      </trkpt>
      <trkpt lat="45.74289" lon="4.68562">
        <ele>333.1</ele>
        <time>2018-09-02T06:44:42Z</time>
      </trkpt>
      <trkpt lat="45.74285" lon="4.68563">
        <ele>333.2</ele>
        <time>2018-09-02T06:44:43Z</time>
      </trkpt>
      <trkpt lat="45.7428" lon="4.68564">
        <ele>333.4</ele>
        <time>2018-09-02T06:44:44Z</time>
      </trkpt>
      <trkpt lat="45.74241" lon="4.68571">
        <ele>335.2</ele>
        <time>2018-09-02T06:44:52Z</time>
      </trkpt>
      <trkpt lat="45.74214" lon="4.68582">
        <ele>336.3</ele>
        <time>2018-09-02T06:44:58Z</time>
      </trkpt>
      <trkpt lat="45.74175" lon="4.68591">
        <ele>337.6</ele>
        <time>2018-09-02T06:45:06Z</time>
      </trkpt>
      <trkpt lat="45.74151" lon="4.68589">
        <ele>338.4</ele>
        <time>2018-09-02T06:45:11Z</time>
      </trkpt>
      <trkpt lat="45.74142" lon="4.68587">
        <ele>338.8</ele>
        <time>2018-09-02T06:45:13Z</time>
      </trkpt>
      <trkpt lat="45.74129" lon="4.68583">
        <ele>339.5</ele>
        <time>2018-09-02T06:45:16Z</time>
      </trkpt>
      <trkpt lat="45.74106" lon="4.68574">
        <ele>339.8</ele>
        <time>2018-09-02T06:45:21Z</time>
      </trkpt>
      <trkpt lat="45.74093" lon="4.68567">
        <ele>340</ele>
        <time>2018-09-02T06:45:24Z</time>
      </trkpt>
      <trkpt lat="45.74073" lon="4.68553">
        <ele>340.2</ele>
        <time>2018-09-02T06:45:29Z</time>
      </trkpt>
      <trkpt lat="45.74052" lon="4.6853">
        <ele>340.3</ele>
        <time>2018-09-02T06:45:35Z</time>
      </trkpt>
      <trkpt lat="45.74045" lon="4.68522">
        <ele>340.4</ele>
        <time>2018-09-02T06:45:37Z</time>
      </trkpt>
      <trkpt lat="45.74022" lon="4.68484">
        <ele>340.7</ele>
        <time>2018-09-02T06:45:45Z</time>
      </trkpt>
      <trkpt lat="45.74019" lon="4.68479">
        <ele>340.8</ele>
        <time>2018-09-02T06:45:46Z</time>
      </trkpt>
      <trkpt lat="45.74006" lon="4.68457">
        <ele>341</ele>
        <time>2018-09-02T06:45:50Z</time>
      </trkpt>
      <trkpt lat="45.73991" lon="4.6843">
        <ele>341.2</ele>
        <time>2018-09-02T06:45:55Z</time>
      </trkpt>
      <trkpt lat="45.73973" lon="4.68405">
        <ele>341.6</ele>
        <time>2018-09-02T06:46:00Z</time>
      </trkpt>
      <trkpt lat="45.73966" lon="4.68397">
        <ele>341.8</ele>
        <time>2018-09-02T06:46:02Z</time>
      </trkpt>
      <trkpt lat="45.7396" lon="4.68385">
        <ele>342</ele>
        <time>2018-09-02T06:46:05Z</time>
      </trkpt>
      <trkpt lat="45.73959" lon="4.68383">
        <ele>342</ele>
        <time>2018-09-02T06:46:06Z</time>
      </trkpt>
      <trkpt lat="45.73955" lon="4.68369">
        <ele>342</ele>
        <time>2018-09-02T06:46:11Z</time>
      </trkpt>
      <trkpt lat="45.73947" lon="4.68359">
        <ele>342</ele>
        <time>2018-09-02T06:46:17Z</time>
      </trkpt>
      <trkpt lat="45.73947" lon="4.68369">
        <ele>342</ele>
        <time>2018-09-02T06:46:21Z</time>
      </trkpt>
      <trkpt lat="45.73952" lon="4.68378">
        <ele>342</ele>
        <time>2018-09-02T06:46:24Z</time>
      </trkpt>
      <trkpt lat="45.73957" lon="4.68387">
        <ele>342</ele>
        <time>2018-09-02T06:46:27Z</time>
      </trkpt>
      <trkpt lat="45.73961" lon="4.68388">
        <ele>342</ele>
        <time>2018-09-02T06:46:29Z</time>
      </trkpt>
      <trkpt lat="45.73963" lon="4.68385">
        <ele>342</ele>
        <time>2018-09-02T06:46:31Z</time>
      </trkpt>
      <trkpt lat="45.73972" lon="4.68379">
        <ele>342.1</ele>
        <time>2018-09-02T06:46:36Z</time>
      </trkpt>
      <trkpt lat="45.73979" lon="4.68381">
        <ele>342.2</ele>
        <time>2018-09-02T06:46:39Z</time>
      </trkpt>
      <trkpt lat="45.73986" lon="4.6838">
        <ele>342.2</ele>
        <time>2018-09-02T06:46:42Z</time>
      </trkpt>
      <trkpt lat="45.73988" lon="4.68379">
        <ele>342.3</ele>
        <time>2018-09-02T06:46:43Z</time>
      </trkpt>
      <trkpt lat="45.73999" lon="4.68381">
        <ele>342.5</ele>
        <time>2018-09-02T06:46:47Z</time>
      </trkpt>
      <trkpt lat="45.74003" lon="4.68381">
        <ele>342.5</ele>
        <time>2018-09-02T06:46:48Z</time>
      </trkpt>
      <trkpt lat="45.74017" lon="4.6838">
        <ele>342.9</ele>
        <time>2018-09-02T06:46:52Z</time>
      </trkpt>
      <trkpt lat="45.74025" lon="4.6838">
        <ele>343.2</ele>
        <time>2018-09-02T06:46:54Z</time>
      </trkpt>
      <trkpt lat="45.74042" lon="4.6838">
        <ele>344.2</ele>
        <time>2018-09-02T06:46:58Z</time>
      </trkpt>
      <trkpt lat="45.74065" lon="4.68378">
        <ele>344.6</ele>
        <time>2018-09-02T06:47:03Z</time>
      </trkpt>
      <trkpt lat="45.74084" lon="4.68377">
        <ele>344.7</ele>
        <time>2018-09-02T06:47:07Z</time>
      </trkpt>
      <trkpt lat="45.74104" lon="4.68377">
        <ele>344.7</ele>
        <time>2018-09-02T06:47:11Z</time>
      </trkpt>
      <trkpt lat="45.74147" lon="4.68373">
        <ele>344.9</ele>
        <time>2018-09-02T06:47:19Z</time>
      </trkpt>
      <trkpt lat="45.74203" lon="4.68369">
        <ele>344.8</ele>
        <time>2018-09-02T06:47:28Z</time>
      </trkpt>
      <trkpt lat="45.74248" lon="4.68366">
        <ele>342.8</ele>
        <time>2018-09-02T06:47:34Z</time>
      </trkpt>
      <trkpt lat="45.74256" lon="4.68366">
        <ele>342.3</ele>
        <time>2018-09-02T06:47:35Z</time>
      </trkpt>
      <trkpt lat="45.74273" lon="4.68366">
        <ele>341.4</ele>
        <time>2018-09-02T06:47:37Z</time>
      </trkpt>
      <trkpt lat="45.74288" lon="4.68359">
        <ele>340.6</ele>
        <time>2018-09-02T06:47:39Z</time>
      </trkpt>
      <trkpt lat="45.74294" lon="4.68351">
        <ele>340.3</ele>
        <time>2018-09-02T06:47:40Z</time>
      </trkpt>
      <trkpt lat="45.74298" lon="4.68331">
        <ele>339.9</ele>
        <time>2018-09-02T06:47:42Z</time>
      </trkpt>
      <trkpt lat="45.74301" lon="4.68312">
        <ele>339.8</ele>
        <time>2018-09-02T06:47:44Z</time>
      </trkpt>
      <trkpt lat="45.74304" lon="4.68286">
        <ele>339.9</ele>
        <time>2018-09-02T06:47:47Z</time>
      </trkpt>
      <trkpt lat="45.74314" lon="4.68223">
        <ele>339.7</ele>
        <time>2018-09-02T06:47:55Z</time>
      </trkpt>
      <trkpt lat="45.74325" lon="4.68185">
        <ele>338.3</ele>
        <time>2018-09-02T06:48:00Z</time>
      </trkpt>
      <trkpt lat="45.74329" lon="4.6818">
        <ele>337.8</ele>
        <time>2018-09-02T06:48:01Z</time>
      </trkpt>
      <trkpt lat="45.74346" lon="4.68167">
        <ele>335.2</ele>
        <time>2018-09-02T06:48:04Z</time>
      </trkpt>
      <trkpt lat="45.74351" lon="4.68162">
        <ele>335</ele>
        <time>2018-09-02T06:48:05Z</time>
      </trkpt>
      <trkpt lat="45.74356" lon="4.68161">
        <ele>335</ele>
        <time>2018-09-02T06:48:06Z</time>
      </trkpt>
      <trkpt lat="45.74367" lon="4.68165">
        <ele>335.2</ele>
        <time>2018-09-02T06:48:08Z</time>
      </trkpt>
      <trkpt lat="45.74379" lon="4.6818">
        <ele>335.6</ele>
        <time>2018-09-02T06:48:11Z</time>
      </trkpt>
      <trkpt lat="45.74384" lon="4.68195">
        <ele>335.8</ele>
        <time>2018-09-02T06:48:13Z</time>
      </trkpt>
      <trkpt lat="45.74396" lon="4.6821">
        <ele>335.9</ele>
        <time>2018-09-02T06:48:16Z</time>
      </trkpt>
      <trkpt lat="45.74409" lon="4.68205">
        <ele>335.3</ele>
        <time>2018-09-02T06:48:19Z</time>
      </trkpt>
      <trkpt lat="45.74427" lon="4.682">
        <ele>335.4</ele>
        <time>2018-09-02T06:48:25Z</time>
      </trkpt>
      <trkpt lat="45.74458" lon="4.68193">
        <ele>336</ele>
        <time>2018-09-02T06:48:36Z</time>
      </trkpt>
      <trkpt lat="45.7447" lon="4.6819">
        <ele>336.8</ele>
        <time>2018-09-02T06:48:40Z</time>
      </trkpt>
      <trkpt lat="45.74476" lon="4.68188">
        <ele>337.2</ele>
        <time>2018-09-02T06:48:42Z</time>
      </trkpt>
      <trkpt lat="45.74481" lon="4.68186">
        <ele>337.4</ele>
        <time>2018-09-02T06:48:44Z</time>
      </trkpt>
      <trkpt lat="45.74484" lon="4.68184">
        <ele>337.5</ele>
        <time>2018-09-02T06:48:45Z</time>
      </trkpt>
      <trkpt lat="45.74486" lon="4.68183">
        <ele>337.6</ele>
        <time>2018-09-02T06:48:46Z</time>
      </trkpt>
      <trkpt lat="45.74489" lon="4.68183">
        <ele>337.8</ele>
        <time>2018-09-02T06:48:47Z</time>
      </trkpt>
      <trkpt lat="45.74498" lon="4.6818">
        <ele>338.4</ele>
        <time>2018-09-02T06:48:50Z</time>
      </trkpt>
      <trkpt lat="45.74507" lon="4.68178">
        <ele>339</ele>
        <time>2018-09-02T06:48:53Z</time>
      </trkpt>
      <trkpt lat="45.74513" lon="4.68177">
        <ele>339.4</ele>
        <time>2018-09-02T06:48:55Z</time>
      </trkpt>
      <trkpt lat="45.74515" lon="4.68176">
        <ele>339.5</ele>
        <time>2018-09-02T06:48:56Z</time>
      </trkpt>
      <trkpt lat="45.74521" lon="4.68176">
        <ele>339.8</ele>
        <time>2018-09-02T06:48:58Z</time>
      </trkpt>
      <trkpt lat="45.7453" lon="4.68173">
        <ele>340.3</ele>
        <time>2018-09-02T06:49:01Z</time>
      </trkpt>
      <trkpt lat="45.74539" lon="4.68171">
        <ele>340.8</ele>
        <time>2018-09-02T06:49:04Z</time>
      </trkpt>
      <trkpt lat="45.74541" lon="4.68171">
        <ele>341</ele>
        <time>2018-09-02T06:49:05Z</time>
      </trkpt>
      <trkpt lat="45.74547" lon="4.6817">
        <ele>341.4</ele>
        <time>2018-09-02T06:49:07Z</time>
      </trkpt>
      <trkpt lat="45.74561" lon="4.68172">
        <ele>342</ele>
        <time>2018-09-02T06:49:12Z</time>
      </trkpt>
      <trkpt lat="45.74573" lon="4.68163">
        <ele>344.4</ele>
        <time>2018-09-02T06:49:17Z</time>
      </trkpt>
      <trkpt lat="45.74576" lon="4.68161">
        <ele>345.5</ele>
        <time>2018-09-02T06:49:18Z</time>
      </trkpt>
      <trkpt lat="45.74585" lon="4.68153">
        <ele>349.6</ele>
        <time>2018-09-02T06:49:22Z</time>
      </trkpt>
      <trkpt lat="45.74588" lon="4.68146">
        <ele>351.2</ele>
        <time>2018-09-02T06:49:24Z</time>
      </trkpt>
      <trkpt lat="45.74589" lon="4.68142">
        <ele>350.6</ele>
        <time>2018-09-02T06:49:25Z</time>
      </trkpt>
      <trkpt lat="45.74587" lon="4.68125">
        <ele>348.2</ele>
        <time>2018-09-02T06:49:29Z</time>
      </trkpt>
      <trkpt lat="45.74577" lon="4.68088">
        <ele>344</ele>
        <time>2018-09-02T06:49:38Z</time>
      </trkpt>
      <trkpt lat="45.74566" lon="4.68044">
        <ele>345</ele>
        <time>2018-09-02T06:49:48Z</time>
      </trkpt>
      <trkpt lat="45.74557" lon="4.68006">
        <ele>344.3</ele>
        <time>2018-09-02T06:49:56Z</time>
      </trkpt>
      <trkpt lat="45.74553" lon="4.67991">
        <ele>344.2</ele>
        <time>2018-09-02T06:49:59Z</time>
      </trkpt>
      <trkpt lat="45.74548" lon="4.67972">
        <ele>344.1</ele>
        <time>2018-09-02T06:50:02Z</time>
      </trkpt>
      <trkpt lat="45.74535" lon="4.67918">
        <ele>342.6</ele>
        <time>2018-09-02T06:50:09Z</time>
      </trkpt>
      <trkpt lat="45.74533" lon="4.67908">
        <ele>342.1</ele>
        <time>2018-09-02T06:50:10Z</time>
      </trkpt>
      <trkpt lat="45.74524" lon="4.67867">
        <ele>341.4</ele>
        <time>2018-09-02T06:50:14Z</time>
      </trkpt>
      <trkpt lat="45.74523" lon="4.67857">
        <ele>341.4</ele>
        <time>2018-09-02T06:50:15Z</time>
      </trkpt>
      <trkpt lat="45.74524" lon="4.67832">
        <ele>342.6</ele>
        <time>2018-09-02T06:50:18Z</time>
      </trkpt>
      <trkpt lat="45.74525" lon="4.67825">
        <ele>343.3</ele>
        <time>2018-09-02T06:50:19Z</time>
      </trkpt>
      <trkpt lat="45.74529" lon="4.67789">
        <ele>345.6</ele>
        <time>2018-09-02T06:50:25Z</time>
      </trkpt>
      <trkpt lat="45.74532" lon="4.67756">
        <ele>346.1</ele>
        <time>2018-09-02T06:50:32Z</time>
      </trkpt>
      <trkpt lat="45.74533" lon="4.67735">
        <ele>346.6</ele>
        <time>2018-09-02T06:50:36Z</time>
      </trkpt>
      <trkpt lat="45.74535" lon="4.6772">
        <ele>346.6</ele>
        <time>2018-09-02T06:50:39Z</time>
      </trkpt>
      <trkpt lat="45.74536" lon="4.67705">
        <ele>346.9</ele>
        <time>2018-09-02T06:50:42Z</time>
      </trkpt>
      <trkpt lat="45.74537" lon="4.67682">
        <ele>347.6</ele>
        <time>2018-09-02T06:50:47Z</time>
      </trkpt>
      <trkpt lat="45.74536" lon="4.67655">
        <ele>348.8</ele>
        <time>2018-09-02T06:50:53Z</time>
      </trkpt>
      <trkpt lat="45.74536" lon="4.67649">
        <ele>349</ele>
        <time>2018-09-02T06:50:54Z</time>
      </trkpt>
      <trkpt lat="45.74532" lon="4.67615">
        <ele>350.2</ele>
        <time>2018-09-02T06:51:00Z</time>
      </trkpt>
      <trkpt lat="45.74525" lon="4.67555">
        <ele>354.2</ele>
        <time>2018-09-02T06:51:09Z</time>
      </trkpt>
      <trkpt lat="45.74521" lon="4.67504">
        <ele>355.3</ele>
        <time>2018-09-02T06:51:16Z</time>
      </trkpt>
      <trkpt lat="45.74521" lon="4.6749">
        <ele>356.1</ele>
        <time>2018-09-02T06:51:18Z</time>
      </trkpt>
      <trkpt lat="45.7452" lon="4.67484">
        <ele>356.6</ele>
        <time>2018-09-02T06:51:19Z</time>
      </trkpt>
      <trkpt lat="45.74512" lon="4.67476">
        <ele>356.4</ele>
        <time>2018-09-02T06:51:21Z</time>
      </trkpt>
      <trkpt lat="45.74491" lon="4.6748">
        <ele>354.7</ele>
        <time>2018-09-02T06:51:24Z</time>
      </trkpt>
      <trkpt lat="45.74467" lon="4.6748">
        <ele>354.5</ele>
        <time>2018-09-02T06:51:27Z</time>
      </trkpt>
      <trkpt lat="45.74461" lon="4.67477">
        <ele>355</ele>
        <time>2018-09-02T06:51:28Z</time>
      </trkpt>
      <trkpt lat="45.74454" lon="4.67463">
        <ele>355</ele>
        <time>2018-09-02T06:51:31Z</time>
      </trkpt>
      <trkpt lat="45.74453" lon="4.67458">
        <ele>355.2</ele>
        <time>2018-09-02T06:51:33Z</time>
      </trkpt>
      <trkpt lat="45.74451" lon="4.67455">
        <ele>355.4</ele>
        <time>2018-09-02T06:51:35Z</time>
      </trkpt>
      <trkpt lat="45.74447" lon="4.67435">
        <ele>356.2</ele>
        <time>2018-09-02T06:51:44Z</time>
      </trkpt>
      <trkpt lat="45.74447" lon="4.67433">
        <ele>356.3</ele>
        <time>2018-09-02T06:51:45Z</time>
      </trkpt>
      <trkpt lat="45.74443" lon="4.67414">
        <ele>357.3</ele>
        <time>2018-09-02T06:51:53Z</time>
      </trkpt>
      <trkpt lat="45.74442" lon="4.6741">
        <ele>357.5</ele>
        <time>2018-09-02T06:51:55Z</time>
      </trkpt>
      <trkpt lat="45.7444" lon="4.67401">
        <ele>358</ele>
        <time>2018-09-02T06:51:59Z</time>
      </trkpt>
      <trkpt lat="45.7444" lon="4.67397">
        <ele>358.2</ele>
        <time>2018-09-02T06:52:01Z</time>
      </trkpt>
      <trkpt lat="45.74439" lon="4.67393">
        <ele>358.4</ele>
        <time>2018-09-02T06:52:03Z</time>
      </trkpt>
      <trkpt lat="45.74437" lon="4.67385">
        <ele>358.9</ele>
        <time>2018-09-02T06:52:07Z</time>
      </trkpt>
      <trkpt lat="45.74436" lon="4.6738">
        <ele>359.2</ele>
        <time>2018-09-02T06:52:09Z</time>
      </trkpt>
      <trkpt lat="45.74434" lon="4.67372">
        <ele>359.7</ele>
        <time>2018-09-02T06:52:13Z</time>
      </trkpt>
      <trkpt lat="45.74432" lon="4.67365">
        <ele>360.3</ele>
        <time>2018-09-02T06:52:17Z</time>
      </trkpt>
      <trkpt lat="45.74432" lon="4.67363">
        <ele>360.5</ele>
        <time>2018-09-02T06:52:18Z</time>
      </trkpt>
      <trkpt lat="45.74431" lon="4.67355">
        <ele>361.1</ele>
        <time>2018-09-02T06:52:21Z</time>
      </trkpt>
      <trkpt lat="45.74429" lon="4.67347">
        <ele>361.7</ele>
        <time>2018-09-02T06:52:25Z</time>
      </trkpt>
      <trkpt lat="45.74425" lon="4.67334">
        <ele>362.6</ele>
        <time>2018-09-02T06:52:31Z</time>
      </trkpt>
      <trkpt lat="45.74424" lon="4.67325">
        <ele>363.2</ele>
        <time>2018-09-02T06:52:35Z</time>
      </trkpt>
      <trkpt lat="45.74423" lon="4.67323">
        <ele>363.4</ele>
        <time>2018-09-02T06:52:36Z</time>
      </trkpt>
      <trkpt lat="45.7442" lon="4.67314">
        <ele>363.9</ele>
        <time>2018-09-02T06:52:40Z</time>
      </trkpt>
      <trkpt lat="45.74417" lon="4.67308">
        <ele>364.3</ele>
        <time>2018-09-02T06:52:43Z</time>
      </trkpt>
      <trkpt lat="45.74415" lon="4.67303">
        <ele>364.6</ele>
        <time>2018-09-02T06:52:45Z</time>
      </trkpt>
      <trkpt lat="45.74408" lon="4.67292">
        <ele>365.7</ele>
        <time>2018-09-02T06:52:50Z</time>
      </trkpt>
      <trkpt lat="45.74407" lon="4.67289">
        <ele>365.9</ele>
        <time>2018-09-02T06:52:51Z</time>
      </trkpt>
      <trkpt lat="45.74403" lon="4.67279">
        <ele>366.5</ele>
        <time>2018-09-02T06:52:55Z</time>
      </trkpt>
      <trkpt lat="45.74399" lon="4.67272">
        <ele>367</ele>
        <time>2018-09-02T06:52:58Z</time>
      </trkpt>
      <trkpt lat="45.74396" lon="4.67268">
        <ele>367.5</ele>
        <time>2018-09-02T06:53:00Z</time>
      </trkpt>
      <trkpt lat="45.74389" lon="4.67254">
        <ele>368.6</ele>
        <time>2018-09-02T06:53:06Z</time>
      </trkpt>
      <trkpt lat="45.74386" lon="4.67249">
        <ele>368.8</ele>
        <time>2018-09-02T06:53:08Z</time>
      </trkpt>
      <trkpt lat="45.74385" lon="4.67247">
        <ele>369</ele>
        <time>2018-09-02T06:53:09Z</time>
      </trkpt>
      <trkpt lat="45.7438" lon="4.67237">
        <ele>369.5</ele>
        <time>2018-09-02T06:53:13Z</time>
      </trkpt>
      <trkpt lat="45.74374" lon="4.67229">
        <ele>370</ele>
        <time>2018-09-02T06:53:17Z</time>
      </trkpt>
      <trkpt lat="45.74373" lon="4.67227">
        <ele>370.1</ele>
        <time>2018-09-02T06:53:18Z</time>
      </trkpt>
      <trkpt lat="45.74367" lon="4.67215">
        <ele>370.9</ele>
        <time>2018-09-02T06:53:23Z</time>
      </trkpt>
      <trkpt lat="45.74365" lon="4.67211">
        <ele>371.1</ele>
        <time>2018-09-02T06:53:25Z</time>
      </trkpt>
      <trkpt lat="45.74356" lon="4.67194">
        <ele>372</ele>
        <time>2018-09-02T06:53:33Z</time>
      </trkpt>
      <trkpt lat="45.74348" lon="4.67177">
        <ele>372.9</ele>
        <time>2018-09-02T06:53:40Z</time>
      </trkpt>
      <trkpt lat="45.74345" lon="4.67165">
        <ele>373.8</ele>
        <time>2018-09-02T06:53:46Z</time>
      </trkpt>
      <trkpt lat="45.7434" lon="4.67148">
        <ele>375.4</ele>
        <time>2018-09-02T06:53:53Z</time>
      </trkpt>
      <trkpt lat="45.74339" lon="4.67145">
        <ele>375.7</ele>
        <time>2018-09-02T06:53:54Z</time>
      </trkpt>
      <trkpt lat="45.74338" lon="4.67141">
        <ele>376.2</ele>
        <time>2018-09-02T06:54:45Z</time>
      </trkpt>
      <trkpt lat="45.74338" lon="4.67139">
        <ele>376.4</ele>
        <time>2018-09-02T06:54:46Z</time>
      </trkpt>
      <trkpt lat="45.74335" lon="4.67122">
        <ele>377.9</ele>
        <time>2018-09-02T06:54:52Z</time>
      </trkpt>
      <trkpt lat="45.74334" lon="4.67116">
        <ele>378.7</ele>
        <time>2018-09-02T06:54:54Z</time>
      </trkpt>
      <trkpt lat="45.74331" lon="4.67101">
        <ele>380.5</ele>
        <time>2018-09-02T06:54:59Z</time>
      </trkpt>
      <trkpt lat="45.74331" lon="4.67098">
        <ele>380.8</ele>
        <time>2018-09-02T06:55:00Z</time>
      </trkpt>
      <trkpt lat="45.74328" lon="4.67089">
        <ele>381.6</ele>
        <time>2018-09-02T06:55:03Z</time>
      </trkpt>
      <trkpt lat="45.74325" lon="4.67076">
        <ele>382.9</ele>
        <time>2018-09-02T06:55:07Z</time>
      </trkpt>
      <trkpt lat="45.74324" lon="4.6707">
        <ele>383.4</ele>
        <time>2018-09-02T06:55:09Z</time>
      </trkpt>
      <trkpt lat="45.74322" lon="4.67061">
        <ele>384.1</ele>
        <time>2018-09-02T06:55:12Z</time>
      </trkpt>
      <trkpt lat="45.74318" lon="4.67049">
        <ele>385.1</ele>
        <time>2018-09-02T06:55:16Z</time>
      </trkpt>
      <trkpt lat="45.74316" lon="4.67043">
        <ele>385.5</ele>
        <time>2018-09-02T06:55:18Z</time>
      </trkpt>
      <trkpt lat="45.74312" lon="4.67032">
        <ele>386.2</ele>
        <time>2018-09-02T06:55:22Z</time>
      </trkpt>
      <trkpt lat="45.74308" lon="4.67017">
        <ele>387.2</ele>
        <time>2018-09-02T06:55:27Z</time>
      </trkpt>
      <trkpt lat="45.74307" lon="4.67014">
        <ele>387.5</ele>
        <time>2018-09-02T06:55:28Z</time>
      </trkpt>
      <trkpt lat="45.743" lon="4.66997">
        <ele>389.1</ele>
        <time>2018-09-02T06:55:35Z</time>
      </trkpt>
      <trkpt lat="45.74297" lon="4.66992">
        <ele>389.6</ele>
        <time>2018-09-02T06:55:37Z</time>
      </trkpt>
      <trkpt lat="45.74294" lon="4.66984">
        <ele>390.1</ele>
        <time>2018-09-02T06:55:40Z</time>
      </trkpt>
      <trkpt lat="45.74286" lon="4.66964">
        <ele>391.4</ele>
        <time>2018-09-02T06:55:48Z</time>
      </trkpt>
      <trkpt lat="45.74284" lon="4.66961">
        <ele>391.5</ele>
        <time>2018-09-02T06:55:49Z</time>
      </trkpt>
      <trkpt lat="45.74276" lon="4.66943">
        <ele>392.3</ele>
        <time>2018-09-02T06:55:56Z</time>
      </trkpt>
      <trkpt lat="45.74271" lon="4.6693">
        <ele>392.7</ele>
        <time>2018-09-02T06:56:01Z</time>
      </trkpt>
      <trkpt lat="45.7427" lon="4.66927">
        <ele>392.9</ele>
        <time>2018-09-02T06:56:02Z</time>
      </trkpt>
      <trkpt lat="45.74262" lon="4.66909">
        <ele>394.1</ele>
        <time>2018-09-02T06:56:09Z</time>
      </trkpt>
      <trkpt lat="45.74257" lon="4.66899">
        <ele>394.7</ele>
        <time>2018-09-02T06:56:13Z</time>
      </trkpt>
      <trkpt lat="45.74251" lon="4.6689">
        <ele>395.5</ele>
        <time>2018-09-02T06:56:17Z</time>
      </trkpt>
      <trkpt lat="45.74244" lon="4.66878">
        <ele>396.6</ele>
        <time>2018-09-02T06:56:22Z</time>
      </trkpt>
      <trkpt lat="45.74238" lon="4.6687">
        <ele>397.3</ele>
        <time>2018-09-02T06:56:26Z</time>
      </trkpt>
      <trkpt lat="45.74237" lon="4.66867">
        <ele>397.6</ele>
        <time>2018-09-02T06:56:27Z</time>
      </trkpt>
      <trkpt lat="45.7423" lon="4.66859">
        <ele>398.5</ele>
        <time>2018-09-02T06:56:31Z</time>
      </trkpt>
      <trkpt lat="45.74222" lon="4.66849">
        <ele>399.5</ele>
        <time>2018-09-02T06:56:36Z</time>
      </trkpt>
      <trkpt lat="45.7422" lon="4.66847">
        <ele>399.8</ele>
        <time>2018-09-02T06:56:37Z</time>
      </trkpt>
      <trkpt lat="45.74213" lon="4.6684">
        <ele>401</ele>
        <time>2018-09-02T06:56:41Z</time>
      </trkpt>
      <trkpt lat="45.74205" lon="4.66833">
        <ele>402</ele>
        <time>2018-09-02T06:56:45Z</time>
      </trkpt>
      <trkpt lat="45.74202" lon="4.66829">
        <ele>402.6</ele>
        <time>2018-09-02T06:56:47Z</time>
      </trkpt>
      <trkpt lat="45.74198" lon="4.66826">
        <ele>403.3</ele>
        <time>2018-09-02T06:56:49Z</time>
      </trkpt>
      <trkpt lat="45.74185" lon="4.66813">
        <ele>404.8</ele>
        <time>2018-09-02T06:56:56Z</time>
      </trkpt>
      <trkpt lat="45.74175" lon="4.66803">
        <ele>406.7</ele>
        <time>2018-09-02T06:57:02Z</time>
      </trkpt>
      <trkpt lat="45.74169" lon="4.66798">
        <ele>407.8</ele>
        <time>2018-09-02T06:57:05Z</time>
      </trkpt>
      <trkpt lat="45.74166" lon="4.66795">
        <ele>408.7</ele>
        <time>2018-09-02T06:57:07Z</time>
      </trkpt>
      <trkpt lat="45.74156" lon="4.66789">
        <ele>411.2</ele>
        <time>2018-09-02T06:57:12Z</time>
      </trkpt>
      <trkpt lat="45.74145" lon="4.66785">
        <ele>412.8</ele>
        <time>2018-09-02T06:57:19Z</time>
      </trkpt>
      <trkpt lat="45.74136" lon="4.66783">
        <ele>414.9</ele>
        <time>2018-09-02T06:57:25Z</time>
      </trkpt>
      <trkpt lat="45.74134" lon="4.66783">
        <ele>415.1</ele>
        <time>2018-09-02T06:57:26Z</time>
      </trkpt>
      <trkpt lat="45.74129" lon="4.6678">
        <ele>415.6</ele>
        <time>2018-09-02T06:57:29Z</time>
      </trkpt>
      <trkpt lat="45.74119" lon="4.66774">
        <ele>417.4</ele>
        <time>2018-09-02T06:57:36Z</time>
      </trkpt>
      <trkpt lat="45.74114" lon="4.66771">
        <ele>418.4</ele>
        <time>2018-09-02T06:57:39Z</time>
      </trkpt>
      <trkpt lat="45.7411" lon="4.66764">
        <ele>419.5</ele>
        <time>2018-09-02T06:57:43Z</time>
      </trkpt>
      <trkpt lat="45.74103" lon="4.66751">
        <ele>422</ele>
        <time>2018-09-02T06:57:50Z</time>
      </trkpt>
      <trkpt lat="45.74095" lon="4.66742">
        <ele>424</ele>
        <time>2018-09-02T06:57:56Z</time>
      </trkpt>
      <trkpt lat="45.74093" lon="4.66741">
        <ele>424.3</ele>
        <time>2018-09-02T06:57:57Z</time>
      </trkpt>
      <trkpt lat="45.74086" lon="4.6674">
        <ele>425.6</ele>
        <time>2018-09-02T06:58:01Z</time>
      </trkpt>
      <trkpt lat="45.74078" lon="4.6674">
        <ele>426.7</ele>
        <time>2018-09-02T06:58:05Z</time>
      </trkpt>
      <trkpt lat="45.74072" lon="4.6674">
        <ele>427.4</ele>
        <time>2018-09-02T06:58:08Z</time>
      </trkpt>
      <trkpt lat="45.74065" lon="4.66742">
        <ele>428.1</ele>
        <time>2018-09-02T06:58:11Z</time>
      </trkpt>
      <trkpt lat="45.74057" lon="4.66742">
        <ele>428.7</ele>
        <time>2018-09-02T06:58:15Z</time>
      </trkpt>
      <trkpt lat="45.7405" lon="4.66742">
        <ele>429.5</ele>
        <time>2018-09-02T06:58:19Z</time>
      </trkpt>
      <trkpt lat="45.74042" lon="4.66742">
        <ele>429.9</ele>
        <time>2018-09-02T06:58:23Z</time>
      </trkpt>
      <trkpt lat="45.74039" lon="4.66742">
        <ele>429.8</ele>
        <time>2018-09-02T06:58:25Z</time>
      </trkpt>
      <trkpt lat="45.74025" lon="4.66743">
        <ele>430.4</ele>
        <time>2018-09-02T06:58:32Z</time>
      </trkpt>
      <trkpt lat="45.74003" lon="4.66745">
        <ele>431.5</ele>
        <time>2018-09-02T06:58:41Z</time>
      </trkpt>
      <trkpt lat="45.73998" lon="4.66747">
        <ele>431.6</ele>
        <time>2018-09-02T06:58:43Z</time>
      </trkpt>
      <trkpt lat="45.73987" lon="4.66749">
        <ele>431.8</ele>
        <time>2018-09-02T06:58:47Z</time>
      </trkpt>
      <trkpt lat="45.73982" lon="4.6675">
        <ele>431.9</ele>
        <time>2018-09-02T06:58:49Z</time>
      </trkpt>
      <trkpt lat="45.7398" lon="4.6675">
        <ele>432</ele>
        <time>2018-09-02T06:58:50Z</time>
      </trkpt>
      <trkpt lat="45.73968" lon="4.66754">
        <ele>431.9</ele>
        <time>2018-09-02T06:58:55Z</time>
      </trkpt>
      <trkpt lat="45.73963" lon="4.66756">
        <ele>431.8</ele>
        <time>2018-09-02T06:58:57Z</time>
      </trkpt>
      <trkpt lat="45.7396" lon="4.66755">
        <ele>431.9</ele>
        <time>2018-09-02T06:58:58Z</time>
      </trkpt>
      <trkpt lat="45.73959" lon="4.66753">
        <ele>431.9</ele>
        <time>2018-09-02T06:58:59Z</time>
      </trkpt>
      <trkpt lat="45.7396" lon="4.6675">
        <ele>432.6</ele>
        <time>2018-09-02T06:59:00Z</time>
      </trkpt>
      <trkpt lat="45.73964" lon="4.66747">
        <ele>433.3</ele>
        <time>2018-09-02T06:59:02Z</time>
      </trkpt>
      <trkpt lat="45.73967" lon="4.66746">
        <ele>433.8</ele>
        <time>2018-09-02T06:59:03Z</time>
      </trkpt>
      <trkpt lat="45.7397" lon="4.66744">
        <ele>434.3</ele>
        <time>2018-09-02T06:59:04Z</time>
      </trkpt>
      <trkpt lat="45.7398" lon="4.66735">
        <ele>436.1</ele>
        <time>2018-09-02T06:59:08Z</time>
      </trkpt>
      <trkpt lat="45.73994" lon="4.66721">
        <ele>437.9</ele>
        <time>2018-09-02T06:59:14Z</time>
      </trkpt>
      <trkpt lat="45.74001" lon="4.66713">
        <ele>438.6</ele>
        <time>2018-09-02T06:59:17Z</time>
      </trkpt>
      <trkpt lat="45.74017" lon="4.66694">
        <ele>440</ele>
        <time>2018-09-02T06:59:24Z</time>
      </trkpt>
      <trkpt lat="45.74026" lon="4.66683">
        <ele>440.5</ele>
        <time>2018-09-02T06:59:28Z</time>
      </trkpt>
      <trkpt lat="45.74032" lon="4.66674">
        <ele>440.8</ele>
        <time>2018-09-02T06:59:31Z</time>
      </trkpt>
      <trkpt lat="45.74038" lon="4.66666">
        <ele>441</ele>
        <time>2018-09-02T06:59:34Z</time>
      </trkpt>
      <trkpt lat="45.74043" lon="4.66661">
        <ele>441.2</ele>
        <time>2018-09-02T06:59:36Z</time>
      </trkpt>
      <trkpt lat="45.7406" lon="4.6664">
        <ele>441.8</ele>
        <time>2018-09-02T06:59:43Z</time>
      </trkpt>
      <trkpt lat="45.74064" lon="4.66634">
        <ele>442</ele>
        <time>2018-09-02T06:59:45Z</time>
      </trkpt>
      <trkpt lat="45.74077" lon="4.66617">
        <ele>441.8</ele>
        <time>2018-09-02T06:59:50Z</time>
      </trkpt>
      <trkpt lat="45.74101" lon="4.66589">
        <ele>441.5</ele>
        <time>2018-09-02T06:59:58Z</time>
      </trkpt>
      <trkpt lat="45.74129" lon="4.66549">
        <ele>439.5</ele>
        <time>2018-09-02T07:00:07Z</time>
      </trkpt>
      <trkpt lat="45.74135" lon="4.66538">
        <ele>438.9</ele>
        <time>2018-09-02T07:00:09Z</time>
      </trkpt>
      <trkpt lat="45.74137" lon="4.66531">
        <ele>438.5</ele>
        <time>2018-09-02T07:00:10Z</time>
      </trkpt>
      <trkpt lat="45.7414" lon="4.66516">
        <ele>437.8</ele>
        <time>2018-09-02T07:00:12Z</time>
      </trkpt>
      <trkpt lat="45.74145" lon="4.66484">
        <ele>436.8</ele>
        <time>2018-09-02T07:00:16Z</time>
      </trkpt>
      <trkpt lat="45.74147" lon="4.66475">
        <ele>436.6</ele>
        <time>2018-09-02T07:00:17Z</time>
      </trkpt>
      <trkpt lat="45.74152" lon="4.66457">
        <ele>436.5</ele>
        <time>2018-09-02T07:00:19Z</time>
      </trkpt>
      <trkpt lat="45.74156" lon="4.66448">
        <ele>436.3</ele>
        <time>2018-09-02T07:00:20Z</time>
      </trkpt>
      <trkpt lat="45.74161" lon="4.6644">
        <ele>436</ele>
        <time>2018-09-02T07:00:21Z</time>
      </trkpt>
      <trkpt lat="45.7418" lon="4.66423">
        <ele>434.9</ele>
        <time>2018-09-02T07:00:24Z</time>
      </trkpt>
      <trkpt lat="45.74187" lon="4.6642">
        <ele>434.8</ele>
        <time>2018-09-02T07:00:25Z</time>
      </trkpt>
      <trkpt lat="45.74209" lon="4.66417">
        <ele>434.4</ele>
        <time>2018-09-02T07:00:28Z</time>
      </trkpt>
      <trkpt lat="45.7422" lon="4.6642">
        <ele>434.2</ele>
        <time>2018-09-02T07:00:30Z</time>
      </trkpt>
      <trkpt lat="45.7423" lon="4.66421">
        <ele>434.1</ele>
        <time>2018-09-02T07:00:32Z</time>
      </trkpt>
      <trkpt lat="45.74234" lon="4.66421">
        <ele>434.1</ele>
        <time>2018-09-02T07:00:33Z</time>
      </trkpt>
      <trkpt lat="45.74241" lon="4.66419">
        <ele>434</ele>
        <time>2018-09-02T07:00:35Z</time>
      </trkpt>
      <trkpt lat="45.74242" lon="4.66417">
        <ele>434</ele>
        <time>2018-09-02T07:00:36Z</time>
      </trkpt>
      <trkpt lat="45.74242" lon="4.66406">
        <ele>436.4</ele>
        <time>2018-09-02T07:00:40Z</time>
      </trkpt>
      <trkpt lat="45.74241" lon="4.66402">
        <ele>437.1</ele>
        <time>2018-09-02T07:00:42Z</time>
      </trkpt>
      <trkpt lat="45.74239" lon="4.66396">
        <ele>437.9</ele>
        <time>2018-09-02T07:00:45Z</time>
      </trkpt>
      <trkpt lat="45.74239" lon="4.66394">
        <ele>438.2</ele>
        <time>2018-09-02T07:00:46Z</time>
      </trkpt>
      <trkpt lat="45.74238" lon="4.66391">
        <ele>438.7</ele>
        <time>2018-09-02T07:00:48Z</time>
      </trkpt>
      <trkpt lat="45.74234" lon="4.66385">
        <ele>440.1</ele>
        <time>2018-09-02T07:00:52Z</time>
      </trkpt>
      <trkpt lat="45.74222" lon="4.66378">
        <ele>442.2</ele>
        <time>2018-09-02T07:01:00Z</time>
      </trkpt>
      <trkpt lat="45.74217" lon="4.66377">
        <ele>442.4</ele>
        <time>2018-09-02T07:01:03Z</time>
      </trkpt>
      <trkpt lat="45.74207" lon="4.66373">
        <ele>442.9</ele>
        <time>2018-09-02T07:01:09Z</time>
      </trkpt>
      <trkpt lat="45.74195" lon="4.66363">
        <ele>444.3</ele>
        <time>2018-09-02T07:01:17Z</time>
      </trkpt>
      <trkpt lat="45.74183" lon="4.66354">
        <ele>445.4</ele>
        <time>2018-09-02T07:01:24Z</time>
      </trkpt>
      <trkpt lat="45.74181" lon="4.66352">
        <ele>445.6</ele>
        <time>2018-09-02T07:01:25Z</time>
      </trkpt>
      <trkpt lat="45.74177" lon="4.66349">
        <ele>446.1</ele>
        <time>2018-09-02T07:01:27Z</time>
      </trkpt>
      <trkpt lat="45.74172" lon="4.66346">
        <ele>446.7</ele>
        <time>2018-09-02T07:01:30Z</time>
      </trkpt>
      <trkpt lat="45.74165" lon="4.6634">
        <ele>447.4</ele>
        <time>2018-09-02T07:01:34Z</time>
      </trkpt>
      <trkpt lat="45.74161" lon="4.66338">
        <ele>447.7</ele>
        <time>2018-09-02T07:01:36Z</time>
      </trkpt>
      <trkpt lat="45.74155" lon="4.66337">
        <ele>448.3</ele>
        <time>2018-09-02T07:01:39Z</time>
      </trkpt>
      <trkpt lat="45.7415" lon="4.66338">
        <ele>448.8</ele>
        <time>2018-09-02T07:01:42Z</time>
      </trkpt>
      <trkpt lat="45.74146" lon="4.66341">
        <ele>448.4</ele>
        <time>2018-09-02T07:01:44Z</time>
      </trkpt>
      <trkpt lat="45.74144" lon="4.66344">
        <ele>448.1</ele>
        <time>2018-09-02T07:01:46Z</time>
      </trkpt>
      <trkpt lat="45.74141" lon="4.66348">
        <ele>447.8</ele>
        <time>2018-09-02T07:01:48Z</time>
      </trkpt>
      <trkpt lat="45.74129" lon="4.66366">
        <ele>447.3</ele>
        <time>2018-09-02T07:01:56Z</time>
      </trkpt>
      <trkpt lat="45.74126" lon="4.6637">
        <ele>447.3</ele>
        <time>2018-09-02T07:01:58Z</time>
      </trkpt>
      <trkpt lat="45.7412" lon="4.6638">
        <ele>447.4</ele>
        <time>2018-09-02T07:02:03Z</time>
      </trkpt>
      <trkpt lat="45.74118" lon="4.66384">
        <ele>447.5</ele>
        <time>2018-09-02T07:02:05Z</time>
      </trkpt>
      <trkpt lat="45.74108" lon="4.66395">
        <ele>448.3</ele>
        <time>2018-09-02T07:02:11Z</time>
      </trkpt>
      <trkpt lat="45.74101" lon="4.66401">
        <ele>448.9</ele>
        <time>2018-09-02T07:02:15Z</time>
      </trkpt>
      <trkpt lat="45.74096" lon="4.66405">
        <ele>449.3</ele>
        <time>2018-09-02T07:02:18Z</time>
      </trkpt>
      <trkpt lat="45.74085" lon="4.66414">
        <ele>450.3</ele>
        <time>2018-09-02T07:02:24Z</time>
      </trkpt>
      <trkpt lat="45.74081" lon="4.66417">
        <ele>450.7</ele>
        <time>2018-09-02T07:02:26Z</time>
      </trkpt>
      <trkpt lat="45.74067" lon="4.66433">
        <ele>452.1</ele>
        <time>2018-09-02T07:02:33Z</time>
      </trkpt>
      <trkpt lat="45.74052" lon="4.66445">
        <ele>453.2</ele>
        <time>2018-09-02T07:02:41Z</time>
      </trkpt>
      <trkpt lat="45.74043" lon="4.6645">
        <ele>452.9</ele>
        <time>2018-09-02T07:02:45Z</time>
      </trkpt>
      <trkpt lat="45.74035" lon="4.66454">
        <ele>452.4</ele>
        <time>2018-09-02T07:02:48Z</time>
      </trkpt>
      <trkpt lat="45.74012" lon="4.66468">
        <ele>451.1</ele>
        <time>2018-09-02T07:02:57Z</time>
      </trkpt>
      <trkpt lat="45.7401" lon="4.6647">
        <ele>451</ele>
        <time>2018-09-02T07:02:58Z</time>
      </trkpt>
      <trkpt lat="45.73996" lon="4.66475">
        <ele>449.9</ele>
        <time>2018-09-02T07:03:04Z</time>
      </trkpt>
      <trkpt lat="45.73981" lon="4.66478">
        <ele>449.7</ele>
        <time>2018-09-02T07:03:10Z</time>
      </trkpt>
      <trkpt lat="45.73969" lon="4.66478">
        <ele>449.3</ele>
        <time>2018-09-02T07:03:14Z</time>
      </trkpt>
      <trkpt lat="45.73959" lon="4.66477">
        <ele>449.1</ele>
        <time>2018-09-02T07:03:17Z</time>
      </trkpt>
      <trkpt lat="45.73932" lon="4.66473">
        <ele>449</ele>
        <time>2018-09-02T07:03:25Z</time>
      </trkpt>
      <trkpt lat="45.73908" lon="4.6646">
        <ele>449.4</ele>
        <time>2018-09-02T07:03:33Z</time>
      </trkpt>
      <trkpt lat="45.7389" lon="4.66437">
        <ele>449.6</ele>
        <time>2018-09-02T07:03:40Z</time>
      </trkpt>
      <trkpt lat="45.73864" lon="4.66406">
        <ele>449</ele>
        <time>2018-09-02T07:03:48Z</time>
      </trkpt>
      <trkpt lat="45.73848" lon="4.66385">
        <ele>448.2</ele>
        <time>2018-09-02T07:03:53Z</time>
      </trkpt>
      <trkpt lat="45.73839" lon="4.66372">
        <ele>447.6</ele>
        <time>2018-09-02T07:03:56Z</time>
      </trkpt>
      <trkpt lat="45.73816" lon="4.66343">
        <ele>445.1</ele>
        <time>2018-09-02T07:04:03Z</time>
      </trkpt>
      <trkpt lat="45.73801" lon="4.66322">
        <ele>442.6</ele>
        <time>2018-09-02T07:04:07Z</time>
      </trkpt>
      <trkpt lat="45.73799" lon="4.66317">
        <ele>442.1</ele>
        <time>2018-09-02T07:04:08Z</time>
      </trkpt>
      <trkpt lat="45.73801" lon="4.66307">
        <ele>442</ele>
        <time>2018-09-02T07:04:11Z</time>
      </trkpt>
      <trkpt lat="45.73808" lon="4.66309">
        <ele>446</ele>
        <time>2018-09-02T07:04:15Z</time>
      </trkpt>
      <trkpt lat="45.73812" lon="4.66311">
        <ele>447</ele>
        <time>2018-09-02T07:04:17Z</time>
      </trkpt>
      <trkpt lat="45.73822" lon="4.66312">
        <ele>449.5</ele>
        <time>2018-09-02T07:04:22Z</time>
      </trkpt>
      <trkpt lat="45.73834" lon="4.6631">
        <ele>452.2</ele>
        <time>2018-09-02T07:04:29Z</time>
      </trkpt>
      <trkpt lat="45.7384" lon="4.66301">
        <ele>453.8</ele>
        <time>2018-09-02T07:04:34Z</time>
      </trkpt>
      <trkpt lat="45.73841" lon="4.66298">
        <ele>453.7</ele>
        <time>2018-09-02T07:04:35Z</time>
      </trkpt>
      <trkpt lat="45.73849" lon="4.66274">
        <ele>452.4</ele>
        <time>2018-09-02T07:04:41Z</time>
      </trkpt>
      <trkpt lat="45.7386" lon="4.66242">
        <ele>450.4</ele>
        <time>2018-09-02T07:04:47Z</time>
      </trkpt>
      <trkpt lat="45.73868" lon="4.66221">
        <ele>449.7</ele>
        <time>2018-09-02T07:04:50Z</time>
      </trkpt>
      <trkpt lat="45.73873" lon="4.66203">
        <ele>449</ele>
        <time>2018-09-02T07:04:52Z</time>
      </trkpt>
      <trkpt lat="45.73889" lon="4.66143">
        <ele>444.7</ele>
        <time>2018-09-02T07:04:59Z</time>
      </trkpt>
      <trkpt lat="45.739" lon="4.66096">
        <ele>442</ele>
        <time>2018-09-02T07:05:04Z</time>
      </trkpt>
      <trkpt lat="45.73901" lon="4.6609">
        <ele>442</ele>
        <time>2018-09-02T07:05:05Z</time>
      </trkpt>
      <trkpt lat="45.73903" lon="4.66079">
        <ele>441.7</ele>
        <time>2018-09-02T07:05:07Z</time>
      </trkpt>
      <trkpt lat="45.73905" lon="4.66076">
        <ele>441.4</ele>
        <time>2018-09-02T07:05:08Z</time>
      </trkpt>
      <trkpt lat="45.7391" lon="4.66068">
        <ele>440.6</ele>
        <time>2018-09-02T07:05:10Z</time>
      </trkpt>
      <trkpt lat="45.73919" lon="4.6605">
        <ele>439</ele>
        <time>2018-09-02T07:05:14Z</time>
      </trkpt>
      <trkpt lat="45.73922" lon="4.66045">
        <ele>438.3</ele>
        <time>2018-09-02T07:05:15Z</time>
      </trkpt>
      <trkpt lat="45.73931" lon="4.66028">
        <ele>436.4</ele>
        <time>2018-09-02T07:05:18Z</time>
      </trkpt>
      <trkpt lat="45.73946" lon="4.66">
        <ele>433.4</ele>
        <time>2018-09-02T07:05:22Z</time>
      </trkpt>
      <trkpt lat="45.73956" lon="4.65978">
        <ele>432.8</ele>
        <time>2018-09-02T07:05:25Z</time>
      </trkpt>
      <trkpt lat="45.7396" lon="4.65972">
        <ele>432.6</ele>
        <time>2018-09-02T07:05:26Z</time>
      </trkpt>
      <trkpt lat="45.73974" lon="4.65949">
        <ele>433.4</ele>
        <time>2018-09-02T07:05:31Z</time>
      </trkpt>
      <trkpt lat="45.73977" lon="4.65945">
        <ele>433.5</ele>
        <time>2018-09-02T07:05:32Z</time>
      </trkpt>
      <trkpt lat="45.73987" lon="4.65927">
        <ele>434.3</ele>
        <time>2018-09-02T07:05:37Z</time>
      </trkpt>
      <trkpt lat="45.73989" lon="4.65924">
        <ele>434.5</ele>
        <time>2018-09-02T07:05:38Z</time>
      </trkpt>
      <trkpt lat="45.74" lon="4.65898">
        <ele>435.7</ele>
        <time>2018-09-02T07:05:44Z</time>
      </trkpt>
      <trkpt lat="45.74002" lon="4.65888">
        <ele>435.9</ele>
        <time>2018-09-02T07:05:46Z</time>
      </trkpt>
      <trkpt lat="45.74003" lon="4.65874">
        <ele>435.8</ele>
        <time>2018-09-02T07:05:49Z</time>
      </trkpt>
      <trkpt lat="45.74003" lon="4.65869">
        <ele>436</ele>
        <time>2018-09-02T07:05:50Z</time>
      </trkpt>
      <trkpt lat="45.74004" lon="4.65859">
        <ele>436.2</ele>
        <time>2018-09-02T07:05:52Z</time>
      </trkpt>
      <trkpt lat="45.74006" lon="4.6584">
        <ele>436.1</ele>
        <time>2018-09-02T07:05:56Z</time>
      </trkpt>
      <trkpt lat="45.74007" lon="4.65822">
        <ele>436.3</ele>
        <time>2018-09-02T07:06:00Z</time>
      </trkpt>
      <trkpt lat="45.74009" lon="4.658">
        <ele>436.6</ele>
        <time>2018-09-02T07:06:04Z</time>
      </trkpt>
      <trkpt lat="45.7401" lon="4.65796">
        <ele>436.8</ele>
        <time>2018-09-02T07:06:05Z</time>
      </trkpt>
      <trkpt lat="45.74013" lon="4.65778">
        <ele>437.3</ele>
        <time>2018-09-02T07:06:09Z</time>
      </trkpt>
      <trkpt lat="45.74017" lon="4.65769">
        <ele>438</ele>
        <time>2018-09-02T07:06:11Z</time>
      </trkpt>
      <trkpt lat="45.7402" lon="4.65764">
        <ele>438.3</ele>
        <time>2018-09-02T07:06:12Z</time>
      </trkpt>
      <trkpt lat="45.74026" lon="4.65748">
        <ele>439.2</ele>
        <time>2018-09-02T07:06:15Z</time>
      </trkpt>
      <trkpt lat="45.74034" lon="4.65735">
        <ele>440.2</ele>
        <time>2018-09-02T07:06:18Z</time>
      </trkpt>
      <trkpt lat="45.74036" lon="4.65731">
        <ele>440.5</ele>
        <time>2018-09-02T07:06:19Z</time>
      </trkpt>
      <trkpt lat="45.74046" lon="4.65715">
        <ele>440.9</ele>
        <time>2018-09-02T07:06:23Z</time>
      </trkpt>
      <trkpt lat="45.74053" lon="4.65701">
        <ele>441.6</ele>
        <time>2018-09-02T07:06:26Z</time>
      </trkpt>
      <trkpt lat="45.7406" lon="4.65677">
        <ele>441.8</ele>
        <time>2018-09-02T07:06:31Z</time>
      </trkpt>
      <trkpt lat="45.74059" lon="4.65671">
        <ele>441.6</ele>
        <time>2018-09-02T07:06:32Z</time>
      </trkpt>
      <trkpt lat="45.74059" lon="4.65658">
        <ele>441</ele>
        <time>2018-09-02T07:06:34Z</time>
      </trkpt>
      <trkpt lat="45.74058" lon="4.65636">
        <ele>440.1</ele>
        <time>2018-09-02T07:06:37Z</time>
      </trkpt>
      <trkpt lat="45.74058" lon="4.65628">
        <ele>439.8</ele>
        <time>2018-09-02T07:06:38Z</time>
      </trkpt>
      <trkpt lat="45.74059" lon="4.65615">
        <ele>439.3</ele>
        <time>2018-09-02T07:06:40Z</time>
      </trkpt>
      <trkpt lat="45.74059" lon="4.6561">
        <ele>439</ele>
        <time>2018-09-02T07:06:41Z</time>
      </trkpt>
      <trkpt lat="45.74062" lon="4.65599">
        <ele>440.1</ele>
        <time>2018-09-02T07:06:44Z</time>
      </trkpt>
      <trkpt lat="45.74064" lon="4.65597">
        <ele>440.7</ele>
        <time>2018-09-02T07:06:45Z</time>
      </trkpt>
      <trkpt lat="45.74067" lon="4.65596">
        <ele>441.7</ele>
        <time>2018-09-02T07:06:47Z</time>
      </trkpt>
      <trkpt lat="45.74071" lon="4.65593">
        <ele>443.1</ele>
        <time>2018-09-02T07:06:50Z</time>
      </trkpt>
      <trkpt lat="45.74077" lon="4.65581">
        <ele>446.1</ele>
        <time>2018-09-02T07:06:56Z</time>
      </trkpt>
      <trkpt lat="45.74085" lon="4.65564">
        <ele>450</ele>
        <time>2018-09-02T07:07:03Z</time>
      </trkpt>
      <trkpt lat="45.74097" lon="4.65544">
        <ele>450</ele>
        <time>2018-09-02T07:07:10Z</time>
      </trkpt>
      <trkpt lat="45.74114" lon="4.65523">
        <ele>449.6</ele>
        <time>2018-09-02T07:07:17Z</time>
      </trkpt>
      <trkpt lat="45.74115" lon="4.65519">
        <ele>449.5</ele>
        <time>2018-09-02T07:07:20Z</time>
      </trkpt>
      <trkpt lat="45.74115" lon="4.65519">
        <ele>449.5</ele>
        <time>2018-09-02T07:07:21Z</time>
      </trkpt>
      <trkpt lat="45.74111" lon="4.65523">
        <ele>449.6</ele>
        <time>2018-09-02T07:07:24Z</time>
      </trkpt>
      <trkpt lat="45.74104" lon="4.65536">
        <ele>449.8</ele>
        <time>2018-09-02T07:07:28Z</time>
      </trkpt>
      <trkpt lat="45.74101" lon="4.6554">
        <ele>449.9</ele>
        <time>2018-09-02T07:07:29Z</time>
      </trkpt>
      <trkpt lat="45.74087" lon="4.65561">
        <ele>450.1</ele>
        <time>2018-09-02T07:07:35Z</time>
      </trkpt>
      <trkpt lat="45.74084" lon="4.65564">
        <ele>449.5</ele>
        <time>2018-09-02T07:07:37Z</time>
      </trkpt>
      <trkpt lat="45.7408" lon="4.6556">
        <ele>448.5</ele>
        <time>2018-09-02T07:07:39Z</time>
      </trkpt>
      <trkpt lat="45.74074" lon="4.65549">
        <ele>446.6</ele>
        <time>2018-09-02T07:07:41Z</time>
      </trkpt>
      <trkpt lat="45.7407" lon="4.65543">
        <ele>445.5</ele>
        <time>2018-09-02T07:07:42Z</time>
      </trkpt>
      <trkpt lat="45.7406" lon="4.6553">
        <ele>442.7</ele>
        <time>2018-09-02T07:07:44Z</time>
      </trkpt>
      <trkpt lat="45.74049" lon="4.65519">
        <ele>440.5</ele>
        <time>2018-09-02T07:07:46Z</time>
      </trkpt>
      <trkpt lat="45.74037" lon="4.65513">
        <ele>439</ele>
        <time>2018-09-02T07:07:48Z</time>
      </trkpt>
      <trkpt lat="45.7403" lon="4.65509">
        <ele>437.9</ele>
        <time>2018-09-02T07:07:49Z</time>
      </trkpt>
      <trkpt lat="45.74018" lon="4.65495">
        <ele>435.5</ele>
        <time>2018-09-02T07:07:51Z</time>
      </trkpt>
      <trkpt lat="45.74014" lon="4.65488">
        <ele>434.1</ele>
        <time>2018-09-02T07:07:52Z</time>
      </trkpt>
      <trkpt lat="45.7401" lon="4.65482">
        <ele>433.4</ele>
        <time>2018-09-02T07:07:53Z</time>
      </trkpt>
      <trkpt lat="45.74004" lon="4.65466">
        <ele>431.4</ele>
        <time>2018-09-02T07:07:55Z</time>
      </trkpt>
      <trkpt lat="45.74001" lon="4.65456">
        <ele>430.3</ele>
        <time>2018-09-02T07:07:56Z</time>
      </trkpt>
      <trkpt lat="45.73998" lon="4.65444">
        <ele>429.1</ele>
        <time>2018-09-02T07:07:57Z</time>
      </trkpt>
      <trkpt lat="45.73994" lon="4.65431">
        <ele>427.6</ele>
        <time>2018-09-02T07:07:58Z</time>
      </trkpt>
      <trkpt lat="45.7399" lon="4.65417">
        <ele>426</ele>
        <time>2018-09-02T07:07:59Z</time>
      </trkpt>
      <trkpt lat="45.73985" lon="4.65404">
        <ele>424.4</ele>
        <time>2018-09-02T07:08:00Z</time>
      </trkpt>
      <trkpt lat="45.73982" lon="4.6539">
        <ele>422.9</ele>
        <time>2018-09-02T07:08:01Z</time>
      </trkpt>
      <trkpt lat="45.73978" lon="4.65378">
        <ele>421.6</ele>
        <time>2018-09-02T07:08:02Z</time>
      </trkpt>
      <trkpt lat="45.73975" lon="4.65368">
        <ele>420.3</ele>
        <time>2018-09-02T07:08:03Z</time>
      </trkpt>
      <trkpt lat="45.73973" lon="4.65359">
        <ele>419.3</ele>
        <time>2018-09-02T07:08:04Z</time>
      </trkpt>
      <trkpt lat="45.73971" lon="4.65352">
        <ele>418</ele>
        <time>2018-09-02T07:08:05Z</time>
      </trkpt>
      <trkpt lat="45.73969" lon="4.65347">
        <ele>417.2</ele>
        <time>2018-09-02T07:08:06Z</time>
      </trkpt>
      <trkpt lat="45.73968" lon="4.65344">
        <ele>416.7</ele>
        <time>2018-09-02T07:08:07Z</time>
      </trkpt>
      <trkpt lat="45.73967" lon="4.65342">
        <ele>416.4</ele>
        <time>2018-09-02T07:08:08Z</time>
      </trkpt>
      <trkpt lat="45.73965" lon="4.65338">
        <ele>416</ele>
        <time>2018-09-02T07:08:10Z</time>
      </trkpt>
      <trkpt lat="45.73962" lon="4.65332">
        <ele>416</ele>
        <time>2018-09-02T07:08:12Z</time>
      </trkpt>
      <trkpt lat="45.7396" lon="4.65327">
        <ele>415.9</ele>
        <time>2018-09-02T07:08:13Z</time>
      </trkpt>
      <trkpt lat="45.73958" lon="4.65323">
        <ele>415.7</ele>
        <time>2018-09-02T07:08:14Z</time>
      </trkpt>
      <trkpt lat="45.73954" lon="4.65312">
        <ele>414.9</ele>
        <time>2018-09-02T07:08:16Z</time>
      </trkpt>
      <trkpt lat="45.73949" lon="4.65299">
        <ele>413.6</ele>
        <time>2018-09-02T07:08:18Z</time>
      </trkpt>
      <trkpt lat="45.73938" lon="4.65275">
        <ele>412.1</ele>
        <time>2018-09-02T07:08:20Z</time>
      </trkpt>
      <trkpt lat="45.73934" lon="4.65264">
        <ele>411.9</ele>
        <time>2018-09-02T07:08:21Z</time>
      </trkpt>
      <trkpt lat="45.73932" lon="4.65252">
        <ele>412.3</ele>
        <time>2018-09-02T07:08:22Z</time>
      </trkpt>
      <trkpt lat="45.7393" lon="4.65229">
        <ele>413</ele>
        <time>2018-09-02T07:08:24Z</time>
      </trkpt>
      <trkpt lat="45.7393" lon="4.65219">
        <ele>413</ele>
        <time>2018-09-02T07:08:25Z</time>
      </trkpt>
      <trkpt lat="45.73925" lon="4.65203">
        <ele>413</ele>
        <time>2018-09-02T07:08:27Z</time>
      </trkpt>
      <trkpt lat="45.73916" lon="4.65193">
        <ele>413</ele>
        <time>2018-09-02T07:08:29Z</time>
      </trkpt>
      <trkpt lat="45.73911" lon="4.65189">
        <ele>413</ele>
        <time>2018-09-02T07:08:30Z</time>
      </trkpt>
      <trkpt lat="45.73907" lon="4.65186">
        <ele>413</ele>
        <time>2018-09-02T07:08:31Z</time>
      </trkpt>
      <trkpt lat="45.73903" lon="4.65183">
        <ele>413</ele>
        <time>2018-09-02T07:08:32Z</time>
      </trkpt>
      <trkpt lat="45.73892" lon="4.65172">
        <ele>413.1</ele>
        <time>2018-09-02T07:08:35Z</time>
      </trkpt>
      <trkpt lat="45.73888" lon="4.65169">
        <ele>413.1</ele>
        <time>2018-09-02T07:08:36Z</time>
      </trkpt>
      <trkpt lat="45.73876" lon="4.65157">
        <ele>413.1</ele>
        <time>2018-09-02T07:08:39Z</time>
      </trkpt>
      <trkpt lat="45.7386" lon="4.6514">
        <ele>413.1</ele>
        <time>2018-09-02T07:08:43Z</time>
      </trkpt>
      <trkpt lat="45.73851" lon="4.65122">
        <ele>413.1</ele>
        <time>2018-09-02T07:08:46Z</time>
      </trkpt>
      <trkpt lat="45.73846" lon="4.65108">
        <ele>413.2</ele>
        <time>2018-09-02T07:08:48Z</time>
      </trkpt>
      <trkpt lat="45.73844" lon="4.65101">
        <ele>413.2</ele>
        <time>2018-09-02T07:08:49Z</time>
      </trkpt>
      <trkpt lat="45.73834" lon="4.65066">
        <ele>413.1</ele>
        <time>2018-09-02T07:08:54Z</time>
      </trkpt>
      <trkpt lat="45.73832" lon="4.65059">
        <ele>413.1</ele>
        <time>2018-09-02T07:08:55Z</time>
      </trkpt>
      <trkpt lat="45.73826" lon="4.65034">
        <ele>412.6</ele>
        <time>2018-09-02T07:08:58Z</time>
      </trkpt>
      <trkpt lat="45.73822" lon="4.65014">
        <ele>412</ele>
        <time>2018-09-02T07:09:00Z</time>
      </trkpt>
      <trkpt lat="45.73817" lon="4.6499">
        <ele>411</ele>
        <time>2018-09-02T07:09:02Z</time>
      </trkpt>
      <trkpt lat="45.73811" lon="4.64977">
        <ele>410.2</ele>
        <time>2018-09-02T07:09:03Z</time>
      </trkpt>
      <trkpt lat="45.73804" lon="4.64965">
        <ele>409.4</ele>
        <time>2018-09-02T07:09:04Z</time>
      </trkpt>
      <trkpt lat="45.73788" lon="4.6494">
        <ele>407.6</ele>
        <time>2018-09-02T07:09:06Z</time>
      </trkpt>
      <trkpt lat="45.7378" lon="4.64927">
        <ele>406.6</ele>
        <time>2018-09-02T07:09:07Z</time>
      </trkpt>
      <trkpt lat="45.73772" lon="4.64915">
        <ele>405.6</ele>
        <time>2018-09-02T07:09:08Z</time>
      </trkpt>
      <trkpt lat="45.73756" lon="4.6489">
        <ele>403.4</ele>
        <time>2018-09-02T07:09:10Z</time>
      </trkpt>
      <trkpt lat="45.7375" lon="4.64876">
        <ele>402.3</ele>
        <time>2018-09-02T07:09:11Z</time>
      </trkpt>
      <trkpt lat="45.73747" lon="4.64861">
        <ele>401.2</ele>
        <time>2018-09-02T07:09:12Z</time>
      </trkpt>
      <trkpt lat="45.73743" lon="4.6483">
        <ele>399.3</ele>
        <time>2018-09-02T07:09:14Z</time>
      </trkpt>
      <trkpt lat="45.73744" lon="4.64799">
        <ele>397.8</ele>
        <time>2018-09-02T07:09:16Z</time>
      </trkpt>
      <trkpt lat="45.73745" lon="4.6477">
        <ele>397.2</ele>
        <time>2018-09-02T07:09:18Z</time>
      </trkpt>
      <trkpt lat="45.73745" lon="4.64757">
        <ele>397.1</ele>
        <time>2018-09-02T07:09:19Z</time>
      </trkpt>
      <trkpt lat="45.73744" lon="4.64744">
        <ele>397</ele>
        <time>2018-09-02T07:09:20Z</time>
      </trkpt>
      <trkpt lat="45.73742" lon="4.6472">
        <ele>397.1</ele>
        <time>2018-09-02T07:09:22Z</time>
      </trkpt>
      <trkpt lat="45.73741" lon="4.647">
        <ele>397.1</ele>
        <time>2018-09-02T07:09:24Z</time>
      </trkpt>
      <trkpt lat="45.73737" lon="4.64664">
        <ele>397.1</ele>
        <time>2018-09-02T07:09:29Z</time>
      </trkpt>
      <trkpt lat="45.73731" lon="4.64635">
        <ele>397.5</ele>
        <time>2018-09-02T07:09:35Z</time>
      </trkpt>
      <trkpt lat="45.7373" lon="4.64631">
        <ele>397.7</ele>
        <time>2018-09-02T07:09:36Z</time>
      </trkpt>
      <trkpt lat="45.73727" lon="4.6462">
        <ele>398.4</ele>
        <time>2018-09-02T07:09:39Z</time>
      </trkpt>
      <trkpt lat="45.73726" lon="4.64612">
        <ele>398.9</ele>
        <time>2018-09-02T07:09:41Z</time>
      </trkpt>
      <trkpt lat="45.73725" lon="4.64606">
        <ele>399.5</ele>
        <time>2018-09-02T07:09:43Z</time>
      </trkpt>
      <trkpt lat="45.73725" lon="4.64602">
        <ele>399.8</ele>
        <time>2018-09-02T07:09:44Z</time>
      </trkpt>
      <trkpt lat="45.73723" lon="4.64594">
        <ele>400.8</ele>
        <time>2018-09-02T07:09:47Z</time>
      </trkpt>
      <trkpt lat="45.73722" lon="4.64586">
        <ele>401.7</ele>
        <time>2018-09-02T07:09:50Z</time>
      </trkpt>
      <trkpt lat="45.73722" lon="4.64582">
        <ele>402.1</ele>
        <time>2018-09-02T07:09:51Z</time>
      </trkpt>
      <trkpt lat="45.73721" lon="4.64577">
        <ele>402.8</ele>
        <time>2018-09-02T07:09:53Z</time>
      </trkpt>
      <trkpt lat="45.73719" lon="4.64568">
        <ele>403.9</ele>
        <time>2018-09-02T07:09:56Z</time>
      </trkpt>
      <trkpt lat="45.73717" lon="4.64562">
        <ele>404.6</ele>
        <time>2018-09-02T07:09:58Z</time>
      </trkpt>
      <trkpt lat="45.73715" lon="4.64559">
        <ele>405</ele>
        <time>2018-09-02T07:09:59Z</time>
      </trkpt>
      <trkpt lat="45.73711" lon="4.64553">
        <ele>406.1</ele>
        <time>2018-09-02T07:10:02Z</time>
      </trkpt>
      <trkpt lat="45.73709" lon="4.64548">
        <ele>406.9</ele>
        <time>2018-09-02T07:10:04Z</time>
      </trkpt>
      <trkpt lat="45.73707" lon="4.64546">
        <ele>407.3</ele>
        <time>2018-09-02T07:10:05Z</time>
      </trkpt>
      <trkpt lat="45.73705" lon="4.6454">
        <ele>408.1</ele>
        <time>2018-09-02T07:10:07Z</time>
      </trkpt>
      <trkpt lat="45.73698" lon="4.64527">
        <ele>410</ele>
        <time>2018-09-02T07:10:13Z</time>
      </trkpt>
      <trkpt lat="45.73695" lon="4.6452">
        <ele>410.7</ele>
        <time>2018-09-02T07:10:16Z</time>
      </trkpt>
      <trkpt lat="45.7369" lon="4.64505">
        <ele>412.1</ele>
        <time>2018-09-02T07:10:22Z</time>
      </trkpt>
      <trkpt lat="45.73688" lon="4.64498">
        <ele>412.8</ele>
        <time>2018-09-02T07:10:25Z</time>
      </trkpt>
      <trkpt lat="45.73687" lon="4.64491">
        <ele>413.4</ele>
        <time>2018-09-02T07:10:28Z</time>
      </trkpt>
      <trkpt lat="45.73687" lon="4.64488">
        <ele>413.7</ele>
        <time>2018-09-02T07:10:29Z</time>
      </trkpt>
      <trkpt lat="45.73684" lon="4.6447">
        <ele>415.4</ele>
        <time>2018-09-02T07:10:36Z</time>
      </trkpt>
      <trkpt lat="45.73683" lon="4.64468">
        <ele>415.6</ele>
        <time>2018-09-02T07:10:37Z</time>
      </trkpt>
      <trkpt lat="45.73682" lon="4.64463">
        <ele>416</ele>
        <time>2018-09-02T07:10:39Z</time>
      </trkpt>
      <trkpt lat="45.73681" lon="4.64451">
        <ele>417.4</ele>
        <time>2018-09-02T07:10:45Z</time>
      </trkpt>
      <trkpt lat="45.73681" lon="4.64448">
        <ele>417.6</ele>
        <time>2018-09-02T07:10:46Z</time>
      </trkpt>
      <trkpt lat="45.7368" lon="4.64439">
        <ele>418.4</ele>
        <time>2018-09-02T07:10:51Z</time>
      </trkpt>
      <trkpt lat="45.7368" lon="4.64437">
        <ele>418.6</ele>
        <time>2018-09-02T07:10:52Z</time>
      </trkpt>
      <trkpt lat="45.7368" lon="4.64436">
        <ele>418.7</ele>
        <time>2018-09-02T07:10:53Z</time>
      </trkpt>
      <trkpt lat="45.73681" lon="4.64432">
        <ele>419.3</ele>
        <time>2018-09-02T07:10:57Z</time>
      </trkpt>
      <trkpt lat="45.7368" lon="4.6443">
        <ele>419.5</ele>
        <time>2018-09-02T07:10:59Z</time>
      </trkpt>
      <trkpt lat="45.73679" lon="4.64427">
        <ele>420</ele>
        <time>2018-09-02T07:11:23Z</time>
      </trkpt>
      <trkpt lat="45.7368" lon="4.64429">
        <ele>420</ele>
        <time>2018-09-02T07:11:24Z</time>
      </trkpt>
      <trkpt lat="45.73678" lon="4.64433">
        <ele>420.6</ele>
        <time>2018-09-02T07:11:27Z</time>
      </trkpt>
      <trkpt lat="45.73672" lon="4.64425">
        <ele>422</ele>
        <time>2018-09-02T07:11:33Z</time>
      </trkpt>
      <trkpt lat="45.73669" lon="4.64421">
        <ele>422.6</ele>
        <time>2018-09-02T07:11:35Z</time>
      </trkpt>
      <trkpt lat="45.73664" lon="4.6441">
        <ele>424.2</ele>
        <time>2018-09-02T07:11:41Z</time>
      </trkpt>
      <trkpt lat="45.73661" lon="4.64406">
        <ele>425.1</ele>
        <time>2018-09-02T07:11:44Z</time>
      </trkpt>
      <trkpt lat="45.73659" lon="4.64404">
        <ele>425.4</ele>
        <time>2018-09-02T07:11:45Z</time>
      </trkpt>
      <trkpt lat="45.73656" lon="4.64399">
        <ele>426.4</ele>
        <time>2018-09-02T07:11:49Z</time>
      </trkpt>
      <trkpt lat="45.73653" lon="4.64395">
        <ele>427.1</ele>
        <time>2018-09-02T07:11:52Z</time>
      </trkpt>
      <trkpt lat="45.73652" lon="4.64392">
        <ele>427.6</ele>
        <time>2018-09-02T07:11:54Z</time>
      </trkpt>
      <trkpt lat="45.73649" lon="4.64389">
        <ele>428.2</ele>
        <time>2018-09-02T07:11:56Z</time>
      </trkpt>
      <trkpt lat="45.73647" lon="4.64387">
        <ele>428.8</ele>
        <time>2018-09-02T07:11:58Z</time>
      </trkpt>
      <trkpt lat="45.73645" lon="4.64382">
        <ele>429.7</ele>
        <time>2018-09-02T07:12:01Z</time>
      </trkpt>
      <trkpt lat="45.73641" lon="4.64375">
        <ele>431</ele>
        <time>2018-09-02T07:12:05Z</time>
      </trkpt>
      <trkpt lat="45.73638" lon="4.64372">
        <ele>431.8</ele>
        <time>2018-09-02T07:12:07Z</time>
      </trkpt>
      <trkpt lat="45.73632" lon="4.64363">
        <ele>434.4</ele>
        <time>2018-09-02T07:12:13Z</time>
      </trkpt>
      <trkpt lat="45.73631" lon="4.64361">
        <ele>434.8</ele>
        <time>2018-09-02T07:12:14Z</time>
      </trkpt>
      <trkpt lat="45.73627" lon="4.64355">
        <ele>436.4</ele>
        <time>2018-09-02T07:12:18Z</time>
      </trkpt>
      <trkpt lat="45.73623" lon="4.64348">
        <ele>437.8</ele>
        <time>2018-09-02T07:12:22Z</time>
      </trkpt>
      <trkpt lat="45.73622" lon="4.64347">
        <ele>438.1</ele>
        <time>2018-09-02T07:12:23Z</time>
      </trkpt>
      <trkpt lat="45.73618" lon="4.6434">
        <ele>439.7</ele>
        <time>2018-09-02T07:12:27Z</time>
      </trkpt>
      <trkpt lat="45.73617" lon="4.64338">
        <ele>440</ele>
        <time>2018-09-02T07:12:28Z</time>
      </trkpt>
      <trkpt lat="45.73615" lon="4.64332">
        <ele>441</ele>
        <time>2018-09-02T07:12:31Z</time>
      </trkpt>
      <trkpt lat="45.73613" lon="4.64328">
        <ele>441.8</ele>
        <time>2018-09-02T07:12:35Z</time>
      </trkpt>
      <trkpt lat="45.73612" lon="4.64327">
        <ele>442</ele>
        <time>2018-09-02T07:12:36Z</time>
      </trkpt>
      <trkpt lat="45.7361" lon="4.64324">
        <ele>442.5</ele>
        <time>2018-09-02T07:12:38Z</time>
      </trkpt>
      <trkpt lat="45.73608" lon="4.6432">
        <ele>443.2</ele>
        <time>2018-09-02T07:12:41Z</time>
      </trkpt>
      <trkpt lat="45.73604" lon="4.64315">
        <ele>444.1</ele>
        <time>2018-09-02T07:12:45Z</time>
      </trkpt>
      <trkpt lat="45.73601" lon="4.64311">
        <ele>445</ele>
        <time>2018-09-02T07:12:48Z</time>
      </trkpt>
      <trkpt lat="45.73599" lon="4.64308">
        <ele>445.5</ele>
        <time>2018-09-02T07:12:50Z</time>
      </trkpt>
      <trkpt lat="45.73593" lon="4.643">
        <ele>447.2</ele>
        <time>2018-09-02T07:12:56Z</time>
      </trkpt>
      <trkpt lat="45.73592" lon="4.64298">
        <ele>447.4</ele>
        <time>2018-09-02T07:12:57Z</time>
      </trkpt>
      <trkpt lat="45.73589" lon="4.64292">
        <ele>448.5</ele>
        <time>2018-09-02T07:13:01Z</time>
      </trkpt>
      <trkpt lat="45.73586" lon="4.64285">
        <ele>449.6</ele>
        <time>2018-09-02T07:13:05Z</time>
      </trkpt>
      <trkpt lat="45.73581" lon="4.64278">
        <ele>451.1</ele>
        <time>2018-09-02T07:13:10Z</time>
      </trkpt>
      <trkpt lat="45.7358" lon="4.64277">
        <ele>451.4</ele>
        <time>2018-09-02T07:13:11Z</time>
      </trkpt>
      <trkpt lat="45.73577" lon="4.64273">
        <ele>452.3</ele>
        <time>2018-09-02T07:13:14Z</time>
      </trkpt>
      <trkpt lat="45.73574" lon="4.64268">
        <ele>453.5</ele>
        <time>2018-09-02T07:13:18Z</time>
      </trkpt>
      <trkpt lat="45.73573" lon="4.64266">
        <ele>453.8</ele>
        <time>2018-09-02T07:13:19Z</time>
      </trkpt>
      <trkpt lat="45.73568" lon="4.6426">
        <ele>455.3</ele>
        <time>2018-09-02T07:13:24Z</time>
      </trkpt>
      <trkpt lat="45.73567" lon="4.64259">
        <ele>455.6</ele>
        <time>2018-09-02T07:13:25Z</time>
      </trkpt>
      <trkpt lat="45.73563" lon="4.64254">
        <ele>456.7</ele>
        <time>2018-09-02T07:13:29Z</time>
      </trkpt>
      <trkpt lat="45.73559" lon="4.64246">
        <ele>458.1</ele>
        <time>2018-09-02T07:13:34Z</time>
      </trkpt>
      <trkpt lat="45.73558" lon="4.64244">
        <ele>458.4</ele>
        <time>2018-09-02T07:13:35Z</time>
      </trkpt>
      <trkpt lat="45.73553" lon="4.64237">
        <ele>459.8</ele>
        <time>2018-09-02T07:13:40Z</time>
      </trkpt>
      <trkpt lat="45.7355" lon="4.64231">
        <ele>460.9</ele>
        <time>2018-09-02T07:13:44Z</time>
      </trkpt>
      <trkpt lat="45.73549" lon="4.6423">
        <ele>461.1</ele>
        <time>2018-09-02T07:13:45Z</time>
      </trkpt>
      <trkpt lat="45.73546" lon="4.64225">
        <ele>462.1</ele>
        <time>2018-09-02T07:13:49Z</time>
      </trkpt>
      <trkpt lat="45.73545" lon="4.64223">
        <ele>462.3</ele>
        <time>2018-09-02T07:13:50Z</time>
      </trkpt>
      <trkpt lat="45.73542" lon="4.64218">
        <ele>463.3</ele>
        <time>2018-09-02T07:13:54Z</time>
      </trkpt>
      <trkpt lat="45.73539" lon="4.64214">
        <ele>464</ele>
        <time>2018-09-02T07:13:57Z</time>
      </trkpt>
      <trkpt lat="45.73535" lon="4.64209">
        <ele>465</ele>
        <time>2018-09-02T07:14:01Z</time>
      </trkpt>
      <trkpt lat="45.73531" lon="4.64204">
        <ele>465.9</ele>
        <time>2018-09-02T07:14:04Z</time>
      </trkpt>
      <trkpt lat="45.7353" lon="4.64202">
        <ele>466.2</ele>
        <time>2018-09-02T07:14:05Z</time>
      </trkpt>
      <trkpt lat="45.7353" lon="4.642">
        <ele>466.4</ele>
        <time>2018-09-02T07:14:06Z</time>
      </trkpt>
      <trkpt lat="45.73529" lon="4.64195">
        <ele>467</ele>
        <time>2018-09-02T07:14:09Z</time>
      </trkpt>
      <trkpt lat="45.73528" lon="4.64193">
        <ele>467.3</ele>
        <time>2018-09-02T07:14:10Z</time>
      </trkpt>
      <trkpt lat="45.73527" lon="4.64192">
        <ele>467.5</ele>
        <time>2018-09-02T07:14:11Z</time>
      </trkpt>
      <trkpt lat="45.73524" lon="4.64189">
        <ele>468.2</ele>
        <time>2018-09-02T07:14:14Z</time>
      </trkpt>
      <trkpt lat="45.73523" lon="4.64189">
        <ele>468.3</ele>
        <time>2018-09-02T07:14:15Z</time>
      </trkpt>
      <trkpt lat="45.73522" lon="4.64187">
        <ele>468.6</ele>
        <time>2018-09-02T07:14:17Z</time>
      </trkpt>
      <trkpt lat="45.73519" lon="4.64182">
        <ele>469.4</ele>
        <time>2018-09-02T07:14:21Z</time>
      </trkpt>
      <trkpt lat="45.73518" lon="4.64181">
        <ele>469.6</ele>
        <time>2018-09-02T07:14:22Z</time>
      </trkpt>
      <trkpt lat="45.73517" lon="4.64179">
        <ele>469.9</ele>
        <time>2018-09-02T07:14:24Z</time>
      </trkpt>
      <trkpt lat="45.73516" lon="4.64178">
        <ele>470.1</ele>
        <time>2018-09-02T07:14:25Z</time>
      </trkpt>
      <trkpt lat="45.73513" lon="4.64175">
        <ele>470.7</ele>
        <time>2018-09-02T07:14:28Z</time>
      </trkpt>
      <trkpt lat="45.73511" lon="4.64172">
        <ele>471.2</ele>
        <time>2018-09-02T07:14:31Z</time>
      </trkpt>
      <trkpt lat="45.73508" lon="4.64167">
        <ele>472</ele>
        <time>2018-09-02T07:14:35Z</time>
      </trkpt>
      <trkpt lat="45.73507" lon="4.64166">
        <ele>472.2</ele>
        <time>2018-09-02T07:14:36Z</time>
      </trkpt>
      <trkpt lat="45.73505" lon="4.6416">
        <ele>473.1</ele>
        <time>2018-09-02T07:14:41Z</time>
      </trkpt>
      <trkpt lat="45.73503" lon="4.64154">
        <ele>473.9</ele>
        <time>2018-09-02T07:14:44Z</time>
      </trkpt>
      <trkpt lat="45.73502" lon="4.64151">
        <ele>474.3</ele>
        <time>2018-09-02T07:14:46Z</time>
      </trkpt>
      <trkpt lat="45.73502" lon="4.6415">
        <ele>474.6</ele>
        <time>2018-09-02T07:14:47Z</time>
      </trkpt>
      <trkpt lat="45.73499" lon="4.64146">
        <ele>475.2</ele>
        <time>2018-09-02T07:14:50Z</time>
      </trkpt>
      <trkpt lat="45.73498" lon="4.64146">
        <ele>475.4</ele>
        <time>2018-09-02T07:14:51Z</time>
      </trkpt>
      <trkpt lat="45.73496" lon="4.64144">
        <ele>475.8</ele>
        <time>2018-09-02T07:14:53Z</time>
      </trkpt>
      <trkpt lat="45.73492" lon="4.6414">
        <ele>476.7</ele>
        <time>2018-09-02T07:14:57Z</time>
      </trkpt>
      <trkpt lat="45.73476" lon="4.64115">
        <ele>481.3</ele>
        <time>2018-09-02T07:16:35Z</time>
      </trkpt>
      <trkpt lat="45.7347" lon="4.64108">
        <ele>483</ele>
        <time>2018-09-02T07:16:41Z</time>
      </trkpt>
      <trkpt lat="45.73468" lon="4.64106">
        <ele>483.6</ele>
        <time>2018-09-02T07:16:43Z</time>
      </trkpt>
      <trkpt lat="45.73466" lon="4.64103">
        <ele>484.2</ele>
        <time>2018-09-02T07:16:45Z</time>
      </trkpt>
      <trkpt lat="45.73462" lon="4.64098">
        <ele>485.2</ele>
        <time>2018-09-02T07:16:49Z</time>
      </trkpt>
      <trkpt lat="45.7346" lon="4.64097">
        <ele>485.7</ele>
        <time>2018-09-02T07:16:51Z</time>
      </trkpt>
      <trkpt lat="45.73453" lon="4.64083">
        <ele>487.6</ele>
        <time>2018-09-02T07:17:00Z</time>
      </trkpt>
      <trkpt lat="45.73447" lon="4.64074">
        <ele>489</ele>
        <time>2018-09-02T07:17:06Z</time>
      </trkpt>
      <trkpt lat="45.73445" lon="4.64071">
        <ele>489.4</ele>
        <time>2018-09-02T07:17:08Z</time>
      </trkpt>
      <trkpt lat="45.73439" lon="4.64059">
        <ele>491</ele>
        <time>2018-09-02T07:17:17Z</time>
      </trkpt>
      <trkpt lat="45.73434" lon="4.6405">
        <ele>492.2</ele>
        <time>2018-09-02T07:17:23Z</time>
      </trkpt>
      <trkpt lat="45.73433" lon="4.64049">
        <ele>492.5</ele>
        <time>2018-09-02T07:17:24Z</time>
      </trkpt>
      <trkpt lat="45.73427" lon="4.64042">
        <ele>493.6</ele>
        <time>2018-09-02T07:17:30Z</time>
      </trkpt>
      <trkpt lat="45.73424" lon="4.64035">
        <ele>494.5</ele>
        <time>2018-09-02T07:17:34Z</time>
      </trkpt>
      <trkpt lat="45.73422" lon="4.64031">
        <ele>495.2</ele>
        <time>2018-09-02T07:17:37Z</time>
      </trkpt>
      <trkpt lat="45.73417" lon="4.64026">
        <ele>496.1</ele>
        <time>2018-09-02T07:17:42Z</time>
      </trkpt>
      <trkpt lat="45.73416" lon="4.64023">
        <ele>496.5</ele>
        <time>2018-09-02T07:17:44Z</time>
      </trkpt>
      <trkpt lat="45.73416" lon="4.64022">
        <ele>496.7</ele>
        <time>2018-09-02T07:17:45Z</time>
      </trkpt>
      <trkpt lat="45.73415" lon="4.64018">
        <ele>497.1</ele>
        <time>2018-09-02T07:17:47Z</time>
      </trkpt>
      <trkpt lat="45.73414" lon="4.64012">
        <ele>497.9</ele>
        <time>2018-09-02T07:17:50Z</time>
      </trkpt>
      <trkpt lat="45.73413" lon="4.64008">
        <ele>498.3</ele>
        <time>2018-09-02T07:17:52Z</time>
      </trkpt>
      <trkpt lat="45.73411" lon="4.64003">
        <ele>499</ele>
        <time>2018-09-02T07:17:55Z</time>
      </trkpt>
      <trkpt lat="45.7341" lon="4.64">
        <ele>499.4</ele>
        <time>2018-09-02T07:17:57Z</time>
      </trkpt>
      <trkpt lat="45.73409" lon="4.63997">
        <ele>499.7</ele>
        <time>2018-09-02T07:17:59Z</time>
      </trkpt>
      <trkpt lat="45.73409" lon="4.63996">
        <ele>500</ele>
        <time>2018-09-02T07:18:00Z</time>
      </trkpt>
      <trkpt lat="45.73406" lon="4.6399">
        <ele>500.8</ele>
        <time>2018-09-02T07:18:04Z</time>
      </trkpt>
      <trkpt lat="45.73403" lon="4.63984">
        <ele>501.6</ele>
        <time>2018-09-02T07:18:08Z</time>
      </trkpt>
      <trkpt lat="45.73403" lon="4.63983">
        <ele>501.8</ele>
        <time>2018-09-02T07:18:09Z</time>
      </trkpt>
      <trkpt lat="45.73398" lon="4.63973">
        <ele>503</ele>
        <time>2018-09-02T07:18:16Z</time>
      </trkpt>
      <trkpt lat="45.73395" lon="4.63969">
        <ele>503.5</ele>
        <time>2018-09-02T07:18:19Z</time>
      </trkpt>
      <trkpt lat="45.73393" lon="4.63966">
        <ele>503.9</ele>
        <time>2018-09-02T07:18:22Z</time>
      </trkpt>
      <trkpt lat="45.73391" lon="4.63961">
        <ele>504.5</ele>
        <time>2018-09-02T07:18:26Z</time>
      </trkpt>
      <trkpt lat="45.7339" lon="4.63958">
        <ele>504.9</ele>
        <time>2018-09-02T07:18:28Z</time>
      </trkpt>
      <trkpt lat="45.73375" lon="4.63905">
        <ele>511.6</ele>
        <time>2018-09-02T07:19:01Z</time>
      </trkpt>
      <trkpt lat="45.73374" lon="4.63899">
        <ele>512.4</ele>
        <time>2018-09-02T07:19:04Z</time>
      </trkpt>
      <trkpt lat="45.73373" lon="4.63897">
        <ele>512.6</ele>
        <time>2018-09-02T07:19:05Z</time>
      </trkpt>
      <trkpt lat="45.73366" lon="4.63879">
        <ele>515.3</ele>
        <time>2018-09-02T07:19:16Z</time>
      </trkpt>
      <trkpt lat="45.73323" lon="4.63697">
        <ele>536.6</ele>
        <time>2018-09-02T07:21:12Z</time>
      </trkpt>
      <trkpt lat="45.73321" lon="4.63689">
        <ele>537.2</ele>
        <time>2018-09-02T07:21:16Z</time>
      </trkpt>
      <trkpt lat="45.73315" lon="4.63657">
        <ele>539.5</ele>
        <time>2018-09-02T07:21:36Z</time>
      </trkpt>
      <trkpt lat="45.73314" lon="4.63653">
        <ele>539.7</ele>
        <time>2018-09-02T07:21:38Z</time>
      </trkpt>
      <trkpt lat="45.73315" lon="4.63647">
        <ele>540.1</ele>
        <time>2018-09-02T07:21:41Z</time>
      </trkpt>
      <trkpt lat="45.73315" lon="4.63631">
        <ele>540.7</ele>
        <time>2018-09-02T07:21:49Z</time>
      </trkpt>
      <trkpt lat="45.73315" lon="4.63621">
        <ele>541.1</ele>
        <time>2018-09-02T07:21:53Z</time>
      </trkpt>
      <trkpt lat="45.73315" lon="4.63614">
        <ele>541.5</ele>
        <time>2018-09-02T07:21:56Z</time>
      </trkpt>
      <trkpt lat="45.73315" lon="4.63606">
        <ele>542.1</ele>
        <time>2018-09-02T07:21:59Z</time>
      </trkpt>
      <trkpt lat="45.73314" lon="4.63604">
        <ele>542.3</ele>
        <time>2018-09-02T07:22:00Z</time>
      </trkpt>
      <trkpt lat="45.73312" lon="4.63576">
        <ele>544.9</ele>
        <time>2018-09-02T07:22:11Z</time>
      </trkpt>
      <trkpt lat="45.73312" lon="4.63574">
        <ele>545.1</ele>
        <time>2018-09-02T07:22:12Z</time>
      </trkpt>
      <trkpt lat="45.73309" lon="4.63557">
        <ele>546.9</ele>
        <time>2018-09-02T07:22:19Z</time>
      </trkpt>
      <trkpt lat="45.73309" lon="4.63548">
        <ele>547.8</ele>
        <time>2018-09-02T07:22:23Z</time>
      </trkpt>
      <trkpt lat="45.73308" lon="4.63544">
        <ele>548.2</ele>
        <time>2018-09-02T07:22:25Z</time>
      </trkpt>
      <trkpt lat="45.73299" lon="4.63486">
        <ele>553.6</ele>
        <time>2018-09-02T07:22:52Z</time>
      </trkpt>
      <trkpt lat="45.73298" lon="4.63479">
        <ele>554.2</ele>
        <time>2018-09-02T07:22:55Z</time>
      </trkpt>
      <trkpt lat="45.73302" lon="4.63444">
        <ele>556.7</ele>
        <time>2018-09-02T07:23:12Z</time>
      </trkpt>
      <trkpt lat="45.73303" lon="4.63434">
        <ele>557.1</ele>
        <time>2018-09-02T07:23:15Z</time>
      </trkpt>
      <trkpt lat="45.73301" lon="4.63411">
        <ele>558.4</ele>
        <time>2018-09-02T07:23:22Z</time>
      </trkpt>
      <trkpt lat="45.73297" lon="4.63398">
        <ele>559.7</ele>
        <time>2018-09-02T07:23:26Z</time>
      </trkpt>
      <trkpt lat="45.73295" lon="4.63391">
        <ele>560.4</ele>
        <time>2018-09-02T07:23:29Z</time>
      </trkpt>
      <trkpt lat="45.73295" lon="4.63389">
        <ele>560.6</ele>
        <time>2018-09-02T07:23:30Z</time>
      </trkpt>
      <trkpt lat="45.73293" lon="4.63381">
        <ele>561.5</ele>
        <time>2018-09-02T07:23:34Z</time>
      </trkpt>
      <trkpt lat="45.73292" lon="4.63375">
        <ele>562</ele>
        <time>2018-09-02T07:23:37Z</time>
      </trkpt>
      <trkpt lat="45.73291" lon="4.63374">
        <ele>562.2</ele>
        <time>2018-09-02T07:23:38Z</time>
      </trkpt>
      <trkpt lat="45.7329" lon="4.63368">
        <ele>562.8</ele>
        <time>2018-09-02T07:23:42Z</time>
      </trkpt>
      <trkpt lat="45.73283" lon="4.63342">
        <ele>566.4</ele>
        <time>2018-09-02T07:23:57Z</time>
      </trkpt>
      <trkpt lat="45.73282" lon="4.63337">
        <ele>567.1</ele>
        <time>2018-09-02T07:24:00Z</time>
      </trkpt>
      <trkpt lat="45.73282" lon="4.63334">
        <ele>567.5</ele>
        <time>2018-09-02T07:24:02Z</time>
      </trkpt>
      <trkpt lat="45.73282" lon="4.63332">
        <ele>567.7</ele>
        <time>2018-09-02T07:24:03Z</time>
      </trkpt>
      <trkpt lat="45.73282" lon="4.6333">
        <ele>567.9</ele>
        <time>2018-09-02T07:24:04Z</time>
      </trkpt>
      <trkpt lat="45.73282" lon="4.63318">
        <ele>572.6</ele>
        <time>2018-09-02T07:24:09Z</time>
      </trkpt>
      <trkpt lat="45.73314" lon="4.63156">
        <ele>601.9</ele>
        <time>2018-09-02T07:28:29Z</time>
      </trkpt>
      <trkpt lat="45.7331" lon="4.63156">
        <ele>601.4</ele>
        <time>2018-09-02T07:28:31Z</time>
      </trkpt>
      <trkpt lat="45.73293" lon="4.63152">
        <ele>599.7</ele>
        <time>2018-09-02T07:28:39Z</time>
      </trkpt>
      <trkpt lat="45.73279" lon="4.63145">
        <ele>599.3</ele>
        <time>2018-09-02T07:28:47Z</time>
      </trkpt>
      <trkpt lat="45.73269" lon="4.6314">
        <ele>599.4</ele>
        <time>2018-09-02T07:28:53Z</time>
      </trkpt>
      <trkpt lat="45.73254" lon="4.63129">
        <ele>599.7</ele>
        <time>2018-09-02T07:29:04Z</time>
      </trkpt>
      <trkpt lat="45.7325" lon="4.63127">
        <ele>599.9</ele>
        <time>2018-09-02T07:29:07Z</time>
      </trkpt>
      <trkpt lat="45.73249" lon="4.63126">
        <ele>599.9</ele>
        <time>2018-09-02T07:29:08Z</time>
      </trkpt>
      <trkpt lat="45.73243" lon="4.63121">
        <ele>600.1</ele>
        <time>2018-09-02T07:29:12Z</time>
      </trkpt>
      <trkpt lat="45.73235" lon="4.63117">
        <ele>600.4</ele>
        <time>2018-09-02T07:29:18Z</time>
      </trkpt>
      <trkpt lat="45.73231" lon="4.63115">
        <ele>600.6</ele>
        <time>2018-09-02T07:29:21Z</time>
      </trkpt>
      <trkpt lat="45.73229" lon="4.63114">
        <ele>600.6</ele>
        <time>2018-09-02T07:29:22Z</time>
      </trkpt>
      <trkpt lat="45.73226" lon="4.63113">
        <ele>600.7</ele>
        <time>2018-09-02T07:29:24Z</time>
      </trkpt>
      <trkpt lat="45.73221" lon="4.63112">
        <ele>600.8</ele>
        <time>2018-09-02T07:29:27Z</time>
      </trkpt>
      <trkpt lat="45.73217" lon="4.6311">
        <ele>600.9</ele>
        <time>2018-09-02T07:29:29Z</time>
      </trkpt>
      <trkpt lat="45.73214" lon="4.63109">
        <ele>601</ele>
        <time>2018-09-02T07:29:31Z</time>
      </trkpt>
      <trkpt lat="45.73206" lon="4.63101">
        <ele>601.2</ele>
        <time>2018-09-02T07:29:37Z</time>
      </trkpt>
      <trkpt lat="45.73204" lon="4.63097">
        <ele>601.3</ele>
        <time>2018-09-02T07:29:39Z</time>
      </trkpt>
      <trkpt lat="45.73203" lon="4.63095">
        <ele>601.3</ele>
        <time>2018-09-02T07:29:40Z</time>
      </trkpt>
      <trkpt lat="45.732" lon="4.63092">
        <ele>601.3</ele>
        <time>2018-09-02T07:29:42Z</time>
      </trkpt>
      <trkpt lat="45.73193" lon="4.63083">
        <ele>601.3</ele>
        <time>2018-09-02T07:29:48Z</time>
      </trkpt>
      <trkpt lat="45.7316" lon="4.63035">
        <ele>598</ele>
        <time>2018-09-02T07:30:20Z</time>
      </trkpt>
      <trkpt lat="45.73158" lon="4.63033">
        <ele>597.7</ele>
        <time>2018-09-02T07:30:22Z</time>
      </trkpt>
      <trkpt lat="45.73156" lon="4.63031">
        <ele>597.3</ele>
        <time>2018-09-02T07:30:24Z</time>
      </trkpt>
      <trkpt lat="45.73153" lon="4.63026">
        <ele>596.5</ele>
        <time>2018-09-02T07:30:28Z</time>
      </trkpt>
      <trkpt lat="45.73153" lon="4.63025">
        <ele>596.2</ele>
        <time>2018-09-02T07:30:29Z</time>
      </trkpt>
      <trkpt lat="45.73154" lon="4.63019">
        <ele>595.3</ele>
        <time>2018-09-02T07:30:33Z</time>
      </trkpt>
      <trkpt lat="45.73155" lon="4.63018">
        <ele>595.1</ele>
        <time>2018-09-02T07:30:34Z</time>
      </trkpt>
      <trkpt lat="45.73156" lon="4.63017">
        <ele>594.9</ele>
        <time>2018-09-02T07:30:35Z</time>
      </trkpt>
      <trkpt lat="45.73156" lon="4.63015">
        <ele>594.6</ele>
        <time>2018-09-02T07:30:36Z</time>
      </trkpt>
      <trkpt lat="45.73156" lon="4.63012">
        <ele>594.3</ele>
        <time>2018-09-02T07:30:37Z</time>
      </trkpt>
      <trkpt lat="45.73155" lon="4.63005">
        <ele>593.5</ele>
        <time>2018-09-02T07:30:53Z</time>
      </trkpt>
      <trkpt lat="45.73155" lon="4.62997">
        <ele>592.5</ele>
        <time>2018-09-02T07:30:56Z</time>
      </trkpt>
      <trkpt lat="45.73155" lon="4.62991">
        <ele>592</ele>
        <time>2018-09-02T07:30:58Z</time>
      </trkpt>
      <trkpt lat="45.73155" lon="4.62968">
        <ele>590</ele>
        <time>2018-09-02T07:31:05Z</time>
      </trkpt>
      <trkpt lat="45.73158" lon="4.62933">
        <ele>588.1</ele>
        <time>2018-09-02T07:31:15Z</time>
      </trkpt>
      <trkpt lat="45.73159" lon="4.62916">
        <ele>589.2</ele>
        <time>2018-09-02T07:31:20Z</time>
      </trkpt>
      <trkpt lat="45.73159" lon="4.62909">
        <ele>589.6</ele>
        <time>2018-09-02T07:31:22Z</time>
      </trkpt>
      <trkpt lat="45.73159" lon="4.62889">
        <ele>590.1</ele>
        <time>2018-09-02T07:31:28Z</time>
      </trkpt>
      <trkpt lat="45.73164" lon="4.62864">
        <ele>590.3</ele>
        <time>2018-09-02T07:31:34Z</time>
      </trkpt>
      <trkpt lat="45.73167" lon="4.62848">
        <ele>590.8</ele>
        <time>2018-09-02T07:31:38Z</time>
      </trkpt>
      <trkpt lat="45.73169" lon="4.62841">
        <ele>591.1</ele>
        <time>2018-09-02T07:31:40Z</time>
      </trkpt>
      <trkpt lat="45.73173" lon="4.62832">
        <ele>591.8</ele>
        <time>2018-09-02T07:31:43Z</time>
      </trkpt>
      <trkpt lat="45.73179" lon="4.62815">
        <ele>592.9</ele>
        <time>2018-09-02T07:31:48Z</time>
      </trkpt>
      <trkpt lat="45.73188" lon="4.62785">
        <ele>594.6</ele>
        <time>2018-09-02T07:31:56Z</time>
      </trkpt>
      <trkpt lat="45.73191" lon="4.6277">
        <ele>595.7</ele>
        <time>2018-09-02T07:32:00Z</time>
      </trkpt>
      <trkpt lat="45.73194" lon="4.6276">
        <ele>596.5</ele>
        <time>2018-09-02T07:32:03Z</time>
      </trkpt>
      <trkpt lat="45.73194" lon="4.62756">
        <ele>596.8</ele>
        <time>2018-09-02T07:32:04Z</time>
      </trkpt>
      <trkpt lat="45.73197" lon="4.62733">
        <ele>597.8</ele>
        <time>2018-09-02T07:32:10Z</time>
      </trkpt>
      <trkpt lat="45.73197" lon="4.62726">
        <ele>598.7</ele>
        <time>2018-09-02T07:32:12Z</time>
      </trkpt>
      <trkpt lat="45.73198" lon="4.62721">
        <ele>599.9</ele>
        <time>2018-09-02T07:32:14Z</time>
      </trkpt>
      <trkpt lat="45.73199" lon="4.62721">
        <ele>600.4</ele>
        <time>2018-09-02T07:32:15Z</time>
      </trkpt>
      <trkpt lat="45.73202" lon="4.6272">
        <ele>601.1</ele>
        <time>2018-09-02T07:32:17Z</time>
      </trkpt>
      <trkpt lat="45.73203" lon="4.62721">
        <ele>601.5</ele>
        <time>2018-09-02T07:32:18Z</time>
      </trkpt>
      <trkpt lat="45.73203" lon="4.62734">
        <ele>604</ele>
        <time>2018-09-02T07:32:27Z</time>
      </trkpt>
      <trkpt lat="45.73204" lon="4.62741">
        <ele>605.3</ele>
        <time>2018-09-02T07:32:31Z</time>
      </trkpt>
      <trkpt lat="45.73204" lon="4.62744">
        <ele>605.7</ele>
        <time>2018-09-02T07:32:33Z</time>
      </trkpt>
      <trkpt lat="45.73206" lon="4.62753">
        <ele>607.2</ele>
        <time>2018-09-02T07:32:39Z</time>
      </trkpt>
      <trkpt lat="45.73207" lon="4.62755">
        <ele>607.6</ele>
        <time>2018-09-02T07:32:40Z</time>
      </trkpt>
      <trkpt lat="45.73209" lon="4.62763">
        <ele>608.8</ele>
        <time>2018-09-02T07:32:44Z</time>
      </trkpt>
      <trkpt lat="45.73211" lon="4.62767">
        <ele>609.3</ele>
        <time>2018-09-02T07:32:47Z</time>
      </trkpt>
      <trkpt lat="45.73212" lon="4.62773">
        <ele>610</ele>
        <time>2018-09-02T07:32:51Z</time>
      </trkpt>
      <trkpt lat="45.73212" lon="4.62776">
        <ele>610.3</ele>
        <time>2018-09-02T07:32:53Z</time>
      </trkpt>
      <trkpt lat="45.73257" lon="4.62805">
        <ele>623.7</ele>
        <time>2018-09-02T07:36:06Z</time>
      </trkpt>
      <trkpt lat="45.7326" lon="4.62801">
        <ele>624.5</ele>
        <time>2018-09-02T07:36:08Z</time>
      </trkpt>
      <trkpt lat="45.73265" lon="4.62796">
        <ele>626.1</ele>
        <time>2018-09-02T07:36:12Z</time>
      </trkpt>
      <trkpt lat="45.73268" lon="4.62792">
        <ele>627.2</ele>
        <time>2018-09-02T07:36:15Z</time>
      </trkpt>
      <trkpt lat="45.73269" lon="4.62791">
        <ele>627.5</ele>
        <time>2018-09-02T07:36:16Z</time>
      </trkpt>
      <trkpt lat="45.73274" lon="4.62787">
        <ele>629</ele>
        <time>2018-09-02T07:36:20Z</time>
      </trkpt>
      <trkpt lat="45.7328" lon="4.62784">
        <ele>630.9</ele>
        <time>2018-09-02T07:36:23Z</time>
      </trkpt>
      <trkpt lat="45.73289" lon="4.6278">
        <ele>633.2</ele>
        <time>2018-09-02T07:36:29Z</time>
      </trkpt>
      <trkpt lat="45.7329" lon="4.6278">
        <ele>633.5</ele>
        <time>2018-09-02T07:36:30Z</time>
      </trkpt>
      <trkpt lat="45.73296" lon="4.62779">
        <ele>635.3</ele>
        <time>2018-09-02T07:36:34Z</time>
      </trkpt>
      <trkpt lat="45.73301" lon="4.62777">
        <ele>636.6</ele>
        <time>2018-09-02T07:36:37Z</time>
      </trkpt>
      <trkpt lat="45.73302" lon="4.62777">
        <ele>637.2</ele>
        <time>2018-09-02T07:36:38Z</time>
      </trkpt>
      <trkpt lat="45.73315" lon="4.62771">
        <ele>640.9</ele>
        <time>2018-09-02T07:36:46Z</time>
      </trkpt>
      <trkpt lat="45.73327" lon="4.62766">
        <ele>643.1</ele>
        <time>2018-09-02T07:36:52Z</time>
      </trkpt>
      <trkpt lat="45.73333" lon="4.62765">
        <ele>644.2</ele>
        <time>2018-09-02T07:36:55Z</time>
      </trkpt>
      <trkpt lat="45.73349" lon="4.62757">
        <ele>646.3</ele>
        <time>2018-09-02T07:37:02Z</time>
      </trkpt>
      <trkpt lat="45.73365" lon="4.62751">
        <ele>643.9</ele>
        <time>2018-09-02T07:37:09Z</time>
      </trkpt>
      <trkpt lat="45.73379" lon="4.62745">
        <ele>641.8</ele>
        <time>2018-09-02T07:37:15Z</time>
      </trkpt>
      <trkpt lat="45.73381" lon="4.62745">
        <ele>641.4</ele>
        <time>2018-09-02T07:37:16Z</time>
      </trkpt>
      <trkpt lat="45.73396" lon="4.62741">
        <ele>639.3</ele>
        <time>2018-09-02T07:37:22Z</time>
      </trkpt>
      <trkpt lat="45.73401" lon="4.62737">
        <ele>638.4</ele>
        <time>2018-09-02T07:37:24Z</time>
      </trkpt>
      <trkpt lat="45.73405" lon="4.62734">
        <ele>637.8</ele>
        <time>2018-09-02T07:37:26Z</time>
      </trkpt>
      <trkpt lat="45.73411" lon="4.62729">
        <ele>636.6</ele>
        <time>2018-09-02T07:37:29Z</time>
      </trkpt>
      <trkpt lat="45.73413" lon="4.62728">
        <ele>636.4</ele>
        <time>2018-09-02T07:37:30Z</time>
      </trkpt>
      <trkpt lat="45.73418" lon="4.62725">
        <ele>636.3</ele>
        <time>2018-09-02T07:37:33Z</time>
      </trkpt>
      <trkpt lat="45.73421" lon="4.62723">
        <ele>636.7</ele>
        <time>2018-09-02T07:37:35Z</time>
      </trkpt>
      <trkpt lat="45.73425" lon="4.6272">
        <ele>637</ele>
        <time>2018-09-02T07:37:38Z</time>
      </trkpt>
      <trkpt lat="45.73428" lon="4.62716">
        <ele>637.5</ele>
        <time>2018-09-02T07:37:41Z</time>
      </trkpt>
      <trkpt lat="45.7343" lon="4.62714">
        <ele>637.7</ele>
        <time>2018-09-02T07:37:42Z</time>
      </trkpt>
      <trkpt lat="45.73445" lon="4.62695">
        <ele>641.4</ele>
        <time>2018-09-02T07:37:55Z</time>
      </trkpt>
      <trkpt lat="45.73447" lon="4.62693">
        <ele>642.1</ele>
        <time>2018-09-02T07:37:57Z</time>
      </trkpt>
      <trkpt lat="45.73448" lon="4.62692">
        <ele>642.4</ele>
        <time>2018-09-02T07:37:58Z</time>
      </trkpt>
      <trkpt lat="45.73456" lon="4.62677">
        <ele>644.7</ele>
        <time>2018-09-02T07:38:06Z</time>
      </trkpt>
      <trkpt lat="45.73457" lon="4.62676">
        <ele>644.8</ele>
        <time>2018-09-02T07:38:07Z</time>
      </trkpt>
      <trkpt lat="45.73513" lon="4.62477">
        <ele>671.5</ele>
        <time>2018-09-02T07:40:10Z</time>
      </trkpt>
      <trkpt lat="45.7351" lon="4.62472">
        <ele>671.4</ele>
        <time>2018-09-02T07:40:12Z</time>
      </trkpt>
      <trkpt lat="45.735" lon="4.62454">
        <ele>670.7</ele>
        <time>2018-09-02T07:40:22Z</time>
      </trkpt>
      <trkpt lat="45.73496" lon="4.62447">
        <ele>671.3</ele>
        <time>2018-09-02T07:40:24Z</time>
      </trkpt>
      <trkpt lat="45.73489" lon="4.62441">
        <ele>670.1</ele>
        <time>2018-09-02T07:40:26Z</time>
      </trkpt>
      <trkpt lat="45.7348" lon="4.62432">
        <ele>668.8</ele>
        <time>2018-09-02T07:40:29Z</time>
      </trkpt>
      <trkpt lat="45.73478" lon="4.62428">
        <ele>668.5</ele>
        <time>2018-09-02T07:40:30Z</time>
      </trkpt>
      <trkpt lat="45.73473" lon="4.62419">
        <ele>667.5</ele>
        <time>2018-09-02T07:40:34Z</time>
      </trkpt>
      <trkpt lat="45.7347" lon="4.62413">
        <ele>667.7</ele>
        <time>2018-09-02T07:40:36Z</time>
      </trkpt>
      <trkpt lat="45.73463" lon="4.62401">
        <ele>666.6</ele>
        <time>2018-09-02T07:40:40Z</time>
      </trkpt>
      <trkpt lat="45.73458" lon="4.62393">
        <ele>665.9</ele>
        <time>2018-09-02T07:40:45Z</time>
      </trkpt>
      <trkpt lat="45.73455" lon="4.62388">
        <ele>665.5</ele>
        <time>2018-09-02T07:40:47Z</time>
      </trkpt>
      <trkpt lat="45.7345" lon="4.62377">
        <ele>666.4</ele>
        <time>2018-09-02T07:40:50Z</time>
      </trkpt>
      <trkpt lat="45.73447" lon="4.62368">
        <ele>666.2</ele>
        <time>2018-09-02T07:40:53Z</time>
      </trkpt>
      <trkpt lat="45.73443" lon="4.62353">
        <ele>664.8</ele>
        <time>2018-09-02T07:40:58Z</time>
      </trkpt>
      <trkpt lat="45.73439" lon="4.62344">
        <ele>664.5</ele>
        <time>2018-09-02T07:41:01Z</time>
      </trkpt>
      <trkpt lat="45.7343" lon="4.62335">
        <ele>662.2</ele>
        <time>2018-09-02T07:41:04Z</time>
      </trkpt>
      <trkpt lat="45.73426" lon="4.62331">
        <ele>660.8</ele>
        <time>2018-09-02T07:41:05Z</time>
      </trkpt>
      <trkpt lat="45.73416" lon="4.62327">
        <ele>656</ele>
        <time>2018-09-02T07:41:07Z</time>
      </trkpt>
      <trkpt lat="45.73409" lon="4.6232">
        <ele>653.5</ele>
        <time>2018-09-02T07:41:09Z</time>
      </trkpt>
      <trkpt lat="45.73405" lon="4.62312">
        <ele>652.8</ele>
        <time>2018-09-02T07:41:10Z</time>
      </trkpt>
      <trkpt lat="45.73404" lon="4.62305">
        <ele>652.3</ele>
        <time>2018-09-02T07:41:11Z</time>
      </trkpt>
      <trkpt lat="45.73402" lon="4.62293">
        <ele>653.1</ele>
        <time>2018-09-02T07:41:13Z</time>
      </trkpt>
      <trkpt lat="45.734" lon="4.62287">
        <ele>652.3</ele>
        <time>2018-09-02T07:41:14Z</time>
      </trkpt>
      <trkpt lat="45.73397" lon="4.6228">
        <ele>651.1</ele>
        <time>2018-09-02T07:41:15Z</time>
      </trkpt>
      <trkpt lat="45.73394" lon="4.62272">
        <ele>650</ele>
        <time>2018-09-02T07:41:16Z</time>
      </trkpt>
      <trkpt lat="45.73391" lon="4.62265">
        <ele>648.6</ele>
        <time>2018-09-02T07:41:17Z</time>
      </trkpt>
      <trkpt lat="45.73378" lon="4.6224">
        <ele>642.4</ele>
        <time>2018-09-02T07:41:21Z</time>
      </trkpt>
      <trkpt lat="45.73376" lon="4.62236">
        <ele>642.7</ele>
        <time>2018-09-02T07:41:22Z</time>
      </trkpt>
      <trkpt lat="45.73369" lon="4.62232">
        <ele>643.2</ele>
        <time>2018-09-02T07:41:25Z</time>
      </trkpt>
      <trkpt lat="45.73368" lon="4.6223">
        <ele>643.3</ele>
        <time>2018-09-02T07:41:26Z</time>
      </trkpt>
      <trkpt lat="45.73369" lon="4.62226">
        <ele>643.4</ele>
        <time>2018-09-02T07:41:29Z</time>
      </trkpt>
      <trkpt lat="45.7337" lon="4.62222">
        <ele>643.4</ele>
        <time>2018-09-02T07:41:30Z</time>
      </trkpt>
      <trkpt lat="45.73371" lon="4.62218">
        <ele>643.5</ele>
        <time>2018-09-02T07:41:31Z</time>
      </trkpt>
      <trkpt lat="45.73372" lon="4.62214">
        <ele>643.6</ele>
        <time>2018-09-02T07:41:32Z</time>
      </trkpt>
      <trkpt lat="45.73379" lon="4.62192">
        <ele>643.9</ele>
        <time>2018-09-02T07:41:37Z</time>
      </trkpt>
      <trkpt lat="45.73381" lon="4.62187">
        <ele>644</ele>
        <time>2018-09-02T07:41:38Z</time>
      </trkpt>
      <trkpt lat="45.73389" lon="4.62167">
        <ele>644.4</ele>
        <time>2018-09-02T07:41:42Z</time>
      </trkpt>
      <trkpt lat="45.7339" lon="4.6216">
        <ele>644.6</ele>
        <time>2018-09-02T07:41:43Z</time>
      </trkpt>
      <trkpt lat="45.73392" lon="4.62149">
        <ele>645.1</ele>
        <time>2018-09-02T07:41:45Z</time>
      </trkpt>
      <trkpt lat="45.73397" lon="4.62115">
        <ele>646.7</ele>
        <time>2018-09-02T07:41:52Z</time>
      </trkpt>
      <trkpt lat="45.73399" lon="4.62089">
        <ele>648</ele>
        <time>2018-09-02T07:41:59Z</time>
      </trkpt>
      <trkpt lat="45.734" lon="4.62082">
        <ele>648.2</ele>
        <time>2018-09-02T07:42:01Z</time>
      </trkpt>
      <trkpt lat="45.73401" lon="4.62064">
        <ele>648.7</ele>
        <time>2018-09-02T07:42:06Z</time>
      </trkpt>
      <trkpt lat="45.73401" lon="4.62061">
        <ele>648.8</ele>
        <time>2018-09-02T07:42:07Z</time>
      </trkpt>
      <trkpt lat="45.73401" lon="4.62044">
        <ele>649.8</ele>
        <time>2018-09-02T07:42:12Z</time>
      </trkpt>
      <trkpt lat="45.734" lon="4.62036">
        <ele>650.3</ele>
        <time>2018-09-02T07:42:14Z</time>
      </trkpt>
      <trkpt lat="45.734" lon="4.62032">
        <ele>650.5</ele>
        <time>2018-09-02T07:42:15Z</time>
      </trkpt>
      <trkpt lat="45.734" lon="4.62024">
        <ele>650.7</ele>
        <time>2018-09-02T07:42:17Z</time>
      </trkpt>
      <trkpt lat="45.73399" lon="4.6201">
        <ele>651.2</ele>
        <time>2018-09-02T07:42:21Z</time>
      </trkpt>
      <trkpt lat="45.73398" lon="4.62006">
        <ele>651.4</ele>
        <time>2018-09-02T07:42:22Z</time>
      </trkpt>
      <trkpt lat="45.73395" lon="4.61982">
        <ele>652.5</ele>
        <time>2018-09-02T07:42:28Z</time>
      </trkpt>
      <trkpt lat="45.73394" lon="4.61971">
        <ele>652.7</ele>
        <time>2018-09-02T07:42:31Z</time>
      </trkpt>
      <trkpt lat="45.7339" lon="4.61959">
        <ele>652.9</ele>
        <time>2018-09-02T07:42:35Z</time>
      </trkpt>
      <trkpt lat="45.73389" lon="4.61957">
        <ele>653</ele>
        <time>2018-09-02T07:42:36Z</time>
      </trkpt>
      <trkpt lat="45.73381" lon="4.61942">
        <ele>649.4</ele>
        <time>2018-09-02T07:42:40Z</time>
      </trkpt>
      <trkpt lat="45.7337" lon="4.61924">
        <ele>646.5</ele>
        <time>2018-09-02T07:42:43Z</time>
      </trkpt>
      <trkpt lat="45.73357" lon="4.6191">
        <ele>644.7</ele>
        <time>2018-09-02T07:42:46Z</time>
      </trkpt>
      <trkpt lat="45.73337" lon="4.61881">
        <ele>642.6</ele>
        <time>2018-09-02T07:42:51Z</time>
      </trkpt>
      <trkpt lat="45.73334" lon="4.61873">
        <ele>642.3</ele>
        <time>2018-09-02T07:42:52Z</time>
      </trkpt>
      <trkpt lat="45.73323" lon="4.61842">
        <ele>640.8</ele>
        <time>2018-09-02T07:42:56Z</time>
      </trkpt>
      <trkpt lat="45.73313" lon="4.61795">
        <ele>638.2</ele>
        <time>2018-09-02T07:43:03Z</time>
      </trkpt>
      <trkpt lat="45.73303" lon="4.61758">
        <ele>635</ele>
        <time>2018-09-02T07:43:08Z</time>
      </trkpt>
      <trkpt lat="45.73299" lon="4.61744">
        <ele>632.7</ele>
        <time>2018-09-02T07:43:10Z</time>
      </trkpt>
      <trkpt lat="45.73299" lon="4.61731">
        <ele>630.4</ele>
        <time>2018-09-02T07:43:12Z</time>
      </trkpt>
      <trkpt lat="45.73299" lon="4.61725">
        <ele>629.2</ele>
        <time>2018-09-02T07:43:13Z</time>
      </trkpt>
      <trkpt lat="45.73302" lon="4.61699">
        <ele>626.9</ele>
        <time>2018-09-02T07:43:18Z</time>
      </trkpt>
      <trkpt lat="45.73307" lon="4.61682">
        <ele>625.5</ele>
        <time>2018-09-02T07:43:23Z</time>
      </trkpt>
      <trkpt lat="45.73312" lon="4.61668">
        <ele>624.4</ele>
        <time>2018-09-02T07:43:28Z</time>
      </trkpt>
      <trkpt lat="45.73323" lon="4.61648">
        <ele>622.7</ele>
        <time>2018-09-02T07:43:34Z</time>
      </trkpt>
      <trkpt lat="45.73332" lon="4.61627">
        <ele>629</ele>
        <time>2018-09-02T07:43:39Z</time>
      </trkpt>
      <trkpt lat="45.73336" lon="4.61617">
        <ele>631</ele>
        <time>2018-09-02T07:43:42Z</time>
      </trkpt>
      <trkpt lat="45.73339" lon="4.6161">
        <ele>632.4</ele>
        <time>2018-09-02T07:43:44Z</time>
      </trkpt>
      <trkpt lat="45.73342" lon="4.61604">
        <ele>633.7</ele>
        <time>2018-09-02T07:43:46Z</time>
      </trkpt>
      <trkpt lat="45.73343" lon="4.61602">
        <ele>634.2</ele>
        <time>2018-09-02T07:43:47Z</time>
      </trkpt>
      <trkpt lat="45.73345" lon="4.61599">
        <ele>634.9</ele>
        <time>2018-09-02T07:43:48Z</time>
      </trkpt>
      <trkpt lat="45.73353" lon="4.61587">
        <ele>637.6</ele>
        <time>2018-09-02T07:43:52Z</time>
      </trkpt>
      <trkpt lat="45.73354" lon="4.61583">
        <ele>638</ele>
        <time>2018-09-02T07:43:53Z</time>
      </trkpt>
      <trkpt lat="45.7336" lon="4.61568">
        <ele>640.3</ele>
        <time>2018-09-02T07:43:57Z</time>
      </trkpt>
      <trkpt lat="45.73361" lon="4.61564">
        <ele>640.9</ele>
        <time>2018-09-02T07:43:58Z</time>
      </trkpt>
      <trkpt lat="45.73364" lon="4.61553">
        <ele>642.2</ele>
        <time>2018-09-02T07:44:01Z</time>
      </trkpt>
      <trkpt lat="45.73367" lon="4.61542">
        <ele>643.5</ele>
        <time>2018-09-02T07:44:04Z</time>
      </trkpt>
      <trkpt lat="45.73368" lon="4.61539">
        <ele>643.9</ele>
        <time>2018-09-02T07:44:05Z</time>
      </trkpt>
      <trkpt lat="45.7337" lon="4.61524">
        <ele>645.4</ele>
        <time>2018-09-02T07:44:09Z</time>
      </trkpt>
      <trkpt lat="45.73379" lon="4.61496">
        <ele>648.5</ele>
        <time>2018-09-02T07:44:15Z</time>
      </trkpt>
      <trkpt lat="45.73388" lon="4.61464">
        <ele>651.7</ele>
        <time>2018-09-02T07:44:22Z</time>
      </trkpt>
      <trkpt lat="45.73392" lon="4.61452">
        <ele>652.8</ele>
        <time>2018-09-02T07:44:24Z</time>
      </trkpt>
      <trkpt lat="45.73398" lon="4.61435">
        <ele>655.3</ele>
        <time>2018-09-02T07:44:27Z</time>
      </trkpt>
      <trkpt lat="45.73401" lon="4.61421">
        <ele>656.1</ele>
        <time>2018-09-02T07:44:30Z</time>
      </trkpt>
      <trkpt lat="45.734" lon="4.61415">
        <ele>656.1</ele>
        <time>2018-09-02T07:44:32Z</time>
      </trkpt>
      <trkpt lat="45.73399" lon="4.61413">
        <ele>656.1</ele>
        <time>2018-09-02T07:44:33Z</time>
      </trkpt>
      <trkpt lat="45.73378" lon="4.61408">
        <ele>654.6</ele>
        <time>2018-09-02T07:45:01Z</time>
      </trkpt>
      <trkpt lat="45.73376" lon="4.61408">
        <ele>654.5</ele>
        <time>2018-09-02T07:45:02Z</time>
      </trkpt>
      <trkpt lat="45.73358" lon="4.61405">
        <ele>653.6</ele>
        <time>2018-09-02T07:45:07Z</time>
      </trkpt>
      <trkpt lat="45.7334" lon="4.61403">
        <ele>652.4</ele>
        <time>2018-09-02T07:45:11Z</time>
      </trkpt>
      <trkpt lat="45.73331" lon="4.61402">
        <ele>652.6</ele>
        <time>2018-09-02T07:45:13Z</time>
      </trkpt>
      <trkpt lat="45.73311" lon="4.61398">
        <ele>652</ele>
        <time>2018-09-02T07:45:19Z</time>
      </trkpt>
      <trkpt lat="45.733" lon="4.61393">
        <ele>652.1</ele>
        <time>2018-09-02T07:45:25Z</time>
      </trkpt>
      <trkpt lat="45.73287" lon="4.61386">
        <ele>654</ele>
        <time>2018-09-02T07:45:31Z</time>
      </trkpt>
      <trkpt lat="45.73275" lon="4.61375">
        <ele>655</ele>
        <time>2018-09-02T07:45:37Z</time>
      </trkpt>
      <trkpt lat="45.73271" lon="4.6137">
        <ele>655.6</ele>
        <time>2018-09-02T07:45:39Z</time>
      </trkpt>
      <trkpt lat="45.73262" lon="4.61358">
        <ele>657.1</ele>
        <time>2018-09-02T07:45:43Z</time>
      </trkpt>
      <trkpt lat="45.73253" lon="4.61348">
        <ele>659</ele>
        <time>2018-09-02T07:45:46Z</time>
      </trkpt>
      <trkpt lat="45.7325" lon="4.61343">
        <ele>659.6</ele>
        <time>2018-09-02T07:45:47Z</time>
      </trkpt>
      <trkpt lat="45.73247" lon="4.61337">
        <ele>660.3</ele>
        <time>2018-09-02T07:45:48Z</time>
      </trkpt>
      <trkpt lat="45.73238" lon="4.61315">
        <ele>663.8</ele>
        <time>2018-09-02T07:45:52Z</time>
      </trkpt>
      <trkpt lat="45.73231" lon="4.6128">
        <ele>668.8</ele>
        <time>2018-09-02T07:45:58Z</time>
      </trkpt>
      <trkpt lat="45.73232" lon="4.61234">
        <ele>677.6</ele>
        <time>2018-09-02T07:46:05Z</time>
      </trkpt>
      <trkpt lat="45.73232" lon="4.61203">
        <ele>683.3</ele>
        <time>2018-09-02T07:46:10Z</time>
      </trkpt>
      <trkpt lat="45.73228" lon="4.61161">
        <ele>688.6</ele>
        <time>2018-09-02T07:46:17Z</time>
      </trkpt>
      <trkpt lat="45.73221" lon="4.61127">
        <ele>693.3</ele>
        <time>2018-09-02T07:46:23Z</time>
      </trkpt>
      <trkpt lat="45.7321" lon="4.61094">
        <ele>696.9</ele>
        <time>2018-09-02T07:46:30Z</time>
      </trkpt>
      <trkpt lat="45.73199" lon="4.61078">
        <ele>698</ele>
        <time>2018-09-02T07:46:36Z</time>
      </trkpt>
      <trkpt lat="45.73189" lon="4.61072">
        <ele>698</ele>
        <time>2018-09-02T07:46:40Z</time>
      </trkpt>
      <trkpt lat="45.73186" lon="4.61075">
        <ele>698</ele>
        <time>2018-09-02T07:46:41Z</time>
      </trkpt>
      <trkpt lat="45.7317" lon="4.61098">
        <ele>696.9</ele>
        <time>2018-09-02T07:46:47Z</time>
      </trkpt>
      <trkpt lat="45.73167" lon="4.61102">
        <ele>696.5</ele>
        <time>2018-09-02T07:46:48Z</time>
      </trkpt>
      <trkpt lat="45.73152" lon="4.61117">
        <ele>695.1</ele>
        <time>2018-09-02T07:46:52Z</time>
      </trkpt>
      <trkpt lat="45.73148" lon="4.61121">
        <ele>694.7</ele>
        <time>2018-09-02T07:46:53Z</time>
      </trkpt>
      <trkpt lat="45.73127" lon="4.61134">
        <ele>693</ele>
        <time>2018-09-02T07:46:58Z</time>
      </trkpt>
      <trkpt lat="45.73096" lon="4.61145">
        <ele>690.3</ele>
        <time>2018-09-02T07:47:05Z</time>
      </trkpt>
      <trkpt lat="45.73078" lon="4.61158">
        <ele>688.5</ele>
        <time>2018-09-02T07:47:09Z</time>
      </trkpt>
      <trkpt lat="45.73073" lon="4.61164">
        <ele>688</ele>
        <time>2018-09-02T07:47:10Z</time>
      </trkpt>
      <trkpt lat="45.73038" lon="4.61208">
        <ele>684</ele>
        <time>2018-09-02T07:47:18Z</time>
      </trkpt>
      <trkpt lat="45.73016" lon="4.61234">
        <ele>682</ele>
        <time>2018-09-02T07:47:22Z</time>
      </trkpt>
      <trkpt lat="45.7301" lon="4.61238">
        <ele>682.1</ele>
        <time>2018-09-02T07:47:23Z</time>
      </trkpt>
      <trkpt lat="45.72994" lon="4.61245">
        <ele>682.4</ele>
        <time>2018-09-02T07:47:26Z</time>
      </trkpt>
      <trkpt lat="45.72979" lon="4.61246">
        <ele>683.2</ele>
        <time>2018-09-02T07:47:30Z</time>
      </trkpt>
      <trkpt lat="45.72975" lon="4.61245">
        <ele>683.3</ele>
        <time>2018-09-02T07:47:31Z</time>
      </trkpt>
      <trkpt lat="45.72967" lon="4.61243">
        <ele>683.7</ele>
        <time>2018-09-02T07:47:33Z</time>
      </trkpt>
      <trkpt lat="45.72959" lon="4.61242">
        <ele>683.8</ele>
        <time>2018-09-02T07:47:35Z</time>
      </trkpt>
      <trkpt lat="45.72955" lon="4.61242">
        <ele>683.9</ele>
        <time>2018-09-02T07:47:36Z</time>
      </trkpt>
      <trkpt lat="45.72951" lon="4.61241">
        <ele>683.9</ele>
        <time>2018-09-02T07:47:37Z</time>
      </trkpt>
      <trkpt lat="45.7294" lon="4.61241">
        <ele>684</ele>
        <time>2018-09-02T07:47:40Z</time>
      </trkpt>
      <trkpt lat="45.72937" lon="4.6124">
        <ele>684</ele>
        <time>2018-09-02T07:47:41Z</time>
      </trkpt>
      <trkpt lat="45.72931" lon="4.61239">
        <ele>684</ele>
        <time>2018-09-02T07:47:43Z</time>
      </trkpt>
      <trkpt lat="45.72925" lon="4.61237">
        <ele>683.9</ele>
        <time>2018-09-02T07:47:45Z</time>
      </trkpt>
      <trkpt lat="45.72914" lon="4.61229">
        <ele>683.8</ele>
        <time>2018-09-02T07:47:48Z</time>
      </trkpt>
      <trkpt lat="45.72897" lon="4.61217">
        <ele>683.5</ele>
        <time>2018-09-02T07:47:54Z</time>
      </trkpt>
      <trkpt lat="45.72884" lon="4.61208">
        <ele>683.1</ele>
        <time>2018-09-02T07:47:59Z</time>
      </trkpt>
      <trkpt lat="45.72879" lon="4.61203">
        <ele>682.9</ele>
        <time>2018-09-02T07:48:01Z</time>
      </trkpt>
      <trkpt lat="45.72864" lon="4.61192">
        <ele>682.5</ele>
        <time>2018-09-02T07:48:05Z</time>
      </trkpt>
      <trkpt lat="45.7286" lon="4.61189">
        <ele>682.4</ele>
        <time>2018-09-02T07:48:06Z</time>
      </trkpt>
      <trkpt lat="45.72823" lon="4.61165">
        <ele>680.2</ele>
        <time>2018-09-02T07:48:14Z</time>
      </trkpt>
      <trkpt lat="45.72807" lon="4.6116">
        <ele>679.1</ele>
        <time>2018-09-02T07:48:17Z</time>
      </trkpt>
      <trkpt lat="45.72793" lon="4.61161">
        <ele>678.4</ele>
        <time>2018-09-02T07:48:20Z</time>
      </trkpt>
      <trkpt lat="45.72789" lon="4.61163">
        <ele>678.3</ele>
        <time>2018-09-02T07:48:21Z</time>
      </trkpt>
      <trkpt lat="45.72785" lon="4.61165">
        <ele>678.2</ele>
        <time>2018-09-02T07:48:22Z</time>
      </trkpt>
      <trkpt lat="45.72762" lon="4.61181">
        <ele>678.1</ele>
        <time>2018-09-02T07:48:27Z</time>
      </trkpt>
      <trkpt lat="45.72741" lon="4.61196">
        <ele>678.3</ele>
        <time>2018-09-02T07:48:33Z</time>
      </trkpt>
      <trkpt lat="45.72727" lon="4.6121">
        <ele>678</ele>
        <time>2018-09-02T07:48:37Z</time>
      </trkpt>
      <trkpt lat="45.72719" lon="4.61215">
        <ele>677.7</ele>
        <time>2018-09-02T07:48:39Z</time>
      </trkpt>
      <trkpt lat="45.72692" lon="4.61225">
        <ele>676.5</ele>
        <time>2018-09-02T07:48:44Z</time>
      </trkpt>
      <trkpt lat="45.72686" lon="4.61225">
        <ele>676.2</ele>
        <time>2018-09-02T07:48:45Z</time>
      </trkpt>
      <trkpt lat="45.72681" lon="4.61227">
        <ele>675.8</ele>
        <time>2018-09-02T07:48:46Z</time>
      </trkpt>
      <trkpt lat="45.72663" lon="4.61236">
        <ele>674.7</ele>
        <time>2018-09-02T07:48:50Z</time>
      </trkpt>
      <trkpt lat="45.72649" lon="4.61239">
        <ele>673.8</ele>
        <time>2018-09-02T07:48:53Z</time>
      </trkpt>
      <trkpt lat="45.72639" lon="4.61237">
        <ele>673.2</ele>
        <time>2018-09-02T07:48:55Z</time>
      </trkpt>
      <trkpt lat="45.72624" lon="4.61228">
        <ele>672.6</ele>
        <time>2018-09-02T07:48:58Z</time>
      </trkpt>
      <trkpt lat="45.72619" lon="4.61225">
        <ele>672.5</ele>
        <time>2018-09-02T07:48:59Z</time>
      </trkpt>
      <trkpt lat="45.72616" lon="4.61222">
        <ele>672.5</ele>
        <time>2018-09-02T07:49:00Z</time>
      </trkpt>
      <trkpt lat="45.72603" lon="4.61213">
        <ele>672.7</ele>
        <time>2018-09-02T07:49:05Z</time>
      </trkpt>
      <trkpt lat="45.72581" lon="4.61216">
        <ele>673.1</ele>
        <time>2018-09-02T07:49:11Z</time>
      </trkpt>
      <trkpt lat="45.72562" lon="4.6123">
        <ele>673.2</ele>
        <time>2018-09-02T07:49:18Z</time>
      </trkpt>
      <trkpt lat="45.72547" lon="4.61253">
        <ele>673.2</ele>
        <time>2018-09-02T07:49:23Z</time>
      </trkpt>
      <trkpt lat="45.72526" lon="4.61284">
        <ele>672.6</ele>
        <time>2018-09-02T07:49:29Z</time>
      </trkpt>
      <trkpt lat="45.72522" lon="4.61288">
        <ele>672.5</ele>
        <time>2018-09-02T07:49:30Z</time>
      </trkpt>
      <trkpt lat="45.72512" lon="4.61292">
        <ele>672.3</ele>
        <time>2018-09-02T07:49:32Z</time>
      </trkpt>
      <trkpt lat="45.72507" lon="4.61293">
        <ele>672.2</ele>
        <time>2018-09-02T07:49:33Z</time>
      </trkpt>
      <trkpt lat="45.72502" lon="4.61294">
        <ele>672.1</ele>
        <time>2018-09-02T07:49:34Z</time>
      </trkpt>
      <trkpt lat="45.7248" lon="4.61298">
        <ele>671.9</ele>
        <time>2018-09-02T07:49:38Z</time>
      </trkpt>
      <trkpt lat="45.72474" lon="4.61299">
        <ele>671.9</ele>
        <time>2018-09-02T07:49:39Z</time>
      </trkpt>
      <trkpt lat="45.72449" lon="4.61306">
        <ele>671.9</ele>
        <time>2018-09-02T07:49:45Z</time>
      </trkpt>
      <trkpt lat="45.72438" lon="4.61304">
        <ele>672</ele>
        <time>2018-09-02T07:49:51Z</time>
      </trkpt>
      <trkpt lat="45.72436" lon="4.61296">
        <ele>672</ele>
        <time>2018-09-02T07:49:56Z</time>
      </trkpt>
      <trkpt lat="45.72436" lon="4.6129">
        <ele>672</ele>
        <time>2018-09-02T07:49:59Z</time>
      </trkpt>
      <trkpt lat="45.72435" lon="4.61286">
        <ele>672</ele>
        <time>2018-09-02T07:50:01Z</time>
      </trkpt>
      <trkpt lat="45.72436" lon="4.61283">
        <ele>672</ele>
        <time>2018-09-02T07:50:03Z</time>
      </trkpt>
      <trkpt lat="45.72437" lon="4.61279">
        <ele>672</ele>
        <time>2018-09-02T07:50:07Z</time>
      </trkpt>
      <trkpt lat="45.72443" lon="4.61276">
        <ele>672.1</ele>
        <time>2018-09-02T07:50:11Z</time>
      </trkpt>
      <trkpt lat="45.72444" lon="4.61276">
        <ele>672.2</ele>
        <time>2018-09-02T07:50:12Z</time>
      </trkpt>
      <trkpt lat="45.72441" lon="4.61274">
        <ele>672.2</ele>
        <time>2018-09-02T07:53:33Z</time>
      </trkpt>
      <trkpt lat="45.7244" lon="4.61271">
        <ele>672.3</ele>
        <time>2018-09-02T07:53:35Z</time>
      </trkpt>
      <trkpt lat="45.7244" lon="4.61254">
        <ele>672.4</ele>
        <time>2018-09-02T07:56:00Z</time>
      </trkpt>
      <trkpt lat="45.72439" lon="4.61251">
        <ele>672.4</ele>
        <time>2018-09-02T07:56:01Z</time>
      </trkpt>
      <trkpt lat="45.72435" lon="4.61239">
        <ele>672.5</ele>
        <time>2018-09-02T07:56:05Z</time>
      </trkpt>
      <trkpt lat="45.7243" lon="4.61216">
        <ele>672.1</ele>
        <time>2018-09-02T07:56:11Z</time>
      </trkpt>
      <trkpt lat="45.7243" lon="4.61209">
        <ele>671.9</ele>
        <time>2018-09-02T07:56:12Z</time>
      </trkpt>
      <trkpt lat="45.72433" lon="4.61194">
        <ele>671.7</ele>
        <time>2018-09-02T07:56:14Z</time>
      </trkpt>
      <trkpt lat="45.72439" lon="4.6116">
        <ele>671.7</ele>
        <time>2018-09-02T07:56:18Z</time>
      </trkpt>
      <trkpt lat="45.72442" lon="4.61136">
        <ele>671.6</ele>
        <time>2018-09-02T07:56:21Z</time>
      </trkpt>
      <trkpt lat="45.72446" lon="4.61098">
        <ele>671.6</ele>
        <time>2018-09-02T07:56:27Z</time>
      </trkpt>
      <trkpt lat="45.72446" lon="4.61055">
        <ele>671.8</ele>
        <time>2018-09-02T07:56:34Z</time>
      </trkpt>
      <trkpt lat="45.72447" lon="4.61032">
        <ele>672.1</ele>
        <time>2018-09-02T07:56:39Z</time>
      </trkpt>
      <trkpt lat="45.72449" lon="4.61002">
        <ele>672.5</ele>
        <time>2018-09-02T07:56:45Z</time>
      </trkpt>
      <trkpt lat="45.72453" lon="4.60963">
        <ele>673.8</ele>
        <time>2018-09-02T07:56:51Z</time>
      </trkpt>
      <trkpt lat="45.72454" lon="4.60955">
        <ele>674.1</ele>
        <time>2018-09-02T07:56:52Z</time>
      </trkpt>
      <trkpt lat="45.72455" lon="4.60942">
        <ele>674.5</ele>
        <time>2018-09-02T07:56:54Z</time>
      </trkpt>
      <trkpt lat="45.72456" lon="4.60922">
        <ele>674.8</ele>
        <time>2018-09-02T07:56:57Z</time>
      </trkpt>
      <trkpt lat="45.72457" lon="4.60907">
        <ele>675</ele>
        <time>2018-09-02T07:56:59Z</time>
      </trkpt>
      <trkpt lat="45.72461" lon="4.60879">
        <ele>675.2</ele>
        <time>2018-09-02T07:57:03Z</time>
      </trkpt>
      <trkpt lat="45.72462" lon="4.60873">
        <ele>675.3</ele>
        <time>2018-09-02T07:57:04Z</time>
      </trkpt>
      <trkpt lat="45.72468" lon="4.60829">
        <ele>675.5</ele>
        <time>2018-09-02T07:57:10Z</time>
      </trkpt>
      <trkpt lat="45.72473" lon="4.60796">
        <ele>675.7</ele>
        <time>2018-09-02T07:57:15Z</time>
      </trkpt>
      <trkpt lat="45.72475" lon="4.60785">
        <ele>675.8</ele>
        <time>2018-09-02T07:57:17Z</time>
      </trkpt>
      <trkpt lat="45.72477" lon="4.60748">
        <ele>676</ele>
        <time>2018-09-02T07:57:23Z</time>
      </trkpt>
      <trkpt lat="45.72476" lon="4.60725">
        <ele>676.1</ele>
        <time>2018-09-02T07:57:27Z</time>
      </trkpt>
      <trkpt lat="45.72474" lon="4.60717">
        <ele>676.1</ele>
        <time>2018-09-02T07:57:29Z</time>
      </trkpt>
      <trkpt lat="45.72463" lon="4.60714">
        <ele>676.2</ele>
        <time>2018-09-02T07:57:32Z</time>
      </trkpt>
      <trkpt lat="45.72459" lon="4.60714">
        <ele>676.3</ele>
        <time>2018-09-02T07:57:33Z</time>
      </trkpt>
      <trkpt lat="45.72437" lon="4.60715">
        <ele>676.4</ele>
        <time>2018-09-02T07:57:38Z</time>
      </trkpt>
      <trkpt lat="45.72418" lon="4.60713">
        <ele>676.5</ele>
        <time>2018-09-02T07:57:43Z</time>
      </trkpt>
      <trkpt lat="45.72413" lon="4.60713">
        <ele>676.5</ele>
        <time>2018-09-02T07:57:44Z</time>
      </trkpt>
      <trkpt lat="45.72404" lon="4.60714">
        <ele>676.5</ele>
        <time>2018-09-02T07:57:46Z</time>
      </trkpt>
      <trkpt lat="45.72394" lon="4.60716">
        <ele>676.4</ele>
        <time>2018-09-02T07:57:48Z</time>
      </trkpt>
      <trkpt lat="45.72376" lon="4.60719">
        <ele>676.1</ele>
        <time>2018-09-02T07:57:51Z</time>
      </trkpt>
      <trkpt lat="45.72363" lon="4.6072">
        <ele>675.7</ele>
        <time>2018-09-02T07:57:53Z</time>
      </trkpt>
      <trkpt lat="45.72356" lon="4.6072">
        <ele>675.5</ele>
        <time>2018-09-02T07:57:54Z</time>
      </trkpt>
      <trkpt lat="45.72343" lon="4.60716">
        <ele>675.4</ele>
        <time>2018-09-02T07:57:56Z</time>
      </trkpt>
      <trkpt lat="45.7233" lon="4.60711">
        <ele>675.6</ele>
        <time>2018-09-02T07:57:58Z</time>
      </trkpt>
      <trkpt lat="45.72298" lon="4.60694">
        <ele>676</ele>
        <time>2018-09-02T07:58:04Z</time>
      </trkpt>
      <trkpt lat="45.72276" lon="4.6068">
        <ele>676.3</ele>
        <time>2018-09-02T07:58:10Z</time>
      </trkpt>
      <trkpt lat="45.72253" lon="4.60664">
        <ele>676.7</ele>
        <time>2018-09-02T07:58:17Z</time>
      </trkpt>
      <trkpt lat="45.72232" lon="4.6065">
        <ele>677</ele>
        <time>2018-09-02T07:58:22Z</time>
      </trkpt>
      <trkpt lat="45.72206" lon="4.60629">
        <ele>678.4</ele>
        <time>2018-09-02T07:58:29Z</time>
      </trkpt>
      <trkpt lat="45.72194" lon="4.60621">
        <ele>679.4</ele>
        <time>2018-09-02T07:58:32Z</time>
      </trkpt>
      <trkpt lat="45.72188" lon="4.60615">
        <ele>680.1</ele>
        <time>2018-09-02T07:58:34Z</time>
      </trkpt>
      <trkpt lat="45.72182" lon="4.60609">
        <ele>680.8</ele>
        <time>2018-09-02T07:58:36Z</time>
      </trkpt>
      <trkpt lat="45.72178" lon="4.60605">
        <ele>680.7</ele>
        <time>2018-09-02T07:58:38Z</time>
      </trkpt>
      <trkpt lat="45.72174" lon="4.60599">
        <ele>679.9</ele>
        <time>2018-09-02T07:58:41Z</time>
      </trkpt>
      <trkpt lat="45.72171" lon="4.60593">
        <ele>679.3</ele>
        <time>2018-09-02T07:58:44Z</time>
      </trkpt>
      <trkpt lat="45.7217" lon="4.6059">
        <ele>679</ele>
        <time>2018-09-02T07:58:45Z</time>
      </trkpt>
      <trkpt lat="45.72168" lon="4.60585">
        <ele>678.4</ele>
        <time>2018-09-02T07:58:47Z</time>
      </trkpt>
      <trkpt lat="45.72165" lon="4.6058">
        <ele>677.3</ele>
        <time>2018-09-02T07:58:49Z</time>
      </trkpt>
      <trkpt lat="45.7216" lon="4.60565">
        <ele>675.8</ele>
        <time>2018-09-02T07:58:54Z</time>
      </trkpt>
      <trkpt lat="45.72159" lon="4.6056">
        <ele>675.4</ele>
        <time>2018-09-02T07:58:56Z</time>
      </trkpt>
      <trkpt lat="45.72154" lon="4.60536">
        <ele>673.8</ele>
        <time>2018-09-02T07:59:01Z</time>
      </trkpt>
      <trkpt lat="45.72143" lon="4.60492">
        <ele>668.6</ele>
        <time>2018-09-02T07:59:07Z</time>
      </trkpt>
      <trkpt lat="45.72141" lon="4.60486">
        <ele>667.6</ele>
        <time>2018-09-02T07:59:08Z</time>
      </trkpt>
      <trkpt lat="45.72131" lon="4.60457">
        <ele>664.8</ele>
        <time>2018-09-02T07:59:14Z</time>
      </trkpt>
      <trkpt lat="45.72126" lon="4.60447">
        <ele>664.5</ele>
        <time>2018-09-02T07:59:17Z</time>
      </trkpt>
      <trkpt lat="45.72122" lon="4.60437">
        <ele>664</ele>
        <time>2018-09-02T07:59:19Z</time>
      </trkpt>
      <trkpt lat="45.72119" lon="4.60431">
        <ele>663.6</ele>
        <time>2018-09-02T07:59:20Z</time>
      </trkpt>
      <trkpt lat="45.7211" lon="4.60414">
        <ele>662.2</ele>
        <time>2018-09-02T07:59:23Z</time>
      </trkpt>
      <trkpt lat="45.72107" lon="4.60408">
        <ele>661.9</ele>
        <time>2018-09-02T07:59:24Z</time>
      </trkpt>
      <trkpt lat="45.72104" lon="4.60384">
        <ele>661.4</ele>
        <time>2018-09-02T07:59:28Z</time>
      </trkpt>
      <trkpt lat="45.72108" lon="4.60362">
        <ele>661.1</ele>
        <time>2018-09-02T07:59:32Z</time>
      </trkpt>
      <trkpt lat="45.72108" lon="4.60355">
        <ele>661.1</ele>
        <time>2018-09-02T07:59:33Z</time>
      </trkpt>
      <trkpt lat="45.72117" lon="4.60309">
        <ele>660.9</ele>
        <time>2018-09-02T07:59:40Z</time>
      </trkpt>
      <trkpt lat="45.72121" lon="4.6028">
        <ele>660.9</ele>
        <time>2018-09-02T07:59:44Z</time>
      </trkpt>
      <trkpt lat="45.7212" lon="4.60267">
        <ele>660.9</ele>
        <time>2018-09-02T07:59:46Z</time>
      </trkpt>
      <trkpt lat="45.72119" lon="4.60261">
        <ele>660.9</ele>
        <time>2018-09-02T07:59:47Z</time>
      </trkpt>
      <trkpt lat="45.72115" lon="4.60243">
        <ele>660.9</ele>
        <time>2018-09-02T07:59:50Z</time>
      </trkpt>
      <trkpt lat="45.72113" lon="4.60237">
        <ele>660.9</ele>
        <time>2018-09-02T07:59:51Z</time>
      </trkpt>
      <trkpt lat="45.7211" lon="4.60232">
        <ele>660.8</ele>
        <time>2018-09-02T07:59:52Z</time>
      </trkpt>
      <trkpt lat="45.72106" lon="4.60221">
        <ele>660.8</ele>
        <time>2018-09-02T07:59:54Z</time>
      </trkpt>
      <trkpt lat="45.72095" lon="4.60194">
        <ele>660.8</ele>
        <time>2018-09-02T07:59:58Z</time>
      </trkpt>
      <trkpt lat="45.7209" lon="4.60176">
        <ele>660.8</ele>
        <time>2018-09-02T08:00:00Z</time>
      </trkpt>
      <trkpt lat="45.72087" lon="4.60159">
        <ele>660.8</ele>
        <time>2018-09-02T08:00:02Z</time>
      </trkpt>
      <trkpt lat="45.72085" lon="4.60151">
        <ele>660.8</ele>
        <time>2018-09-02T08:00:03Z</time>
      </trkpt>
      <trkpt lat="45.72083" lon="4.60138">
        <ele>660.7</ele>
        <time>2018-09-02T08:00:05Z</time>
      </trkpt>
      <trkpt lat="45.7208" lon="4.60129">
        <ele>660.7</ele>
        <time>2018-09-02T08:00:07Z</time>
      </trkpt>
      <trkpt lat="45.72078" lon="4.60126">
        <ele>660.7</ele>
        <time>2018-09-02T08:00:08Z</time>
      </trkpt>
      <trkpt lat="45.72071" lon="4.60125">
        <ele>660.7</ele>
        <time>2018-09-02T08:00:11Z</time>
      </trkpt>
      <trkpt lat="45.72068" lon="4.60125">
        <ele>660.7</ele>
        <time>2018-09-02T08:00:12Z</time>
      </trkpt>
      <trkpt lat="45.72058" lon="4.60123">
        <ele>660.7</ele>
        <time>2018-09-02T08:00:14Z</time>
      </trkpt>
      <trkpt lat="45.72053" lon="4.60122">
        <ele>660.7</ele>
        <time>2018-09-02T08:00:15Z</time>
      </trkpt>
      <trkpt lat="45.72037" lon="4.60122">
        <ele>660.8</ele>
        <time>2018-09-02T08:00:18Z</time>
      </trkpt>
      <trkpt lat="45.7202" lon="4.60125">
        <ele>661.6</ele>
        <time>2018-09-02T08:00:21Z</time>
      </trkpt>
      <trkpt lat="45.72005" lon="4.60126">
        <ele>661.5</ele>
        <time>2018-09-02T08:00:24Z</time>
      </trkpt>
      <trkpt lat="45.71995" lon="4.60127">
        <ele>661.5</ele>
        <time>2018-09-02T08:00:26Z</time>
      </trkpt>
      <trkpt lat="45.71968" lon="4.60128">
        <ele>661</ele>
        <time>2018-09-02T08:00:32Z</time>
      </trkpt>
      <trkpt lat="45.71948" lon="4.60125">
        <ele>659.8</ele>
        <time>2018-09-02T08:00:36Z</time>
      </trkpt>
      <trkpt lat="45.71942" lon="4.60122">
        <ele>659.3</ele>
        <time>2018-09-02T08:00:37Z</time>
      </trkpt>
      <trkpt lat="45.71937" lon="4.60119">
        <ele>658.9</ele>
        <time>2018-09-02T08:00:38Z</time>
      </trkpt>
      <trkpt lat="45.71931" lon="4.60115">
        <ele>658.7</ele>
        <time>2018-09-02T08:00:39Z</time>
      </trkpt>
      <trkpt lat="45.71917" lon="4.601">
        <ele>658.6</ele>
        <time>2018-09-02T08:00:43Z</time>
      </trkpt>
      <trkpt lat="45.7191" lon="4.60084">
        <ele>659</ele>
        <time>2018-09-02T08:00:47Z</time>
      </trkpt>
      <trkpt lat="45.71908" lon="4.60078">
        <ele>659</ele>
        <time>2018-09-02T08:00:48Z</time>
      </trkpt>
      <trkpt lat="45.71906" lon="4.60072">
        <ele>659.1</ele>
        <time>2018-09-02T08:00:49Z</time>
      </trkpt>
      <trkpt lat="45.71901" lon="4.60055">
        <ele>659.1</ele>
        <time>2018-09-02T08:00:52Z</time>
      </trkpt>
      <trkpt lat="45.71899" lon="4.60041">
        <ele>659.1</ele>
        <time>2018-09-02T08:00:54Z</time>
      </trkpt>
      <trkpt lat="45.71895" lon="4.60015">
        <ele>659</ele>
        <time>2018-09-02T08:00:58Z</time>
      </trkpt>
      <trkpt lat="45.71893" lon="4.60002">
        <ele>659</ele>
        <time>2018-09-02T08:01:00Z</time>
      </trkpt>
      <trkpt lat="45.7189" lon="4.59972">
        <ele>658.9</ele>
        <time>2018-09-02T08:01:04Z</time>
      </trkpt>
      <trkpt lat="45.71889" lon="4.59952">
        <ele>658.9</ele>
        <time>2018-09-02T08:01:07Z</time>
      </trkpt>
      <trkpt lat="45.71889" lon="4.5993">
        <ele>659.2</ele>
        <time>2018-09-02T08:01:10Z</time>
      </trkpt>
      <trkpt lat="45.71889" lon="4.59906">
        <ele>659.4</ele>
        <time>2018-09-02T08:01:14Z</time>
      </trkpt>
      <trkpt lat="45.71891" lon="4.59885">
        <ele>659.4</ele>
        <time>2018-09-02T08:01:17Z</time>
      </trkpt>
      <trkpt lat="45.71894" lon="4.59872">
        <ele>659.3</ele>
        <time>2018-09-02T08:01:19Z</time>
      </trkpt>
      <trkpt lat="45.71896" lon="4.59866">
        <ele>659.2</ele>
        <time>2018-09-02T08:01:20Z</time>
      </trkpt>
      <trkpt lat="45.71905" lon="4.59832">
        <ele>657.8</ele>
        <time>2018-09-02T08:01:26Z</time>
      </trkpt>
      <trkpt lat="45.71906" lon="4.59808">
        <ele>657.1</ele>
        <time>2018-09-02T08:01:31Z</time>
      </trkpt>
      <trkpt lat="45.71908" lon="4.59778">
        <ele>656.7</ele>
        <time>2018-09-02T08:01:37Z</time>
      </trkpt>
      <trkpt lat="45.71904" lon="4.59746">
        <ele>656.4</ele>
        <time>2018-09-02T08:01:42Z</time>
      </trkpt>
      <trkpt lat="45.71902" lon="4.59738">
        <ele>656.4</ele>
        <time>2018-09-02T08:01:43Z</time>
      </trkpt>
      <trkpt lat="45.71895" lon="4.59705">
        <ele>656.4</ele>
        <time>2018-09-02T08:01:48Z</time>
      </trkpt>
      <trkpt lat="45.71886" lon="4.59677">
        <ele>657</ele>
        <time>2018-09-02T08:01:54Z</time>
      </trkpt>
      <trkpt lat="45.71876" lon="4.59667">
        <ele>657.3</ele>
        <time>2018-09-02T08:01:59Z</time>
      </trkpt>
      <trkpt lat="45.7187" lon="4.59663">
        <ele>657.5</ele>
        <time>2018-09-02T08:02:02Z</time>
      </trkpt>
      <trkpt lat="45.71864" lon="4.59661">
        <ele>657.6</ele>
        <time>2018-09-02T08:02:05Z</time>
      </trkpt>
      <trkpt lat="45.71847" lon="4.59662">
        <ele>658.1</ele>
        <time>2018-09-02T08:02:11Z</time>
      </trkpt>
      <trkpt lat="45.7183" lon="4.59669">
        <ele>658.5</ele>
        <time>2018-09-02T08:02:17Z</time>
      </trkpt>
      <trkpt lat="45.71828" lon="4.5967">
        <ele>658.6</ele>
        <time>2018-09-02T08:02:18Z</time>
      </trkpt>
      <trkpt lat="45.7182" lon="4.5967">
        <ele>658.6</ele>
        <time>2018-09-02T08:02:23Z</time>
      </trkpt>
      <trkpt lat="45.71818" lon="4.59671">
        <ele>658.7</ele>
        <time>2018-09-02T08:02:24Z</time>
      </trkpt>
      <trkpt lat="45.71806" lon="4.59678">
        <ele>658.6</ele>
        <time>2018-09-02T08:02:33Z</time>
      </trkpt>
      <trkpt lat="45.71804" lon="4.5968">
        <ele>658.6</ele>
        <time>2018-09-02T08:02:34Z</time>
      </trkpt>
      <trkpt lat="45.71794" lon="4.59687">
        <ele>658.6</ele>
        <time>2018-09-02T08:02:37Z</time>
      </trkpt>
      <trkpt lat="45.71784" lon="4.59693">
        <ele>658.5</ele>
        <time>2018-09-02T08:02:40Z</time>
      </trkpt>
      <trkpt lat="45.71781" lon="4.59695">
        <ele>658.4</ele>
        <time>2018-09-02T08:02:41Z</time>
      </trkpt>
      <trkpt lat="45.71765" lon="4.59702">
        <ele>658.2</ele>
        <time>2018-09-02T08:02:46Z</time>
      </trkpt>
      <trkpt lat="45.71735" lon="4.59717">
        <ele>656.8</ele>
        <time>2018-09-02T08:02:54Z</time>
      </trkpt>
      <trkpt lat="45.71717" lon="4.59718">
        <ele>655.9</ele>
        <time>2018-09-02T08:02:58Z</time>
      </trkpt>
      <trkpt lat="45.71707" lon="4.59719">
        <ele>655.5</ele>
        <time>2018-09-02T08:03:00Z</time>
      </trkpt>
      <trkpt lat="45.71687" lon="4.59726">
        <ele>655.3</ele>
        <time>2018-09-02T08:03:05Z</time>
      </trkpt>
      <trkpt lat="45.71663" lon="4.5974">
        <ele>655.2</ele>
        <time>2018-09-02T08:03:11Z</time>
      </trkpt>
      <trkpt lat="45.71645" lon="4.59751">
        <ele>655.4</ele>
        <time>2018-09-02T08:03:16Z</time>
      </trkpt>
      <trkpt lat="45.71626" lon="4.5976">
        <ele>656.3</ele>
        <time>2018-09-02T08:03:21Z</time>
      </trkpt>
      <trkpt lat="45.71616" lon="4.59766">
        <ele>656.8</ele>
        <time>2018-09-02T08:03:24Z</time>
      </trkpt>
      <trkpt lat="45.71607" lon="4.59773">
        <ele>657</ele>
        <time>2018-09-02T08:03:26Z</time>
      </trkpt>
      <trkpt lat="45.71587" lon="4.59785">
        <ele>656.9</ele>
        <time>2018-09-02T08:03:31Z</time>
      </trkpt>
      <trkpt lat="45.71577" lon="4.5979">
        <ele>656.3</ele>
        <time>2018-09-02T08:03:33Z</time>
      </trkpt>
      <trkpt lat="45.71565" lon="4.59795">
        <ele>655.3</ele>
        <time>2018-09-02T08:03:35Z</time>
      </trkpt>
      <trkpt lat="45.71545" lon="4.59805">
        <ele>654.7</ele>
        <time>2018-09-02T08:03:38Z</time>
      </trkpt>
      <trkpt lat="45.71528" lon="4.59808">
        <ele>654.2</ele>
        <time>2018-09-02T08:03:41Z</time>
      </trkpt>
      <trkpt lat="45.71518" lon="4.59807">
        <ele>654</ele>
        <time>2018-09-02T08:03:43Z</time>
      </trkpt>
      <trkpt lat="45.71502" lon="4.5979">
        <ele>653.7</ele>
        <time>2018-09-02T08:03:47Z</time>
      </trkpt>
      <trkpt lat="45.71491" lon="4.5977">
        <ele>653.5</ele>
        <time>2018-09-02T08:03:51Z</time>
      </trkpt>
      <trkpt lat="45.71485" lon="4.59762">
        <ele>653.4</ele>
        <time>2018-09-02T08:03:53Z</time>
      </trkpt>
      <trkpt lat="45.71475" lon="4.59749">
        <ele>653.3</ele>
        <time>2018-09-02T08:03:57Z</time>
      </trkpt>
      <trkpt lat="45.71471" lon="4.59743">
        <ele>653.2</ele>
        <time>2018-09-02T08:03:59Z</time>
      </trkpt>
      <trkpt lat="45.7146" lon="4.59729">
        <ele>653</ele>
        <time>2018-09-02T08:04:05Z</time>
      </trkpt>
      <trkpt lat="45.71449" lon="4.59714">
        <ele>652.9</ele>
        <time>2018-09-02T08:04:11Z</time>
      </trkpt>
      <trkpt lat="45.71447" lon="4.5971">
        <ele>652.9</ele>
        <time>2018-09-02T08:04:13Z</time>
      </trkpt>
      <trkpt lat="45.71445" lon="4.59707">
        <ele>652.8</ele>
        <time>2018-09-02T08:04:14Z</time>
      </trkpt>
      <trkpt lat="45.71441" lon="4.59698">
        <ele>652.8</ele>
        <time>2018-09-02T08:04:17Z</time>
      </trkpt>
      <trkpt lat="45.71436" lon="4.59684">
        <ele>652.7</ele>
        <time>2018-09-02T08:04:20Z</time>
      </trkpt>
      <trkpt lat="45.71431" lon="4.59669">
        <ele>652.6</ele>
        <time>2018-09-02T08:04:23Z</time>
      </trkpt>
      <trkpt lat="45.71425" lon="4.59646">
        <ele>652.5</ele>
        <time>2018-09-02T08:04:27Z</time>
      </trkpt>
      <trkpt lat="45.71424" lon="4.5964">
        <ele>652.5</ele>
        <time>2018-09-02T08:04:28Z</time>
      </trkpt>
      <trkpt lat="45.71421" lon="4.59614">
        <ele>652.3</ele>
        <time>2018-09-02T08:04:33Z</time>
      </trkpt>
      <trkpt lat="45.71418" lon="4.59579">
        <ele>652</ele>
        <time>2018-09-02T08:04:39Z</time>
      </trkpt>
      <trkpt lat="45.71419" lon="4.59545">
        <ele>651.7</ele>
        <time>2018-09-02T08:04:45Z</time>
      </trkpt>
      <trkpt lat="45.71419" lon="4.59525">
        <ele>651.5</ele>
        <time>2018-09-02T08:04:49Z</time>
      </trkpt>
      <trkpt lat="45.7142" lon="4.59519">
        <ele>651.4</ele>
        <time>2018-09-02T08:04:50Z</time>
      </trkpt>
      <trkpt lat="45.71423" lon="4.59486">
        <ele>651</ele>
        <time>2018-09-02T08:04:56Z</time>
      </trkpt>
      <trkpt lat="45.71423" lon="4.59481">
        <ele>650.8</ele>
        <time>2018-09-02T08:04:57Z</time>
      </trkpt>
      <trkpt lat="45.71422" lon="4.59454">
        <ele>649.5</ele>
        <time>2018-09-02T08:05:02Z</time>
      </trkpt>
      <trkpt lat="45.71421" lon="4.59437">
        <ele>649.1</ele>
        <time>2018-09-02T08:05:05Z</time>
      </trkpt>
      <trkpt lat="45.71418" lon="4.59418">
        <ele>648.9</ele>
        <time>2018-09-02T08:05:08Z</time>
      </trkpt>
      <trkpt lat="45.71412" lon="4.59378">
        <ele>649.5</ele>
        <time>2018-09-02T08:05:13Z</time>
      </trkpt>
      <trkpt lat="45.71412" lon="4.59371">
        <ele>649.7</ele>
        <time>2018-09-02T08:05:14Z</time>
      </trkpt>
      <trkpt lat="45.71412" lon="4.59343">
        <ele>654.6</ele>
        <time>2018-09-02T08:05:18Z</time>
      </trkpt>
      <trkpt lat="45.71413" lon="4.59333">
        <ele>656.6</ele>
        <time>2018-09-02T08:05:22Z</time>
      </trkpt>
      <trkpt lat="45.71414" lon="4.59327">
        <ele>657.7</ele>
        <time>2018-09-02T08:05:24Z</time>
      </trkpt>
      <trkpt lat="45.71414" lon="4.59313">
        <ele>660.3</ele>
        <time>2018-09-02T08:05:28Z</time>
      </trkpt>
      <trkpt lat="45.71415" lon="4.59301">
        <ele>664.1</ele>
        <time>2018-09-02T08:05:31Z</time>
      </trkpt>
      <trkpt lat="45.71417" lon="4.59285">
        <ele>669.5</ele>
        <time>2018-09-02T08:05:35Z</time>
      </trkpt>
      <trkpt lat="45.71422" lon="4.59249">
        <ele>677.9</ele>
        <time>2018-09-02T08:05:41Z</time>
      </trkpt>
      <trkpt lat="45.71423" lon="4.59236">
        <ele>679.3</ele>
        <time>2018-09-02T08:05:45Z</time>
      </trkpt>
      <trkpt lat="45.71423" lon="4.59233">
        <ele>679.7</ele>
        <time>2018-09-02T08:05:46Z</time>
      </trkpt>
      <trkpt lat="45.71423" lon="4.59216">
        <ele>681.5</ele>
        <time>2018-09-02T08:05:50Z</time>
      </trkpt>
      <trkpt lat="45.71419" lon="4.59188">
        <ele>685.8</ele>
        <time>2018-09-02T08:05:56Z</time>
      </trkpt>
      <trkpt lat="45.71414" lon="4.5918">
        <ele>687</ele>
        <time>2018-09-02T08:05:58Z</time>
      </trkpt>
      <trkpt lat="45.71405" lon="4.59172">
        <ele>688.7</ele>
        <time>2018-09-02T08:06:01Z</time>
      </trkpt>
      <trkpt lat="45.7139" lon="4.59161">
        <ele>693</ele>
        <time>2018-09-02T08:06:07Z</time>
      </trkpt>
      <trkpt lat="45.71379" lon="4.59148">
        <ele>698</ele>
        <time>2018-09-02T08:06:13Z</time>
      </trkpt>
      <trkpt lat="45.71375" lon="4.59142">
        <ele>700.1</ele>
        <time>2018-09-02T08:06:16Z</time>
      </trkpt>
      <trkpt lat="45.71371" lon="4.59136">
        <ele>702.5</ele>
        <time>2018-09-02T08:06:20Z</time>
      </trkpt>
      <trkpt lat="45.71366" lon="4.59129">
        <ele>705.1</ele>
        <time>2018-09-02T08:06:24Z</time>
      </trkpt>
      <trkpt lat="45.71362" lon="4.59124">
        <ele>706.9</ele>
        <time>2018-09-02T08:06:27Z</time>
      </trkpt>
      <trkpt lat="45.71354" lon="4.59121">
        <ele>710</ele>
        <time>2018-09-02T08:06:31Z</time>
      </trkpt>
      <trkpt lat="45.71348" lon="4.59121">
        <ele>712.1</ele>
        <time>2018-09-02T08:06:34Z</time>
      </trkpt>
      <trkpt lat="45.71343" lon="4.59121">
        <ele>714</ele>
        <time>2018-09-02T08:06:37Z</time>
      </trkpt>
      <trkpt lat="45.71335" lon="4.59121">
        <ele>717</ele>
        <time>2018-09-02T08:06:41Z</time>
      </trkpt>
      <trkpt lat="45.71325" lon="4.59122">
        <ele>720</ele>
        <time>2018-09-02T08:06:45Z</time>
      </trkpt>
      <trkpt lat="45.71318" lon="4.59121">
        <ele>720</ele>
        <time>2018-09-02T08:06:48Z</time>
      </trkpt>
      <trkpt lat="45.71317" lon="4.5912">
        <ele>720.1</ele>
        <time>2018-09-02T08:06:49Z</time>
      </trkpt>
      <trkpt lat="45.71309" lon="4.59123">
        <ele>720.6</ele>
        <time>2018-09-02T08:06:55Z</time>
      </trkpt>
      <trkpt lat="45.713" lon="4.59125">
        <ele>719.7</ele>
        <time>2018-09-02T08:07:04Z</time>
      </trkpt>
      <trkpt lat="45.71296" lon="4.59127">
        <ele>720.2</ele>
        <time>2018-09-02T08:07:06Z</time>
      </trkpt>
      <trkpt lat="45.71293" lon="4.59128">
        <ele>720.4</ele>
        <time>2018-09-02T08:07:07Z</time>
      </trkpt>
      <trkpt lat="45.71275" lon="4.59134">
        <ele>718.7</ele>
        <time>2018-09-02T08:07:12Z</time>
      </trkpt>
      <trkpt lat="45.71247" lon="4.59145">
        <ele>718.4</ele>
        <time>2018-09-02T08:07:18Z</time>
      </trkpt>
      <trkpt lat="45.71242" lon="4.59147">
        <ele>718.2</ele>
        <time>2018-09-02T08:07:19Z</time>
      </trkpt>
      <trkpt lat="45.7121" lon="4.59171">
        <ele>719.1</ele>
        <time>2018-09-02T08:07:26Z</time>
      </trkpt>
      <trkpt lat="45.71204" lon="4.59174">
        <ele>719.4</ele>
        <time>2018-09-02T08:07:27Z</time>
      </trkpt>
      <trkpt lat="45.71189" lon="4.59184">
        <ele>720.1</ele>
        <time>2018-09-02T08:07:30Z</time>
      </trkpt>
      <trkpt lat="45.71178" lon="4.59191">
        <ele>720.3</ele>
        <time>2018-09-02T08:07:32Z</time>
      </trkpt>
      <trkpt lat="45.71173" lon="4.59194">
        <ele>720</ele>
        <time>2018-09-02T08:07:33Z</time>
      </trkpt>
      <trkpt lat="45.71159" lon="4.592">
        <ele>719.3</ele>
        <time>2018-09-02T08:07:36Z</time>
      </trkpt>
      <trkpt lat="45.71155" lon="4.59204">
        <ele>718.9</ele>
        <time>2018-09-02T08:07:37Z</time>
      </trkpt>
      <trkpt lat="45.71144" lon="4.5922">
        <ele>715.1</ele>
        <time>2018-09-02T08:07:40Z</time>
      </trkpt>
      <trkpt lat="45.71139" lon="4.59227">
        <ele>713.5</ele>
        <time>2018-09-02T08:07:41Z</time>
      </trkpt>
      <trkpt lat="45.71123" lon="4.59246">
        <ele>705.2</ele>
        <time>2018-09-02T08:07:44Z</time>
      </trkpt>
      <trkpt lat="45.71113" lon="4.59246">
        <ele>703.2</ele>
        <time>2018-09-02T08:07:45Z</time>
      </trkpt>
      <trkpt lat="45.71106" lon="4.59245">
        <ele>702</ele>
        <time>2018-09-02T08:07:46Z</time>
      </trkpt>
      <trkpt lat="45.71095" lon="4.59238">
        <ele>701.8</ele>
        <time>2018-09-02T08:07:48Z</time>
      </trkpt>
      <trkpt lat="45.7109" lon="4.59231">
        <ele>703.1</ele>
        <time>2018-09-02T08:07:49Z</time>
      </trkpt>
      <trkpt lat="45.71081" lon="4.59216">
        <ele>704.2</ele>
        <time>2018-09-02T08:07:51Z</time>
      </trkpt>
      <trkpt lat="45.71076" lon="4.59208">
        <ele>706.8</ele>
        <time>2018-09-02T08:07:52Z</time>
      </trkpt>
      <trkpt lat="45.71068" lon="4.59195">
        <ele>707.2</ele>
        <time>2018-09-02T08:07:54Z</time>
      </trkpt>
      <trkpt lat="45.71059" lon="4.59183">
        <ele>707.2</ele>
        <time>2018-09-02T08:07:56Z</time>
      </trkpt>
      <trkpt lat="45.71045" lon="4.59171">
        <ele>705.8</ele>
        <time>2018-09-02T08:07:58Z</time>
      </trkpt>
      <trkpt lat="45.71037" lon="4.59165">
        <ele>705.3</ele>
        <time>2018-09-02T08:07:59Z</time>
      </trkpt>
      <trkpt lat="45.71028" lon="4.59158">
        <ele>704.7</ele>
        <time>2018-09-02T08:08:00Z</time>
      </trkpt>
      <trkpt lat="45.7101" lon="4.59145">
        <ele>705.2</ele>
        <time>2018-09-02T08:08:02Z</time>
      </trkpt>
      <trkpt lat="45.71003" lon="4.59139">
        <ele>704.5</ele>
        <time>2018-09-02T08:08:03Z</time>
      </trkpt>
      <trkpt lat="45.70982" lon="4.59118">
        <ele>704.1</ele>
        <time>2018-09-02T08:08:07Z</time>
      </trkpt>
      <trkpt lat="45.70971" lon="4.59104">
        <ele>704.5</ele>
        <time>2018-09-02T08:08:11Z</time>
      </trkpt>
      <trkpt lat="45.70969" lon="4.59101">
        <ele>704.5</ele>
        <time>2018-09-02T08:08:12Z</time>
      </trkpt>
      <trkpt lat="45.70952" lon="4.59081">
        <ele>704.2</ele>
        <time>2018-09-02T08:08:19Z</time>
      </trkpt>
      <trkpt lat="45.7095" lon="4.59078">
        <ele>704.2</ele>
        <time>2018-09-02T08:08:20Z</time>
      </trkpt>
      <trkpt lat="45.70936" lon="4.59054">
        <ele>705</ele>
        <time>2018-09-02T08:08:28Z</time>
      </trkpt>
      <trkpt lat="45.70915" lon="4.59023">
        <ele>705.2</ele>
        <time>2018-09-02T08:08:37Z</time>
      </trkpt>
      <trkpt lat="45.70895" lon="4.58996">
        <ele>705.3</ele>
        <time>2018-09-02T08:08:45Z</time>
      </trkpt>
      <trkpt lat="45.7088" lon="4.58979">
        <ele>705.1</ele>
        <time>2018-09-02T08:08:51Z</time>
      </trkpt>
      <trkpt lat="45.70875" lon="4.58973">
        <ele>705.3</ele>
        <time>2018-09-02T08:08:53Z</time>
      </trkpt>
      <trkpt lat="45.70865" lon="4.58964">
        <ele>705.9</ele>
        <time>2018-09-02T08:08:57Z</time>
      </trkpt>
      <trkpt lat="45.70855" lon="4.58956">
        <ele>706.4</ele>
        <time>2018-09-02T08:09:01Z</time>
      </trkpt>
      <trkpt lat="45.70853" lon="4.58953">
        <ele>706.5</ele>
        <time>2018-09-02T08:09:02Z</time>
      </trkpt>
      <trkpt lat="45.70846" lon="4.58947">
        <ele>706.6</ele>
        <time>2018-09-02T08:09:05Z</time>
      </trkpt>
      <trkpt lat="45.70839" lon="4.58942">
        <ele>706.8</ele>
        <time>2018-09-02T08:09:08Z</time>
      </trkpt>
      <trkpt lat="45.70837" lon="4.5894">
        <ele>706.9</ele>
        <time>2018-09-02T08:09:09Z</time>
      </trkpt>
      <trkpt lat="45.7083" lon="4.58934">
        <ele>707.2</ele>
        <time>2018-09-02T08:09:12Z</time>
      </trkpt>
      <trkpt lat="45.70821" lon="4.58925">
        <ele>707</ele>
        <time>2018-09-02T08:09:16Z</time>
      </trkpt>
      <trkpt lat="45.70817" lon="4.58921">
        <ele>706.8</ele>
        <time>2018-09-02T08:09:18Z</time>
      </trkpt>
      <trkpt lat="45.70811" lon="4.58909">
        <ele>706.1</ele>
        <time>2018-09-02T08:09:22Z</time>
      </trkpt>
      <trkpt lat="45.7081" lon="4.58905">
        <ele>706</ele>
        <time>2018-09-02T08:09:23Z</time>
      </trkpt>
      <trkpt lat="45.70808" lon="4.58876">
        <ele>706.2</ele>
        <time>2018-09-02T08:09:29Z</time>
      </trkpt>
      <trkpt lat="45.7081" lon="4.58849">
        <ele>707.2</ele>
        <time>2018-09-02T08:09:35Z</time>
      </trkpt>
      <trkpt lat="45.70813" lon="4.58827">
        <ele>707.5</ele>
        <time>2018-09-02T08:09:40Z</time>
      </trkpt>
      <trkpt lat="45.70815" lon="4.58815">
        <ele>707.5</ele>
        <time>2018-09-02T08:09:43Z</time>
      </trkpt>
      <trkpt lat="45.70818" lon="4.58783">
        <ele>708.2</ele>
        <time>2018-09-02T08:09:50Z</time>
      </trkpt>
      <trkpt lat="45.70818" lon="4.58779">
        <ele>708.3</ele>
        <time>2018-09-02T08:09:51Z</time>
      </trkpt>
      <trkpt lat="45.7082" lon="4.58761">
        <ele>708.9</ele>
        <time>2018-09-02T08:09:55Z</time>
      </trkpt>
      <trkpt lat="45.70822" lon="4.58735">
        <ele>709.3</ele>
        <time>2018-09-02T08:10:01Z</time>
      </trkpt>
      <trkpt lat="45.70823" lon="4.58722">
        <ele>709.3</ele>
        <time>2018-09-02T08:10:04Z</time>
      </trkpt>
      <trkpt lat="45.70825" lon="4.58692">
        <ele>709</ele>
        <time>2018-09-02T08:10:11Z</time>
      </trkpt>
      <trkpt lat="45.70829" lon="4.58654">
        <ele>708.2</ele>
        <time>2018-09-02T08:10:20Z</time>
      </trkpt>
      <trkpt lat="45.7083" lon="4.58646">
        <ele>707.9</ele>
        <time>2018-09-02T08:10:22Z</time>
      </trkpt>
      <trkpt lat="45.70833" lon="4.58621">
        <ele>707.3</ele>
        <time>2018-09-02T08:10:29Z</time>
      </trkpt>
      <trkpt lat="45.70834" lon="4.58611">
        <ele>707.3</ele>
        <time>2018-09-02T08:10:32Z</time>
      </trkpt>
      <trkpt lat="45.70837" lon="4.58593">
        <ele>706.9</ele>
        <time>2018-09-02T08:10:37Z</time>
      </trkpt>
      <trkpt lat="45.70838" lon="4.5859">
        <ele>706.8</ele>
        <time>2018-09-02T08:10:38Z</time>
      </trkpt>
      <trkpt lat="45.7084" lon="4.58573">
        <ele>706</ele>
        <time>2018-09-02T08:10:42Z</time>
      </trkpt>
      <trkpt lat="45.70843" lon="4.58559">
        <ele>705.5</ele>
        <time>2018-09-02T08:10:46Z</time>
      </trkpt>
      <trkpt lat="45.70843" lon="4.58555">
        <ele>705.4</ele>
        <time>2018-09-02T08:10:47Z</time>
      </trkpt>
      <trkpt lat="45.70849" lon="4.58531">
        <ele>705</ele>
        <time>2018-09-02T08:10:53Z</time>
      </trkpt>
      <trkpt lat="45.7085" lon="4.58528">
        <ele>704.9</ele>
        <time>2018-09-02T08:10:54Z</time>
      </trkpt>
      <trkpt lat="45.70856" lon="4.58504">
        <ele>703.5</ele>
        <time>2018-09-02T08:11:00Z</time>
      </trkpt>
      <trkpt lat="45.7086" lon="4.58487">
        <ele>703</ele>
        <time>2018-09-02T08:11:04Z</time>
      </trkpt>
      <trkpt lat="45.70864" lon="4.58472">
        <ele>703</ele>
        <time>2018-09-02T08:11:08Z</time>
      </trkpt>
      <trkpt lat="45.70867" lon="4.5846">
        <ele>703</ele>
        <time>2018-09-02T08:11:11Z</time>
      </trkpt>
      <trkpt lat="45.70873" lon="4.58439">
        <ele>703.2</ele>
        <time>2018-09-02T08:11:16Z</time>
      </trkpt>
      <trkpt lat="45.70878" lon="4.58425">
        <ele>703.4</ele>
        <time>2018-09-02T08:11:19Z</time>
      </trkpt>
      <trkpt lat="45.70879" lon="4.58419">
        <ele>703.5</ele>
        <time>2018-09-02T08:11:20Z</time>
      </trkpt>
      <trkpt lat="45.70887" lon="4.58389">
        <ele>704.3</ele>
        <time>2018-09-02T08:11:25Z</time>
      </trkpt>
      <trkpt lat="45.70889" lon="4.58383">
        <ele>704.6</ele>
        <time>2018-09-02T08:11:26Z</time>
      </trkpt>
      <trkpt lat="45.70892" lon="4.58369">
        <ele>705</ele>
        <time>2018-09-02T08:11:29Z</time>
      </trkpt>
      <trkpt lat="45.70894" lon="4.58364">
        <ele>705</ele>
        <time>2018-09-02T08:11:31Z</time>
      </trkpt>
      <trkpt lat="45.70894" lon="4.5836">
        <ele>705</ele>
        <time>2018-09-02T08:11:32Z</time>
      </trkpt>
      <trkpt lat="45.70894" lon="4.58349">
        <ele>705</ele>
        <time>2018-09-02T08:11:36Z</time>
      </trkpt>
      <trkpt lat="45.70893" lon="4.58347">
        <ele>705</ele>
        <time>2018-09-02T08:11:37Z</time>
      </trkpt>
      <trkpt lat="45.70891" lon="4.58334">
        <ele>705.1</ele>
        <time>2018-09-02T08:11:42Z</time>
      </trkpt>
      <trkpt lat="45.70897" lon="4.58311">
        <ele>705.5</ele>
        <time>2018-09-02T08:11:47Z</time>
      </trkpt>
      <trkpt lat="45.70904" lon="4.58264">
        <ele>707</ele>
        <time>2018-09-02T08:11:55Z</time>
      </trkpt>
      <trkpt lat="45.70901" lon="4.58259">
        <ele>707.4</ele>
        <time>2018-09-02T08:11:56Z</time>
      </trkpt>
      <trkpt lat="45.70893" lon="4.58252">
        <ele>708.7</ele>
        <time>2018-09-02T08:11:58Z</time>
      </trkpt>
      <trkpt lat="45.70884" lon="4.58248">
        <ele>710</ele>
        <time>2018-09-02T08:12:00Z</time>
      </trkpt>
      <trkpt lat="45.70866" lon="4.58242">
        <ele>713.2</ele>
        <time>2018-09-02T08:12:04Z</time>
      </trkpt>
      <trkpt lat="45.70827" lon="4.58225">
        <ele>720.9</ele>
        <time>2018-09-02T08:12:12Z</time>
      </trkpt>
      <trkpt lat="45.70797" lon="4.58212">
        <ele>722.9</ele>
        <time>2018-09-02T08:12:17Z</time>
      </trkpt>
      <trkpt lat="45.70783" lon="4.58205">
        <ele>723.5</ele>
        <time>2018-09-02T08:12:21Z</time>
      </trkpt>
      <trkpt lat="45.70766" lon="4.58204">
        <ele>723.8</ele>
        <time>2018-09-02T08:12:27Z</time>
      </trkpt>
      <trkpt lat="45.70757" lon="4.58214">
        <ele>723.9</ele>
        <time>2018-09-02T08:12:33Z</time>
      </trkpt>
      <trkpt lat="45.70754" lon="4.58229">
        <ele>724</ele>
        <time>2018-09-02T08:12:39Z</time>
      </trkpt>
      <trkpt lat="45.70749" lon="4.58255">
        <ele>723.8</ele>
        <time>2018-09-02T08:12:46Z</time>
      </trkpt>
      <trkpt lat="45.70739" lon="4.58297">
        <ele>723.4</ele>
        <time>2018-09-02T08:12:54Z</time>
      </trkpt>
      <trkpt lat="45.70732" lon="4.58343">
        <ele>723.2</ele>
        <time>2018-09-02T08:13:02Z</time>
      </trkpt>
      <trkpt lat="45.70729" lon="4.58381">
        <ele>722.6</ele>
        <time>2018-09-02T08:13:08Z</time>
      </trkpt>
      <trkpt lat="45.70727" lon="4.58409">
        <ele>722.6</ele>
        <time>2018-09-02T08:13:12Z</time>
      </trkpt>
      <trkpt lat="45.70723" lon="4.58427">
        <ele>722.2</ele>
        <time>2018-09-02T08:13:15Z</time>
      </trkpt>
      <trkpt lat="45.70721" lon="4.58432">
        <ele>722.1</ele>
        <time>2018-09-02T08:13:16Z</time>
      </trkpt>
      <trkpt lat="45.7071" lon="4.58454">
        <ele>721.2</ele>
        <time>2018-09-02T08:13:21Z</time>
      </trkpt>
      <trkpt lat="45.70708" lon="4.58458">
        <ele>721</ele>
        <time>2018-09-02T08:13:22Z</time>
      </trkpt>
      <trkpt lat="45.70702" lon="4.58469">
        <ele>720.5</ele>
        <time>2018-09-02T08:13:25Z</time>
      </trkpt>
      <trkpt lat="45.70699" lon="4.58476">
        <ele>720.1</ele>
        <time>2018-09-02T08:13:27Z</time>
      </trkpt>
      <trkpt lat="45.70695" lon="4.58484">
        <ele>719.8</ele>
        <time>2018-09-02T08:13:29Z</time>
      </trkpt>
      <trkpt lat="45.70692" lon="4.58491">
        <ele>719.4</ele>
        <time>2018-09-02T08:13:31Z</time>
      </trkpt>
      <trkpt lat="45.70687" lon="4.58501">
        <ele>719.2</ele>
        <time>2018-09-02T08:13:34Z</time>
      </trkpt>
      <trkpt lat="45.70683" lon="4.58509">
        <ele>719</ele>
        <time>2018-09-02T08:13:37Z</time>
      </trkpt>
      <trkpt lat="45.70681" lon="4.5851">
        <ele>719</ele>
        <time>2018-09-02T08:13:38Z</time>
      </trkpt>
      <trkpt lat="45.7068" lon="4.58513">
        <ele>718.9</ele>
        <time>2018-09-02T08:13:39Z</time>
      </trkpt>
      <trkpt lat="45.7068" lon="4.58526">
        <ele>718.7</ele>
        <time>2018-09-02T08:13:42Z</time>
      </trkpt>
      <trkpt lat="45.70681" lon="4.58531">
        <ele>718.7</ele>
        <time>2018-09-02T08:13:43Z</time>
      </trkpt>
      <trkpt lat="45.70683" lon="4.58563">
        <ele>718.5</ele>
        <time>2018-09-02T08:13:49Z</time>
      </trkpt>
      <trkpt lat="45.70686" lon="4.58603">
        <ele>718.5</ele>
        <time>2018-09-02T08:13:55Z</time>
      </trkpt>
      <trkpt lat="45.70688" lon="4.58648">
        <ele>718.6</ele>
        <time>2018-09-02T08:14:01Z</time>
      </trkpt>
      <trkpt lat="45.70685" lon="4.58653">
        <ele>717.6</ele>
        <time>2018-09-02T08:14:02Z</time>
      </trkpt>
      <trkpt lat="45.70676" lon="4.58657">
        <ele>715.5</ele>
        <time>2018-09-02T08:14:05Z</time>
      </trkpt>
      <trkpt lat="45.70672" lon="4.58658">
        <ele>714.5</ele>
        <time>2018-09-02T08:14:07Z</time>
      </trkpt>
      <trkpt lat="45.70664" lon="4.58657">
        <ele>712.7</ele>
        <time>2018-09-02T08:14:11Z</time>
      </trkpt>
      <trkpt lat="45.70662" lon="4.58657">
        <ele>712.2</ele>
        <time>2018-09-02T08:14:12Z</time>
      </trkpt>
      <trkpt lat="45.70657" lon="4.58659">
        <ele>711.2</ele>
        <time>2018-09-02T08:14:14Z</time>
      </trkpt>
      <trkpt lat="45.70657" lon="4.58663">
        <ele>710.6</ele>
        <time>2018-09-02T08:14:15Z</time>
      </trkpt>
      <trkpt lat="45.70657" lon="4.58666">
        <ele>710</ele>
        <time>2018-09-02T08:14:16Z</time>
      </trkpt>
      <trkpt lat="45.70664" lon="4.58681">
        <ele>710.4</ele>
        <time>2018-09-02T08:14:19Z</time>
      </trkpt>
      <trkpt lat="45.70666" lon="4.58699">
        <ele>710.8</ele>
        <time>2018-09-02T08:14:22Z</time>
      </trkpt>
      <trkpt lat="45.70667" lon="4.58705">
        <ele>710.9</ele>
        <time>2018-09-02T08:14:23Z</time>
      </trkpt>
      <trkpt lat="45.70667" lon="4.58711">
        <ele>711.1</ele>
        <time>2018-09-02T08:14:24Z</time>
      </trkpt>
      <trkpt lat="45.70667" lon="4.58721">
        <ele>711.2</ele>
        <time>2018-09-02T08:14:26Z</time>
      </trkpt>
      <trkpt lat="45.70667" lon="4.58729">
        <ele>711.3</ele>
        <time>2018-09-02T08:14:28Z</time>
      </trkpt>
      <trkpt lat="45.70667" lon="4.58742">
        <ele>711.4</ele>
        <time>2018-09-02T08:14:31Z</time>
      </trkpt>
      <trkpt lat="45.70665" lon="4.5877">
        <ele>711.7</ele>
        <time>2018-09-02T08:14:38Z</time>
      </trkpt>
      <trkpt lat="45.70662" lon="4.58778">
        <ele>711.7</ele>
        <time>2018-09-02T08:14:40Z</time>
      </trkpt>
      <trkpt lat="45.70655" lon="4.58797">
        <ele>711.9</ele>
        <time>2018-09-02T08:14:45Z</time>
      </trkpt>
      <trkpt lat="45.70654" lon="4.58801">
        <ele>711.9</ele>
        <time>2018-09-02T08:14:46Z</time>
      </trkpt>
      <trkpt lat="45.70642" lon="4.58823">
        <ele>711.6</ele>
        <time>2018-09-02T08:14:52Z</time>
      </trkpt>
      <trkpt lat="45.70634" lon="4.58837">
        <ele>711.5</ele>
        <time>2018-09-02T08:14:55Z</time>
      </trkpt>
      <trkpt lat="45.7063" lon="4.58851">
        <ele>711.5</ele>
        <time>2018-09-02T08:14:57Z</time>
      </trkpt>
      <trkpt lat="45.70623" lon="4.58891">
        <ele>711.7</ele>
        <time>2018-09-02T08:15:01Z</time>
      </trkpt>
      <trkpt lat="45.70623" lon="4.58913">
        <ele>711.9</ele>
        <time>2018-09-02T08:15:03Z</time>
      </trkpt>
      <trkpt lat="45.70625" lon="4.58923">
        <ele>711.9</ele>
        <time>2018-09-02T08:15:04Z</time>
      </trkpt>
      <trkpt lat="45.70628" lon="4.58933">
        <ele>712</ele>
        <time>2018-09-02T08:15:05Z</time>
      </trkpt>
      <trkpt lat="45.70639" lon="4.58985">
        <ele>712.6</ele>
        <time>2018-09-02T08:15:11Z</time>
      </trkpt>
      <trkpt lat="45.7064" lon="4.59025">
        <ele>713</ele>
        <time>2018-09-02T08:15:16Z</time>
      </trkpt>
      <trkpt lat="45.70638" lon="4.5904">
        <ele>713</ele>
        <time>2018-09-02T08:15:18Z</time>
      </trkpt>
      <trkpt lat="45.70632" lon="4.59084">
        <ele>720</ele>
        <time>2018-09-02T08:15:24Z</time>
      </trkpt>
      <trkpt lat="45.7063" lon="4.59099">
        <ele>720</ele>
        <time>2018-09-02T08:15:26Z</time>
      </trkpt>
      <trkpt lat="45.70625" lon="4.59126">
        <ele>720</ele>
        <time>2018-09-02T08:15:31Z</time>
      </trkpt>
      <trkpt lat="45.70622" lon="4.59135">
        <ele>720</ele>
        <time>2018-09-02T08:15:33Z</time>
      </trkpt>
      <trkpt lat="45.70612" lon="4.59156">
        <ele>720.6</ele>
        <time>2018-09-02T08:15:38Z</time>
      </trkpt>
      <trkpt lat="45.70598" lon="4.59177">
        <ele>721.7</ele>
        <time>2018-09-02T08:15:43Z</time>
      </trkpt>
      <trkpt lat="45.70595" lon="4.59181">
        <ele>721.9</ele>
        <time>2018-09-02T08:15:44Z</time>
      </trkpt>
      <trkpt lat="45.70573" lon="4.59219">
        <ele>724</ele>
        <time>2018-09-02T08:15:51Z</time>
      </trkpt>
      <trkpt lat="45.70546" lon="4.59262">
        <ele>727.9</ele>
        <time>2018-09-02T08:15:59Z</time>
      </trkpt>
      <trkpt lat="45.70538" lon="4.5927">
        <ele>727.5</ele>
        <time>2018-09-02T08:16:01Z</time>
      </trkpt>
      <trkpt lat="45.70524" lon="4.5928">
        <ele>726.7</ele>
        <time>2018-09-02T08:16:04Z</time>
      </trkpt>
      <trkpt lat="45.70492" lon="4.593">
        <ele>722.7</ele>
        <time>2018-09-02T08:16:11Z</time>
      </trkpt>
      <trkpt lat="45.70456" lon="4.59319">
        <ele>718.4</ele>
        <time>2018-09-02T08:16:18Z</time>
      </trkpt>
      <trkpt lat="45.7045" lon="4.59335">
        <ele>719.5</ele>
        <time>2018-09-02T08:16:21Z</time>
      </trkpt>
      <trkpt lat="45.70448" lon="4.5934">
        <ele>719.8</ele>
        <time>2018-09-02T08:16:22Z</time>
      </trkpt>
      <trkpt lat="45.70444" lon="4.59357">
        <ele>720.9</ele>
        <time>2018-09-02T08:16:26Z</time>
      </trkpt>
      <trkpt lat="45.7044" lon="4.59367">
        <ele>721.5</ele>
        <time>2018-09-02T08:16:28Z</time>
      </trkpt>
      <trkpt lat="45.70436" lon="4.59382">
        <ele>722.4</ele>
        <time>2018-09-02T08:16:31Z</time>
      </trkpt>
      <trkpt lat="45.7043" lon="4.59396">
        <ele>723.1</ele>
        <time>2018-09-02T08:16:34Z</time>
      </trkpt>
      <trkpt lat="45.70429" lon="4.594">
        <ele>723.3</ele>
        <time>2018-09-02T08:16:35Z</time>
      </trkpt>
      <trkpt lat="45.70425" lon="4.59408">
        <ele>723.7</ele>
        <time>2018-09-02T08:16:37Z</time>
      </trkpt>
      <trkpt lat="45.7042" lon="4.59422">
        <ele>724.2</ele>
        <time>2018-09-02T08:16:41Z</time>
      </trkpt>
      <trkpt lat="45.70417" lon="4.59428">
        <ele>724.4</ele>
        <time>2018-09-02T08:16:43Z</time>
      </trkpt>
      <trkpt lat="45.70415" lon="4.59435">
        <ele>724.6</ele>
        <time>2018-09-02T08:16:45Z</time>
      </trkpt>
      <trkpt lat="45.70413" lon="4.59442">
        <ele>724.8</ele>
        <time>2018-09-02T08:16:47Z</time>
      </trkpt>
      <trkpt lat="45.7041" lon="4.59452">
        <ele>725</ele>
        <time>2018-09-02T08:16:50Z</time>
      </trkpt>
      <trkpt lat="45.70406" lon="4.59462">
        <ele>725.2</ele>
        <time>2018-09-02T08:16:53Z</time>
      </trkpt>
      <trkpt lat="45.70404" lon="4.59469">
        <ele>725.4</ele>
        <time>2018-09-02T08:16:56Z</time>
      </trkpt>
      <trkpt lat="45.70403" lon="4.59471">
        <ele>725.5</ele>
        <time>2018-09-02T08:16:57Z</time>
      </trkpt>
      <trkpt lat="45.70402" lon="4.59475">
        <ele>725.6</ele>
        <time>2018-09-02T08:16:59Z</time>
      </trkpt>
      <trkpt lat="45.704" lon="4.59487">
        <ele>725.9</ele>
        <time>2018-09-02T08:17:03Z</time>
      </trkpt>
      <trkpt lat="45.70398" lon="4.59506">
        <ele>726.4</ele>
        <time>2018-09-02T08:17:08Z</time>
      </trkpt>
      <trkpt lat="45.70395" lon="4.59522">
        <ele>726.9</ele>
        <time>2018-09-02T08:17:13Z</time>
      </trkpt>
      <trkpt lat="45.70392" lon="4.5954">
        <ele>727.4</ele>
        <time>2018-09-02T08:17:19Z</time>
      </trkpt>
      <trkpt lat="45.7039" lon="4.59546">
        <ele>727.6</ele>
        <time>2018-09-02T08:17:21Z</time>
      </trkpt>
      <trkpt lat="45.70388" lon="4.59555">
        <ele>727.7</ele>
        <time>2018-09-02T08:17:24Z</time>
      </trkpt>
      <trkpt lat="45.70386" lon="4.59567">
        <ele>727.9</ele>
        <time>2018-09-02T08:17:29Z</time>
      </trkpt>
      <trkpt lat="45.70385" lon="4.59569">
        <ele>727.9</ele>
        <time>2018-09-02T08:17:30Z</time>
      </trkpt>
      <trkpt lat="45.70385" lon="4.59575">
        <ele>728</ele>
        <time>2018-09-02T08:17:33Z</time>
      </trkpt>
      <trkpt lat="45.70386" lon="4.59577">
        <ele>728</ele>
        <time>2018-09-02T08:17:34Z</time>
      </trkpt>
      <trkpt lat="45.70388" lon="4.5958">
        <ele>728</ele>
        <time>2018-09-02T08:17:36Z</time>
      </trkpt>
      <trkpt lat="45.70389" lon="4.59581">
        <ele>728.1</ele>
        <time>2018-09-02T08:17:37Z</time>
      </trkpt>
      <trkpt lat="45.70397" lon="4.59583">
        <ele>728.7</ele>
        <time>2018-09-02T08:17:45Z</time>
      </trkpt>
      <trkpt lat="45.70401" lon="4.59583">
        <ele>728.9</ele>
        <time>2018-09-02T08:17:47Z</time>
      </trkpt>
      <trkpt lat="45.70403" lon="4.59583">
        <ele>729.1</ele>
        <time>2018-09-02T08:17:49Z</time>
      </trkpt>
      <trkpt lat="45.70415" lon="4.59593">
        <ele>730.1</ele>
        <time>2018-09-02T08:17:59Z</time>
      </trkpt>
      <trkpt lat="45.70417" lon="4.59595">
        <ele>730.2</ele>
        <time>2018-09-02T08:18:00Z</time>
      </trkpt>
      <trkpt lat="45.70423" lon="4.59602">
        <ele>730.9</ele>
        <time>2018-09-02T08:18:04Z</time>
      </trkpt>
      <trkpt lat="45.70426" lon="4.59607">
        <ele>731.4</ele>
        <time>2018-09-02T08:18:06Z</time>
      </trkpt>
      <trkpt lat="45.70434" lon="4.59618">
        <ele>732.5</ele>
        <time>2018-09-02T08:18:09Z</time>
      </trkpt>
      <trkpt lat="45.70439" lon="4.59631">
        <ele>733.3</ele>
        <time>2018-09-02T08:18:12Z</time>
      </trkpt>
      <trkpt lat="45.70448" lon="4.59657">
        <ele>734.6</ele>
        <time>2018-09-02T08:18:18Z</time>
      </trkpt>
      <trkpt lat="45.70465" lon="4.59702">
        <ele>736.3</ele>
        <time>2018-09-02T08:18:26Z</time>
      </trkpt>
      <trkpt lat="45.70474" lon="4.59724">
        <ele>737.1</ele>
        <time>2018-09-02T08:18:30Z</time>
      </trkpt>
      <trkpt lat="45.70479" lon="4.59741">
        <ele>737.9</ele>
        <time>2018-09-02T08:18:33Z</time>
      </trkpt>
      <trkpt lat="45.70483" lon="4.59751">
        <ele>739.2</ele>
        <time>2018-09-02T08:18:35Z</time>
      </trkpt>
      <trkpt lat="45.70485" lon="4.5976">
        <ele>740.4</ele>
        <time>2018-09-02T08:18:37Z</time>
      </trkpt>
      <trkpt lat="45.70489" lon="4.5978">
        <ele>743.1</ele>
        <time>2018-09-02T08:18:41Z</time>
      </trkpt>
      <trkpt lat="45.70491" lon="4.59796">
        <ele>744.9</ele>
        <time>2018-09-02T08:18:44Z</time>
      </trkpt>
      <trkpt lat="45.70492" lon="4.59809">
        <ele>745.6</ele>
        <time>2018-09-02T08:18:47Z</time>
      </trkpt>
      <trkpt lat="45.70494" lon="4.59821">
        <ele>746.3</ele>
        <time>2018-09-02T08:18:50Z</time>
      </trkpt>
      <trkpt lat="45.70496" lon="4.59831">
        <ele>746.6</ele>
        <time>2018-09-02T08:18:53Z</time>
      </trkpt>
      <trkpt lat="45.70496" lon="4.5984">
        <ele>746.9</ele>
        <time>2018-09-02T08:18:55Z</time>
      </trkpt>
      <trkpt lat="45.70496" lon="4.59854">
        <ele>747.3</ele>
        <time>2018-09-02T08:18:58Z</time>
      </trkpt>
      <trkpt lat="45.70495" lon="4.59862">
        <ele>747.6</ele>
        <time>2018-09-02T08:19:00Z</time>
      </trkpt>
      <trkpt lat="45.70495" lon="4.59872">
        <ele>747.9</ele>
        <time>2018-09-02T08:19:02Z</time>
      </trkpt>
      <trkpt lat="45.70495" lon="4.59886">
        <ele>748.4</ele>
        <time>2018-09-02T08:19:05Z</time>
      </trkpt>
      <trkpt lat="45.70494" lon="4.59892">
        <ele>748.7</ele>
        <time>2018-09-02T08:19:06Z</time>
      </trkpt>
      <trkpt lat="45.70494" lon="4.59906">
        <ele>749</ele>
        <time>2018-09-02T08:19:08Z</time>
      </trkpt>
      <trkpt lat="45.70494" lon="4.59919">
        <ele>749.4</ele>
        <time>2018-09-02T08:19:10Z</time>
      </trkpt>
      <trkpt lat="45.70492" lon="4.59933">
        <ele>749.7</ele>
        <time>2018-09-02T08:19:12Z</time>
      </trkpt>
      <trkpt lat="45.70486" lon="4.59966">
        <ele>750.4</ele>
        <time>2018-09-02T08:19:17Z</time>
      </trkpt>
      <trkpt lat="45.70483" lon="4.59975">
        <ele>750.7</ele>
        <time>2018-09-02T08:19:19Z</time>
      </trkpt>
      <trkpt lat="45.70481" lon="4.59981">
        <ele>750.8</ele>
        <time>2018-09-02T08:19:20Z</time>
      </trkpt>
      <trkpt lat="45.7048" lon="4.5999">
        <ele>751</ele>
        <time>2018-09-02T08:19:22Z</time>
      </trkpt>
      <trkpt lat="45.70478" lon="4.60002">
        <ele>751.4</ele>
        <time>2018-09-02T08:19:24Z</time>
      </trkpt>
      <trkpt lat="45.70479" lon="4.60025">
        <ele>752.1</ele>
        <time>2018-09-02T08:19:28Z</time>
      </trkpt>
      <trkpt lat="45.70474" lon="4.60044">
        <ele>752.7</ele>
        <time>2018-09-02T08:19:31Z</time>
      </trkpt>
      <trkpt lat="45.70472" lon="4.60068">
        <ele>753.3</ele>
        <time>2018-09-02T08:19:35Z</time>
      </trkpt>
      <trkpt lat="45.70471" lon="4.6008">
        <ele>753.6</ele>
        <time>2018-09-02T08:19:37Z</time>
      </trkpt>
      <trkpt lat="45.70471" lon="4.60099">
        <ele>754.1</ele>
        <time>2018-09-02T08:19:40Z</time>
      </trkpt>
      <trkpt lat="45.7047" lon="4.60129">
        <ele>755</ele>
        <time>2018-09-02T08:19:45Z</time>
      </trkpt>
      <trkpt lat="45.7047" lon="4.6017">
        <ele>757.5</ele>
        <time>2018-09-02T08:19:52Z</time>
      </trkpt>
      <trkpt lat="45.70471" lon="4.60194">
        <ele>760.7</ele>
        <time>2018-09-02T08:19:56Z</time>
      </trkpt>
      <trkpt lat="45.70471" lon="4.60204">
        <ele>762.1</ele>
        <time>2018-09-02T08:19:58Z</time>
      </trkpt>
      <trkpt lat="45.7047" lon="4.60229">
        <ele>765.5</ele>
        <time>2018-09-02T08:20:03Z</time>
      </trkpt>
      <trkpt lat="45.7047" lon="4.60235">
        <ele>766.3</ele>
        <time>2018-09-02T08:20:04Z</time>
      </trkpt>
      <trkpt lat="45.7047" lon="4.60263">
        <ele>769.7</ele>
        <time>2018-09-02T08:20:10Z</time>
      </trkpt>
      <trkpt lat="45.7047" lon="4.60266">
        <ele>770.1</ele>
        <time>2018-09-02T08:20:11Z</time>
      </trkpt>
      <trkpt lat="45.70467" lon="4.60291">
        <ele>773.3</ele>
        <time>2018-09-02T08:20:17Z</time>
      </trkpt>
      <trkpt lat="45.70465" lon="4.603">
        <ele>774.4</ele>
        <time>2018-09-02T08:20:19Z</time>
      </trkpt>
      <trkpt lat="45.70467" lon="4.60319">
        <ele>776.4</ele>
        <time>2018-09-02T08:20:23Z</time>
      </trkpt>
      <trkpt lat="45.7047" lon="4.60344">
        <ele>778.1</ele>
        <time>2018-09-02T08:20:29Z</time>
      </trkpt>
      <trkpt lat="45.70474" lon="4.60364">
        <ele>780.6</ele>
        <time>2018-09-02T08:20:34Z</time>
      </trkpt>
      <trkpt lat="45.70475" lon="4.60368">
        <ele>781.1</ele>
        <time>2018-09-02T08:20:35Z</time>
      </trkpt>
      <trkpt lat="45.7048" lon="4.60392">
        <ele>784.5</ele>
        <time>2018-09-02T08:20:41Z</time>
      </trkpt>
      <trkpt lat="45.70486" lon="4.60414">
        <ele>785.9</ele>
        <time>2018-09-02T08:20:46Z</time>
      </trkpt>
      <trkpt lat="45.70488" lon="4.60421">
        <ele>786.2</ele>
        <time>2018-09-02T08:20:47Z</time>
      </trkpt>
      <trkpt lat="45.70494" lon="4.60458">
        <ele>787.9</ele>
        <time>2018-09-02T08:20:54Z</time>
      </trkpt>
      <trkpt lat="45.70497" lon="4.60481">
        <ele>789.2</ele>
        <time>2018-09-02T08:21:00Z</time>
      </trkpt>
      <trkpt lat="45.70494" lon="4.60504">
        <ele>790.2</ele>
        <time>2018-09-02T08:21:06Z</time>
      </trkpt>
      <trkpt lat="45.70494" lon="4.60525">
        <ele>791.1</ele>
        <time>2018-09-02T08:21:11Z</time>
      </trkpt>
      <trkpt lat="45.70491" lon="4.60555">
        <ele>792.1</ele>
        <time>2018-09-02T08:21:18Z</time>
      </trkpt>
      <trkpt lat="45.70483" lon="4.60574">
        <ele>793.2</ele>
        <time>2018-09-02T08:21:21Z</time>
      </trkpt>
      <trkpt lat="45.70481" lon="4.60589">
        <ele>794.2</ele>
        <time>2018-09-02T08:21:24Z</time>
      </trkpt>
      <trkpt lat="45.70476" lon="4.60614">
        <ele>796.9</ele>
        <time>2018-09-02T08:21:31Z</time>
      </trkpt>
      <trkpt lat="45.70464" lon="4.60638">
        <ele>795.7</ele>
        <time>2018-09-02T08:21:37Z</time>
      </trkpt>
      <trkpt lat="45.70441" lon="4.60677">
        <ele>794.4</ele>
        <time>2018-09-02T08:21:44Z</time>
      </trkpt>
      <trkpt lat="45.70433" lon="4.60688">
        <ele>793.9</ele>
        <time>2018-09-02T08:21:46Z</time>
      </trkpt>
      <trkpt lat="45.70425" lon="4.60694">
        <ele>793.5</ele>
        <time>2018-09-02T08:21:47Z</time>
      </trkpt>
      <trkpt lat="45.70414" lon="4.60704">
        <ele>792.5</ele>
        <time>2018-09-02T08:21:49Z</time>
      </trkpt>
      <trkpt lat="45.70409" lon="4.60707">
        <ele>792.1</ele>
        <time>2018-09-02T08:21:50Z</time>
      </trkpt>
      <trkpt lat="45.70384" lon="4.60718">
        <ele>789.9</ele>
        <time>2018-09-02T08:21:55Z</time>
      </trkpt>
      <trkpt lat="45.70362" lon="4.60722">
        <ele>788.6</ele>
        <time>2018-09-02T08:22:01Z</time>
      </trkpt>
      <trkpt lat="45.70359" lon="4.60722">
        <ele>788.5</ele>
        <time>2018-09-02T08:22:02Z</time>
      </trkpt>
      <trkpt lat="45.70339" lon="4.60726">
        <ele>787.5</ele>
        <time>2018-09-02T08:22:07Z</time>
      </trkpt>
      <trkpt lat="45.70336" lon="4.60727">
        <ele>787.3</ele>
        <time>2018-09-02T08:22:08Z</time>
      </trkpt>
      <trkpt lat="45.703" lon="4.60733">
        <ele>785.1</ele>
        <time>2018-09-02T08:22:16Z</time>
      </trkpt>
      <trkpt lat="45.70287" lon="4.60735">
        <ele>784.5</ele>
        <time>2018-09-02T08:22:19Z</time>
      </trkpt>
      <trkpt lat="45.70273" lon="4.60735">
        <ele>783.5</ele>
        <time>2018-09-02T08:22:22Z</time>
      </trkpt>
      <trkpt lat="45.70269" lon="4.60735">
        <ele>783.2</ele>
        <time>2018-09-02T08:22:23Z</time>
      </trkpt>
      <trkpt lat="45.70261" lon="4.60735">
        <ele>782.7</ele>
        <time>2018-09-02T08:22:25Z</time>
      </trkpt>
      <trkpt lat="45.70248" lon="4.60737">
        <ele>781.9</ele>
        <time>2018-09-02T08:22:28Z</time>
      </trkpt>
      <trkpt lat="45.70244" lon="4.60737">
        <ele>781.7</ele>
        <time>2018-09-02T08:22:29Z</time>
      </trkpt>
      <trkpt lat="45.70234" lon="4.6074">
        <ele>781.1</ele>
        <time>2018-09-02T08:22:32Z</time>
      </trkpt>
      <trkpt lat="45.70228" lon="4.60741">
        <ele>780.7</ele>
        <time>2018-09-02T08:22:34Z</time>
      </trkpt>
      <trkpt lat="45.7022" lon="4.60741">
        <ele>780.2</ele>
        <time>2018-09-02T08:22:36Z</time>
      </trkpt>
      <trkpt lat="45.70213" lon="4.60741">
        <ele>779.6</ele>
        <time>2018-09-02T08:22:38Z</time>
      </trkpt>
      <trkpt lat="45.70201" lon="4.60742">
        <ele>778.5</ele>
        <time>2018-09-02T08:22:42Z</time>
      </trkpt>
      <trkpt lat="45.70193" lon="4.60743">
        <ele>778</ele>
        <time>2018-09-02T08:22:44Z</time>
      </trkpt>
      <trkpt lat="45.7019" lon="4.60743">
        <ele>777.8</ele>
        <time>2018-09-02T08:22:45Z</time>
      </trkpt>
      <trkpt lat="45.70175" lon="4.60751">
        <ele>774.7</ele>
        <time>2018-09-02T08:22:50Z</time>
      </trkpt>
      <trkpt lat="45.70157" lon="4.60755">
        <ele>758</ele>
        <time>2018-09-02T08:22:56Z</time>
      </trkpt>
      <trkpt lat="45.70152" lon="4.60751">
        <ele>758</ele>
        <time>2018-09-02T08:22:57Z</time>
      </trkpt>
      <trkpt lat="45.7014" lon="4.60744">
        <ele>758</ele>
        <time>2018-09-02T08:23:00Z</time>
      </trkpt>
      <trkpt lat="45.70133" lon="4.60739">
        <ele>758</ele>
        <time>2018-09-02T08:23:02Z</time>
      </trkpt>
      <trkpt lat="45.70131" lon="4.60735">
        <ele>758</ele>
        <time>2018-09-02T08:23:03Z</time>
      </trkpt>
      <trkpt lat="45.70131" lon="4.60729">
        <ele>758</ele>
        <time>2018-09-02T08:23:04Z</time>
      </trkpt>
      <trkpt lat="45.70134" lon="4.60719">
        <ele>765.6</ele>
        <time>2018-09-02T08:23:06Z</time>
      </trkpt>
      <trkpt lat="45.70142" lon="4.60708">
        <ele>774.6</ele>
        <time>2018-09-02T08:23:09Z</time>
      </trkpt>
      <trkpt lat="45.70145" lon="4.60704">
        <ele>774.5</ele>
        <time>2018-09-02T08:23:10Z</time>
      </trkpt>
      <trkpt lat="45.70147" lon="4.607">
        <ele>774.3</ele>
        <time>2018-09-02T08:23:11Z</time>
      </trkpt>
      <trkpt lat="45.70157" lon="4.60676">
        <ele>772.9</ele>
        <time>2018-09-02T08:23:18Z</time>
      </trkpt>
      <trkpt lat="45.70156" lon="4.60648">
        <ele>772.2</ele>
        <time>2018-09-02T08:23:24Z</time>
      </trkpt>
      <trkpt lat="45.70149" lon="4.60612">
        <ele>771.4</ele>
        <time>2018-09-02T08:23:31Z</time>
      </trkpt>
      <trkpt lat="45.70146" lon="4.60588">
        <ele>771</ele>
        <time>2018-09-02T08:23:37Z</time>
      </trkpt>
      <trkpt lat="45.70133" lon="4.60571">
        <ele>770.5</ele>
        <time>2018-09-02T08:23:42Z</time>
      </trkpt>
      <trkpt lat="45.70121" lon="4.6056">
        <ele>770.3</ele>
        <time>2018-09-02T08:23:45Z</time>
      </trkpt>
      <trkpt lat="45.70109" lon="4.6055">
        <ele>770.2</ele>
        <time>2018-09-02T08:23:49Z</time>
      </trkpt>
      <trkpt lat="45.70105" lon="4.60545">
        <ele>770.2</ele>
        <time>2018-09-02T08:23:52Z</time>
      </trkpt>
      <trkpt lat="45.70103" lon="4.60539">
        <ele>770.2</ele>
        <time>2018-09-02T08:23:55Z</time>
      </trkpt>
      <trkpt lat="45.701" lon="4.60534">
        <ele>770.3</ele>
        <time>2018-09-02T08:23:58Z</time>
      </trkpt>
      <trkpt lat="45.70098" lon="4.60529">
        <ele>770.7</ele>
        <time>2018-09-02T08:24:01Z</time>
      </trkpt>
      <trkpt lat="45.70092" lon="4.60525">
        <ele>771.3</ele>
        <time>2018-09-02T08:24:05Z</time>
      </trkpt>
      <trkpt lat="45.70085" lon="4.60518">
        <ele>771.7</ele>
        <time>2018-09-02T08:24:08Z</time>
      </trkpt>
      <trkpt lat="45.70082" lon="4.60511">
        <ele>771.9</ele>
        <time>2018-09-02T08:24:09Z</time>
      </trkpt>
      <trkpt lat="45.70079" lon="4.60506">
        <ele>772</ele>
        <time>2018-09-02T08:24:10Z</time>
      </trkpt>
      <trkpt lat="45.70072" lon="4.60492">
        <ele>771.7</ele>
        <time>2018-09-02T08:24:13Z</time>
      </trkpt>
      <trkpt lat="45.70065" lon="4.60482">
        <ele>771.4</ele>
        <time>2018-09-02T08:24:16Z</time>
      </trkpt>
      <trkpt lat="45.70057" lon="4.60473">
        <ele>771.1</ele>
        <time>2018-09-02T08:24:23Z</time>
      </trkpt>
      <trkpt lat="45.70052" lon="4.60462">
        <ele>770.3</ele>
        <time>2018-09-02T08:24:26Z</time>
      </trkpt>
      <trkpt lat="45.70051" lon="4.60457">
        <ele>770</ele>
        <time>2018-09-02T08:24:27Z</time>
      </trkpt>
      <trkpt lat="45.70047" lon="4.60445">
        <ele>769.1</ele>
        <time>2018-09-02T08:24:30Z</time>
      </trkpt>
      <trkpt lat="45.70044" lon="4.60436">
        <ele>768.8</ele>
        <time>2018-09-02T08:24:32Z</time>
      </trkpt>
      <trkpt lat="45.70043" lon="4.60428">
        <ele>768.6</ele>
        <time>2018-09-02T08:24:34Z</time>
      </trkpt>
      <trkpt lat="45.7004" lon="4.60399">
        <ele>768.1</ele>
        <time>2018-09-02T08:24:41Z</time>
      </trkpt>
      <trkpt lat="45.70045" lon="4.60371">
        <ele>767.7</ele>
        <time>2018-09-02T08:24:46Z</time>
      </trkpt>
      <trkpt lat="45.70049" lon="4.60357">
        <ele>767.4</ele>
        <time>2018-09-02T08:24:49Z</time>
      </trkpt>
      <trkpt lat="45.70051" lon="4.60344">
        <ele>767.1</ele>
        <time>2018-09-02T08:24:52Z</time>
      </trkpt>
      <trkpt lat="45.70057" lon="4.60319">
        <ele>766.8</ele>
        <time>2018-09-02T08:24:57Z</time>
      </trkpt>
      <trkpt lat="45.70061" lon="4.6031">
        <ele>766.7</ele>
        <time>2018-09-02T08:24:59Z</time>
      </trkpt>
      <trkpt lat="45.70066" lon="4.60301">
        <ele>766.6</ele>
        <time>2018-09-02T08:25:02Z</time>
      </trkpt>
      <trkpt lat="45.70069" lon="4.60296">
        <ele>766.6</ele>
        <time>2018-09-02T08:25:04Z</time>
      </trkpt>
      <trkpt lat="45.70072" lon="4.60292">
        <ele>766.6</ele>
        <time>2018-09-02T08:25:06Z</time>
      </trkpt>
      <trkpt lat="45.70079" lon="4.60281">
        <ele>766.7</ele>
        <time>2018-09-02T08:25:10Z</time>
      </trkpt>
      <trkpt lat="45.70082" lon="4.60276">
        <ele>766.6</ele>
        <time>2018-09-02T08:25:12Z</time>
      </trkpt>
      <trkpt lat="45.70087" lon="4.6027">
        <ele>766.6</ele>
        <time>2018-09-02T08:25:15Z</time>
      </trkpt>
      <trkpt lat="45.70095" lon="4.60258">
        <ele>766.3</ele>
        <time>2018-09-02T08:25:19Z</time>
      </trkpt>
      <trkpt lat="45.70098" lon="4.60254">
        <ele>766.2</ele>
        <time>2018-09-02T08:25:20Z</time>
      </trkpt>
      <trkpt lat="45.70103" lon="4.60246">
        <ele>765.9</ele>
        <time>2018-09-02T08:25:22Z</time>
      </trkpt>
      <trkpt lat="45.7011" lon="4.60236">
        <ele>765.7</ele>
        <time>2018-09-02T08:25:25Z</time>
      </trkpt>
      <trkpt lat="45.70116" lon="4.60229">
        <ele>765.6</ele>
        <time>2018-09-02T08:25:28Z</time>
      </trkpt>
      <trkpt lat="45.7012" lon="4.60225">
        <ele>765.6</ele>
        <time>2018-09-02T08:25:30Z</time>
      </trkpt>
      <trkpt lat="45.70133" lon="4.60204">
        <ele>766.5</ele>
        <time>2018-09-02T08:25:36Z</time>
      </trkpt>
      <trkpt lat="45.70138" lon="4.60197">
        <ele>766.5</ele>
        <time>2018-09-02T08:25:37Z</time>
      </trkpt>
      <trkpt lat="45.70142" lon="4.60192">
        <ele>766.4</ele>
        <time>2018-09-02T08:25:38Z</time>
      </trkpt>
      <trkpt lat="45.70151" lon="4.60184">
        <ele>766.3</ele>
        <time>2018-09-02T08:25:41Z</time>
      </trkpt>
      <trkpt lat="45.70152" lon="4.60182">
        <ele>766.3</ele>
        <time>2018-09-02T08:25:42Z</time>
      </trkpt>
      <trkpt lat="45.70157" lon="4.60172">
        <ele>766.2</ele>
        <time>2018-09-02T08:25:45Z</time>
      </trkpt>
      <trkpt lat="45.7016" lon="4.60158">
        <ele>764.7</ele>
        <time>2018-09-02T08:25:47Z</time>
      </trkpt>
      <trkpt lat="45.70162" lon="4.60149">
        <ele>764</ele>
        <time>2018-09-02T08:25:48Z</time>
      </trkpt>
      <trkpt lat="45.70167" lon="4.60133">
        <ele>760.5</ele>
        <time>2018-09-02T08:25:50Z</time>
      </trkpt>
      <trkpt lat="45.7017" lon="4.60124">
        <ele>759.4</ele>
        <time>2018-09-02T08:25:51Z</time>
      </trkpt>
      <trkpt lat="45.70173" lon="4.60116">
        <ele>759</ele>
        <time>2018-09-02T08:25:52Z</time>
      </trkpt>
      <trkpt lat="45.70175" lon="4.60104">
        <ele>756.7</ele>
        <time>2018-09-02T08:25:54Z</time>
      </trkpt>
      <trkpt lat="45.70175" lon="4.601">
        <ele>755.9</ele>
        <time>2018-09-02T08:25:55Z</time>
      </trkpt>
      <trkpt lat="45.70175" lon="4.60098">
        <ele>755.5</ele>
        <time>2018-09-02T08:25:56Z</time>
      </trkpt>
      <trkpt lat="45.70171" lon="4.60102">
        <ele>754</ele>
        <time>2018-09-02T08:26:00Z</time>
      </trkpt>
      <trkpt lat="45.70163" lon="4.60108">
        <ele>750.6</ele>
        <time>2018-09-02T08:26:03Z</time>
      </trkpt>
      <trkpt lat="45.70157" lon="4.60114">
        <ele>749.3</ele>
        <time>2018-09-02T08:26:05Z</time>
      </trkpt>
      <trkpt lat="45.70151" lon="4.60118">
        <ele>748.4</ele>
        <time>2018-09-02T08:26:06Z</time>
      </trkpt>
      <trkpt lat="45.70136" lon="4.60126">
        <ele>746.5</ele>
        <time>2018-09-02T08:26:08Z</time>
      </trkpt>
      <trkpt lat="45.70121" lon="4.60134">
        <ele>745.3</ele>
        <time>2018-09-02T08:26:10Z</time>
      </trkpt>
      <trkpt lat="45.7011" lon="4.60145">
        <ele>743.9</ele>
        <time>2018-09-02T08:26:12Z</time>
      </trkpt>
      <trkpt lat="45.70109" lon="4.60148">
        <ele>743.3</ele>
        <time>2018-09-02T08:26:13Z</time>
      </trkpt>
      <trkpt lat="45.70104" lon="4.60154">
        <ele>742.3</ele>
        <time>2018-09-02T08:26:16Z</time>
      </trkpt>
      <trkpt lat="45.70101" lon="4.60158">
        <ele>741.9</ele>
        <time>2018-09-02T08:26:18Z</time>
      </trkpt>
      <trkpt lat="45.70098" lon="4.60165">
        <ele>741.2</ele>
        <time>2018-09-02T08:26:22Z</time>
      </trkpt>
      <trkpt lat="45.70097" lon="4.60167">
        <ele>741</ele>
        <time>2018-09-02T08:26:23Z</time>
      </trkpt>
      <trkpt lat="45.70095" lon="4.60174">
        <ele>740.3</ele>
        <time>2018-09-02T08:26:26Z</time>
      </trkpt>
      <trkpt lat="45.70092" lon="4.60183">
        <ele>739.3</ele>
        <time>2018-09-02T08:26:33Z</time>
      </trkpt>
      <trkpt lat="45.7009" lon="4.60187">
        <ele>738.9</ele>
        <time>2018-09-02T08:26:35Z</time>
      </trkpt>
      <trkpt lat="45.70086" lon="4.60194">
        <ele>737.5</ele>
        <time>2018-09-02T08:26:38Z</time>
      </trkpt>
      <trkpt lat="45.70083" lon="4.60198">
        <ele>736.8</ele>
        <time>2018-09-02T08:26:40Z</time>
      </trkpt>
      <trkpt lat="45.70065" lon="4.60211">
        <ele>735.2</ele>
        <time>2018-09-02T08:27:19Z</time>
      </trkpt>
      <trkpt lat="45.70064" lon="4.60213">
        <ele>735.1</ele>
        <time>2018-09-02T08:27:20Z</time>
      </trkpt>
      <trkpt lat="45.70064" lon="4.60215">
        <ele>735</ele>
        <time>2018-09-02T08:27:21Z</time>
      </trkpt>
      <trkpt lat="45.7006" lon="4.60222">
        <ele>734.8</ele>
        <time>2018-09-02T08:27:26Z</time>
      </trkpt>
      <trkpt lat="45.70051" lon="4.60231">
        <ele>734.9</ele>
        <time>2018-09-02T08:27:29Z</time>
      </trkpt>
      <trkpt lat="45.70049" lon="4.60234">
        <ele>734.5</ele>
        <time>2018-09-02T08:27:30Z</time>
      </trkpt>
      <trkpt lat="45.70047" lon="4.60237">
        <ele>734.3</ele>
        <time>2018-09-02T08:27:31Z</time>
      </trkpt>
      <trkpt lat="45.7004" lon="4.60245">
        <ele>734.4</ele>
        <time>2018-09-02T08:27:35Z</time>
      </trkpt>
      <trkpt lat="45.70032" lon="4.60251">
        <ele>733.6</ele>
        <time>2018-09-02T08:27:38Z</time>
      </trkpt>
      <trkpt lat="45.70022" lon="4.60262">
        <ele>732.4</ele>
        <time>2018-09-02T08:27:41Z</time>
      </trkpt>
      <trkpt lat="45.70018" lon="4.60267">
        <ele>731.4</ele>
        <time>2018-09-02T08:27:42Z</time>
      </trkpt>
      <trkpt lat="45.70006" lon="4.60281">
        <ele>727.7</ele>
        <time>2018-09-02T08:27:45Z</time>
      </trkpt>
      <trkpt lat="45.7" lon="4.60285">
        <ele>726</ele>
        <time>2018-09-02T08:27:46Z</time>
      </trkpt>
      <trkpt lat="45.69979" lon="4.60302">
        <ele>720.1</ele>
        <time>2018-09-02T08:27:50Z</time>
      </trkpt>
      <trkpt lat="45.69975" lon="4.60307">
        <ele>718.6</ele>
        <time>2018-09-02T08:27:51Z</time>
      </trkpt>
      <trkpt lat="45.69966" lon="4.60322">
        <ele>717.5</ele>
        <time>2018-09-02T08:27:54Z</time>
      </trkpt>
      <trkpt lat="45.69964" lon="4.60325">
        <ele>717.4</ele>
        <time>2018-09-02T08:27:55Z</time>
      </trkpt>
      <trkpt lat="45.69963" lon="4.60328">
        <ele>717.2</ele>
        <time>2018-09-02T08:27:56Z</time>
      </trkpt>
      <trkpt lat="45.69962" lon="4.60332">
        <ele>716.7</ele>
        <time>2018-09-02T08:27:58Z</time>
      </trkpt>
      <trkpt lat="45.69961" lon="4.60334">
        <ele>716.5</ele>
        <time>2018-09-02T08:27:59Z</time>
      </trkpt>
      <trkpt lat="45.69957" lon="4.60342">
        <ele>715.3</ele>
        <time>2018-09-02T08:28:02Z</time>
      </trkpt>
      <trkpt lat="45.69953" lon="4.60352">
        <ele>714.3</ele>
        <time>2018-09-02T08:28:04Z</time>
      </trkpt>
      <trkpt lat="45.69951" lon="4.60357">
        <ele>714.2</ele>
        <time>2018-09-02T08:28:05Z</time>
      </trkpt>
      <trkpt lat="45.69949" lon="4.60365">
        <ele>713.3</ele>
        <time>2018-09-02T08:28:08Z</time>
      </trkpt>
      <trkpt lat="45.69949" lon="4.60373">
        <ele>712.4</ele>
        <time>2018-09-02T08:28:12Z</time>
      </trkpt>
      <trkpt lat="45.69947" lon="4.60375">
        <ele>712.1</ele>
        <time>2018-09-02T08:28:14Z</time>
      </trkpt>
      <trkpt lat="45.69945" lon="4.60379">
        <ele>711.7</ele>
        <time>2018-09-02T08:28:16Z</time>
      </trkpt>
      <trkpt lat="45.69941" lon="4.60384">
        <ele>709.2</ele>
        <time>2018-09-02T08:28:19Z</time>
      </trkpt>
      <trkpt lat="45.69939" lon="4.60385">
        <ele>708.4</ele>
        <time>2018-09-02T08:28:20Z</time>
      </trkpt>
      <trkpt lat="45.69937" lon="4.60387">
        <ele>707.4</ele>
        <time>2018-09-02T08:28:21Z</time>
      </trkpt>
      <trkpt lat="45.69934" lon="4.60391">
        <ele>706</ele>
        <time>2018-09-02T08:28:23Z</time>
      </trkpt>
      <trkpt lat="45.69933" lon="4.60391">
        <ele>705.8</ele>
        <time>2018-09-02T08:28:24Z</time>
      </trkpt>
      <trkpt lat="45.69933" lon="4.60391">
        <ele>705.7</ele>
        <time>2018-09-02T08:28:25Z</time>
      </trkpt>
      <trkpt lat="45.69934" lon="4.60393">
        <ele>705.3</ele>
        <time>2018-09-02T08:29:54Z</time>
      </trkpt>
      <trkpt lat="45.69933" lon="4.60388">
        <ele>704.3</ele>
        <time>2018-09-02T08:29:56Z</time>
      </trkpt>
      <trkpt lat="45.69932" lon="4.60385">
        <ele>703.6</ele>
        <time>2018-09-02T08:29:57Z</time>
      </trkpt>
      <trkpt lat="45.69929" lon="4.60374">
        <ele>701.4</ele>
        <time>2018-09-02T08:30:00Z</time>
      </trkpt>
      <trkpt lat="45.69928" lon="4.60365">
        <ele>699.5</ele>
        <time>2018-09-02T08:30:02Z</time>
      </trkpt>
      <trkpt lat="45.69927" lon="4.60359">
        <ele>698.4</ele>
        <time>2018-09-02T08:30:03Z</time>
      </trkpt>
      <trkpt lat="45.69928" lon="4.60346">
        <ele>697</ele>
        <time>2018-09-02T08:30:05Z</time>
      </trkpt>
      <trkpt lat="45.69929" lon="4.60339">
        <ele>696.4</ele>
        <time>2018-09-02T08:30:06Z</time>
      </trkpt>
      <trkpt lat="45.69931" lon="4.60326">
        <ele>695.4</ele>
        <time>2018-09-02T08:30:08Z</time>
      </trkpt>
      <trkpt lat="45.69933" lon="4.60305">
        <ele>693</ele>
        <time>2018-09-02T08:30:11Z</time>
      </trkpt>
      <trkpt lat="45.69934" lon="4.60301">
        <ele>692.3</ele>
        <time>2018-09-02T08:30:12Z</time>
      </trkpt>
      <trkpt lat="45.69934" lon="4.60299">
        <ele>692</ele>
        <time>2018-09-02T08:30:13Z</time>
      </trkpt>
      <trkpt lat="45.69934" lon="4.60295">
        <ele>691.8</ele>
        <time>2018-09-02T08:30:15Z</time>
      </trkpt>
      <trkpt lat="45.69936" lon="4.60285">
        <ele>691.3</ele>
        <time>2018-09-02T08:30:18Z</time>
      </trkpt>
      <trkpt lat="45.69941" lon="4.60274">
        <ele>690.6</ele>
        <time>2018-09-02T08:30:20Z</time>
      </trkpt>
      <trkpt lat="45.69949" lon="4.60257">
        <ele>690.2</ele>
        <time>2018-09-02T08:30:22Z</time>
      </trkpt>
      <trkpt lat="45.69953" lon="4.60249">
        <ele>688.3</ele>
        <time>2018-09-02T08:30:23Z</time>
      </trkpt>
      <trkpt lat="45.6996" lon="4.60231">
        <ele>686.1</ele>
        <time>2018-09-02T08:30:25Z</time>
      </trkpt>
      <trkpt lat="45.69967" lon="4.60214">
        <ele>683.2</ele>
        <time>2018-09-02T08:30:27Z</time>
      </trkpt>
      <trkpt lat="45.69971" lon="4.60197">
        <ele>680.4</ele>
        <time>2018-09-02T08:30:29Z</time>
      </trkpt>
      <trkpt lat="45.69973" lon="4.60189">
        <ele>679.5</ele>
        <time>2018-09-02T08:30:30Z</time>
      </trkpt>
      <trkpt lat="45.69975" lon="4.60183">
        <ele>678.4</ele>
        <time>2018-09-02T08:30:31Z</time>
      </trkpt>
      <trkpt lat="45.69977" lon="4.60176">
        <ele>677.2</ele>
        <time>2018-09-02T08:30:32Z</time>
      </trkpt>
      <trkpt lat="45.6998" lon="4.60168">
        <ele>676.5</ele>
        <time>2018-09-02T08:30:33Z</time>
      </trkpt>
      <trkpt lat="45.69982" lon="4.60161">
        <ele>676.5</ele>
        <time>2018-09-02T08:30:34Z</time>
      </trkpt>
      <trkpt lat="45.69988" lon="4.60144">
        <ele>675</ele>
        <time>2018-09-02T08:30:36Z</time>
      </trkpt>
      <trkpt lat="45.69994" lon="4.60128">
        <ele>675</ele>
        <time>2018-09-02T08:30:38Z</time>
      </trkpt>
      <trkpt lat="45.69996" lon="4.6012">
        <ele>674.5</ele>
        <time>2018-09-02T08:30:39Z</time>
      </trkpt>
      <trkpt lat="45.69998" lon="4.60111">
        <ele>674</ele>
        <time>2018-09-02T08:30:40Z</time>
      </trkpt>
      <trkpt lat="45.7" lon="4.60095">
        <ele>672.3</ele>
        <time>2018-09-02T08:30:42Z</time>
      </trkpt>
      <trkpt lat="45.70001" lon="4.60087">
        <ele>671.4</ele>
        <time>2018-09-02T08:30:43Z</time>
      </trkpt>
      <trkpt lat="45.70003" lon="4.60077">
        <ele>671</ele>
        <time>2018-09-02T08:30:44Z</time>
      </trkpt>
      <trkpt lat="45.70009" lon="4.60049">
        <ele>672.3</ele>
        <time>2018-09-02T08:30:47Z</time>
      </trkpt>
      <trkpt lat="45.70014" lon="4.60032">
        <ele>673.3</ele>
        <time>2018-09-02T08:30:49Z</time>
      </trkpt>
      <trkpt lat="45.70017" lon="4.60018">
        <ele>674.2</ele>
        <time>2018-09-02T08:30:51Z</time>
      </trkpt>
      <trkpt lat="45.70019" lon="4.60009">
        <ele>674.7</ele>
        <time>2018-09-02T08:30:53Z</time>
      </trkpt>
      <trkpt lat="45.7002" lon="4.60007">
        <ele>674.8</ele>
        <time>2018-09-02T08:30:54Z</time>
      </trkpt>
      <trkpt lat="45.70021" lon="4.60002">
        <ele>675.1</ele>
        <time>2018-09-02T08:30:56Z</time>
      </trkpt>
      <trkpt lat="45.7002" lon="4.60002">
        <ele>675.1</ele>
        <time>2018-09-02T08:30:57Z</time>
      </trkpt>
      <trkpt lat="45.70019" lon="4.60003">
        <ele>675</ele>
        <time>2018-09-02T08:30:58Z</time>
      </trkpt>
      <trkpt lat="45.70014" lon="4.60012">
        <ele>674.3</ele>
        <time>2018-09-02T08:31:01Z</time>
      </trkpt>
      <trkpt lat="45.70012" lon="4.60015">
        <ele>674.1</ele>
        <time>2018-09-02T08:31:02Z</time>
      </trkpt>
      <trkpt lat="45.70004" lon="4.60024">
        <ele>673.2</ele>
        <time>2018-09-02T08:31:05Z</time>
      </trkpt>
      <trkpt lat="45.69998" lon="4.60032">
        <ele>672.5</ele>
        <time>2018-09-02T08:31:07Z</time>
      </trkpt>
      <trkpt lat="45.69995" lon="4.60037">
        <ele>672.2</ele>
        <time>2018-09-02T08:31:08Z</time>
      </trkpt>
      <trkpt lat="45.69982" lon="4.60061">
        <ele>670.7</ele>
        <time>2018-09-02T08:31:12Z</time>
      </trkpt>
      <trkpt lat="45.69954" lon="4.60107">
        <ele>663</ele>
        <time>2018-09-02T08:31:21Z</time>
      </trkpt>
      <trkpt lat="45.69929" lon="4.6014">
        <ele>663.2</ele>
        <time>2018-09-02T08:31:28Z</time>
      </trkpt>
      <trkpt lat="45.69899" lon="4.60178">
        <ele>664.2</ele>
        <time>2018-09-02T08:31:36Z</time>
      </trkpt>
      <trkpt lat="45.69891" lon="4.60189">
        <ele>664.5</ele>
        <time>2018-09-02T08:31:39Z</time>
      </trkpt>
      <trkpt lat="45.69886" lon="4.60195">
        <ele>664.7</ele>
        <time>2018-09-02T08:31:41Z</time>
      </trkpt>
      <trkpt lat="45.69883" lon="4.602">
        <ele>664.9</ele>
        <time>2018-09-02T08:31:43Z</time>
      </trkpt>
      <trkpt lat="45.69875" lon="4.6021">
        <ele>665.6</ele>
        <time>2018-09-02T08:31:47Z</time>
      </trkpt>
      <trkpt lat="45.69869" lon="4.60218">
        <ele>666.4</ele>
        <time>2018-09-02T08:31:50Z</time>
      </trkpt>
      <trkpt lat="45.69863" lon="4.60231">
        <ele>667.7</ele>
        <time>2018-09-02T08:31:54Z</time>
      </trkpt>
      <trkpt lat="45.69856" lon="4.60253">
        <ele>669.9</ele>
        <time>2018-09-02T08:32:01Z</time>
      </trkpt>
      <trkpt lat="45.69856" lon="4.60258">
        <ele>670.3</ele>
        <time>2018-09-02T08:32:03Z</time>
      </trkpt>
      <trkpt lat="45.69856" lon="4.60277">
        <ele>671.3</ele>
        <time>2018-09-02T08:32:10Z</time>
      </trkpt>
      <trkpt lat="45.69856" lon="4.60303">
        <ele>673.5</ele>
        <time>2018-09-02T08:32:18Z</time>
      </trkpt>
      <trkpt lat="45.69855" lon="4.60324">
        <ele>675.6</ele>
        <time>2018-09-02T08:32:24Z</time>
      </trkpt>
      <trkpt lat="45.69854" lon="4.60347">
        <ele>676.7</ele>
        <time>2018-09-02T08:32:29Z</time>
      </trkpt>
      <trkpt lat="45.69851" lon="4.60381">
        <ele>677.1</ele>
        <time>2018-09-02T08:32:33Z</time>
      </trkpt>
      <trkpt lat="45.69851" lon="4.60408">
        <ele>677.3</ele>
        <time>2018-09-02T08:32:36Z</time>
      </trkpt>
      <trkpt lat="45.69848" lon="4.60426">
        <ele>677.1</ele>
        <time>2018-09-02T08:32:38Z</time>
      </trkpt>
      <trkpt lat="45.69847" lon="4.60436">
        <ele>676.9</ele>
        <time>2018-09-02T08:32:39Z</time>
      </trkpt>
      <trkpt lat="45.69847" lon="4.60447">
        <ele>676.5</ele>
        <time>2018-09-02T08:32:40Z</time>
      </trkpt>
      <trkpt lat="45.69847" lon="4.60467">
        <ele>675.9</ele>
        <time>2018-09-02T08:32:42Z</time>
      </trkpt>
      <trkpt lat="45.69847" lon="4.60477">
        <ele>675.6</ele>
        <time>2018-09-02T08:32:43Z</time>
      </trkpt>
      <trkpt lat="45.69848" lon="4.60506">
        <ele>674.8</ele>
        <time>2018-09-02T08:32:47Z</time>
      </trkpt>
      <trkpt lat="45.69848" lon="4.60518">
        <ele>674.6</ele>
        <time>2018-09-02T08:32:51Z</time>
      </trkpt>
      <trkpt lat="45.69848" lon="4.60521">
        <ele>674.6</ele>
        <time>2018-09-02T08:32:52Z</time>
      </trkpt>
      <trkpt lat="45.6985" lon="4.60534">
        <ele>674.5</ele>
        <time>2018-09-02T08:32:56Z</time>
      </trkpt>
      <trkpt lat="45.69852" lon="4.60556">
        <ele>674.3</ele>
        <time>2018-09-02T08:32:59Z</time>
      </trkpt>
      <trkpt lat="45.69854" lon="4.60564">
        <ele>674.1</ele>
        <time>2018-09-02T08:33:00Z</time>
      </trkpt>
      <trkpt lat="45.69856" lon="4.60572">
        <ele>673.8</ele>
        <time>2018-09-02T08:33:01Z</time>
      </trkpt>
      <trkpt lat="45.69862" lon="4.60589">
        <ele>673.2</ele>
        <time>2018-09-02T08:33:03Z</time>
      </trkpt>
      <trkpt lat="45.6987" lon="4.60603">
        <ele>672.6</ele>
        <time>2018-09-02T08:33:05Z</time>
      </trkpt>
      <trkpt lat="45.69874" lon="4.60609">
        <ele>672.4</ele>
        <time>2018-09-02T08:33:06Z</time>
      </trkpt>
      <trkpt lat="45.69879" lon="4.60615">
        <ele>672.2</ele>
        <time>2018-09-02T08:33:07Z</time>
      </trkpt>
      <trkpt lat="45.699" lon="4.60644">
        <ele>671.4</ele>
        <time>2018-09-02T08:33:12Z</time>
      </trkpt>
      <trkpt lat="45.69903" lon="4.60651">
        <ele>671.2</ele>
        <time>2018-09-02T08:33:13Z</time>
      </trkpt>
      <trkpt lat="45.69911" lon="4.6069">
        <ele>670.3</ele>
        <time>2018-09-02T08:33:18Z</time>
      </trkpt>
      <trkpt lat="45.69912" lon="4.60698">
        <ele>670.1</ele>
        <time>2018-09-02T08:33:19Z</time>
      </trkpt>
      <trkpt lat="45.69916" lon="4.60713">
        <ele>669.7</ele>
        <time>2018-09-02T08:33:21Z</time>
      </trkpt>
      <trkpt lat="45.6992" lon="4.60727">
        <ele>669.7</ele>
        <time>2018-09-02T08:33:23Z</time>
      </trkpt>
      <trkpt lat="45.69922" lon="4.60742">
        <ele>669.8</ele>
        <time>2018-09-02T08:33:25Z</time>
      </trkpt>
      <trkpt lat="45.69922" lon="4.60773">
        <ele>670.2</ele>
        <time>2018-09-02T08:33:30Z</time>
      </trkpt>
      <trkpt lat="45.69921" lon="4.60785">
        <ele>670.5</ele>
        <time>2018-09-02T08:33:32Z</time>
      </trkpt>
      <trkpt lat="45.69917" lon="4.60808">
        <ele>671</ele>
        <time>2018-09-02T08:33:36Z</time>
      </trkpt>
      <trkpt lat="45.69913" lon="4.60825">
        <ele>671.5</ele>
        <time>2018-09-02T08:33:40Z</time>
      </trkpt>
      <trkpt lat="45.69912" lon="4.60829">
        <ele>671.7</ele>
        <time>2018-09-02T08:33:41Z</time>
      </trkpt>
      <trkpt lat="45.69909" lon="4.60843">
        <ele>672.8</ele>
        <time>2018-09-02T08:33:47Z</time>
      </trkpt>
      <trkpt lat="45.69906" lon="4.60854">
        <ele>674</ele>
        <time>2018-09-02T08:33:51Z</time>
      </trkpt>
      <trkpt lat="45.69904" lon="4.60862">
        <ele>674.7</ele>
        <time>2018-09-02T08:33:54Z</time>
      </trkpt>
      <trkpt lat="45.699" lon="4.60887">
        <ele>677</ele>
        <time>2018-09-02T08:34:02Z</time>
      </trkpt>
      <trkpt lat="45.69896" lon="4.609">
        <ele>678.1</ele>
        <time>2018-09-02T08:34:07Z</time>
      </trkpt>
      <trkpt lat="45.69896" lon="4.60902">
        <ele>678.2</ele>
        <time>2018-09-02T08:34:08Z</time>
      </trkpt>
      <trkpt lat="45.69891" lon="4.60922">
        <ele>679.8</ele>
        <time>2018-09-02T08:34:15Z</time>
      </trkpt>
      <trkpt lat="45.69891" lon="4.60924">
        <ele>680</ele>
        <time>2018-09-02T08:34:16Z</time>
      </trkpt>
      <trkpt lat="45.69887" lon="4.60938">
        <ele>681.3</ele>
        <time>2018-09-02T08:34:22Z</time>
      </trkpt>
      <trkpt lat="45.69878" lon="4.61004">
        <ele>688.8</ele>
        <time>2018-09-02T08:35:46Z</time>
      </trkpt>
      <trkpt lat="45.69879" lon="4.61006">
        <ele>689</ele>
        <time>2018-09-02T08:35:47Z</time>
      </trkpt>
      <trkpt lat="45.6988" lon="4.61012">
        <ele>689.4</ele>
        <time>2018-09-02T08:35:50Z</time>
      </trkpt>
      <trkpt lat="45.69881" lon="4.6102">
        <ele>689.9</ele>
        <time>2018-09-02T08:35:53Z</time>
      </trkpt>
      <trkpt lat="45.69882" lon="4.6103">
        <ele>690.2</ele>
        <time>2018-09-02T08:35:56Z</time>
      </trkpt>
      <trkpt lat="45.69886" lon="4.61045">
        <ele>690.7</ele>
        <time>2018-09-02T08:36:00Z</time>
      </trkpt>
      <trkpt lat="45.69894" lon="4.61072">
        <ele>692.3</ele>
        <time>2018-09-02T08:36:06Z</time>
      </trkpt>
      <trkpt lat="45.69896" lon="4.61081">
        <ele>692.9</ele>
        <time>2018-09-02T08:36:08Z</time>
      </trkpt>
      <trkpt lat="45.699" lon="4.61094">
        <ele>693.3</ele>
        <time>2018-09-02T08:36:11Z</time>
      </trkpt>
      <trkpt lat="45.69903" lon="4.61102">
        <ele>693.6</ele>
        <time>2018-09-02T08:36:13Z</time>
      </trkpt>
      <trkpt lat="45.69907" lon="4.61117">
        <ele>694.4</ele>
        <time>2018-09-02T08:36:17Z</time>
      </trkpt>
      <trkpt lat="45.69908" lon="4.6113">
        <ele>695.6</ele>
        <time>2018-09-02T08:36:20Z</time>
      </trkpt>
      <trkpt lat="45.69907" lon="4.61161">
        <ele>697.2</ele>
        <time>2018-09-02T08:36:26Z</time>
      </trkpt>
      <trkpt lat="45.699" lon="4.61177">
        <ele>697.7</ele>
        <time>2018-09-02T08:36:29Z</time>
      </trkpt>
      <trkpt lat="45.69897" lon="4.61182">
        <ele>697.9</ele>
        <time>2018-09-02T08:36:30Z</time>
      </trkpt>
      <trkpt lat="45.69866" lon="4.61222">
        <ele>699.1</ele>
        <time>2018-09-02T08:36:38Z</time>
      </trkpt>
      <trkpt lat="45.69843" lon="4.61245">
        <ele>700.1</ele>
        <time>2018-09-02T08:36:43Z</time>
      </trkpt>
      <trkpt lat="45.69821" lon="4.61262">
        <ele>699.4</ele>
        <time>2018-09-02T08:36:47Z</time>
      </trkpt>
      <trkpt lat="45.69816" lon="4.61267">
        <ele>699.4</ele>
        <time>2018-09-02T08:36:48Z</time>
      </trkpt>
      <trkpt lat="45.69808" lon="4.61278">
        <ele>699.7</ele>
        <time>2018-09-02T08:36:51Z</time>
      </trkpt>
      <trkpt lat="45.69801" lon="4.61287">
        <ele>700.1</ele>
        <time>2018-09-02T08:36:57Z</time>
      </trkpt>
      <trkpt lat="45.69799" lon="4.61293">
        <ele>700.3</ele>
        <time>2018-09-02T08:37:00Z</time>
      </trkpt>
      <trkpt lat="45.69796" lon="4.61302">
        <ele>700.5</ele>
        <time>2018-09-02T08:37:03Z</time>
      </trkpt>
      <trkpt lat="45.6979" lon="4.61323">
        <ele>701</ele>
        <time>2018-09-02T08:37:09Z</time>
      </trkpt>
      <trkpt lat="45.69787" lon="4.61344">
        <ele>701.5</ele>
        <time>2018-09-02T08:37:15Z</time>
      </trkpt>
      <trkpt lat="45.69786" lon="4.6137">
        <ele>702.3</ele>
        <time>2018-09-02T08:37:22Z</time>
      </trkpt>
      <trkpt lat="45.69787" lon="4.61373">
        <ele>702.5</ele>
        <time>2018-09-02T08:37:23Z</time>
      </trkpt>
      <trkpt lat="45.6979" lon="4.61383">
        <ele>703.3</ele>
        <time>2018-09-02T08:37:27Z</time>
      </trkpt>
      <trkpt lat="45.69796" lon="4.6141">
        <ele>705.2</ele>
        <time>2018-09-02T08:37:35Z</time>
      </trkpt>
      <trkpt lat="45.69797" lon="4.61414">
        <ele>705.4</ele>
        <time>2018-09-02T08:37:36Z</time>
      </trkpt>
      <trkpt lat="45.69798" lon="4.61428">
        <ele>706.4</ele>
        <time>2018-09-02T08:37:40Z</time>
      </trkpt>
      <trkpt lat="45.69798" lon="4.61442">
        <ele>707.9</ele>
        <time>2018-09-02T08:37:44Z</time>
      </trkpt>
      <trkpt lat="45.69799" lon="4.61452">
        <ele>708.6</ele>
        <time>2018-09-02T08:37:46Z</time>
      </trkpt>
      <trkpt lat="45.69801" lon="4.61479">
        <ele>709.5</ele>
        <time>2018-09-02T08:37:50Z</time>
      </trkpt>
      <trkpt lat="45.69801" lon="4.61492">
        <ele>709.9</ele>
        <time>2018-09-02T08:37:52Z</time>
      </trkpt>
      <trkpt lat="45.69803" lon="4.61507">
        <ele>710.5</ele>
        <time>2018-09-02T08:37:54Z</time>
      </trkpt>
      <trkpt lat="45.69803" lon="4.6153">
        <ele>710.9</ele>
        <time>2018-09-02T08:37:57Z</time>
      </trkpt>
      <trkpt lat="45.69802" lon="4.61538">
        <ele>710.9</ele>
        <time>2018-09-02T08:37:58Z</time>
      </trkpt>
      <trkpt lat="45.69801" lon="4.61581">
        <ele>710</ele>
        <time>2018-09-02T08:38:04Z</time>
      </trkpt>
      <trkpt lat="45.69801" lon="4.61588">
        <ele>710.1</ele>
        <time>2018-09-02T08:38:05Z</time>
      </trkpt>
      <trkpt lat="45.69804" lon="4.61628">
        <ele>710.9</ele>
        <time>2018-09-02T08:38:11Z</time>
      </trkpt>
      <trkpt lat="45.69811" lon="4.61655">
        <ele>711.4</ele>
        <time>2018-09-02T08:38:16Z</time>
      </trkpt>
      <trkpt lat="45.69817" lon="4.61674">
        <ele>711.8</ele>
        <time>2018-09-02T08:38:21Z</time>
      </trkpt>
      <trkpt lat="45.6982" lon="4.61678">
        <ele>711.9</ele>
        <time>2018-09-02T08:38:23Z</time>
      </trkpt>
      <trkpt lat="45.69823" lon="4.61684">
        <ele>712.1</ele>
        <time>2018-09-02T08:38:26Z</time>
      </trkpt>
      <trkpt lat="45.69826" lon="4.61689">
        <ele>712.4</ele>
        <time>2018-09-02T08:38:30Z</time>
      </trkpt>
      <trkpt lat="45.69827" lon="4.61691">
        <ele>712.5</ele>
        <time>2018-09-02T08:38:31Z</time>
      </trkpt>
      <trkpt lat="45.6983" lon="4.61695">
        <ele>712.8</ele>
        <time>2018-09-02T08:38:34Z</time>
      </trkpt>
      <trkpt lat="45.69835" lon="4.61702">
        <ele>713.7</ele>
        <time>2018-09-02T08:38:40Z</time>
      </trkpt>
      <trkpt lat="45.69837" lon="4.61705">
        <ele>713.9</ele>
        <time>2018-09-02T08:38:42Z</time>
      </trkpt>
      <trkpt lat="45.69845" lon="4.61713">
        <ele>715.6</ele>
        <time>2018-09-02T08:38:48Z</time>
      </trkpt>
      <trkpt lat="45.69853" lon="4.61721">
        <ele>717.2</ele>
        <time>2018-09-02T08:38:54Z</time>
      </trkpt>
      <trkpt lat="45.69855" lon="4.61723">
        <ele>717.6</ele>
        <time>2018-09-02T08:38:56Z</time>
      </trkpt>
      <trkpt lat="45.69864" lon="4.6173">
        <ele>719.1</ele>
        <time>2018-09-02T08:39:04Z</time>
      </trkpt>
      <trkpt lat="45.69865" lon="4.6173">
        <ele>719.3</ele>
        <time>2018-09-02T08:39:05Z</time>
      </trkpt>
      <trkpt lat="45.69872" lon="4.61736">
        <ele>720.5</ele>
        <time>2018-09-02T08:39:11Z</time>
      </trkpt>
      <trkpt lat="45.69881" lon="4.61742">
        <ele>721.5</ele>
        <time>2018-09-02T08:39:17Z</time>
      </trkpt>
      <trkpt lat="45.69893" lon="4.61751">
        <ele>723.3</ele>
        <time>2018-09-02T08:39:22Z</time>
      </trkpt>
      <trkpt lat="45.69906" lon="4.61761">
        <ele>724.5</ele>
        <time>2018-09-02T08:39:27Z</time>
      </trkpt>
      <trkpt lat="45.69913" lon="4.61768">
        <ele>724.9</ele>
        <time>2018-09-02T08:39:30Z</time>
      </trkpt>
      <trkpt lat="45.69932" lon="4.61791">
        <ele>727.8</ele>
        <time>2018-09-02T08:39:38Z</time>
      </trkpt>
      <trkpt lat="45.69937" lon="4.61817">
        <ele>728.9</ele>
        <time>2018-09-02T08:39:44Z</time>
      </trkpt>
      <trkpt lat="45.69944" lon="4.61839">
        <ele>729.3</ele>
        <time>2018-09-02T08:39:48Z</time>
      </trkpt>
      <trkpt lat="45.69946" lon="4.61845">
        <ele>729.3</ele>
        <time>2018-09-02T08:39:49Z</time>
      </trkpt>
      <trkpt lat="45.69955" lon="4.61863">
        <ele>729</ele>
        <time>2018-09-02T08:39:53Z</time>
      </trkpt>
      <trkpt lat="45.69968" lon="4.61885">
        <ele>728.3</ele>
        <time>2018-09-02T08:39:59Z</time>
      </trkpt>
      <trkpt lat="45.69974" lon="4.61893">
        <ele>728.3</ele>
        <time>2018-09-02T08:42:03Z</time>
      </trkpt>
      <trkpt lat="45.69982" lon="4.61909">
        <ele>728.6</ele>
        <time>2018-09-02T08:42:08Z</time>
      </trkpt>
      <trkpt lat="45.69993" lon="4.61922">
        <ele>729.1</ele>
        <time>2018-09-02T08:42:12Z</time>
      </trkpt>
      <trkpt lat="45.69996" lon="4.61922">
        <ele>729.2</ele>
        <time>2018-09-02T08:42:13Z</time>
      </trkpt>
      <trkpt lat="45.70004" lon="4.6192">
        <ele>729.5</ele>
        <time>2018-09-02T08:42:16Z</time>
      </trkpt>
      <trkpt lat="45.70008" lon="4.61917">
        <ele>729.7</ele>
        <time>2018-09-02T08:42:18Z</time>
      </trkpt>
      <trkpt lat="45.70012" lon="4.61916">
        <ele>729.2</ele>
        <time>2018-09-02T08:42:20Z</time>
      </trkpt>
      <trkpt lat="45.70018" lon="4.61917">
        <ele>727.7</ele>
        <time>2018-09-02T08:42:23Z</time>
      </trkpt>
      <trkpt lat="45.70025" lon="4.61927">
        <ele>725.8</ele>
        <time>2018-09-02T08:42:28Z</time>
      </trkpt>
      <trkpt lat="45.70039" lon="4.61953">
        <ele>723</ele>
        <time>2018-09-02T08:42:34Z</time>
      </trkpt>
      <trkpt lat="45.70057" lon="4.61985">
        <ele>720.2</ele>
        <time>2018-09-02T08:42:39Z</time>
      </trkpt>
      <trkpt lat="45.70074" lon="4.62014">
        <ele>717.2</ele>
        <time>2018-09-02T08:42:44Z</time>
      </trkpt>
      <trkpt lat="45.70071" lon="4.62019">
        <ele>717.2</ele>
        <time>2018-09-02T08:42:46Z</time>
      </trkpt>
      <trkpt lat="45.70069" lon="4.62023">
        <ele>717.3</ele>
        <time>2018-09-02T08:42:47Z</time>
      </trkpt>
      <trkpt lat="45.70064" lon="4.62035">
        <ele>717.5</ele>
        <time>2018-09-02T08:42:49Z</time>
      </trkpt>
      <trkpt lat="45.70061" lon="4.62041">
        <ele>717.5</ele>
        <time>2018-09-02T08:42:50Z</time>
      </trkpt>
      <trkpt lat="45.70061" lon="4.62047">
        <ele>717.5</ele>
        <time>2018-09-02T08:42:51Z</time>
      </trkpt>
      <trkpt lat="45.70065" lon="4.62057">
        <ele>717.5</ele>
        <time>2018-09-02T08:42:53Z</time>
      </trkpt>
      <trkpt lat="45.70068" lon="4.62062">
        <ele>717.4</ele>
        <time>2018-09-02T08:42:54Z</time>
      </trkpt>
      <trkpt lat="45.70071" lon="4.62066">
        <ele>717.4</ele>
        <time>2018-09-02T08:42:55Z</time>
      </trkpt>
      <trkpt lat="45.70073" lon="4.62073">
        <ele>717.3</ele>
        <time>2018-09-02T08:42:57Z</time>
      </trkpt>
      <trkpt lat="45.70071" lon="4.62076">
        <ele>717.2</ele>
        <time>2018-09-02T08:42:58Z</time>
      </trkpt>
      <trkpt lat="45.70069" lon="4.62077">
        <ele>717.2</ele>
        <time>2018-09-02T08:42:59Z</time>
      </trkpt>
      <trkpt lat="45.70066" lon="4.62079">
        <ele>717.1</ele>
        <time>2018-09-02T08:43:01Z</time>
      </trkpt>
      <trkpt lat="45.70065" lon="4.62079">
        <ele>717</ele>
        <time>2018-09-02T08:43:02Z</time>
      </trkpt>
      <trkpt lat="45.70066" lon="4.62087">
        <ele>715.7</ele>
        <time>2018-09-02T08:43:20Z</time>
      </trkpt>
      <trkpt lat="45.70067" lon="4.6209">
        <ele>715.3</ele>
        <time>2018-09-02T08:43:21Z</time>
      </trkpt>
      <trkpt lat="45.70072" lon="4.621">
        <ele>713.5</ele>
        <time>2018-09-02T08:43:26Z</time>
      </trkpt>
      <trkpt lat="45.70073" lon="4.62102">
        <ele>713.1</ele>
        <time>2018-09-02T08:43:27Z</time>
      </trkpt>
      <trkpt lat="45.70077" lon="4.6211">
        <ele>711.8</ele>
        <time>2018-09-02T08:43:30Z</time>
      </trkpt>
      <trkpt lat="45.7008" lon="4.62116">
        <ele>710.5</ele>
        <time>2018-09-02T08:43:33Z</time>
      </trkpt>
      <trkpt lat="45.70081" lon="4.62118">
        <ele>710</ele>
        <time>2018-09-02T08:43:34Z</time>
      </trkpt>
      <trkpt lat="45.70084" lon="4.62126">
        <ele>707.7</ele>
        <time>2018-09-02T08:43:46Z</time>
      </trkpt>
      <trkpt lat="45.70084" lon="4.62128">
        <ele>707.2</ele>
        <time>2018-09-02T08:43:47Z</time>
      </trkpt>
      <trkpt lat="45.70086" lon="4.62135">
        <ele>705.3</ele>
        <time>2018-09-02T08:43:51Z</time>
      </trkpt>
      <trkpt lat="45.70087" lon="4.62137">
        <ele>704.7</ele>
        <time>2018-09-02T08:43:52Z</time>
      </trkpt>
      <trkpt lat="45.70088" lon="4.62138">
        <ele>704.1</ele>
        <time>2018-09-02T08:43:53Z</time>
      </trkpt>
      <trkpt lat="45.70091" lon="4.62142">
        <ele>702.9</ele>
        <time>2018-09-02T08:43:55Z</time>
      </trkpt>
      <trkpt lat="45.70099" lon="4.62149">
        <ele>700.6</ele>
        <time>2018-09-02T08:44:00Z</time>
      </trkpt>
      <trkpt lat="45.70101" lon="4.62152">
        <ele>699.9</ele>
        <time>2018-09-02T08:44:38Z</time>
      </trkpt>
      <trkpt lat="45.70104" lon="4.62155">
        <ele>699.2</ele>
        <time>2018-09-02T08:44:40Z</time>
      </trkpt>
      <trkpt lat="45.70114" lon="4.62166">
        <ele>697.1</ele>
        <time>2018-09-02T08:44:45Z</time>
      </trkpt>
      <trkpt lat="45.70117" lon="4.6217">
        <ele>696.4</ele>
        <time>2018-09-02T08:44:47Z</time>
      </trkpt>
      <trkpt lat="45.70129" lon="4.62182">
        <ele>694.3</ele>
        <time>2018-09-02T08:44:52Z</time>
      </trkpt>
      <trkpt lat="45.70132" lon="4.62185">
        <ele>693.8</ele>
        <time>2018-09-02T08:44:53Z</time>
      </trkpt>
      <trkpt lat="45.70143" lon="4.62193">
        <ele>692.7</ele>
        <time>2018-09-02T08:44:56Z</time>
      </trkpt>
      <trkpt lat="45.70147" lon="4.62197">
        <ele>692.4</ele>
        <time>2018-09-02T08:44:58Z</time>
      </trkpt>
      <trkpt lat="45.70148" lon="4.62198">
        <ele>692.3</ele>
        <time>2018-09-02T08:44:59Z</time>
      </trkpt>
      <trkpt lat="45.70152" lon="4.62202">
        <ele>691.9</ele>
        <time>2018-09-02T08:45:02Z</time>
      </trkpt>
      <trkpt lat="45.70156" lon="4.62208">
        <ele>691.4</ele>
        <time>2018-09-02T08:45:04Z</time>
      </trkpt>
      <trkpt lat="45.7017" lon="4.62226">
        <ele>689.8</ele>
        <time>2018-09-02T08:45:08Z</time>
      </trkpt>
      <trkpt lat="45.70174" lon="4.62233">
        <ele>689.3</ele>
        <time>2018-09-02T08:45:09Z</time>
      </trkpt>
      <trkpt lat="45.70194" lon="4.62265">
        <ele>686.9</ele>
        <time>2018-09-02T08:45:13Z</time>
      </trkpt>
      <trkpt lat="45.70208" lon="4.6229">
        <ele>685</ele>
        <time>2018-09-02T08:45:16Z</time>
      </trkpt>
      <trkpt lat="45.70216" lon="4.62303">
        <ele>683.9</ele>
        <time>2018-09-02T08:45:18Z</time>
      </trkpt>
      <trkpt lat="45.70236" lon="4.6234">
        <ele>680.9</ele>
        <time>2018-09-02T08:45:23Z</time>
      </trkpt>
      <trkpt lat="45.70241" lon="4.62347">
        <ele>680.3</ele>
        <time>2018-09-02T08:45:24Z</time>
      </trkpt>
      <trkpt lat="45.70259" lon="4.62379">
        <ele>677.7</ele>
        <time>2018-09-02T08:45:28Z</time>
      </trkpt>
      <trkpt lat="45.70263" lon="4.62387">
        <ele>677.2</ele>
        <time>2018-09-02T08:45:29Z</time>
      </trkpt>
      <trkpt lat="45.70274" lon="4.62409">
        <ele>675.7</ele>
        <time>2018-09-02T08:45:32Z</time>
      </trkpt>
      <trkpt lat="45.70286" lon="4.62434">
        <ele>674.2</ele>
        <time>2018-09-02T08:45:36Z</time>
      </trkpt>
      <trkpt lat="45.7029" lon="4.62444">
        <ele>673.8</ele>
        <time>2018-09-02T08:45:38Z</time>
      </trkpt>
      <trkpt lat="45.70297" lon="4.62457">
        <ele>673.4</ele>
        <time>2018-09-02T08:45:41Z</time>
      </trkpt>
      <trkpt lat="45.70303" lon="4.62465">
        <ele>673.3</ele>
        <time>2018-09-02T08:45:43Z</time>
      </trkpt>
      <trkpt lat="45.70309" lon="4.62478">
        <ele>673</ele>
        <time>2018-09-02T08:45:45Z</time>
      </trkpt>
      <trkpt lat="45.70312" lon="4.62486">
        <ele>672.7</ele>
        <time>2018-09-02T08:45:46Z</time>
      </trkpt>
      <trkpt lat="45.70314" lon="4.62493">
        <ele>672.4</ele>
        <time>2018-09-02T08:45:47Z</time>
      </trkpt>
      <trkpt lat="45.70314" lon="4.62507">
        <ele>671.7</ele>
        <time>2018-09-02T08:45:49Z</time>
      </trkpt>
      <trkpt lat="45.70314" lon="4.62523">
        <ele>670.6</ele>
        <time>2018-09-02T08:45:51Z</time>
      </trkpt>
      <trkpt lat="45.70316" lon="4.6254">
        <ele>669.1</ele>
        <time>2018-09-02T08:45:53Z</time>
      </trkpt>
      <trkpt lat="45.70324" lon="4.62568">
        <ele>666.5</ele>
        <time>2018-09-02T08:45:56Z</time>
      </trkpt>
      <trkpt lat="45.70326" lon="4.62574">
        <ele>665.9</ele>
        <time>2018-09-02T08:45:57Z</time>
      </trkpt>
      <trkpt lat="45.70329" lon="4.62584">
        <ele>664.8</ele>
        <time>2018-09-02T08:45:59Z</time>
      </trkpt>
      <trkpt lat="45.70323" lon="4.62594">
        <ele>657.9</ele>
        <time>2018-09-02T08:46:02Z</time>
      </trkpt>
      <trkpt lat="45.70318" lon="4.62597">
        <ele>655.5</ele>
        <time>2018-09-02T08:46:03Z</time>
      </trkpt>
      <trkpt lat="45.7031" lon="4.62604">
        <ele>650.8</ele>
        <time>2018-09-02T08:46:05Z</time>
      </trkpt>
      <trkpt lat="45.70307" lon="4.62607">
        <ele>649.1</ele>
        <time>2018-09-02T08:46:06Z</time>
      </trkpt>
      <trkpt lat="45.70305" lon="4.62611">
        <ele>647.3</ele>
        <time>2018-09-02T08:46:07Z</time>
      </trkpt>
      <trkpt lat="45.70301" lon="4.62619">
        <ele>642.9</ele>
        <time>2018-09-02T08:46:09Z</time>
      </trkpt>
      <trkpt lat="45.70295" lon="4.62629">
        <ele>640</ele>
        <time>2018-09-02T08:46:11Z</time>
      </trkpt>
      <trkpt lat="45.70283" lon="4.62656">
        <ele>637.5</ele>
        <time>2018-09-02T08:46:15Z</time>
      </trkpt>
      <trkpt lat="45.7028" lon="4.62665">
        <ele>636.8</ele>
        <time>2018-09-02T08:46:16Z</time>
      </trkpt>
      <trkpt lat="45.70273" lon="4.62683">
        <ele>635.6</ele>
        <time>2018-09-02T08:46:18Z</time>
      </trkpt>
      <trkpt lat="45.70262" lon="4.62708">
        <ele>634.4</ele>
        <time>2018-09-02T08:46:21Z</time>
      </trkpt>
      <trkpt lat="45.70244" lon="4.62744">
        <ele>631.8</ele>
        <time>2018-09-02T08:46:25Z</time>
      </trkpt>
      <trkpt lat="45.70236" lon="4.6276">
        <ele>630.1</ele>
        <time>2018-09-02T08:46:27Z</time>
      </trkpt>
      <trkpt lat="45.7023" lon="4.6277">
        <ele>629.3</ele>
        <time>2018-09-02T08:46:29Z</time>
      </trkpt>
      <trkpt lat="45.70224" lon="4.62777">
        <ele>628.3</ele>
        <time>2018-09-02T08:46:31Z</time>
      </trkpt>
      <trkpt lat="45.70219" lon="4.62784">
        <ele>627.4</ele>
        <time>2018-09-02T08:46:33Z</time>
      </trkpt>
      <trkpt lat="45.70213" lon="4.62791">
        <ele>626.3</ele>
        <time>2018-09-02T08:46:35Z</time>
      </trkpt>
      <trkpt lat="45.70205" lon="4.62798">
        <ele>625</ele>
        <time>2018-09-02T08:46:37Z</time>
      </trkpt>
      <trkpt lat="45.70197" lon="4.62807">
        <ele>623.6</ele>
        <time>2018-09-02T08:46:40Z</time>
      </trkpt>
      <trkpt lat="45.70195" lon="4.62809">
        <ele>623.3</ele>
        <time>2018-09-02T08:46:41Z</time>
      </trkpt>
      <trkpt lat="45.70189" lon="4.62817">
        <ele>622.3</ele>
        <time>2018-09-02T08:46:44Z</time>
      </trkpt>
      <trkpt lat="45.70188" lon="4.6282">
        <ele>622</ele>
        <time>2018-09-02T08:46:45Z</time>
      </trkpt>
      <trkpt lat="45.70186" lon="4.62824">
        <ele>621.5</ele>
        <time>2018-09-02T08:46:47Z</time>
      </trkpt>
      <trkpt lat="45.70183" lon="4.6283">
        <ele>620.8</ele>
        <time>2018-09-02T08:46:49Z</time>
      </trkpt>
      <trkpt lat="45.70173" lon="4.62845">
        <ele>618.8</ele>
        <time>2018-09-02T08:46:53Z</time>
      </trkpt>
      <trkpt lat="45.7017" lon="4.6285">
        <ele>617.5</ele>
        <time>2018-09-02T08:46:54Z</time>
      </trkpt>
      <trkpt lat="45.70147" lon="4.62879">
        <ele>612.4</ele>
        <time>2018-09-02T08:46:59Z</time>
      </trkpt>
      <trkpt lat="45.70142" lon="4.62886">
        <ele>610.3</ele>
        <time>2018-09-02T08:47:00Z</time>
      </trkpt>
      <trkpt lat="45.7013" lon="4.62904">
        <ele>607.2</ele>
        <time>2018-09-02T08:47:03Z</time>
      </trkpt>
      <trkpt lat="45.70126" lon="4.62909">
        <ele>606.4</ele>
        <time>2018-09-02T08:47:04Z</time>
      </trkpt>
      <trkpt lat="45.70118" lon="4.62918">
        <ele>605.8</ele>
        <time>2018-09-02T08:47:06Z</time>
      </trkpt>
      <trkpt lat="45.70114" lon="4.62922">
        <ele>604.9</ele>
        <time>2018-09-02T08:47:07Z</time>
      </trkpt>
      <trkpt lat="45.70101" lon="4.62935">
        <ele>602.5</ele>
        <time>2018-09-02T08:47:10Z</time>
      </trkpt>
      <trkpt lat="45.70097" lon="4.62939">
        <ele>601.3</ele>
        <time>2018-09-02T08:47:11Z</time>
      </trkpt>
      <trkpt lat="45.7008" lon="4.62951">
        <ele>598.9</ele>
        <time>2018-09-02T08:47:15Z</time>
      </trkpt>
      <trkpt lat="45.70057" lon="4.62964">
        <ele>596</ele>
        <time>2018-09-02T08:47:19Z</time>
      </trkpt>
      <trkpt lat="45.7003" lon="4.62979">
        <ele>593.3</ele>
        <time>2018-09-02T08:47:23Z</time>
      </trkpt>
      <trkpt lat="45.70024" lon="4.62982">
        <ele>592.8</ele>
        <time>2018-09-02T08:47:24Z</time>
      </trkpt>
      <trkpt lat="45.70009" lon="4.62987">
        <ele>591.5</ele>
        <time>2018-09-02T08:47:27Z</time>
      </trkpt>
      <trkpt lat="45.70005" lon="4.62989">
        <ele>591.1</ele>
        <time>2018-09-02T08:47:28Z</time>
      </trkpt>
      <trkpt lat="45.69996" lon="4.62993">
        <ele>589.9</ele>
        <time>2018-09-02T08:47:30Z</time>
      </trkpt>
      <trkpt lat="45.69987" lon="4.62996">
        <ele>588.2</ele>
        <time>2018-09-02T08:47:33Z</time>
      </trkpt>
      <trkpt lat="45.69984" lon="4.62997">
        <ele>587.6</ele>
        <time>2018-09-02T08:47:34Z</time>
      </trkpt>
      <trkpt lat="45.69982" lon="4.62996">
        <ele>587.2</ele>
        <time>2018-09-02T08:47:35Z</time>
      </trkpt>
      <trkpt lat="45.69979" lon="4.62996">
        <ele>586.4</ele>
        <time>2018-09-02T08:47:37Z</time>
      </trkpt>
      <trkpt lat="45.69971" lon="4.62998">
        <ele>584.5</ele>
        <time>2018-09-02T08:47:40Z</time>
      </trkpt>
      <trkpt lat="45.69964" lon="4.63001">
        <ele>583</ele>
        <time>2018-09-02T08:47:42Z</time>
      </trkpt>
      <trkpt lat="45.6996" lon="4.63001">
        <ele>582.2</ele>
        <time>2018-09-02T08:47:43Z</time>
      </trkpt>
      <trkpt lat="45.69949" lon="4.63003">
        <ele>579.9</ele>
        <time>2018-09-02T08:47:46Z</time>
      </trkpt>
      <trkpt lat="45.69946" lon="4.63004">
        <ele>579.2</ele>
        <time>2018-09-02T08:47:47Z</time>
      </trkpt>
      <trkpt lat="45.69939" lon="4.63004">
        <ele>577.5</ele>
        <time>2018-09-02T08:47:49Z</time>
      </trkpt>
      <trkpt lat="45.69933" lon="4.63004">
        <ele>576.1</ele>
        <time>2018-09-02T08:47:51Z</time>
      </trkpt>
      <trkpt lat="45.6993" lon="4.63004">
        <ele>575.6</ele>
        <time>2018-09-02T08:47:52Z</time>
      </trkpt>
      <trkpt lat="45.69924" lon="4.63005">
        <ele>574.3</ele>
        <time>2018-09-02T08:47:54Z</time>
      </trkpt>
      <trkpt lat="45.69917" lon="4.63007">
        <ele>572.4</ele>
        <time>2018-09-02T08:47:56Z</time>
      </trkpt>
      <trkpt lat="45.69911" lon="4.63009">
        <ele>571.9</ele>
        <time>2018-09-02T08:47:58Z</time>
      </trkpt>
      <trkpt lat="45.69905" lon="4.63012">
        <ele>570</ele>
        <time>2018-09-02T08:48:00Z</time>
      </trkpt>
      <trkpt lat="45.69899" lon="4.63015">
        <ele>570</ele>
        <time>2018-09-02T08:48:02Z</time>
      </trkpt>
      <trkpt lat="45.69897" lon="4.63016">
        <ele>570</ele>
        <time>2018-09-02T08:48:03Z</time>
      </trkpt>
      <trkpt lat="45.69893" lon="4.6302">
        <ele>570</ele>
        <time>2018-09-02T08:48:05Z</time>
      </trkpt>
      <trkpt lat="45.6989" lon="4.63022">
        <ele>570</ele>
        <time>2018-09-02T08:48:06Z</time>
      </trkpt>
      <trkpt lat="45.69887" lon="4.63025">
        <ele>569.6</ele>
        <time>2018-09-02T08:48:07Z</time>
      </trkpt>
      <trkpt lat="45.69883" lon="4.63029">
        <ele>569.3</ele>
        <time>2018-09-02T08:48:08Z</time>
      </trkpt>
      <trkpt lat="45.69879" lon="4.63033">
        <ele>569.6</ele>
        <time>2018-09-02T08:48:09Z</time>
      </trkpt>
      <trkpt lat="45.69875" lon="4.63037">
        <ele>569.4</ele>
        <time>2018-09-02T08:48:10Z</time>
      </trkpt>
      <trkpt lat="45.69872" lon="4.63042">
        <ele>569</ele>
        <time>2018-09-02T08:48:11Z</time>
      </trkpt>
      <trkpt lat="45.6987" lon="4.63048">
        <ele>568.6</ele>
        <time>2018-09-02T08:48:12Z</time>
      </trkpt>
      <trkpt lat="45.69867" lon="4.63054">
        <ele>568.5</ele>
        <time>2018-09-02T08:48:13Z</time>
      </trkpt>
      <trkpt lat="45.69866" lon="4.6306">
        <ele>568.6</ele>
        <time>2018-09-02T08:48:14Z</time>
      </trkpt>
      <trkpt lat="45.69864" lon="4.63066">
        <ele>568.4</ele>
        <time>2018-09-02T08:48:15Z</time>
      </trkpt>
      <trkpt lat="45.69861" lon="4.6307">
        <ele>568.1</ele>
        <time>2018-09-02T08:48:16Z</time>
      </trkpt>
      <trkpt lat="45.69859" lon="4.63074">
        <ele>567.7</ele>
        <time>2018-09-02T08:48:17Z</time>
      </trkpt>
      <trkpt lat="45.69858" lon="4.63078">
        <ele>567.3</ele>
        <time>2018-09-02T08:48:18Z</time>
      </trkpt>
      <trkpt lat="45.69855" lon="4.63085">
        <ele>566.9</ele>
        <time>2018-09-02T08:48:20Z</time>
      </trkpt>
      <trkpt lat="45.69851" lon="4.63092">
        <ele>566.5</ele>
        <time>2018-09-02T08:48:22Z</time>
      </trkpt>
      <trkpt lat="45.69849" lon="4.63095">
        <ele>566</ele>
        <time>2018-09-02T08:48:23Z</time>
      </trkpt>
      <trkpt lat="45.69845" lon="4.63102">
        <ele>564.8</ele>
        <time>2018-09-02T08:48:25Z</time>
      </trkpt>
      <trkpt lat="45.69843" lon="4.63105">
        <ele>564.2</ele>
        <time>2018-09-02T08:48:26Z</time>
      </trkpt>
      <trkpt lat="45.69841" lon="4.63109">
        <ele>563.5</ele>
        <time>2018-09-02T08:48:27Z</time>
      </trkpt>
      <trkpt lat="45.69839" lon="4.63113">
        <ele>563</ele>
        <time>2018-09-02T08:48:28Z</time>
      </trkpt>
      <trkpt lat="45.69838" lon="4.63116">
        <ele>562.5</ele>
        <time>2018-09-02T08:48:29Z</time>
      </trkpt>
      <trkpt lat="45.69836" lon="4.63119">
        <ele>562.1</ele>
        <time>2018-09-02T08:48:30Z</time>
      </trkpt>
      <trkpt lat="45.69834" lon="4.63122">
        <ele>561.7</ele>
        <time>2018-09-02T08:48:31Z</time>
      </trkpt>
      <trkpt lat="45.69832" lon="4.63125">
        <ele>561.3</ele>
        <time>2018-09-02T08:48:32Z</time>
      </trkpt>
      <trkpt lat="45.6983" lon="4.63128">
        <ele>560.8</ele>
        <time>2018-09-02T08:48:33Z</time>
      </trkpt>
      <trkpt lat="45.69829" lon="4.63131">
        <ele>560.5</ele>
        <time>2018-09-02T08:48:34Z</time>
      </trkpt>
      <trkpt lat="45.69828" lon="4.63133">
        <ele>560.2</ele>
        <time>2018-09-02T08:48:35Z</time>
      </trkpt>
      <trkpt lat="45.69827" lon="4.63137">
        <ele>559.8</ele>
        <time>2018-09-02T08:48:36Z</time>
      </trkpt>
      <trkpt lat="45.69826" lon="4.6314">
        <ele>559.3</ele>
        <time>2018-09-02T08:48:37Z</time>
      </trkpt>
      <trkpt lat="45.69825" lon="4.63143">
        <ele>558.7</ele>
        <time>2018-09-02T08:48:38Z</time>
      </trkpt>
      <trkpt lat="45.69823" lon="4.63146">
        <ele>558.3</ele>
        <time>2018-09-02T08:48:39Z</time>
      </trkpt>
      <trkpt lat="45.69821" lon="4.63149">
        <ele>558.2</ele>
        <time>2018-09-02T08:48:40Z</time>
      </trkpt>
      <trkpt lat="45.69818" lon="4.63158">
        <ele>557.3</ele>
        <time>2018-09-02T08:48:42Z</time>
      </trkpt>
      <trkpt lat="45.69816" lon="4.63164">
        <ele>556.8</ele>
        <time>2018-09-02T08:48:43Z</time>
      </trkpt>
      <trkpt lat="45.69814" lon="4.6317">
        <ele>556.5</ele>
        <time>2018-09-02T08:48:44Z</time>
      </trkpt>
      <trkpt lat="45.69812" lon="4.63176">
        <ele>556.1</ele>
        <time>2018-09-02T08:48:45Z</time>
      </trkpt>
      <trkpt lat="45.69807" lon="4.63188">
        <ele>555</ele>
        <time>2018-09-02T08:48:47Z</time>
      </trkpt>
      <trkpt lat="45.69805" lon="4.63192">
        <ele>554.5</ele>
        <time>2018-09-02T08:48:48Z</time>
      </trkpt>
      <trkpt lat="45.69803" lon="4.63194">
        <ele>554.2</ele>
        <time>2018-09-02T08:48:49Z</time>
      </trkpt>
      <trkpt lat="45.69803" lon="4.63198">
        <ele>553.8</ele>
        <time>2018-09-02T08:48:50Z</time>
      </trkpt>
      <trkpt lat="45.69803" lon="4.63202">
        <ele>553.4</ele>
        <time>2018-09-02T08:48:51Z</time>
      </trkpt>
      <trkpt lat="45.69802" lon="4.63206">
        <ele>553</ele>
        <time>2018-09-02T08:48:52Z</time>
      </trkpt>
      <trkpt lat="45.69801" lon="4.63213">
        <ele>552.4</ele>
        <time>2018-09-02T08:48:53Z</time>
      </trkpt>
      <trkpt lat="45.69798" lon="4.63229">
        <ele>550.9</ele>
        <time>2018-09-02T08:48:55Z</time>
      </trkpt>
      <trkpt lat="45.69795" lon="4.63248">
        <ele>549.5</ele>
        <time>2018-09-02T08:48:57Z</time>
      </trkpt>
      <trkpt lat="45.69792" lon="4.63268">
        <ele>547.9</ele>
        <time>2018-09-02T08:48:59Z</time>
      </trkpt>
      <trkpt lat="45.6979" lon="4.63288">
        <ele>546.8</ele>
        <time>2018-09-02T08:49:01Z</time>
      </trkpt>
      <trkpt lat="45.69789" lon="4.63304">
        <ele>545.7</ele>
        <time>2018-09-02T08:49:03Z</time>
      </trkpt>
      <trkpt lat="45.69789" lon="4.63312">
        <ele>545.1</ele>
        <time>2018-09-02T08:49:04Z</time>
      </trkpt>
      <trkpt lat="45.6979" lon="4.63321">
        <ele>544.7</ele>
        <time>2018-09-02T08:49:05Z</time>
      </trkpt>
      <trkpt lat="45.69791" lon="4.63329">
        <ele>544.2</ele>
        <time>2018-09-02T08:49:06Z</time>
      </trkpt>
      <trkpt lat="45.69792" lon="4.63337">
        <ele>544</ele>
        <time>2018-09-02T08:49:07Z</time>
      </trkpt>
      <trkpt lat="45.69798" lon="4.6335">
        <ele>543.4</ele>
        <time>2018-09-02T08:49:09Z</time>
      </trkpt>
      <trkpt lat="45.69802" lon="4.63356">
        <ele>543.2</ele>
        <time>2018-09-02T08:49:10Z</time>
      </trkpt>
      <trkpt lat="45.69806" lon="4.63362">
        <ele>543</ele>
        <time>2018-09-02T08:49:11Z</time>
      </trkpt>
      <trkpt lat="45.69815" lon="4.63373">
        <ele>542.4</ele>
        <time>2018-09-02T08:49:13Z</time>
      </trkpt>
      <trkpt lat="45.69825" lon="4.63384">
        <ele>541.5</ele>
        <time>2018-09-02T08:49:15Z</time>
      </trkpt>
      <trkpt lat="45.69835" lon="4.63395">
        <ele>540.6</ele>
        <time>2018-09-02T08:49:17Z</time>
      </trkpt>
      <trkpt lat="45.69839" lon="4.63399">
        <ele>540.2</ele>
        <time>2018-09-02T08:49:18Z</time>
      </trkpt>
      <trkpt lat="45.69843" lon="4.63401">
        <ele>539.7</ele>
        <time>2018-09-02T08:49:19Z</time>
      </trkpt>
      <trkpt lat="45.69848" lon="4.63406">
        <ele>539.1</ele>
        <time>2018-09-02T08:49:21Z</time>
      </trkpt>
      <trkpt lat="45.69852" lon="4.63413">
        <ele>538.3</ele>
        <time>2018-09-02T08:49:23Z</time>
      </trkpt>
      <trkpt lat="45.69855" lon="4.63417">
        <ele>537.9</ele>
        <time>2018-09-02T08:49:24Z</time>
      </trkpt>
      <trkpt lat="45.69858" lon="4.63423">
        <ele>537.5</ele>
        <time>2018-09-02T08:49:25Z</time>
      </trkpt>
      <trkpt lat="45.69861" lon="4.63429">
        <ele>536.9</ele>
        <time>2018-09-02T08:49:26Z</time>
      </trkpt>
      <trkpt lat="45.69863" lon="4.63435">
        <ele>536.5</ele>
        <time>2018-09-02T08:49:27Z</time>
      </trkpt>
      <trkpt lat="45.69865" lon="4.6345">
        <ele>535.7</ele>
        <time>2018-09-02T08:49:29Z</time>
      </trkpt>
      <trkpt lat="45.69865" lon="4.63467">
        <ele>534.3</ele>
        <time>2018-09-02T08:49:31Z</time>
      </trkpt>
      <trkpt lat="45.69863" lon="4.63482">
        <ele>533.3</ele>
        <time>2018-09-02T08:49:33Z</time>
      </trkpt>
      <trkpt lat="45.69862" lon="4.63497">
        <ele>532.4</ele>
        <time>2018-09-02T08:49:35Z</time>
      </trkpt>
      <trkpt lat="45.69863" lon="4.63506">
        <ele>531.9</ele>
        <time>2018-09-02T08:49:36Z</time>
      </trkpt>
      <trkpt lat="45.69865" lon="4.63515">
        <ele>531.2</ele>
        <time>2018-09-02T08:49:37Z</time>
      </trkpt>
      <trkpt lat="45.69867" lon="4.63532">
        <ele>530.6</ele>
        <time>2018-09-02T08:49:39Z</time>
      </trkpt>
      <trkpt lat="45.69867" lon="4.63541">
        <ele>530</ele>
        <time>2018-09-02T08:49:40Z</time>
      </trkpt>
      <trkpt lat="45.69864" lon="4.63549">
        <ele>529.2</ele>
        <time>2018-09-02T08:49:41Z</time>
      </trkpt>
      <trkpt lat="45.6986" lon="4.63558">
        <ele>528.2</ele>
        <time>2018-09-02T08:49:43Z</time>
      </trkpt>
      <trkpt lat="45.69858" lon="4.63562">
        <ele>527.8</ele>
        <time>2018-09-02T08:49:44Z</time>
      </trkpt>
      <trkpt lat="45.69857" lon="4.63566">
        <ele>527.4</ele>
        <time>2018-09-02T08:49:45Z</time>
      </trkpt>
      <trkpt lat="45.69855" lon="4.63571">
        <ele>526.9</ele>
        <time>2018-09-02T08:49:46Z</time>
      </trkpt>
      <trkpt lat="45.69853" lon="4.63577">
        <ele>526.5</ele>
        <time>2018-09-02T08:49:47Z</time>
      </trkpt>
      <trkpt lat="45.69851" lon="4.63583">
        <ele>526.1</ele>
        <time>2018-09-02T08:49:48Z</time>
      </trkpt>
      <trkpt lat="45.6985" lon="4.63588">
        <ele>525.6</ele>
        <time>2018-09-02T08:49:49Z</time>
      </trkpt>
      <trkpt lat="45.69847" lon="4.63599">
        <ele>524.9</ele>
        <time>2018-09-02T08:49:51Z</time>
      </trkpt>
      <trkpt lat="45.69844" lon="4.63607">
        <ele>524.5</ele>
        <time>2018-09-02T08:49:53Z</time>
      </trkpt>
      <trkpt lat="45.69844" lon="4.63612">
        <ele>524.3</ele>
        <time>2018-09-02T08:50:47Z</time>
      </trkpt>
      <trkpt lat="45.69841" lon="4.6363">
        <ele>523.7</ele>
        <time>2018-09-02T08:50:51Z</time>
      </trkpt>
      <trkpt lat="45.6984" lon="4.63636">
        <ele>523.4</ele>
        <time>2018-09-02T08:50:52Z</time>
      </trkpt>
      <trkpt lat="45.69837" lon="4.63647">
        <ele>522.9</ele>
        <time>2018-09-02T08:50:54Z</time>
      </trkpt>
      <trkpt lat="45.69832" lon="4.63668">
        <ele>521.6</ele>
        <time>2018-09-02T08:50:57Z</time>
      </trkpt>
      <trkpt lat="45.69822" lon="4.63701">
        <ele>519.6</ele>
        <time>2018-09-02T08:51:01Z</time>
      </trkpt>
      <trkpt lat="45.6981" lon="4.63717">
        <ele>518.6</ele>
        <time>2018-09-02T08:51:04Z</time>
      </trkpt>
      <trkpt lat="45.69806" lon="4.63722">
        <ele>518.3</ele>
        <time>2018-09-02T08:51:05Z</time>
      </trkpt>
      <trkpt lat="45.69801" lon="4.6373">
        <ele>518</ele>
        <time>2018-09-02T08:51:07Z</time>
      </trkpt>
      <trkpt lat="45.69798" lon="4.63737">
        <ele>517.7</ele>
        <time>2018-09-02T08:51:09Z</time>
      </trkpt>
      <trkpt lat="45.69789" lon="4.63757">
        <ele>516.8</ele>
        <time>2018-09-02T08:51:13Z</time>
      </trkpt>
      <trkpt lat="45.69781" lon="4.63774">
        <ele>515.4</ele>
        <time>2018-09-02T08:51:16Z</time>
      </trkpt>
      <trkpt lat="45.69778" lon="4.63779">
        <ele>515</ele>
        <time>2018-09-02T08:51:17Z</time>
      </trkpt>
      <trkpt lat="45.69775" lon="4.63784">
        <ele>514.6</ele>
        <time>2018-09-02T08:51:18Z</time>
      </trkpt>
      <trkpt lat="45.69772" lon="4.63788">
        <ele>514.2</ele>
        <time>2018-09-02T08:51:19Z</time>
      </trkpt>
      <trkpt lat="45.69763" lon="4.63795">
        <ele>513.2</ele>
        <time>2018-09-02T08:51:21Z</time>
      </trkpt>
      <trkpt lat="45.6976" lon="4.63801">
        <ele>512.5</ele>
        <time>2018-09-02T08:51:22Z</time>
      </trkpt>
      <trkpt lat="45.69755" lon="4.63826">
        <ele>509.1</ele>
        <time>2018-09-02T08:51:25Z</time>
      </trkpt>
      <trkpt lat="45.6976" lon="4.6385">
        <ele>507.6</ele>
        <time>2018-09-02T08:51:28Z</time>
      </trkpt>
      <trkpt lat="45.69765" lon="4.63863">
        <ele>507.2</ele>
        <time>2018-09-02T08:51:30Z</time>
      </trkpt>
      <trkpt lat="45.69767" lon="4.63869">
        <ele>507.1</ele>
        <time>2018-09-02T08:51:31Z</time>
      </trkpt>
      <trkpt lat="45.69768" lon="4.63881">
        <ele>507</ele>
        <time>2018-09-02T08:51:33Z</time>
      </trkpt>
      <trkpt lat="45.69767" lon="4.63888">
        <ele>506.9</ele>
        <time>2018-09-02T08:51:34Z</time>
      </trkpt>
      <trkpt lat="45.69759" lon="4.63898">
        <ele>506.4</ele>
        <time>2018-09-02T08:51:36Z</time>
      </trkpt>
      <trkpt lat="45.69749" lon="4.63903">
        <ele>504.6</ele>
        <time>2018-09-02T08:51:38Z</time>
      </trkpt>
      <trkpt lat="45.69744" lon="4.63903">
        <ele>503.5</ele>
        <time>2018-09-02T08:51:39Z</time>
      </trkpt>
      <trkpt lat="45.69741" lon="4.63902">
        <ele>502.6</ele>
        <time>2018-09-02T08:51:40Z</time>
      </trkpt>
      <trkpt lat="45.69738" lon="4.63903">
        <ele>501.7</ele>
        <time>2018-09-02T08:51:42Z</time>
      </trkpt>
      <trkpt lat="45.6974" lon="4.63907">
        <ele>500.6</ele>
        <time>2018-09-02T08:51:44Z</time>
      </trkpt>
      <trkpt lat="45.69742" lon="4.63908">
        <ele>500.1</ele>
        <time>2018-09-02T08:51:45Z</time>
      </trkpt>
      <trkpt lat="45.69744" lon="4.63909">
        <ele>499.5</ele>
        <time>2018-09-02T08:51:46Z</time>
      </trkpt>
      <trkpt lat="45.69755" lon="4.63913">
        <ele>498.7</ele>
        <time>2018-09-02T08:51:49Z</time>
      </trkpt>
      <trkpt lat="45.69769" lon="4.63918">
        <ele>498.1</ele>
        <time>2018-09-02T08:51:51Z</time>
      </trkpt>
      <trkpt lat="45.69776" lon="4.6392">
        <ele>497.8</ele>
        <time>2018-09-02T08:51:52Z</time>
      </trkpt>
      <trkpt lat="45.69782" lon="4.63923">
        <ele>497.6</ele>
        <time>2018-09-02T08:51:53Z</time>
      </trkpt>
      <trkpt lat="45.69787" lon="4.63928">
        <ele>497.4</ele>
        <time>2018-09-02T08:51:54Z</time>
      </trkpt>
      <trkpt lat="45.69791" lon="4.63934">
        <ele>497.2</ele>
        <time>2018-09-02T08:51:55Z</time>
      </trkpt>
      <trkpt lat="45.69791" lon="4.63943">
        <ele>497</ele>
        <time>2018-09-02T08:51:56Z</time>
      </trkpt>
      <trkpt lat="45.69783" lon="4.63964">
        <ele>496.4</ele>
        <time>2018-09-02T08:51:59Z</time>
      </trkpt>
      <trkpt lat="45.69774" lon="4.63984">
        <ele>496.1</ele>
        <time>2018-09-02T08:52:02Z</time>
      </trkpt>
      <trkpt lat="45.69768" lon="4.63997">
        <ele>495.8</ele>
        <time>2018-09-02T08:52:04Z</time>
      </trkpt>
      <trkpt lat="45.69766" lon="4.64004">
        <ele>495.7</ele>
        <time>2018-09-02T08:52:05Z</time>
      </trkpt>
      <trkpt lat="45.69764" lon="4.64018">
        <ele>495.3</ele>
        <time>2018-09-02T08:52:07Z</time>
      </trkpt>
      <trkpt lat="45.69762" lon="4.64036">
        <ele>494.6</ele>
        <time>2018-09-02T08:52:10Z</time>
      </trkpt>
      <trkpt lat="45.69766" lon="4.64057">
        <ele>493.5</ele>
        <time>2018-09-02T08:52:15Z</time>
      </trkpt>
      <trkpt lat="45.69776" lon="4.64078">
        <ele>492.6</ele>
        <time>2018-09-02T08:52:21Z</time>
      </trkpt>
      <trkpt lat="45.6978" lon="4.64085">
        <ele>492.3</ele>
        <time>2018-09-02T08:52:23Z</time>
      </trkpt>
      <trkpt lat="45.69787" lon="4.64095">
        <ele>491.9</ele>
        <time>2018-09-02T08:52:26Z</time>
      </trkpt>
      <trkpt lat="45.69796" lon="4.64106">
        <ele>491.5</ele>
        <time>2018-09-02T08:52:30Z</time>
      </trkpt>
      <trkpt lat="45.69803" lon="4.64115">
        <ele>491.1</ele>
        <time>2018-09-02T08:52:33Z</time>
      </trkpt>
      <trkpt lat="45.69811" lon="4.64132">
        <ele>490.2</ele>
        <time>2018-09-02T08:52:37Z</time>
      </trkpt>
      <trkpt lat="45.69811" lon="4.64139">
        <ele>489.9</ele>
        <time>2018-09-02T08:52:38Z</time>
      </trkpt>
      <trkpt lat="45.698" lon="4.64158">
        <ele>488.9</ele>
        <time>2018-09-02T08:52:41Z</time>
      </trkpt>
      <trkpt lat="45.69796" lon="4.64163">
        <ele>488.6</ele>
        <time>2018-09-02T08:52:42Z</time>
      </trkpt>
      <trkpt lat="45.69792" lon="4.64167">
        <ele>488.3</ele>
        <time>2018-09-02T08:52:43Z</time>
      </trkpt>
      <trkpt lat="45.69786" lon="4.64176">
        <ele>487.8</ele>
        <time>2018-09-02T08:52:45Z</time>
      </trkpt>
      <trkpt lat="45.69783" lon="4.6418">
        <ele>487.6</ele>
        <time>2018-09-02T08:52:46Z</time>
      </trkpt>
      <trkpt lat="45.69777" lon="4.64191">
        <ele>487</ele>
        <time>2018-09-02T08:52:50Z</time>
      </trkpt>
      <trkpt lat="45.69775" lon="4.64195">
        <ele>486.8</ele>
        <time>2018-09-02T08:52:51Z</time>
      </trkpt>
      <trkpt lat="45.69765" lon="4.64209">
        <ele>485.5</ele>
        <time>2018-09-02T08:52:56Z</time>
      </trkpt>
      <trkpt lat="45.6976" lon="4.64215">
        <ele>484.7</ele>
        <time>2018-09-02T08:52:58Z</time>
      </trkpt>
      <trkpt lat="45.69744" lon="4.64232">
        <ele>482.6</ele>
        <time>2018-09-02T08:53:03Z</time>
      </trkpt>
      <trkpt lat="45.6974" lon="4.64235">
        <ele>482.2</ele>
        <time>2018-09-02T08:53:04Z</time>
      </trkpt>
      <trkpt lat="45.69732" lon="4.64242">
        <ele>481.5</ele>
        <time>2018-09-02T08:53:06Z</time>
      </trkpt>
      <trkpt lat="45.69725" lon="4.6425">
        <ele>481.7</ele>
        <time>2018-09-02T08:53:08Z</time>
      </trkpt>
      <trkpt lat="45.6972" lon="4.64259">
        <ele>483.4</ele>
        <time>2018-09-02T08:53:10Z</time>
      </trkpt>
      <trkpt lat="45.69714" lon="4.64282">
        <ele>487.1</ele>
        <time>2018-09-02T08:53:15Z</time>
      </trkpt>
      <trkpt lat="45.69709" lon="4.64307">
        <ele>491.4</ele>
        <time>2018-09-02T08:53:20Z</time>
      </trkpt>
      <trkpt lat="45.69704" lon="4.64326">
        <ele>495.1</ele>
        <time>2018-09-02T08:53:24Z</time>
      </trkpt>
      <trkpt lat="45.69703" lon="4.64338">
        <ele>497.6</ele>
        <time>2018-09-02T08:53:29Z</time>
      </trkpt>
      <trkpt lat="45.69704" lon="4.64348">
        <ele>497.8</ele>
        <time>2018-09-02T08:53:33Z</time>
      </trkpt>
      <trkpt lat="45.69703" lon="4.64351">
        <ele>497.7</ele>
        <time>2018-09-02T08:53:34Z</time>
      </trkpt>
      <trkpt lat="45.69702" lon="4.6436">
        <ele>497.3</ele>
        <time>2018-09-02T08:53:36Z</time>
      </trkpt>
      <trkpt lat="45.69702" lon="4.6437">
        <ele>496.9</ele>
        <time>2018-09-02T08:53:38Z</time>
      </trkpt>
      <trkpt lat="45.69707" lon="4.64397">
        <ele>495.4</ele>
        <time>2018-09-02T08:53:43Z</time>
      </trkpt>
      <trkpt lat="45.69708" lon="4.64403">
        <ele>495.2</ele>
        <time>2018-09-02T08:53:44Z</time>
      </trkpt>
      <trkpt lat="45.69711" lon="4.64409">
        <ele>495</ele>
        <time>2018-09-02T08:53:45Z</time>
      </trkpt>
      <trkpt lat="45.69717" lon="4.64421">
        <ele>494.8</ele>
        <time>2018-09-02T08:53:47Z</time>
      </trkpt>
      <trkpt lat="45.69725" lon="4.64436">
        <ele>494.6</ele>
        <time>2018-09-02T08:53:49Z</time>
      </trkpt>
      <trkpt lat="45.6973" lon="4.64443">
        <ele>494.5</ele>
        <time>2018-09-02T08:53:50Z</time>
      </trkpt>
      <trkpt lat="45.69737" lon="4.64449">
        <ele>494.5</ele>
        <time>2018-09-02T08:53:51Z</time>
      </trkpt>
      <trkpt lat="45.6975" lon="4.64455">
        <ele>494.5</ele>
        <time>2018-09-02T08:53:53Z</time>
      </trkpt>
      <trkpt lat="45.69765" lon="4.64459">
        <ele>494.5</ele>
        <time>2018-09-02T08:53:55Z</time>
      </trkpt>
      <trkpt lat="45.69773" lon="4.64458">
        <ele>494.5</ele>
        <time>2018-09-02T08:53:56Z</time>
      </trkpt>
      <trkpt lat="45.6978" lon="4.64458">
        <ele>494.6</ele>
        <time>2018-09-02T08:53:57Z</time>
      </trkpt>
      <trkpt lat="45.69795" lon="4.6446">
        <ele>495.1</ele>
        <time>2018-09-02T08:53:59Z</time>
      </trkpt>
      <trkpt lat="45.69801" lon="4.64466">
        <ele>495.4</ele>
        <time>2018-09-02T08:54:00Z</time>
      </trkpt>
      <trkpt lat="45.69805" lon="4.64472">
        <ele>495.6</ele>
        <time>2018-09-02T08:54:01Z</time>
      </trkpt>
      <trkpt lat="45.69809" lon="4.64491">
        <ele>496</ele>
        <time>2018-09-02T08:54:04Z</time>
      </trkpt>
      <trkpt lat="45.69804" lon="4.64505">
        <ele>496.1</ele>
        <time>2018-09-02T08:54:07Z</time>
      </trkpt>
      <trkpt lat="45.69801" lon="4.64509">
        <ele>496.1</ele>
        <time>2018-09-02T08:54:08Z</time>
      </trkpt>
      <trkpt lat="45.6978" lon="4.64532">
        <ele>496.4</ele>
        <time>2018-09-02T08:54:14Z</time>
      </trkpt>
      <trkpt lat="45.69764" lon="4.6455">
        <ele>496.6</ele>
        <time>2018-09-02T08:54:19Z</time>
      </trkpt>
      <trkpt lat="45.69754" lon="4.64561">
        <ele>497</ele>
        <time>2018-09-02T08:54:22Z</time>
      </trkpt>
      <trkpt lat="45.69737" lon="4.64584">
        <ele>498.5</ele>
        <time>2018-09-02T08:54:28Z</time>
      </trkpt>
      <trkpt lat="45.69731" lon="4.64597">
        <ele>499.2</ele>
        <time>2018-09-02T08:54:31Z</time>
      </trkpt>
      <trkpt lat="45.69727" lon="4.64606">
        <ele>499.7</ele>
        <time>2018-09-02T08:54:33Z</time>
      </trkpt>
      <trkpt lat="45.6972" lon="4.64622">
        <ele>500.5</ele>
        <time>2018-09-02T08:54:38Z</time>
      </trkpt>
      <trkpt lat="45.69719" lon="4.64625">
        <ele>500.6</ele>
        <time>2018-09-02T08:54:39Z</time>
      </trkpt>
      <trkpt lat="45.69716" lon="4.64632">
        <ele>500.9</ele>
        <time>2018-09-02T08:54:41Z</time>
      </trkpt>
      <trkpt lat="45.69709" lon="4.64648">
        <ele>501.8</ele>
        <time>2018-09-02T08:54:46Z</time>
      </trkpt>
      <trkpt lat="45.69704" lon="4.64661">
        <ele>502.4</ele>
        <time>2018-09-02T08:54:50Z</time>
      </trkpt>
      <trkpt lat="45.69703" lon="4.64664">
        <ele>502.5</ele>
        <time>2018-09-02T08:54:51Z</time>
      </trkpt>
      <trkpt lat="45.69699" lon="4.64675">
        <ele>503</ele>
        <time>2018-09-02T08:54:56Z</time>
      </trkpt>
      <trkpt lat="45.69697" lon="4.64682">
        <ele>503.3</ele>
        <time>2018-09-02T08:55:01Z</time>
      </trkpt>
      <trkpt lat="45.69697" lon="4.64683">
        <ele>503.4</ele>
        <time>2018-09-02T08:55:02Z</time>
      </trkpt>
      <trkpt lat="45.69697" lon="4.64699">
        <ele>503.9</ele>
        <time>2018-09-02T08:55:09Z</time>
      </trkpt>
      <trkpt lat="45.69696" lon="4.64704">
        <ele>504.1</ele>
        <time>2018-09-02T08:55:11Z</time>
      </trkpt>
      <trkpt lat="45.69694" lon="4.64723">
        <ele>504.7</ele>
        <time>2018-09-02T08:55:17Z</time>
      </trkpt>
      <trkpt lat="45.69692" lon="4.64755">
        <ele>505.4</ele>
        <time>2018-09-02T08:55:25Z</time>
      </trkpt>
      <trkpt lat="45.69692" lon="4.64764">
        <ele>505.6</ele>
        <time>2018-09-02T08:55:27Z</time>
      </trkpt>
      <trkpt lat="45.69691" lon="4.64788">
        <ele>506.1</ele>
        <time>2018-09-02T08:55:32Z</time>
      </trkpt>
      <trkpt lat="45.69691" lon="4.64812">
        <ele>506.7</ele>
        <time>2018-09-02T08:55:37Z</time>
      </trkpt>
      <trkpt lat="45.69692" lon="4.64822">
        <ele>507.1</ele>
        <time>2018-09-02T08:55:39Z</time>
      </trkpt>
      <trkpt lat="45.69694" lon="4.64849">
        <ele>508</ele>
        <time>2018-09-02T08:55:46Z</time>
      </trkpt>
      <trkpt lat="45.69699" lon="4.64872">
        <ele>508.7</ele>
        <time>2018-09-02T08:55:54Z</time>
      </trkpt>
      <trkpt lat="45.697" lon="4.64875">
        <ele>508.8</ele>
        <time>2018-09-02T08:55:55Z</time>
      </trkpt>
      <trkpt lat="45.69703" lon="4.64889">
        <ele>509.1</ele>
        <time>2018-09-02T08:56:00Z</time>
      </trkpt>
      <trkpt lat="45.69709" lon="4.64914">
        <ele>509.5</ele>
        <time>2018-09-02T08:56:05Z</time>
      </trkpt>
      <trkpt lat="45.69712" lon="4.64926">
        <ele>509.9</ele>
        <time>2018-09-02T08:56:07Z</time>
      </trkpt>
      <trkpt lat="45.6972" lon="4.64956">
        <ele>511.3</ele>
        <time>2018-09-02T08:56:13Z</time>
      </trkpt>
      <trkpt lat="45.69722" lon="4.64964">
        <ele>511.7</ele>
        <time>2018-09-02T08:56:15Z</time>
      </trkpt>
      <trkpt lat="45.69727" lon="4.64981">
        <ele>512.3</ele>
        <time>2018-09-02T08:56:20Z</time>
      </trkpt>
      <trkpt lat="45.69729" lon="4.64992">
        <ele>512.7</ele>
        <time>2018-09-02T08:56:25Z</time>
      </trkpt>
      <trkpt lat="45.69729" lon="4.64994">
        <ele>512.8</ele>
        <time>2018-09-02T08:56:26Z</time>
      </trkpt>
      <trkpt lat="45.6973" lon="4.65011">
        <ele>513.6</ele>
        <time>2018-09-02T08:56:33Z</time>
      </trkpt>
      <trkpt lat="45.6973" lon="4.65013">
        <ele>513.8</ele>
        <time>2018-09-02T08:56:34Z</time>
      </trkpt>
      <trkpt lat="45.69732" lon="4.65032">
        <ele>514.5</ele>
        <time>2018-09-02T08:56:41Z</time>
      </trkpt>
      <trkpt lat="45.69739" lon="4.65053">
        <ele>515.1</ele>
        <time>2018-09-02T08:56:49Z</time>
      </trkpt>
      <trkpt lat="45.69744" lon="4.65058">
        <ele>515.4</ele>
        <time>2018-09-02T08:56:52Z</time>
      </trkpt>
      <trkpt lat="45.69753" lon="4.65061">
        <ele>516.1</ele>
        <time>2018-09-02T08:56:56Z</time>
      </trkpt>
      <trkpt lat="45.6976" lon="4.65063">
        <ele>516.9</ele>
        <time>2018-09-02T08:56:59Z</time>
      </trkpt>
      <trkpt lat="45.69771" lon="4.65064">
        <ele>518.3</ele>
        <time>2018-09-02T08:57:04Z</time>
      </trkpt>
      <trkpt lat="45.69775" lon="4.65064">
        <ele>518.7</ele>
        <time>2018-09-02T08:57:06Z</time>
      </trkpt>
      <trkpt lat="45.69784" lon="4.65066">
        <ele>520.1</ele>
        <time>2018-09-02T08:57:10Z</time>
      </trkpt>
      <trkpt lat="45.69798" lon="4.65067">
        <ele>521.9</ele>
        <time>2018-09-02T08:57:15Z</time>
      </trkpt>
      <trkpt lat="45.69801" lon="4.65067">
        <ele>522.2</ele>
        <time>2018-09-02T08:57:16Z</time>
      </trkpt>
      <trkpt lat="45.69809" lon="4.65068">
        <ele>522.9</ele>
        <time>2018-09-02T08:57:19Z</time>
      </trkpt>
      <trkpt lat="45.69824" lon="4.65069">
        <ele>523.8</ele>
        <time>2018-09-02T08:57:23Z</time>
      </trkpt>
      <trkpt lat="45.69832" lon="4.6507">
        <ele>524.3</ele>
        <time>2018-09-02T08:57:25Z</time>
      </trkpt>
      <trkpt lat="45.69853" lon="4.65071">
        <ele>525.3</ele>
        <time>2018-09-02T08:57:30Z</time>
      </trkpt>
      <trkpt lat="45.69857" lon="4.6507">
        <ele>525.6</ele>
        <time>2018-09-02T08:57:31Z</time>
      </trkpt>
      <trkpt lat="45.69873" lon="4.65072">
        <ele>527.1</ele>
        <time>2018-09-02T08:57:35Z</time>
      </trkpt>
      <trkpt lat="45.69885" lon="4.65072">
        <ele>528.1</ele>
        <time>2018-09-02T08:57:38Z</time>
      </trkpt>
      <trkpt lat="45.69915" lon="4.65071">
        <ele>530</ele>
        <time>2018-09-02T08:57:44Z</time>
      </trkpt>
      <trkpt lat="45.69921" lon="4.65071">
        <ele>530.2</ele>
        <time>2018-09-02T08:57:45Z</time>
      </trkpt>
      <trkpt lat="45.6995" lon="4.65073">
        <ele>531.1</ele>
        <time>2018-09-02T08:57:51Z</time>
      </trkpt>
      <trkpt lat="45.69983" lon="4.65076">
        <ele>532</ele>
        <time>2018-09-02T08:57:58Z</time>
      </trkpt>
      <trkpt lat="45.7" lon="4.65075">
        <ele>532.8</ele>
        <time>2018-09-02T08:58:02Z</time>
      </trkpt>
      <trkpt lat="45.70007" lon="4.65076">
        <ele>533.1</ele>
        <time>2018-09-02T08:58:04Z</time>
      </trkpt>
      <trkpt lat="45.70027" lon="4.65078">
        <ele>534.1</ele>
        <time>2018-09-02T08:58:10Z</time>
      </trkpt>
      <trkpt lat="45.7004" lon="4.65079">
        <ele>534.6</ele>
        <time>2018-09-02T08:58:16Z</time>
      </trkpt>
      <trkpt lat="45.70045" lon="4.65078">
        <ele>534.7</ele>
        <time>2018-09-02T08:58:19Z</time>
      </trkpt>
      <trkpt lat="45.70048" lon="4.65078">
        <ele>534.8</ele>
        <time>2018-09-02T08:58:21Z</time>
      </trkpt>
      <trkpt lat="45.70055" lon="4.65077">
        <ele>535</ele>
        <time>2018-09-02T08:58:23Z</time>
      </trkpt>
      <trkpt lat="45.70077" lon="4.65072">
        <ele>535.5</ele>
        <time>2018-09-02T08:58:28Z</time>
      </trkpt>
      <trkpt lat="45.70093" lon="4.65062">
        <ele>536</ele>
        <time>2018-09-02T08:58:31Z</time>
      </trkpt>
      <trkpt lat="45.70097" lon="4.65059">
        <ele>536.1</ele>
        <time>2018-09-02T08:58:32Z</time>
      </trkpt>
      <trkpt lat="45.70101" lon="4.65056">
        <ele>536.2</ele>
        <time>2018-09-02T08:58:33Z</time>
      </trkpt>
      <trkpt lat="45.70108" lon="4.65048">
        <ele>536.4</ele>
        <time>2018-09-02T08:58:35Z</time>
      </trkpt>
      <trkpt lat="45.70114" lon="4.6504">
        <ele>536.8</ele>
        <time>2018-09-02T08:58:37Z</time>
      </trkpt>
      <trkpt lat="45.70134" lon="4.65025">
        <ele>537.9</ele>
        <time>2018-09-02T08:58:43Z</time>
      </trkpt>
      <trkpt lat="45.70142" lon="4.65015">
        <ele>538.6</ele>
        <time>2018-09-02T08:58:46Z</time>
      </trkpt>
      <trkpt lat="45.70148" lon="4.65007">
        <ele>539.2</ele>
        <time>2018-09-02T08:58:48Z</time>
      </trkpt>
      <trkpt lat="45.7016" lon="4.64984">
        <ele>540.2</ele>
        <time>2018-09-02T08:58:52Z</time>
      </trkpt>
      <trkpt lat="45.70162" lon="4.64977">
        <ele>540.4</ele>
        <time>2018-09-02T08:58:53Z</time>
      </trkpt>
      <trkpt lat="45.70173" lon="4.64946">
        <ele>541.8</ele>
        <time>2018-09-02T08:58:57Z</time>
      </trkpt>
      <trkpt lat="45.70177" lon="4.64942">
        <ele>542.1</ele>
        <time>2018-09-02T08:58:58Z</time>
      </trkpt>
      <trkpt lat="45.70185" lon="4.64937">
        <ele>543</ele>
        <time>2018-09-02T08:59:00Z</time>
      </trkpt>
      <trkpt lat="45.7019" lon="4.64937">
        <ele>543.2</ele>
        <time>2018-09-02T08:59:01Z</time>
      </trkpt>
      <trkpt lat="45.70194" lon="4.64937">
        <ele>543.5</ele>
        <time>2018-09-02T08:59:02Z</time>
      </trkpt>
      <trkpt lat="45.70198" lon="4.64936">
        <ele>543.7</ele>
        <time>2018-09-02T08:59:03Z</time>
      </trkpt>
      <trkpt lat="45.70211" lon="4.64928">
        <ele>544.7</ele>
        <time>2018-09-02T08:59:06Z</time>
      </trkpt>
      <trkpt lat="45.70214" lon="4.64925">
        <ele>545</ele>
        <time>2018-09-02T08:59:07Z</time>
      </trkpt>
      <trkpt lat="45.70222" lon="4.64917">
        <ele>545.6</ele>
        <time>2018-09-02T08:59:09Z</time>
      </trkpt>
      <trkpt lat="45.70225" lon="4.64911">
        <ele>545.9</ele>
        <time>2018-09-02T08:59:10Z</time>
      </trkpt>
      <trkpt lat="45.70233" lon="4.64895">
        <ele>546.6</ele>
        <time>2018-09-02T08:59:12Z</time>
      </trkpt>
      <trkpt lat="45.7024" lon="4.64883">
        <ele>547.1</ele>
        <time>2018-09-02T08:59:14Z</time>
      </trkpt>
      <trkpt lat="45.70247" lon="4.64875">
        <ele>547.6</ele>
        <time>2018-09-02T08:59:16Z</time>
      </trkpt>
      <trkpt lat="45.70258" lon="4.64868">
        <ele>548.3</ele>
        <time>2018-09-02T08:59:20Z</time>
      </trkpt>
      <trkpt lat="45.70259" lon="4.64867">
        <ele>548.6</ele>
        <time>2018-09-02T08:59:21Z</time>
      </trkpt>
      <trkpt lat="45.70266" lon="4.64863">
        <ele>549.3</ele>
        <time>2018-09-02T08:59:25Z</time>
      </trkpt>
      <trkpt lat="45.70267" lon="4.64861">
        <ele>549.4</ele>
        <time>2018-09-02T08:59:26Z</time>
      </trkpt>
      <trkpt lat="45.70297" lon="4.64836">
        <ele>553.2</ele>
        <time>2018-09-02T08:59:49Z</time>
      </trkpt>
      <trkpt lat="45.70305" lon="4.64826">
        <ele>553.9</ele>
        <time>2018-09-02T08:59:54Z</time>
      </trkpt>
      <trkpt lat="45.70306" lon="4.64824">
        <ele>554</ele>
        <time>2018-09-02T08:59:55Z</time>
      </trkpt>
      <trkpt lat="45.70311" lon="4.64809">
        <ele>554.7</ele>
        <time>2018-09-02T09:01:27Z</time>
      </trkpt>
      <trkpt lat="45.70313" lon="4.64803">
        <ele>555</ele>
        <time>2018-09-02T09:01:29Z</time>
      </trkpt>
      <trkpt lat="45.70317" lon="4.64782">
        <ele>555.9</ele>
        <time>2018-09-02T09:01:37Z</time>
      </trkpt>
      <trkpt lat="45.70319" lon="4.64776">
        <ele>555.4</ele>
        <time>2018-09-02T09:01:39Z</time>
      </trkpt>
      <trkpt lat="45.70322" lon="4.64764">
        <ele>554.3</ele>
        <time>2018-09-02T09:01:43Z</time>
      </trkpt>
      <trkpt lat="45.70324" lon="4.64759">
        <ele>553.8</ele>
        <time>2018-09-02T09:01:45Z</time>
      </trkpt>
      <trkpt lat="45.70328" lon="4.64753">
        <ele>552.2</ele>
        <time>2018-09-02T09:01:49Z</time>
      </trkpt>
      <trkpt lat="45.7033" lon="4.64755">
        <ele>551.6</ele>
        <time>2018-09-02T09:01:50Z</time>
      </trkpt>
      <trkpt lat="45.70334" lon="4.64756">
        <ele>551.3</ele>
        <time>2018-09-02T09:01:51Z</time>
      </trkpt>
      <trkpt lat="45.70336" lon="4.64759">
        <ele>551.1</ele>
        <time>2018-09-02T09:01:52Z</time>
      </trkpt>
      <trkpt lat="45.70351" lon="4.6477">
        <ele>549.8</ele>
        <time>2018-09-02T09:01:57Z</time>
      </trkpt>
      <trkpt lat="45.70376" lon="4.64783">
        <ele>548.1</ele>
        <time>2018-09-02T09:02:03Z</time>
      </trkpt>
      <trkpt lat="45.70387" lon="4.64796">
        <ele>546.4</ele>
        <time>2018-09-02T09:02:07Z</time>
      </trkpt>
      <trkpt lat="45.70389" lon="4.64822">
        <ele>544</ele>
        <time>2018-09-02T09:02:11Z</time>
      </trkpt>
      <trkpt lat="45.70389" lon="4.64829">
        <ele>543.3</ele>
        <time>2018-09-02T09:02:12Z</time>
      </trkpt>
      <trkpt lat="45.7039" lon="4.64837">
        <ele>542.6</ele>
        <time>2018-09-02T09:02:13Z</time>
      </trkpt>
      <trkpt lat="45.70393" lon="4.6486">
        <ele>540.6</ele>
        <time>2018-09-02T09:02:16Z</time>
      </trkpt>
      <trkpt lat="45.70395" lon="4.64866">
        <ele>540.3</ele>
        <time>2018-09-02T09:02:17Z</time>
      </trkpt>
      <trkpt lat="45.70401" lon="4.6488">
        <ele>539.7</ele>
        <time>2018-09-02T09:02:20Z</time>
      </trkpt>
      <trkpt lat="45.70402" lon="4.64884">
        <ele>539.6</ele>
        <time>2018-09-02T09:02:21Z</time>
      </trkpt>
      <trkpt lat="45.70409" lon="4.64904">
        <ele>538.7</ele>
        <time>2018-09-02T09:02:25Z</time>
      </trkpt>
      <trkpt lat="45.70413" lon="4.64913">
        <ele>538.3</ele>
        <time>2018-09-02T09:02:27Z</time>
      </trkpt>
      <trkpt lat="45.70414" lon="4.64918">
        <ele>538</ele>
        <time>2018-09-02T09:02:28Z</time>
      </trkpt>
      <trkpt lat="45.70416" lon="4.64935">
        <ele>537.3</ele>
        <time>2018-09-02T09:02:31Z</time>
      </trkpt>
      <trkpt lat="45.70417" lon="4.64942">
        <ele>536.7</ele>
        <time>2018-09-02T09:02:32Z</time>
      </trkpt>
      <trkpt lat="45.70418" lon="4.64948">
        <ele>536.1</ele>
        <time>2018-09-02T09:02:33Z</time>
      </trkpt>
      <trkpt lat="45.70421" lon="4.6496">
        <ele>534.7</ele>
        <time>2018-09-02T09:02:35Z</time>
      </trkpt>
      <trkpt lat="45.70425" lon="4.64967">
        <ele>533.8</ele>
        <time>2018-09-02T09:02:36Z</time>
      </trkpt>
      <trkpt lat="45.70432" lon="4.6498">
        <ele>532.4</ele>
        <time>2018-09-02T09:02:38Z</time>
      </trkpt>
      <trkpt lat="45.70436" lon="4.64998">
        <ele>531.3</ele>
        <time>2018-09-02T09:02:40Z</time>
      </trkpt>
      <trkpt lat="45.70435" lon="4.65007">
        <ele>530.8</ele>
        <time>2018-09-02T09:02:41Z</time>
      </trkpt>
      <trkpt lat="45.70432" lon="4.65025">
        <ele>529.5</ele>
        <time>2018-09-02T09:02:43Z</time>
      </trkpt>
      <trkpt lat="45.70432" lon="4.65034">
        <ele>528.9</ele>
        <time>2018-09-02T09:02:44Z</time>
      </trkpt>
      <trkpt lat="45.70431" lon="4.65054">
        <ele>528.3</ele>
        <time>2018-09-02T09:02:47Z</time>
      </trkpt>
      <trkpt lat="45.7043" lon="4.65061">
        <ele>528.1</ele>
        <time>2018-09-02T09:02:48Z</time>
      </trkpt>
      <trkpt lat="45.7043" lon="4.65079">
        <ele>527.5</ele>
        <time>2018-09-02T09:02:51Z</time>
      </trkpt>
      <trkpt lat="45.70429" lon="4.65098">
        <ele>526.9</ele>
        <time>2018-09-02T09:02:54Z</time>
      </trkpt>
      <trkpt lat="45.70429" lon="4.6512">
        <ele>525.3</ele>
        <time>2018-09-02T09:02:57Z</time>
      </trkpt>
      <trkpt lat="45.70433" lon="4.6514">
        <ele>523.2</ele>
        <time>2018-09-02T09:03:00Z</time>
      </trkpt>
      <trkpt lat="45.70437" lon="4.65154">
        <ele>521.7</ele>
        <time>2018-09-02T09:03:02Z</time>
      </trkpt>
      <trkpt lat="45.7044" lon="4.65169">
        <ele>520.3</ele>
        <time>2018-09-02T09:03:04Z</time>
      </trkpt>
      <trkpt lat="45.70442" lon="4.65178">
        <ele>519.8</ele>
        <time>2018-09-02T09:03:05Z</time>
      </trkpt>
      <trkpt lat="45.70444" lon="4.65186">
        <ele>519.3</ele>
        <time>2018-09-02T09:03:06Z</time>
      </trkpt>
      <trkpt lat="45.70447" lon="4.65193">
        <ele>518.8</ele>
        <time>2018-09-02T09:03:07Z</time>
      </trkpt>
      <trkpt lat="45.70449" lon="4.652">
        <ele>518.1</ele>
        <time>2018-09-02T09:03:08Z</time>
      </trkpt>
      <trkpt lat="45.70453" lon="4.65206">
        <ele>517.6</ele>
        <time>2018-09-02T09:03:09Z</time>
      </trkpt>
      <trkpt lat="45.70457" lon="4.65211">
        <ele>517.1</ele>
        <time>2018-09-02T09:03:10Z</time>
      </trkpt>
      <trkpt lat="45.70461" lon="4.65218">
        <ele>516.4</ele>
        <time>2018-09-02T09:03:11Z</time>
      </trkpt>
      <trkpt lat="45.70469" lon="4.65231">
        <ele>514.7</ele>
        <time>2018-09-02T09:03:13Z</time>
      </trkpt>
      <trkpt lat="45.70471" lon="4.65238">
        <ele>513.8</ele>
        <time>2018-09-02T09:03:14Z</time>
      </trkpt>
      <trkpt lat="45.70474" lon="4.65246">
        <ele>512.9</ele>
        <time>2018-09-02T09:03:15Z</time>
      </trkpt>
      <trkpt lat="45.70477" lon="4.65253">
        <ele>512</ele>
        <time>2018-09-02T09:03:16Z</time>
      </trkpt>
      <trkpt lat="45.70483" lon="4.65266">
        <ele>510.7</ele>
        <time>2018-09-02T09:03:18Z</time>
      </trkpt>
      <trkpt lat="45.70486" lon="4.65273">
        <ele>510.3</ele>
        <time>2018-09-02T09:03:19Z</time>
      </trkpt>
      <trkpt lat="45.70492" lon="4.65285">
        <ele>509.5</ele>
        <time>2018-09-02T09:03:21Z</time>
      </trkpt>
      <trkpt lat="45.705" lon="4.65297">
        <ele>508.1</ele>
        <time>2018-09-02T09:03:23Z</time>
      </trkpt>
      <trkpt lat="45.70508" lon="4.65311">
        <ele>506.1</ele>
        <time>2018-09-02T09:03:25Z</time>
      </trkpt>
      <trkpt lat="45.70518" lon="4.65325">
        <ele>503.8</ele>
        <time>2018-09-02T09:03:27Z</time>
      </trkpt>
      <trkpt lat="45.70528" lon="4.65337">
        <ele>501.9</ele>
        <time>2018-09-02T09:03:29Z</time>
      </trkpt>
      <trkpt lat="45.70537" lon="4.65346">
        <ele>500.9</ele>
        <time>2018-09-02T09:03:31Z</time>
      </trkpt>
      <trkpt lat="45.70541" lon="4.65349">
        <ele>500.4</ele>
        <time>2018-09-02T09:03:32Z</time>
      </trkpt>
      <trkpt lat="45.70545" lon="4.65352">
        <ele>499.9</ele>
        <time>2018-09-02T09:03:33Z</time>
      </trkpt>
      <trkpt lat="45.70553" lon="4.65358">
        <ele>498.8</ele>
        <time>2018-09-02T09:03:35Z</time>
      </trkpt>
      <trkpt lat="45.70557" lon="4.65359">
        <ele>498</ele>
        <time>2018-09-02T09:03:36Z</time>
      </trkpt>
      <trkpt lat="45.70562" lon="4.65364">
        <ele>496.7</ele>
        <time>2018-09-02T09:03:38Z</time>
      </trkpt>
      <trkpt lat="45.70565" lon="4.65367">
        <ele>495.9</ele>
        <time>2018-09-02T09:03:40Z</time>
      </trkpt>
      <trkpt lat="45.70566" lon="4.65367">
        <ele>495.7</ele>
        <time>2018-09-02T09:03:51Z</time>
      </trkpt>
      <trkpt lat="45.70568" lon="4.65369">
        <ele>495.3</ele>
        <time>2018-09-02T09:03:52Z</time>
      </trkpt>
      <trkpt lat="45.70573" lon="4.65373">
        <ele>494.4</ele>
        <time>2018-09-02T09:03:54Z</time>
      </trkpt>
      <trkpt lat="45.70578" lon="4.65378">
        <ele>493.3</ele>
        <time>2018-09-02T09:03:56Z</time>
      </trkpt>
      <trkpt lat="45.70585" lon="4.6539">
        <ele>491.9</ele>
        <time>2018-09-02T09:03:59Z</time>
      </trkpt>
      <trkpt lat="45.70589" lon="4.65398">
        <ele>490.9</ele>
        <time>2018-09-02T09:04:01Z</time>
      </trkpt>
      <trkpt lat="45.70592" lon="4.65405">
        <ele>489.5</ele>
        <time>2018-09-02T09:04:03Z</time>
      </trkpt>
      <trkpt lat="45.70597" lon="4.65411">
        <ele>487.9</ele>
        <time>2018-09-02T09:04:06Z</time>
      </trkpt>
      <trkpt lat="45.70599" lon="4.65413">
        <ele>487.3</ele>
        <time>2018-09-02T09:04:07Z</time>
      </trkpt>
      <trkpt lat="45.70601" lon="4.65415">
        <ele>486.6</ele>
        <time>2018-09-02T09:04:08Z</time>
      </trkpt>
      <trkpt lat="45.70604" lon="4.6542">
        <ele>485.5</ele>
        <time>2018-09-02T09:04:10Z</time>
      </trkpt>
      <trkpt lat="45.70606" lon="4.65422">
        <ele>485.1</ele>
        <time>2018-09-02T09:04:12Z</time>
      </trkpt>
      <trkpt lat="45.70607" lon="4.65422">
        <ele>484.9</ele>
        <time>2018-09-02T09:04:13Z</time>
      </trkpt>
      <trkpt lat="45.70608" lon="4.65423">
        <ele>484.8</ele>
        <time>2018-09-02T09:04:14Z</time>
      </trkpt>
      <trkpt lat="45.70611" lon="4.65427">
        <ele>484.1</ele>
        <time>2018-09-02T09:04:16Z</time>
      </trkpt>
      <trkpt lat="45.70615" lon="4.65433">
        <ele>483.1</ele>
        <time>2018-09-02T09:04:18Z</time>
      </trkpt>
      <trkpt lat="45.70619" lon="4.65441">
        <ele>481.5</ele>
        <time>2018-09-02T09:04:20Z</time>
      </trkpt>
      <trkpt lat="45.70623" lon="4.65448">
        <ele>480.1</ele>
        <time>2018-09-02T09:04:22Z</time>
      </trkpt>
      <trkpt lat="45.70625" lon="4.65452">
        <ele>479.3</ele>
        <time>2018-09-02T09:04:23Z</time>
      </trkpt>
      <trkpt lat="45.70627" lon="4.65457">
        <ele>478.5</ele>
        <time>2018-09-02T09:04:24Z</time>
      </trkpt>
      <trkpt lat="45.70631" lon="4.65467">
        <ele>476.8</ele>
        <time>2018-09-02T09:04:26Z</time>
      </trkpt>
      <trkpt lat="45.70636" lon="4.65479">
        <ele>474.9</ele>
        <time>2018-09-02T09:04:28Z</time>
      </trkpt>
      <trkpt lat="45.7064" lon="4.65485">
        <ele>473.7</ele>
        <time>2018-09-02T09:04:29Z</time>
      </trkpt>
      <trkpt lat="45.7065" lon="4.65496">
        <ele>471.9</ele>
        <time>2018-09-02T09:04:32Z</time>
      </trkpt>
      <trkpt lat="45.70653" lon="4.65496">
        <ele>471.7</ele>
        <time>2018-09-02T09:04:33Z</time>
      </trkpt>
      <trkpt lat="45.70656" lon="4.65495">
        <ele>471.4</ele>
        <time>2018-09-02T09:04:34Z</time>
      </trkpt>
      <trkpt lat="45.70657" lon="4.65493">
        <ele>471.3</ele>
        <time>2018-09-02T09:04:35Z</time>
      </trkpt>
      <trkpt lat="45.70658" lon="4.65491">
        <ele>471.2</ele>
        <time>2018-09-02T09:04:36Z</time>
      </trkpt>
      <trkpt lat="45.70657" lon="4.6549">
        <ele>471.1</ele>
        <time>2018-09-02T09:04:38Z</time>
      </trkpt>
      <trkpt lat="45.70655" lon="4.65493">
        <ele>470.9</ele>
        <time>2018-09-02T09:04:40Z</time>
      </trkpt>
      <trkpt lat="45.70655" lon="4.65496">
        <ele>470.7</ele>
        <time>2018-09-02T09:04:42Z</time>
      </trkpt>
      <trkpt lat="45.70658" lon="4.65496">
        <ele>470.5</ele>
        <time>2018-09-02T09:04:43Z</time>
      </trkpt>
      <trkpt lat="45.7066" lon="4.65494">
        <ele>471.3</ele>
        <time>2018-09-02T09:04:44Z</time>
      </trkpt>
      <trkpt lat="45.70661" lon="4.65492">
        <ele>471.6</ele>
        <time>2018-09-02T09:04:45Z</time>
      </trkpt>
      <trkpt lat="45.70663" lon="4.65487">
        <ele>472.3</ele>
        <time>2018-09-02T09:04:47Z</time>
      </trkpt>
      <trkpt lat="45.70664" lon="4.65484">
        <ele>472.7</ele>
        <time>2018-09-02T09:04:48Z</time>
      </trkpt>
      <trkpt lat="45.7067" lon="4.65474">
        <ele>474.5</ele>
        <time>2018-09-02T09:04:52Z</time>
      </trkpt>
      <trkpt lat="45.70675" lon="4.65465">
        <ele>475.7</ele>
        <time>2018-09-02T09:04:56Z</time>
      </trkpt>
      <trkpt lat="45.7068" lon="4.65454">
        <ele>476.8</ele>
        <time>2018-09-02T09:05:02Z</time>
      </trkpt>
      <trkpt lat="45.70681" lon="4.65452">
        <ele>476.9</ele>
        <time>2018-09-02T09:05:03Z</time>
      </trkpt>
      <trkpt lat="45.70684" lon="4.65436">
        <ele>478.5</ele>
        <time>2018-09-02T09:05:10Z</time>
      </trkpt>
      <trkpt lat="45.70684" lon="4.65422">
        <ele>479.8</ele>
        <time>2018-09-02T09:05:17Z</time>
      </trkpt>
      <trkpt lat="45.70683" lon="4.65418">
        <ele>480.3</ele>
        <time>2018-09-02T09:05:19Z</time>
      </trkpt>
      <trkpt lat="45.70681" lon="4.65415">
        <ele>480.7</ele>
        <time>2018-09-02T09:05:21Z</time>
      </trkpt>
      <trkpt lat="45.70678" lon="4.65408">
        <ele>481.3</ele>
        <time>2018-09-02T09:05:25Z</time>
      </trkpt>
      <trkpt lat="45.70676" lon="4.65403">
        <ele>482.1</ele>
        <time>2018-09-02T09:05:28Z</time>
      </trkpt>
      <trkpt lat="45.70673" lon="4.65395">
        <ele>483.3</ele>
        <time>2018-09-02T09:05:33Z</time>
      </trkpt>
      <trkpt lat="45.70673" lon="4.65392">
        <ele>483.5</ele>
        <time>2018-09-02T09:05:34Z</time>
      </trkpt>
      <trkpt lat="45.70673" lon="4.65377">
        <ele>485.4</ele>
        <time>2018-09-02T09:05:41Z</time>
      </trkpt>
      <trkpt lat="45.70673" lon="4.65373">
        <ele>485.9</ele>
        <time>2018-09-02T09:05:43Z</time>
      </trkpt>
      <trkpt lat="45.70677" lon="4.65367">
        <ele>487</ele>
        <time>2018-09-02T09:05:47Z</time>
      </trkpt>
      <trkpt lat="45.7068" lon="4.65362">
        <ele>487.8</ele>
        <time>2018-09-02T09:05:50Z</time>
      </trkpt>
      <trkpt lat="45.70685" lon="4.65356">
        <ele>488.4</ele>
        <time>2018-09-02T09:05:54Z</time>
      </trkpt>
      <trkpt lat="45.70686" lon="4.65355">
        <ele>488.5</ele>
        <time>2018-09-02T09:05:55Z</time>
      </trkpt>
      <trkpt lat="45.70687" lon="4.65354">
        <ele>488.6</ele>
        <time>2018-09-02T09:05:56Z</time>
      </trkpt>
      <trkpt lat="45.7069" lon="4.65347">
        <ele>489.4</ele>
        <time>2018-09-02T09:06:00Z</time>
      </trkpt>
      <trkpt lat="45.70691" lon="4.65345">
        <ele>489.6</ele>
        <time>2018-09-02T09:06:01Z</time>
      </trkpt>
      <trkpt lat="45.70695" lon="4.65336">
        <ele>490.7</ele>
        <time>2018-09-02T09:06:06Z</time>
      </trkpt>
      <trkpt lat="45.70696" lon="4.65332">
        <ele>491</ele>
        <time>2018-09-02T09:06:08Z</time>
      </trkpt>
      <trkpt lat="45.70697" lon="4.65328">
        <ele>491.3</ele>
        <time>2018-09-02T09:06:10Z</time>
      </trkpt>
      <trkpt lat="45.70699" lon="4.65319">
        <ele>492.6</ele>
        <time>2018-09-02T09:06:15Z</time>
      </trkpt>
      <trkpt lat="45.70699" lon="4.65316">
        <ele>492.7</ele>
        <time>2018-09-02T09:06:16Z</time>
      </trkpt>
      <trkpt lat="45.707" lon="4.6531">
        <ele>493.1</ele>
        <time>2018-09-02T09:06:19Z</time>
      </trkpt>
      <trkpt lat="45.70702" lon="4.65304">
        <ele>493.6</ele>
        <time>2018-09-02T09:06:22Z</time>
      </trkpt>
      <trkpt lat="45.70704" lon="4.65297">
        <ele>494.5</ele>
        <time>2018-09-02T09:06:26Z</time>
      </trkpt>
      <trkpt lat="45.70706" lon="4.65292">
        <ele>495.1</ele>
        <time>2018-09-02T09:06:29Z</time>
      </trkpt>
      <trkpt lat="45.70707" lon="4.65289">
        <ele>495.2</ele>
        <time>2018-09-02T09:06:30Z</time>
      </trkpt>
      <trkpt lat="45.70708" lon="4.65283">
        <ele>495.9</ele>
        <time>2018-09-02T09:06:33Z</time>
      </trkpt>
      <trkpt lat="45.70709" lon="4.65278">
        <ele>496.4</ele>
        <time>2018-09-02T09:06:35Z</time>
      </trkpt>
      <trkpt lat="45.7071" lon="4.65268">
        <ele>497.4</ele>
        <time>2018-09-02T09:06:39Z</time>
      </trkpt>
      <trkpt lat="45.70712" lon="4.65262">
        <ele>497.7</ele>
        <time>2018-09-02T09:06:42Z</time>
      </trkpt>
      <trkpt lat="45.70712" lon="4.6526">
        <ele>497.8</ele>
        <time>2018-09-02T09:06:43Z</time>
      </trkpt>
      <trkpt lat="45.7072" lon="4.65243">
        <ele>499.7</ele>
        <time>2018-09-02T09:06:51Z</time>
      </trkpt>
      <trkpt lat="45.70724" lon="4.65238">
        <ele>500.2</ele>
        <time>2018-09-02T09:06:55Z</time>
      </trkpt>
      <trkpt lat="45.70728" lon="4.65238">
        <ele>500.8</ele>
        <time>2018-09-02T09:06:58Z</time>
      </trkpt>
      <trkpt lat="45.70733" lon="4.65239">
        <ele>501.5</ele>
        <time>2018-09-02T09:07:01Z</time>
      </trkpt>
      <trkpt lat="45.7074" lon="4.65239">
        <ele>502.2</ele>
        <time>2018-09-02T09:07:05Z</time>
      </trkpt>
      <trkpt lat="45.70741" lon="4.65239">
        <ele>502.4</ele>
        <time>2018-09-02T09:07:06Z</time>
      </trkpt>
      <trkpt lat="45.70746" lon="4.6524">
        <ele>502.7</ele>
        <time>2018-09-02T09:07:09Z</time>
      </trkpt>
      <trkpt lat="45.7075" lon="4.65243">
        <ele>503.3</ele>
        <time>2018-09-02T09:07:12Z</time>
      </trkpt>
      <trkpt lat="45.70751" lon="4.65245">
        <ele>503.6</ele>
        <time>2018-09-02T09:07:13Z</time>
      </trkpt>
      <trkpt lat="45.70753" lon="4.65251">
        <ele>504.3</ele>
        <time>2018-09-02T09:07:16Z</time>
      </trkpt>
      <trkpt lat="45.70758" lon="4.65257">
        <ele>504.9</ele>
        <time>2018-09-02T09:07:20Z</time>
      </trkpt>
      <trkpt lat="45.70764" lon="4.65265">
        <ele>505.8</ele>
        <time>2018-09-02T09:07:25Z</time>
      </trkpt>
      <trkpt lat="45.70766" lon="4.65271">
        <ele>506.3</ele>
        <time>2018-09-02T09:07:28Z</time>
      </trkpt>
      <trkpt lat="45.70767" lon="4.65273">
        <ele>506.5</ele>
        <time>2018-09-02T09:07:29Z</time>
      </trkpt>
      <trkpt lat="45.70771" lon="4.65279">
        <ele>506.8</ele>
        <time>2018-09-02T09:07:32Z</time>
      </trkpt>
      <trkpt lat="45.70777" lon="4.65285">
        <ele>507.8</ele>
        <time>2018-09-02T09:07:36Z</time>
      </trkpt>
      <trkpt lat="45.70783" lon="4.6529">
        <ele>508.6</ele>
        <time>2018-09-02T09:07:40Z</time>
      </trkpt>
      <trkpt lat="45.70791" lon="4.65294">
        <ele>509.3</ele>
        <time>2018-09-02T09:07:45Z</time>
      </trkpt>
      <trkpt lat="45.70796" lon="4.65295">
        <ele>509.5</ele>
        <time>2018-09-02T09:07:48Z</time>
      </trkpt>
      <trkpt lat="45.708" lon="4.65296">
        <ele>509.7</ele>
        <time>2018-09-02T09:07:51Z</time>
      </trkpt>
      <trkpt lat="45.70814" lon="4.65295">
        <ele>511.4</ele>
        <time>2018-09-02T09:08:00Z</time>
      </trkpt>
      <trkpt lat="45.7084" lon="4.65287">
        <ele>514.8</ele>
        <time>2018-09-02T09:09:34Z</time>
      </trkpt>
      <trkpt lat="45.70847" lon="4.65289">
        <ele>515.6</ele>
        <time>2018-09-02T09:09:38Z</time>
      </trkpt>
      <trkpt lat="45.70851" lon="4.6529">
        <ele>516</ele>
        <time>2018-09-02T09:09:40Z</time>
      </trkpt>
      <trkpt lat="45.70855" lon="4.65291">
        <ele>516.2</ele>
        <time>2018-09-02T09:09:42Z</time>
      </trkpt>
      <trkpt lat="45.70858" lon="4.65292">
        <ele>516.4</ele>
        <time>2018-09-02T09:09:44Z</time>
      </trkpt>
      <trkpt lat="45.70859" lon="4.65293">
        <ele>516.5</ele>
        <time>2018-09-02T09:09:45Z</time>
      </trkpt>
      <trkpt lat="45.70861" lon="4.65293">
        <ele>516.6</ele>
        <time>2018-09-02T09:09:46Z</time>
      </trkpt>
      <trkpt lat="45.70866" lon="4.65295">
        <ele>517.1</ele>
        <time>2018-09-02T09:09:49Z</time>
      </trkpt>
      <trkpt lat="45.70871" lon="4.65297">
        <ele>517.7</ele>
        <time>2018-09-02T09:09:52Z</time>
      </trkpt>
      <trkpt lat="45.70873" lon="4.65297">
        <ele>518</ele>
        <time>2018-09-02T09:09:53Z</time>
      </trkpt>
      <trkpt lat="45.70884" lon="4.65298">
        <ele>518.9</ele>
        <time>2018-09-02T09:09:59Z</time>
      </trkpt>
      <trkpt lat="45.70888" lon="4.653">
        <ele>519.2</ele>
        <time>2018-09-02T09:10:02Z</time>
      </trkpt>
      <trkpt lat="45.70889" lon="4.65301">
        <ele>519.4</ele>
        <time>2018-09-02T09:10:03Z</time>
      </trkpt>
      <trkpt lat="45.70894" lon="4.65304">
        <ele>520.3</ele>
        <time>2018-09-02T09:10:07Z</time>
      </trkpt>
      <trkpt lat="45.70901" lon="4.65306">
        <ele>520.9</ele>
        <time>2018-09-02T09:10:11Z</time>
      </trkpt>
      <trkpt lat="45.70905" lon="4.65308">
        <ele>521.3</ele>
        <time>2018-09-02T09:10:13Z</time>
      </trkpt>
      <trkpt lat="45.70915" lon="4.65314">
        <ele>522.7</ele>
        <time>2018-09-02T09:10:19Z</time>
      </trkpt>
      <trkpt lat="45.7092" lon="4.65317">
        <ele>523.1</ele>
        <time>2018-09-02T09:10:22Z</time>
      </trkpt>
      <trkpt lat="45.70927" lon="4.65321">
        <ele>523.6</ele>
        <time>2018-09-02T09:10:26Z</time>
      </trkpt>
      <trkpt lat="45.70929" lon="4.65322">
        <ele>523.8</ele>
        <time>2018-09-02T09:10:27Z</time>
      </trkpt>
      <trkpt lat="45.70939" lon="4.65329">
        <ele>525.1</ele>
        <time>2018-09-02T09:10:33Z</time>
      </trkpt>
      <trkpt lat="45.70942" lon="4.6533">
        <ele>525.4</ele>
        <time>2018-09-02T09:10:35Z</time>
      </trkpt>
      <trkpt lat="45.70956" lon="4.65338">
        <ele>526.7</ele>
        <time>2018-09-02T09:10:44Z</time>
      </trkpt>
      <trkpt lat="45.70961" lon="4.65345">
        <ele>527.4</ele>
        <time>2018-09-02T09:10:48Z</time>
      </trkpt>
      <trkpt lat="45.70963" lon="4.65349">
        <ele>527.6</ele>
        <time>2018-09-02T09:10:50Z</time>
      </trkpt>
      <trkpt lat="45.7097" lon="4.65365">
        <ele>528.7</ele>
        <time>2018-09-02T09:10:57Z</time>
      </trkpt>
      <trkpt lat="45.7098" lon="4.65385">
        <ele>530.6</ele>
        <time>2018-09-02T09:11:07Z</time>
      </trkpt>
      <trkpt lat="45.70987" lon="4.65398">
        <ele>531.7</ele>
        <time>2018-09-02T09:11:13Z</time>
      </trkpt>
      <trkpt lat="45.70999" lon="4.6541">
        <ele>532.8</ele>
        <time>2018-09-02T09:11:22Z</time>
      </trkpt>
      <trkpt lat="45.71001" lon="4.6541">
        <ele>532.8</ele>
        <time>2018-09-02T09:11:23Z</time>
      </trkpt>
      <trkpt lat="45.7101" lon="4.65414">
        <ele>533.6</ele>
        <time>2018-09-02T09:11:29Z</time>
      </trkpt>
      <trkpt lat="45.71012" lon="4.65415">
        <ele>533.8</ele>
        <time>2018-09-02T09:11:30Z</time>
      </trkpt>
      <trkpt lat="45.71024" lon="4.65418">
        <ele>533.1</ele>
        <time>2018-09-02T09:11:34Z</time>
      </trkpt>
      <trkpt lat="45.7103" lon="4.6542">
        <ele>532.6</ele>
        <time>2018-09-02T09:11:37Z</time>
      </trkpt>
      <trkpt lat="45.71035" lon="4.65421">
        <ele>532.1</ele>
        <time>2018-09-02T09:11:42Z</time>
      </trkpt>
      <trkpt lat="45.7104" lon="4.65423">
        <ele>531.6</ele>
        <time>2018-09-02T09:11:44Z</time>
      </trkpt>
      <trkpt lat="45.71046" lon="4.65424">
        <ele>531.1</ele>
        <time>2018-09-02T09:11:52Z</time>
      </trkpt>
      <trkpt lat="45.71051" lon="4.65426">
        <ele>530.1</ele>
        <time>2018-09-02T09:13:57Z</time>
      </trkpt>
      <trkpt lat="45.71056" lon="4.65427">
        <ele>529</ele>
        <time>2018-09-02T09:13:58Z</time>
      </trkpt>
      <trkpt lat="45.71068" lon="4.65451">
        <ele>525.1</ele>
        <time>2018-09-02T09:14:01Z</time>
      </trkpt>
      <trkpt lat="45.71072" lon="4.65459">
        <ele>524</ele>
        <time>2018-09-02T09:14:02Z</time>
      </trkpt>
      <trkpt lat="45.71086" lon="4.6548">
        <ele>521.9</ele>
        <time>2018-09-02T09:14:05Z</time>
      </trkpt>
      <trkpt lat="45.71089" lon="4.65484">
        <ele>521.6</ele>
        <time>2018-09-02T09:14:18Z</time>
      </trkpt>
      <trkpt lat="45.71091" lon="4.65484">
        <ele>521.4</ele>
        <time>2018-09-02T09:14:20Z</time>
      </trkpt>
      <trkpt lat="45.71094" lon="4.65484">
        <ele>521.2</ele>
        <time>2018-09-02T09:14:22Z</time>
      </trkpt>
      <trkpt lat="45.71095" lon="4.65486">
        <ele>521.1</ele>
        <time>2018-09-02T09:14:23Z</time>
      </trkpt>
      <trkpt lat="45.71096" lon="4.65491">
        <ele>520.7</ele>
        <time>2018-09-02T09:15:49Z</time>
      </trkpt>
      <trkpt lat="45.711" lon="4.65497">
        <ele>520.3</ele>
        <time>2018-09-02T09:15:51Z</time>
      </trkpt>
      <trkpt lat="45.71102" lon="4.65501">
        <ele>520.2</ele>
        <time>2018-09-02T09:15:52Z</time>
      </trkpt>
      <trkpt lat="45.71112" lon="4.65516">
        <ele>520</ele>
        <time>2018-09-02T09:15:55Z</time>
      </trkpt>
      <trkpt lat="45.71123" lon="4.65533">
        <ele>519.8</ele>
        <time>2018-09-02T09:15:58Z</time>
      </trkpt>
      <trkpt lat="45.71133" lon="4.65548">
        <ele>519.8</ele>
        <time>2018-09-02T09:16:01Z</time>
      </trkpt>
      <trkpt lat="45.71136" lon="4.65553">
        <ele>519.8</ele>
        <time>2018-09-02T09:16:02Z</time>
      </trkpt>
      <trkpt lat="45.71152" lon="4.65578">
        <ele>519.8</ele>
        <time>2018-09-02T09:16:07Z</time>
      </trkpt>
      <trkpt lat="45.71155" lon="4.65584">
        <ele>519.8</ele>
        <time>2018-09-02T09:16:08Z</time>
      </trkpt>
      <trkpt lat="45.7117" lon="4.65608">
        <ele>519.8</ele>
        <time>2018-09-02T09:16:13Z</time>
      </trkpt>
      <trkpt lat="45.71177" lon="4.65622">
        <ele>519.8</ele>
        <time>2018-09-02T09:16:16Z</time>
      </trkpt>
      <trkpt lat="45.71188" lon="4.65646">
        <ele>519.5</ele>
        <time>2018-09-02T09:16:21Z</time>
      </trkpt>
      <trkpt lat="45.71193" lon="4.65655">
        <ele>519.1</ele>
        <time>2018-09-02T09:16:23Z</time>
      </trkpt>
      <trkpt lat="45.71202" lon="4.65673">
        <ele>517.6</ele>
        <time>2018-09-02T09:16:26Z</time>
      </trkpt>
      <trkpt lat="45.71208" lon="4.65689">
        <ele>516.9</ele>
        <time>2018-09-02T09:16:28Z</time>
      </trkpt>
      <trkpt lat="45.7122" lon="4.65717">
        <ele>514.6</ele>
        <time>2018-09-02T09:16:31Z</time>
      </trkpt>
      <trkpt lat="45.71224" lon="4.65728">
        <ele>513.8</ele>
        <time>2018-09-02T09:16:32Z</time>
      </trkpt>
      <trkpt lat="45.71235" lon="4.65761">
        <ele>512.2</ele>
        <time>2018-09-02T09:16:35Z</time>
      </trkpt>
      <trkpt lat="45.7124" lon="4.6577">
        <ele>511.9</ele>
        <time>2018-09-02T09:16:36Z</time>
      </trkpt>
      <trkpt lat="45.71257" lon="4.65787">
        <ele>510.3</ele>
        <time>2018-09-02T09:16:39Z</time>
      </trkpt>
      <trkpt lat="45.71271" lon="4.65793">
        <ele>508.3</ele>
        <time>2018-09-02T09:16:41Z</time>
      </trkpt>
      <trkpt lat="45.71277" lon="4.65798">
        <ele>506.7</ele>
        <time>2018-09-02T09:16:42Z</time>
      </trkpt>
      <trkpt lat="45.71286" lon="4.65805">
        <ele>504.5</ele>
        <time>2018-09-02T09:16:43Z</time>
      </trkpt>
      <trkpt lat="45.71295" lon="4.65812">
        <ele>502.8</ele>
        <time>2018-09-02T09:16:44Z</time>
      </trkpt>
      <trkpt lat="45.71303" lon="4.65819">
        <ele>501</ele>
        <time>2018-09-02T09:16:45Z</time>
      </trkpt>
      <trkpt lat="45.71311" lon="4.65827">
        <ele>499.8</ele>
        <time>2018-09-02T09:16:46Z</time>
      </trkpt>
      <trkpt lat="45.71319" lon="4.65836">
        <ele>498.6</ele>
        <time>2018-09-02T09:16:47Z</time>
      </trkpt>
      <trkpt lat="45.71327" lon="4.65846">
        <ele>497.2</ele>
        <time>2018-09-02T09:16:48Z</time>
      </trkpt>
      <trkpt lat="45.71335" lon="4.65854">
        <ele>496.2</ele>
        <time>2018-09-02T09:16:49Z</time>
      </trkpt>
      <trkpt lat="45.71341" lon="4.6586">
        <ele>495.2</ele>
        <time>2018-09-02T09:16:50Z</time>
      </trkpt>
      <trkpt lat="45.71344" lon="4.65863">
        <ele>494.9</ele>
        <time>2018-09-02T09:16:51Z</time>
      </trkpt>
      <trkpt lat="45.71345" lon="4.65863">
        <ele>494.8</ele>
        <time>2018-09-02T09:16:52Z</time>
      </trkpt>
      <trkpt lat="45.71347" lon="4.65861">
        <ele>494.7</ele>
        <time>2018-09-02T09:16:53Z</time>
      </trkpt>
      <trkpt lat="45.71349" lon="4.65857">
        <ele>494.2</ele>
        <time>2018-09-02T09:17:05Z</time>
      </trkpt>
      <trkpt lat="45.7135" lon="4.6585">
        <ele>494.5</ele>
        <time>2018-09-02T09:17:07Z</time>
      </trkpt>
      <trkpt lat="45.71349" lon="4.65822">
        <ele>495.3</ele>
        <time>2018-09-02T09:17:13Z</time>
      </trkpt>
      <trkpt lat="45.71343" lon="4.65782">
        <ele>496.7</ele>
        <time>2018-09-02T09:17:20Z</time>
      </trkpt>
      <trkpt lat="45.71344" lon="4.65754">
        <ele>497.5</ele>
        <time>2018-09-02T09:17:25Z</time>
      </trkpt>
      <trkpt lat="45.71347" lon="4.65748">
        <ele>497.7</ele>
        <time>2018-09-02T09:17:26Z</time>
      </trkpt>
      <trkpt lat="45.71349" lon="4.6574">
        <ele>497.9</ele>
        <time>2018-09-02T09:17:27Z</time>
      </trkpt>
      <trkpt lat="45.71353" lon="4.65723">
        <ele>498.2</ele>
        <time>2018-09-02T09:17:29Z</time>
      </trkpt>
      <trkpt lat="45.71357" lon="4.65708">
        <ele>498.1</ele>
        <time>2018-09-02T09:17:31Z</time>
      </trkpt>
      <trkpt lat="45.71358" lon="4.65697">
        <ele>497.9</ele>
        <time>2018-09-02T09:17:33Z</time>
      </trkpt>
      <trkpt lat="45.71358" lon="4.6569">
        <ele>497.7</ele>
        <time>2018-09-02T09:17:35Z</time>
      </trkpt>
      <trkpt lat="45.71358" lon="4.65685">
        <ele>497.5</ele>
        <time>2018-09-02T09:17:36Z</time>
      </trkpt>
      <trkpt lat="45.71361" lon="4.65673">
        <ele>496.9</ele>
        <time>2018-09-02T09:17:38Z</time>
      </trkpt>
      <trkpt lat="45.71364" lon="4.65665">
        <ele>496.4</ele>
        <time>2018-09-02T09:17:39Z</time>
      </trkpt>
      <trkpt lat="45.71368" lon="4.65656">
        <ele>495.8</ele>
        <time>2018-09-02T09:17:40Z</time>
      </trkpt>
      <trkpt lat="45.71386" lon="4.65613">
        <ele>492.5</ele>
        <time>2018-09-02T09:17:44Z</time>
      </trkpt>
      <trkpt lat="45.71388" lon="4.65603">
        <ele>491.9</ele>
        <time>2018-09-02T09:17:45Z</time>
      </trkpt>
      <trkpt lat="45.7139" lon="4.65583">
        <ele>490.5</ele>
        <time>2018-09-02T09:17:47Z</time>
      </trkpt>
      <trkpt lat="45.71392" lon="4.65572">
        <ele>489.7</ele>
        <time>2018-09-02T09:17:48Z</time>
      </trkpt>
      <trkpt lat="45.71392" lon="4.65552">
        <ele>488.4</ele>
        <time>2018-09-02T09:17:50Z</time>
      </trkpt>
      <trkpt lat="45.71391" lon="4.65541">
        <ele>487.6</ele>
        <time>2018-09-02T09:17:51Z</time>
      </trkpt>
      <trkpt lat="45.71392" lon="4.65531">
        <ele>486.9</ele>
        <time>2018-09-02T09:17:52Z</time>
      </trkpt>
      <trkpt lat="45.71393" lon="4.65522">
        <ele>486.2</ele>
        <time>2018-09-02T09:17:53Z</time>
      </trkpt>
      <trkpt lat="45.71398" lon="4.65508">
        <ele>485.1</ele>
        <time>2018-09-02T09:17:56Z</time>
      </trkpt>
      <trkpt lat="45.71402" lon="4.65505">
        <ele>484.7</ele>
        <time>2018-09-02T09:17:57Z</time>
      </trkpt>
      <trkpt lat="45.71417" lon="4.65499">
        <ele>483.5</ele>
        <time>2018-09-02T09:17:59Z</time>
      </trkpt>
      <trkpt lat="45.71424" lon="4.65498">
        <ele>483.1</ele>
        <time>2018-09-02T09:18:00Z</time>
      </trkpt>
      <trkpt lat="45.71435" lon="4.65486">
        <ele>482.5</ele>
        <time>2018-09-02T09:18:02Z</time>
      </trkpt>
      <trkpt lat="45.71436" lon="4.65479">
        <ele>482.4</ele>
        <time>2018-09-02T09:18:03Z</time>
      </trkpt>
      <trkpt lat="45.71436" lon="4.65472">
        <ele>482.3</ele>
        <time>2018-09-02T09:18:04Z</time>
      </trkpt>
      <trkpt lat="45.71436" lon="4.65466">
        <ele>482.2</ele>
        <time>2018-09-02T09:18:05Z</time>
      </trkpt>
      <trkpt lat="45.71434" lon="4.65455">
        <ele>482</ele>
        <time>2018-09-02T09:18:07Z</time>
      </trkpt>
      <trkpt lat="45.71432" lon="4.65446">
        <ele>481.9</ele>
        <time>2018-09-02T09:18:09Z</time>
      </trkpt>
      <trkpt lat="45.71431" lon="4.65443">
        <ele>481.8</ele>
        <time>2018-09-02T09:18:10Z</time>
      </trkpt>
      <trkpt lat="45.71424" lon="4.6543">
        <ele>481.7</ele>
        <time>2018-09-02T09:18:15Z</time>
      </trkpt>
      <trkpt lat="45.71412" lon="4.65417">
        <ele>482</ele>
        <time>2018-09-02T09:18:22Z</time>
      </trkpt>
      <trkpt lat="45.71404" lon="4.65409">
        <ele>482.3</ele>
        <time>2018-09-02T09:18:26Z</time>
      </trkpt>
      <trkpt lat="45.71394" lon="4.65397">
        <ele>482.6</ele>
        <time>2018-09-02T09:18:31Z</time>
      </trkpt>
      <trkpt lat="45.71391" lon="4.65394">
        <ele>482.6</ele>
        <time>2018-09-02T09:18:32Z</time>
      </trkpt>
      <trkpt lat="45.71379" lon="4.65381">
        <ele>482.9</ele>
        <time>2018-09-02T09:18:38Z</time>
      </trkpt>
      <trkpt lat="45.71362" lon="4.65364">
        <ele>483</ele>
        <time>2018-09-02T09:18:46Z</time>
      </trkpt>
      <trkpt lat="45.71357" lon="4.65348">
        <ele>483</ele>
        <time>2018-09-02T09:18:52Z</time>
      </trkpt>
      <trkpt lat="45.71358" lon="4.6534">
        <ele>483.3</ele>
        <time>2018-09-02T09:18:54Z</time>
      </trkpt>
      <trkpt lat="45.71361" lon="4.65332">
        <ele>483.5</ele>
        <time>2018-09-02T09:18:56Z</time>
      </trkpt>
      <trkpt lat="45.71365" lon="4.65326">
        <ele>483.9</ele>
        <time>2018-09-02T09:18:58Z</time>
      </trkpt>
      <trkpt lat="45.71371" lon="4.65319">
        <ele>484.3</ele>
        <time>2018-09-02T09:19:01Z</time>
      </trkpt>
      <trkpt lat="45.71373" lon="4.65316">
        <ele>484.5</ele>
        <time>2018-09-02T09:19:02Z</time>
      </trkpt>
      <trkpt lat="45.71379" lon="4.65305">
        <ele>485.3</ele>
        <time>2018-09-02T09:19:05Z</time>
      </trkpt>
      <trkpt lat="45.71383" lon="4.65299">
        <ele>485.7</ele>
        <time>2018-09-02T09:19:07Z</time>
      </trkpt>
      <trkpt lat="45.71386" lon="4.65292">
        <ele>486</ele>
        <time>2018-09-02T09:19:09Z</time>
      </trkpt>
      <trkpt lat="45.71391" lon="4.65274">
        <ele>487.6</ele>
        <time>2018-09-02T09:19:13Z</time>
      </trkpt>
      <trkpt lat="45.71394" lon="4.65264">
        <ele>489.3</ele>
        <time>2018-09-02T09:19:15Z</time>
      </trkpt>
      <trkpt lat="45.71397" lon="4.65249">
        <ele>491.7</ele>
        <time>2018-09-02T09:19:18Z</time>
      </trkpt>
      <trkpt lat="45.71399" lon="4.65238">
        <ele>493.2</ele>
        <time>2018-09-02T09:19:21Z</time>
      </trkpt>
      <trkpt lat="45.71401" lon="4.65226">
        <ele>494</ele>
        <time>2018-09-02T09:19:24Z</time>
      </trkpt>
      <trkpt lat="45.71405" lon="4.65211">
        <ele>494.6</ele>
        <time>2018-09-02T09:19:27Z</time>
      </trkpt>
      <trkpt lat="45.71406" lon="4.65206">
        <ele>494.7</ele>
        <time>2018-09-02T09:19:28Z</time>
      </trkpt>
      <trkpt lat="45.71416" lon="4.65172">
        <ele>495.9</ele>
        <time>2018-09-02T09:19:34Z</time>
      </trkpt>
      <trkpt lat="45.71426" lon="4.65155">
        <ele>496.7</ele>
        <time>2018-09-02T09:19:37Z</time>
      </trkpt>
      <trkpt lat="45.71434" lon="4.65147">
        <ele>497.1</ele>
        <time>2018-09-02T09:19:39Z</time>
      </trkpt>
      <trkpt lat="45.71449" lon="4.65142">
        <ele>497.8</ele>
        <time>2018-09-02T09:19:43Z</time>
      </trkpt>
      <trkpt lat="45.71464" lon="4.65143">
        <ele>492.5</ele>
        <time>2018-09-02T09:19:45Z</time>
      </trkpt>
      <trkpt lat="45.71472" lon="4.65144">
        <ele>489.8</ele>
        <time>2018-09-02T09:19:46Z</time>
      </trkpt>
      <trkpt lat="45.715" lon="4.65148">
        <ele>482.8</ele>
        <time>2018-09-02T09:19:49Z</time>
      </trkpt>
      <trkpt lat="45.71508" lon="4.65149">
        <ele>480.6</ele>
        <time>2018-09-02T09:19:50Z</time>
      </trkpt>
      <trkpt lat="45.71519" lon="4.65142">
        <ele>478.6</ele>
        <time>2018-09-02T09:19:51Z</time>
      </trkpt>
      <trkpt lat="45.71526" lon="4.65137">
        <ele>477.5</ele>
        <time>2018-09-02T09:19:52Z</time>
      </trkpt>
      <trkpt lat="45.71533" lon="4.65129">
        <ele>478.5</ele>
        <time>2018-09-02T09:19:53Z</time>
      </trkpt>
      <trkpt lat="45.71548" lon="4.65108">
        <ele>480.5</ele>
        <time>2018-09-02T09:19:56Z</time>
      </trkpt>
      <trkpt lat="45.71559" lon="4.6509">
        <ele>479.3</ele>
        <time>2018-09-02T09:19:59Z</time>
      </trkpt>
      <trkpt lat="45.71562" lon="4.65086">
        <ele>478.9</ele>
        <time>2018-09-02T09:20:00Z</time>
      </trkpt>
      <trkpt lat="45.71566" lon="4.65081">
        <ele>478.7</ele>
        <time>2018-09-02T09:20:01Z</time>
      </trkpt>
      <trkpt lat="45.71583" lon="4.65065">
        <ele>476.4</ele>
        <time>2018-09-02T09:20:04Z</time>
      </trkpt>
      <trkpt lat="45.7159" lon="4.6506">
        <ele>474.9</ele>
        <time>2018-09-02T09:20:05Z</time>
      </trkpt>
      <trkpt lat="45.71613" lon="4.6504">
        <ele>469.8</ele>
        <time>2018-09-02T09:20:08Z</time>
      </trkpt>
      <trkpt lat="45.71645" lon="4.65001">
        <ele>464.1</ele>
        <time>2018-09-02T09:20:12Z</time>
      </trkpt>
      <trkpt lat="45.71651" lon="4.64989">
        <ele>463.2</ele>
        <time>2018-09-02T09:20:13Z</time>
      </trkpt>
      <trkpt lat="45.71654" lon="4.64978">
        <ele>463</ele>
        <time>2018-09-02T09:20:14Z</time>
      </trkpt>
      <trkpt lat="45.71656" lon="4.64968">
        <ele>463</ele>
        <time>2018-09-02T09:20:15Z</time>
      </trkpt>
      <trkpt lat="45.71655" lon="4.64949">
        <ele>462.8</ele>
        <time>2018-09-02T09:20:17Z</time>
      </trkpt>
      <trkpt lat="45.71654" lon="4.64941">
        <ele>462.8</ele>
        <time>2018-09-02T09:20:18Z</time>
      </trkpt>
      <trkpt lat="45.71653" lon="4.64933">
        <ele>462.5</ele>
        <time>2018-09-02T09:20:19Z</time>
      </trkpt>
      <trkpt lat="45.7165" lon="4.64917">
        <ele>462.1</ele>
        <time>2018-09-02T09:20:21Z</time>
      </trkpt>
      <trkpt lat="45.71648" lon="4.64903">
        <ele>461.4</ele>
        <time>2018-09-02T09:20:23Z</time>
      </trkpt>
      <trkpt lat="45.71646" lon="4.64896">
        <ele>461.1</ele>
        <time>2018-09-02T09:20:24Z</time>
      </trkpt>
      <trkpt lat="45.71643" lon="4.64882">
        <ele>460.6</ele>
        <time>2018-09-02T09:20:26Z</time>
      </trkpt>
      <trkpt lat="45.71641" lon="4.64869">
        <ele>460.1</ele>
        <time>2018-09-02T09:20:28Z</time>
      </trkpt>
      <trkpt lat="45.71638" lon="4.64848">
        <ele>458.9</ele>
        <time>2018-09-02T09:20:31Z</time>
      </trkpt>
      <trkpt lat="45.71635" lon="4.64825">
        <ele>457.2</ele>
        <time>2018-09-02T09:20:34Z</time>
      </trkpt>
      <trkpt lat="45.7163" lon="4.64799">
        <ele>455.3</ele>
        <time>2018-09-02T09:20:37Z</time>
      </trkpt>
      <trkpt lat="45.71628" lon="4.64791">
        <ele>454.6</ele>
        <time>2018-09-02T09:20:38Z</time>
      </trkpt>
      <trkpt lat="45.71623" lon="4.64774">
        <ele>453.4</ele>
        <time>2018-09-02T09:20:40Z</time>
      </trkpt>
      <trkpt lat="45.71612" lon="4.64748">
        <ele>453.4</ele>
        <time>2018-09-02T09:20:43Z</time>
      </trkpt>
      <trkpt lat="45.71607" lon="4.64739">
        <ele>453.1</ele>
        <time>2018-09-02T09:20:44Z</time>
      </trkpt>
      <trkpt lat="45.71601" lon="4.64731">
        <ele>452.7</ele>
        <time>2018-09-02T09:20:45Z</time>
      </trkpt>
      <trkpt lat="45.71595" lon="4.64723">
        <ele>452.3</ele>
        <time>2018-09-02T09:20:46Z</time>
      </trkpt>
      <trkpt lat="45.71588" lon="4.64715">
        <ele>451.8</ele>
        <time>2018-09-02T09:20:47Z</time>
      </trkpt>
      <trkpt lat="45.71577" lon="4.64698">
        <ele>450.4</ele>
        <time>2018-09-02T09:20:49Z</time>
      </trkpt>
      <trkpt lat="45.71569" lon="4.64678">
        <ele>449.2</ele>
        <time>2018-09-02T09:20:51Z</time>
      </trkpt>
      <trkpt lat="45.71564" lon="4.64657">
        <ele>448.8</ele>
        <time>2018-09-02T09:20:53Z</time>
      </trkpt>
      <trkpt lat="45.71562" lon="4.64648">
        <ele>448.8</ele>
        <time>2018-09-02T09:20:54Z</time>
      </trkpt>
      <trkpt lat="45.71559" lon="4.64639">
        <ele>448.9</ele>
        <time>2018-09-02T09:20:55Z</time>
      </trkpt>
      <trkpt lat="45.71553" lon="4.64622">
        <ele>449.5</ele>
        <time>2018-09-02T09:20:57Z</time>
      </trkpt>
      <trkpt lat="45.71541" lon="4.64595">
        <ele>452.6</ele>
        <time>2018-09-02T09:21:00Z</time>
      </trkpt>
      <trkpt lat="45.71536" lon="4.64587">
        <ele>454.8</ele>
        <time>2018-09-02T09:21:01Z</time>
      </trkpt>
      <trkpt lat="45.71532" lon="4.64577">
        <ele>456.5</ele>
        <time>2018-09-02T09:21:02Z</time>
      </trkpt>
      <trkpt lat="45.71528" lon="4.64568">
        <ele>457.9</ele>
        <time>2018-09-02T09:21:03Z</time>
      </trkpt>
      <trkpt lat="45.71525" lon="4.64549">
        <ele>461.5</ele>
        <time>2018-09-02T09:21:05Z</time>
      </trkpt>
      <trkpt lat="45.71531" lon="4.64526">
        <ele>462.4</ele>
        <time>2018-09-02T09:21:08Z</time>
      </trkpt>
      <trkpt lat="45.71544" lon="4.64515">
        <ele>462.3</ele>
        <time>2018-09-02T09:21:12Z</time>
      </trkpt>
      <trkpt lat="45.7155" lon="4.64511">
        <ele>462.1</ele>
        <time>2018-09-02T09:21:14Z</time>
      </trkpt>
      <trkpt lat="45.71561" lon="4.64507">
        <ele>462</ele>
        <time>2018-09-02T09:21:18Z</time>
      </trkpt>
      <trkpt lat="45.71564" lon="4.64506">
        <ele>461.9</ele>
        <time>2018-09-02T09:21:20Z</time>
      </trkpt>
      <trkpt lat="45.71572" lon="4.64505">
        <ele>461.6</ele>
        <time>2018-09-02T09:21:24Z</time>
      </trkpt>
      <trkpt lat="45.71587" lon="4.64513">
        <ele>458.6</ele>
        <time>2018-09-02T09:21:31Z</time>
      </trkpt>
      <trkpt lat="45.71602" lon="4.64525">
        <ele>455.7</ele>
        <time>2018-09-02T09:21:39Z</time>
      </trkpt>
      <trkpt lat="45.71613" lon="4.64521">
        <ele>455.7</ele>
        <time>2018-09-02T09:21:45Z</time>
      </trkpt>
      <trkpt lat="45.71626" lon="4.64519">
        <ele>454.2</ele>
        <time>2018-09-02T09:21:53Z</time>
      </trkpt>
      <trkpt lat="45.71633" lon="4.64519">
        <ele>453.4</ele>
        <time>2018-09-02T09:21:57Z</time>
      </trkpt>
      <trkpt lat="45.71638" lon="4.64518">
        <ele>452.9</ele>
        <time>2018-09-02T09:22:00Z</time>
      </trkpt>
      <trkpt lat="45.71639" lon="4.64517">
        <ele>452.7</ele>
        <time>2018-09-02T09:22:01Z</time>
      </trkpt>
      <trkpt lat="45.71647" lon="4.64514">
        <ele>452.4</ele>
        <time>2018-09-02T09:22:06Z</time>
      </trkpt>
      <trkpt lat="45.71653" lon="4.64507">
        <ele>452.5</ele>
        <time>2018-09-02T09:22:11Z</time>
      </trkpt>
      <trkpt lat="45.71657" lon="4.64503">
        <ele>452.2</ele>
        <time>2018-09-02T09:22:14Z</time>
      </trkpt>
      <trkpt lat="45.71659" lon="4.64502">
        <ele>452</ele>
        <time>2018-09-02T09:22:16Z</time>
      </trkpt>
      <trkpt lat="45.71662" lon="4.645">
        <ele>452</ele>
        <time>2018-09-02T09:22:30Z</time>
      </trkpt>
      <trkpt lat="45.71664" lon="4.64495">
        <ele>452</ele>
        <time>2018-09-02T09:22:32Z</time>
      </trkpt>
      <trkpt lat="45.71674" lon="4.64481">
        <ele>452.1</ele>
        <time>2018-09-02T09:22:37Z</time>
      </trkpt>
      <trkpt lat="45.71679" lon="4.64474">
        <ele>451.7</ele>
        <time>2018-09-02T09:22:39Z</time>
      </trkpt>
      <trkpt lat="45.71688" lon="4.64455">
        <ele>451.7</ele>
        <time>2018-09-02T09:22:44Z</time>
      </trkpt>
      <trkpt lat="45.7169" lon="4.64451">
        <ele>451.7</ele>
        <time>2018-09-02T09:22:45Z</time>
      </trkpt>
      <trkpt lat="45.71697" lon="4.6443">
        <ele>450.3</ele>
        <time>2018-09-02T09:22:49Z</time>
      </trkpt>
      <trkpt lat="45.71703" lon="4.64411">
        <ele>449.3</ele>
        <time>2018-09-02T09:22:52Z</time>
      </trkpt>
      <trkpt lat="45.71707" lon="4.64396">
        <ele>448.7</ele>
        <time>2018-09-02T09:22:54Z</time>
      </trkpt>
      <trkpt lat="45.7171" lon="4.64383">
        <ele>448.2</ele>
        <time>2018-09-02T09:22:56Z</time>
      </trkpt>
      <trkpt lat="45.71713" lon="4.6437">
        <ele>447.2</ele>
        <time>2018-09-02T09:22:58Z</time>
      </trkpt>
      <trkpt lat="45.71715" lon="4.64363">
        <ele>446.3</ele>
        <time>2018-09-02T09:22:59Z</time>
      </trkpt>
      <trkpt lat="45.71716" lon="4.64356">
        <ele>446.6</ele>
        <time>2018-09-02T09:23:00Z</time>
      </trkpt>
      <trkpt lat="45.71718" lon="4.64339">
        <ele>444.7</ele>
        <time>2018-09-02T09:23:02Z</time>
      </trkpt>
      <trkpt lat="45.71717" lon="4.64329">
        <ele>443.1</ele>
        <time>2018-09-02T09:23:03Z</time>
      </trkpt>
      <trkpt lat="45.71715" lon="4.6432">
        <ele>443.6</ele>
        <time>2018-09-02T09:23:04Z</time>
      </trkpt>
      <trkpt lat="45.71712" lon="4.64311">
        <ele>442.9</ele>
        <time>2018-09-02T09:23:05Z</time>
      </trkpt>
      <trkpt lat="45.71705" lon="4.64292">
        <ele>442.5</ele>
        <time>2018-09-02T09:23:07Z</time>
      </trkpt>
      <trkpt lat="45.71699" lon="4.64246">
        <ele>439.4</ele>
        <time>2018-09-02T09:23:11Z</time>
      </trkpt>
      <trkpt lat="45.71698" lon="4.64235">
        <ele>437.6</ele>
        <time>2018-09-02T09:23:12Z</time>
      </trkpt>
      <trkpt lat="45.71689" lon="4.64204">
        <ele>432.9</ele>
        <time>2018-09-02T09:23:15Z</time>
      </trkpt>
      <trkpt lat="45.71678" lon="4.64177">
        <ele>430.6</ele>
        <time>2018-09-02T09:23:18Z</time>
      </trkpt>
      <trkpt lat="45.71669" lon="4.64148">
        <ele>430.6</ele>
        <time>2018-09-02T09:23:21Z</time>
      </trkpt>
      <trkpt lat="45.71667" lon="4.64138">
        <ele>430.9</ele>
        <time>2018-09-02T09:23:22Z</time>
      </trkpt>
      <trkpt lat="45.71666" lon="4.64113">
        <ele>430.4</ele>
        <time>2018-09-02T09:23:24Z</time>
      </trkpt>
      <trkpt lat="45.71667" lon="4.64076">
        <ele>428.5</ele>
        <time>2018-09-02T09:23:27Z</time>
      </trkpt>
      <trkpt lat="45.71664" lon="4.64025">
        <ele>428.7</ele>
        <time>2018-09-02T09:23:31Z</time>
      </trkpt>
      <trkpt lat="45.71663" lon="4.64011">
        <ele>428.7</ele>
        <time>2018-09-02T09:23:32Z</time>
      </trkpt>
      <trkpt lat="45.71664" lon="4.63988">
        <ele>426.1</ele>
        <time>2018-09-02T09:23:34Z</time>
      </trkpt>
      <trkpt lat="45.71665" lon="4.63979">
        <ele>424.4</ele>
        <time>2018-09-02T09:23:35Z</time>
      </trkpt>
      <trkpt lat="45.7167" lon="4.63964">
        <ele>421.4</ele>
        <time>2018-09-02T09:23:37Z</time>
      </trkpt>
      <trkpt lat="45.71679" lon="4.63954">
        <ele>418.6</ele>
        <time>2018-09-02T09:23:39Z</time>
      </trkpt>
      <trkpt lat="45.71692" lon="4.63948">
        <ele>414</ele>
        <time>2018-09-02T09:23:41Z</time>
      </trkpt>
      <trkpt lat="45.71704" lon="4.63938">
        <ele>410.3</ele>
        <time>2018-09-02T09:23:43Z</time>
      </trkpt>
      <trkpt lat="45.71713" lon="4.63925">
        <ele>406.9</ele>
        <time>2018-09-02T09:23:45Z</time>
      </trkpt>
      <trkpt lat="45.71719" lon="4.63912">
        <ele>404.6</ele>
        <time>2018-09-02T09:23:47Z</time>
      </trkpt>
      <trkpt lat="45.71721" lon="4.639">
        <ele>403.5</ele>
        <time>2018-09-02T09:23:49Z</time>
      </trkpt>
      <trkpt lat="45.71722" lon="4.63894">
        <ele>403.3</ele>
        <time>2018-09-02T09:23:50Z</time>
      </trkpt>
      <trkpt lat="45.71723" lon="4.63882">
        <ele>403.2</ele>
        <time>2018-09-02T09:23:52Z</time>
      </trkpt>
      <trkpt lat="45.71723" lon="4.63867">
        <ele>403.2</ele>
        <time>2018-09-02T09:23:54Z</time>
      </trkpt>
      <trkpt lat="45.71723" lon="4.6386">
        <ele>403.2</ele>
        <time>2018-09-02T09:23:55Z</time>
      </trkpt>
      <trkpt lat="45.71723" lon="4.63853">
        <ele>403.2</ele>
        <time>2018-09-02T09:23:56Z</time>
      </trkpt>
      <trkpt lat="45.71722" lon="4.63834">
        <ele>403.1</ele>
        <time>2018-09-02T09:23:59Z</time>
      </trkpt>
      <trkpt lat="45.71721" lon="4.63821">
        <ele>403</ele>
        <time>2018-09-02T09:24:01Z</time>
      </trkpt>
      <trkpt lat="45.71721" lon="4.63814">
        <ele>402.9</ele>
        <time>2018-09-02T09:24:02Z</time>
      </trkpt>
      <trkpt lat="45.71719" lon="4.63798">
        <ele>403.4</ele>
        <time>2018-09-02T09:24:04Z</time>
      </trkpt>
      <trkpt lat="45.71718" lon="4.6379">
        <ele>403.4</ele>
        <time>2018-09-02T09:24:05Z</time>
      </trkpt>
      <trkpt lat="45.71717" lon="4.63782">
        <ele>403.7</ele>
        <time>2018-09-02T09:24:06Z</time>
      </trkpt>
      <trkpt lat="45.71714" lon="4.63765">
        <ele>404.4</ele>
        <time>2018-09-02T09:24:08Z</time>
      </trkpt>
      <trkpt lat="45.7171" lon="4.63746">
        <ele>405.1</ele>
        <time>2018-09-02T09:24:10Z</time>
      </trkpt>
      <trkpt lat="45.71704" lon="4.63711">
        <ele>405.5</ele>
        <time>2018-09-02T09:24:14Z</time>
      </trkpt>
      <trkpt lat="45.71704" lon="4.63706">
        <ele>405.4</ele>
        <time>2018-09-02T09:24:15Z</time>
      </trkpt>
      <trkpt lat="45.71706" lon="4.63704">
        <ele>405.5</ele>
        <time>2018-09-02T09:24:16Z</time>
      </trkpt>
      <trkpt lat="45.7171" lon="4.63703">
        <ele>405.6</ele>
        <time>2018-09-02T09:24:18Z</time>
      </trkpt>
      <trkpt lat="45.71713" lon="4.63708">
        <ele>405.5</ele>
        <time>2018-09-02T09:24:20Z</time>
      </trkpt>
      <trkpt lat="45.71716" lon="4.63716">
        <ele>404.7</ele>
        <time>2018-09-02T09:24:22Z</time>
      </trkpt>
      <trkpt lat="45.71721" lon="4.63727">
        <ele>403.7</ele>
        <time>2018-09-02T09:24:24Z</time>
      </trkpt>
      <trkpt lat="45.71728" lon="4.63739">
        <ele>403.1</ele>
        <time>2018-09-02T09:24:26Z</time>
      </trkpt>
      <trkpt lat="45.71736" lon="4.63753">
        <ele>402.6</ele>
        <time>2018-09-02T09:24:28Z</time>
      </trkpt>
      <trkpt lat="45.71743" lon="4.63769">
        <ele>402.5</ele>
        <time>2018-09-02T09:24:30Z</time>
      </trkpt>
      <trkpt lat="45.71755" lon="4.63808">
        <ele>401.9</ele>
        <time>2018-09-02T09:24:34Z</time>
      </trkpt>
      <trkpt lat="45.71768" lon="4.63864">
        <ele>400.4</ele>
        <time>2018-09-02T09:24:39Z</time>
      </trkpt>
      <trkpt lat="45.71779" lon="4.63902">
        <ele>399</ele>
        <time>2018-09-02T09:24:43Z</time>
      </trkpt>
      <trkpt lat="45.71782" lon="4.63912">
        <ele>398.6</ele>
        <time>2018-09-02T09:24:44Z</time>
      </trkpt>
      <trkpt lat="45.71797" lon="4.63948">
        <ele>397.2</ele>
        <time>2018-09-02T09:24:48Z</time>
      </trkpt>
      <trkpt lat="45.71805" lon="4.63965">
        <ele>396.4</ele>
        <time>2018-09-02T09:24:50Z</time>
      </trkpt>
      <trkpt lat="45.71812" lon="4.63978">
        <ele>395.6</ele>
        <time>2018-09-02T09:24:52Z</time>
      </trkpt>
      <trkpt lat="45.71814" lon="4.63979">
        <ele>395.4</ele>
        <time>2018-09-02T09:24:53Z</time>
      </trkpt>
      <trkpt lat="45.71819" lon="4.63979">
        <ele>395.2</ele>
        <time>2018-09-02T09:25:02Z</time>
      </trkpt>
      <trkpt lat="45.71822" lon="4.63976">
        <ele>395.1</ele>
        <time>2018-09-02T09:25:03Z</time>
      </trkpt>
      <trkpt lat="45.71829" lon="4.6397">
        <ele>395</ele>
        <time>2018-09-02T09:25:05Z</time>
      </trkpt>
      <trkpt lat="45.7184" lon="4.63962">
        <ele>391.3</ele>
        <time>2018-09-02T09:25:08Z</time>
      </trkpt>
      <trkpt lat="45.71848" lon="4.63957">
        <ele>388</ele>
        <time>2018-09-02T09:25:10Z</time>
      </trkpt>
      <trkpt lat="45.71857" lon="4.63951">
        <ele>384.9</ele>
        <time>2018-09-02T09:25:12Z</time>
      </trkpt>
      <trkpt lat="45.71866" lon="4.63946">
        <ele>382</ele>
        <time>2018-09-02T09:25:14Z</time>
      </trkpt>
      <trkpt lat="45.71879" lon="4.63942">
        <ele>377.8</ele>
        <time>2018-09-02T09:25:17Z</time>
      </trkpt>
      <trkpt lat="45.71891" lon="4.63945">
        <ele>374.9</ele>
        <time>2018-09-02T09:25:20Z</time>
      </trkpt>
      <trkpt lat="45.719" lon="4.63954">
        <ele>374.6</ele>
        <time>2018-09-02T09:25:23Z</time>
      </trkpt>
      <trkpt lat="45.71903" lon="4.63958">
        <ele>374.5</ele>
        <time>2018-09-02T09:25:24Z</time>
      </trkpt>
      <trkpt lat="45.71909" lon="4.63965">
        <ele>374.3</ele>
        <time>2018-09-02T09:25:26Z</time>
      </trkpt>
      <trkpt lat="45.71928" lon="4.63984">
        <ele>374.1</ele>
        <time>2018-09-02T09:25:31Z</time>
      </trkpt>
      <trkpt lat="45.71936" lon="4.63992">
        <ele>374.1</ele>
        <time>2018-09-02T09:25:33Z</time>
      </trkpt>
      <trkpt lat="45.71957" lon="4.64017">
        <ele>374</ele>
        <time>2018-09-02T09:25:39Z</time>
      </trkpt>
      <trkpt lat="45.71968" lon="4.64032">
        <ele>373.9</ele>
        <time>2018-09-02T09:25:42Z</time>
      </trkpt>
      <trkpt lat="45.71976" lon="4.64052">
        <ele>373.7</ele>
        <time>2018-09-02T09:25:45Z</time>
      </trkpt>
      <trkpt lat="45.71981" lon="4.64066">
        <ele>373.4</ele>
        <time>2018-09-02T09:25:47Z</time>
      </trkpt>
      <trkpt lat="45.71983" lon="4.64073">
        <ele>373.2</ele>
        <time>2018-09-02T09:25:48Z</time>
      </trkpt>
      <trkpt lat="45.71984" lon="4.64081">
        <ele>373</ele>
        <time>2018-09-02T09:25:49Z</time>
      </trkpt>
      <trkpt lat="45.71986" lon="4.64088">
        <ele>372.8</ele>
        <time>2018-09-02T09:25:50Z</time>
      </trkpt>
      <trkpt lat="45.71987" lon="4.64096">
        <ele>372.7</ele>
        <time>2018-09-02T09:25:51Z</time>
      </trkpt>
      <trkpt lat="45.71988" lon="4.64112">
        <ele>372.4</ele>
        <time>2018-09-02T09:25:53Z</time>
      </trkpt>
      <trkpt lat="45.71991" lon="4.64146">
        <ele>371.8</ele>
        <time>2018-09-02T09:25:57Z</time>
      </trkpt>
      <trkpt lat="45.71993" lon="4.64163">
        <ele>371.4</ele>
        <time>2018-09-02T09:25:59Z</time>
      </trkpt>
      <trkpt lat="45.71994" lon="4.64182">
        <ele>371</ele>
        <time>2018-09-02T09:26:01Z</time>
      </trkpt>
      <trkpt lat="45.71994" lon="4.642">
        <ele>370</ele>
        <time>2018-09-02T09:26:03Z</time>
      </trkpt>
      <trkpt lat="45.71995" lon="4.6422">
        <ele>369.1</ele>
        <time>2018-09-02T09:26:05Z</time>
      </trkpt>
      <trkpt lat="45.71995" lon="4.64229">
        <ele>368.7</ele>
        <time>2018-09-02T09:26:06Z</time>
      </trkpt>
      <trkpt lat="45.71996" lon="4.64248">
        <ele>368.3</ele>
        <time>2018-09-02T09:26:08Z</time>
      </trkpt>
      <trkpt lat="45.71997" lon="4.64266">
        <ele>367.9</ele>
        <time>2018-09-02T09:26:10Z</time>
      </trkpt>
      <trkpt lat="45.71998" lon="4.64285">
        <ele>367.6</ele>
        <time>2018-09-02T09:26:12Z</time>
      </trkpt>
      <trkpt lat="45.72" lon="4.64313">
        <ele>367.2</ele>
        <time>2018-09-02T09:26:15Z</time>
      </trkpt>
      <trkpt lat="45.72002" lon="4.64341">
        <ele>366.8</ele>
        <time>2018-09-02T09:26:18Z</time>
      </trkpt>
      <trkpt lat="45.72005" lon="4.64366">
        <ele>366.3</ele>
        <time>2018-09-02T09:26:21Z</time>
      </trkpt>
      <trkpt lat="45.72007" lon="4.64375">
        <ele>366.2</ele>
        <time>2018-09-02T09:26:22Z</time>
      </trkpt>
      <trkpt lat="45.72012" lon="4.64398">
        <ele>365.5</ele>
        <time>2018-09-02T09:26:25Z</time>
      </trkpt>
      <trkpt lat="45.72016" lon="4.64412">
        <ele>365</ele>
        <time>2018-09-02T09:26:27Z</time>
      </trkpt>
      <trkpt lat="45.72019" lon="4.64419">
        <ele>364.8</ele>
        <time>2018-09-02T09:26:28Z</time>
      </trkpt>
      <trkpt lat="45.72031" lon="4.64445">
        <ele>364.1</ele>
        <time>2018-09-02T09:26:32Z</time>
      </trkpt>
      <trkpt lat="45.72037" lon="4.64459">
        <ele>363.9</ele>
        <time>2018-09-02T09:26:34Z</time>
      </trkpt>
      <trkpt lat="45.72058" lon="4.64502">
        <ele>364.4</ele>
        <time>2018-09-02T09:26:40Z</time>
      </trkpt>
      <trkpt lat="45.72065" lon="4.64518">
        <ele>365.4</ele>
        <time>2018-09-02T09:26:42Z</time>
      </trkpt>
      <trkpt lat="45.72072" lon="4.64534">
        <ele>366.2</ele>
        <time>2018-09-02T09:26:44Z</time>
      </trkpt>
      <trkpt lat="45.72088" lon="4.64572">
        <ele>368.2</ele>
        <time>2018-09-02T09:26:49Z</time>
      </trkpt>
      <trkpt lat="45.7211" lon="4.64621">
        <ele>370.5</ele>
        <time>2018-09-02T09:26:55Z</time>
      </trkpt>
      <trkpt lat="45.72128" lon="4.64656">
        <ele>371.9</ele>
        <time>2018-09-02T09:26:59Z</time>
      </trkpt>
      <trkpt lat="45.72131" lon="4.64665">
        <ele>372.2</ele>
        <time>2018-09-02T09:27:00Z</time>
      </trkpt>
      <trkpt lat="45.72153" lon="4.64723">
        <ele>373.2</ele>
        <time>2018-09-02T09:27:06Z</time>
      </trkpt>
      <trkpt lat="45.72166" lon="4.64764">
        <ele>374.2</ele>
        <time>2018-09-02T09:27:10Z</time>
      </trkpt>
      <trkpt lat="45.72172" lon="4.64784">
        <ele>374.6</ele>
        <time>2018-09-02T09:27:12Z</time>
      </trkpt>
      <trkpt lat="45.72179" lon="4.64803">
        <ele>374.7</ele>
        <time>2018-09-02T09:27:14Z</time>
      </trkpt>
      <trkpt lat="45.72192" lon="4.6485">
        <ele>374.9</ele>
        <time>2018-09-02T09:27:19Z</time>
      </trkpt>
      <trkpt lat="45.72207" lon="4.64895">
        <ele>374.9</ele>
        <time>2018-09-02T09:27:24Z</time>
      </trkpt>
      <trkpt lat="45.72211" lon="4.64902">
        <ele>374.9</ele>
        <time>2018-09-02T09:27:25Z</time>
      </trkpt>
      <trkpt lat="45.72227" lon="4.64931">
        <ele>374.2</ele>
        <time>2018-09-02T09:27:30Z</time>
      </trkpt>
      <trkpt lat="45.72233" lon="4.6494">
        <ele>373.9</ele>
        <time>2018-09-02T09:27:32Z</time>
      </trkpt>
      <trkpt lat="45.72243" lon="4.64953">
        <ele>373.5</ele>
        <time>2018-09-02T09:27:35Z</time>
      </trkpt>
      <trkpt lat="45.72246" lon="4.64956">
        <ele>373.4</ele>
        <time>2018-09-02T09:27:36Z</time>
      </trkpt>
      <trkpt lat="45.72254" lon="4.64964">
        <ele>373.1</ele>
        <time>2018-09-02T09:27:39Z</time>
      </trkpt>
      <trkpt lat="45.72257" lon="4.64969">
        <ele>372.9</ele>
        <time>2018-09-02T09:27:41Z</time>
      </trkpt>
      <trkpt lat="45.72261" lon="4.64968">
        <ele>372.8</ele>
        <time>2018-09-02T09:27:43Z</time>
      </trkpt>
      <trkpt lat="45.72263" lon="4.64968">
        <ele>372.7</ele>
        <time>2018-09-02T09:27:45Z</time>
      </trkpt>
      <trkpt lat="45.72273" lon="4.64969">
        <ele>372.3</ele>
        <time>2018-09-02T09:27:50Z</time>
      </trkpt>
      <trkpt lat="45.72296" lon="4.64967">
        <ele>371.7</ele>
        <time>2018-09-02T09:27:57Z</time>
      </trkpt>
      <trkpt lat="45.72319" lon="4.64959">
        <ele>371.5</ele>
        <time>2018-09-02T09:28:03Z</time>
      </trkpt>
      <trkpt lat="45.72323" lon="4.64957">
        <ele>371.6</ele>
        <time>2018-09-02T09:28:04Z</time>
      </trkpt>
      <trkpt lat="45.72347" lon="4.64953">
        <ele>372</ele>
        <time>2018-09-02T09:28:09Z</time>
      </trkpt>
      <trkpt lat="45.72358" lon="4.64958">
        <ele>372.4</ele>
        <time>2018-09-02T09:28:11Z</time>
      </trkpt>
      <trkpt lat="45.72367" lon="4.64967">
        <ele>372.7</ele>
        <time>2018-09-02T09:28:13Z</time>
      </trkpt>
      <trkpt lat="45.72373" lon="4.64989">
        <ele>373.2</ele>
        <time>2018-09-02T09:28:16Z</time>
      </trkpt>
      <trkpt lat="45.72373" lon="4.65003">
        <ele>373.4</ele>
        <time>2018-09-02T09:28:18Z</time>
      </trkpt>
      <trkpt lat="45.72372" lon="4.65024">
        <ele>373.6</ele>
        <time>2018-09-02T09:28:21Z</time>
      </trkpt>
      <trkpt lat="45.72371" lon="4.65049">
        <ele>374.1</ele>
        <time>2018-09-02T09:28:25Z</time>
      </trkpt>
      <trkpt lat="45.72371" lon="4.65068">
        <ele>374.6</ele>
        <time>2018-09-02T09:28:28Z</time>
      </trkpt>
      <trkpt lat="45.72372" lon="4.65115">
        <ele>375.6</ele>
        <time>2018-09-02T09:28:36Z</time>
      </trkpt>
      <trkpt lat="45.72374" lon="4.65148">
        <ele>376.3</ele>
        <time>2018-09-02T09:28:43Z</time>
      </trkpt>
      <trkpt lat="45.72378" lon="4.65176">
        <ele>377</ele>
        <time>2018-09-02T09:28:49Z</time>
      </trkpt>
      <trkpt lat="45.72379" lon="4.65182">
        <ele>377.1</ele>
        <time>2018-09-02T09:28:50Z</time>
      </trkpt>
      <trkpt lat="45.72386" lon="4.65215">
        <ele>378.2</ele>
        <time>2018-09-02T09:28:56Z</time>
      </trkpt>
      <trkpt lat="45.7239" lon="4.65229">
        <ele>378.6</ele>
        <time>2018-09-02T09:28:59Z</time>
      </trkpt>
      <trkpt lat="45.72396" lon="4.65249">
        <ele>379.3</ele>
        <time>2018-09-02T09:29:03Z</time>
      </trkpt>
      <trkpt lat="45.72402" lon="4.65264">
        <ele>379.7</ele>
        <time>2018-09-02T09:29:06Z</time>
      </trkpt>
      <trkpt lat="45.72417" lon="4.65293">
        <ele>380.1</ele>
        <time>2018-09-02T09:29:12Z</time>
      </trkpt>
      <trkpt lat="45.72441" lon="4.65322">
        <ele>380.4</ele>
        <time>2018-09-02T09:29:19Z</time>
      </trkpt>
      <trkpt lat="45.72464" lon="4.65337">
        <ele>380.4</ele>
        <time>2018-09-02T09:29:25Z</time>
      </trkpt>
      <trkpt lat="45.72468" lon="4.65339">
        <ele>380.4</ele>
        <time>2018-09-02T09:29:26Z</time>
      </trkpt>
      <trkpt lat="45.72491" lon="4.65352">
        <ele>380.4</ele>
        <time>2018-09-02T09:29:32Z</time>
      </trkpt>
      <trkpt lat="45.72514" lon="4.65369">
        <ele>380.1</ele>
        <time>2018-09-02T09:29:38Z</time>
      </trkpt>
      <trkpt lat="45.72552" lon="4.65395">
        <ele>379</ele>
        <time>2018-09-02T09:29:46Z</time>
      </trkpt>
      <trkpt lat="45.72578" lon="4.65409">
        <ele>379</ele>
        <time>2018-09-02T09:29:51Z</time>
      </trkpt>
      <trkpt lat="45.72595" lon="4.65416">
        <ele>379.6</ele>
        <time>2018-09-02T09:29:54Z</time>
      </trkpt>
      <trkpt lat="45.72607" lon="4.65423">
        <ele>380.2</ele>
        <time>2018-09-02T09:29:56Z</time>
      </trkpt>
      <trkpt lat="45.7262" lon="4.65438">
        <ele>381.4</ele>
        <time>2018-09-02T09:29:59Z</time>
      </trkpt>
      <trkpt lat="45.72623" lon="4.65444">
        <ele>381.7</ele>
        <time>2018-09-02T09:30:00Z</time>
      </trkpt>
      <trkpt lat="45.7263" lon="4.65465">
        <ele>382.6</ele>
        <time>2018-09-02T09:30:03Z</time>
      </trkpt>
      <trkpt lat="45.72638" lon="4.65491">
        <ele>383.3</ele>
        <time>2018-09-02T09:30:07Z</time>
      </trkpt>
      <trkpt lat="45.72643" lon="4.65502">
        <ele>383.6</ele>
        <time>2018-09-02T09:30:09Z</time>
      </trkpt>
      <trkpt lat="45.72663" lon="4.65531">
        <ele>384.2</ele>
        <time>2018-09-02T09:30:14Z</time>
      </trkpt>
      <trkpt lat="45.72668" lon="4.65536">
        <ele>384.3</ele>
        <time>2018-09-02T09:30:15Z</time>
      </trkpt>
      <trkpt lat="45.72686" lon="4.6555">
        <ele>384.8</ele>
        <time>2018-09-02T09:30:18Z</time>
      </trkpt>
      <trkpt lat="45.72703" lon="4.65564">
        <ele>384.6</ele>
        <time>2018-09-02T09:30:22Z</time>
      </trkpt>
      <trkpt lat="45.72725" lon="4.65578">
        <ele>383.9</ele>
        <time>2018-09-02T09:30:28Z</time>
      </trkpt>
      <trkpt lat="45.72737" lon="4.65588">
        <ele>383.5</ele>
        <time>2018-09-02T09:30:31Z</time>
      </trkpt>
      <trkpt lat="45.72756" lon="4.65603">
        <ele>383</ele>
        <time>2018-09-02T09:30:35Z</time>
      </trkpt>
      <trkpt lat="45.72762" lon="4.65608">
        <ele>383</ele>
        <time>2018-09-02T09:30:36Z</time>
      </trkpt>
      <trkpt lat="45.72789" lon="4.65631">
        <ele>382.3</ele>
        <time>2018-09-02T09:30:41Z</time>
      </trkpt>
      <trkpt lat="45.728" lon="4.6564">
        <ele>382.3</ele>
        <time>2018-09-02T09:30:43Z</time>
      </trkpt>
      <trkpt lat="45.72806" lon="4.65645">
        <ele>382.4</ele>
        <time>2018-09-02T09:30:44Z</time>
      </trkpt>
      <trkpt lat="45.72823" lon="4.6566">
        <ele>382.9</ele>
        <time>2018-09-02T09:30:47Z</time>
      </trkpt>
      <trkpt lat="45.72841" lon="4.65673">
        <ele>380.9</ele>
        <time>2018-09-02T09:30:50Z</time>
      </trkpt>
      <trkpt lat="45.72854" lon="4.65681">
        <ele>379.5</ele>
        <time>2018-09-02T09:30:52Z</time>
      </trkpt>
      <trkpt lat="45.7286" lon="4.65685">
        <ele>378.9</ele>
        <time>2018-09-02T09:30:53Z</time>
      </trkpt>
      <trkpt lat="45.72874" lon="4.65696">
        <ele>377</ele>
        <time>2018-09-02T09:30:56Z</time>
      </trkpt>
      <trkpt lat="45.72875" lon="4.65699">
        <ele>377</ele>
        <time>2018-09-02T09:30:57Z</time>
      </trkpt>
      <trkpt lat="45.72875" lon="4.65702">
        <ele>377</ele>
        <time>2018-09-02T09:30:58Z</time>
      </trkpt>
      <trkpt lat="45.72872" lon="4.65709">
        <ele>377</ele>
        <time>2018-09-02T09:31:00Z</time>
      </trkpt>
      <trkpt lat="45.7287" lon="4.65713">
        <ele>377</ele>
        <time>2018-09-02T09:31:01Z</time>
      </trkpt>
      <trkpt lat="45.72866" lon="4.65722">
        <ele>377</ele>
        <time>2018-09-02T09:31:04Z</time>
      </trkpt>
      <trkpt lat="45.72866" lon="4.65725">
        <ele>377</ele>
        <time>2018-09-02T09:31:05Z</time>
      </trkpt>
      <trkpt lat="45.72867" lon="4.65729">
        <ele>377</ele>
        <time>2018-09-02T09:31:06Z</time>
      </trkpt>
      <trkpt lat="45.72868" lon="4.65732">
        <ele>377</ele>
        <time>2018-09-02T09:31:07Z</time>
      </trkpt>
      <trkpt lat="45.72872" lon="4.65741">
        <ele>376.9</ele>
        <time>2018-09-02T09:31:09Z</time>
      </trkpt>
      <trkpt lat="45.72874" lon="4.65745">
        <ele>376.8</ele>
        <time>2018-09-02T09:31:10Z</time>
      </trkpt>
      <trkpt lat="45.72876" lon="4.65749">
        <ele>376.6</ele>
        <time>2018-09-02T09:31:11Z</time>
      </trkpt>
      <trkpt lat="45.72882" lon="4.65757">
        <ele>376.1</ele>
        <time>2018-09-02T09:31:15Z</time>
      </trkpt>
      <trkpt lat="45.72884" lon="4.65766">
        <ele>375.6</ele>
        <time>2018-09-02T09:31:25Z</time>
      </trkpt>
      <trkpt lat="45.72886" lon="4.65767">
        <ele>375.2</ele>
        <time>2018-09-02T09:37:58Z</time>
      </trkpt>
      <trkpt lat="45.72888" lon="4.65772">
        <ele>374.7</ele>
        <time>2018-09-02T09:38:02Z</time>
      </trkpt>
      <trkpt lat="45.72892" lon="4.65779">
        <ele>373.9</ele>
        <time>2018-09-02T09:38:06Z</time>
      </trkpt>
      <trkpt lat="45.72895" lon="4.65783">
        <ele>373.4</ele>
        <time>2018-09-02T09:38:08Z</time>
      </trkpt>
      <trkpt lat="45.72901" lon="4.65794">
        <ele>371.9</ele>
        <time>2018-09-02T09:38:11Z</time>
      </trkpt>
      <trkpt lat="45.72906" lon="4.65802">
        <ele>370.2</ele>
        <time>2018-09-02T09:38:13Z</time>
      </trkpt>
      <trkpt lat="45.72919" lon="4.65828">
        <ele>365.4</ele>
        <time>2018-09-02T09:38:19Z</time>
      </trkpt>
      <trkpt lat="45.72927" lon="4.65845">
        <ele>362.8</ele>
        <time>2018-09-02T09:38:23Z</time>
      </trkpt>
      <trkpt lat="45.72931" lon="4.6585">
        <ele>362.2</ele>
        <time>2018-09-02T09:38:24Z</time>
      </trkpt>
      <trkpt lat="45.72937" lon="4.65861">
        <ele>361.1</ele>
        <time>2018-09-02T09:38:26Z</time>
      </trkpt>
      <trkpt lat="45.72948" lon="4.6588">
        <ele>358.8</ele>
        <time>2018-09-02T09:38:29Z</time>
      </trkpt>
      <trkpt lat="45.72955" lon="4.65894">
        <ele>357.5</ele>
        <time>2018-09-02T09:38:31Z</time>
      </trkpt>
      <trkpt lat="45.72963" lon="4.65907">
        <ele>356</ele>
        <time>2018-09-02T09:38:33Z</time>
      </trkpt>
      <trkpt lat="45.7297" lon="4.6592">
        <ele>354.9</ele>
        <time>2018-09-02T09:38:35Z</time>
      </trkpt>
      <trkpt lat="45.72974" lon="4.65926">
        <ele>354.5</ele>
        <time>2018-09-02T09:38:36Z</time>
      </trkpt>
      <trkpt lat="45.72981" lon="4.65939">
        <ele>353.5</ele>
        <time>2018-09-02T09:38:38Z</time>
      </trkpt>
      <trkpt lat="45.72985" lon="4.65945">
        <ele>353.2</ele>
        <time>2018-09-02T09:38:39Z</time>
      </trkpt>
      <trkpt lat="45.72989" lon="4.65948">
        <ele>352.9</ele>
        <time>2018-09-02T09:38:40Z</time>
      </trkpt>
      <trkpt lat="45.72993" lon="4.6595">
        <ele>352.8</ele>
        <time>2018-09-02T09:38:41Z</time>
      </trkpt>
      <trkpt lat="45.73004" lon="4.65955">
        <ele>352.5</ele>
        <time>2018-09-02T09:38:43Z</time>
      </trkpt>
      <trkpt lat="45.73015" lon="4.65963">
        <ele>352.5</ele>
        <time>2018-09-02T09:38:45Z</time>
      </trkpt>
      <trkpt lat="45.73021" lon="4.65968">
        <ele>352.6</ele>
        <time>2018-09-02T09:38:46Z</time>
      </trkpt>
      <trkpt lat="45.73025" lon="4.65973">
        <ele>352.6</ele>
        <time>2018-09-02T09:38:47Z</time>
      </trkpt>
      <trkpt lat="45.73031" lon="4.65979">
        <ele>352.5</ele>
        <time>2018-09-02T09:38:49Z</time>
      </trkpt>
      <trkpt lat="45.73036" lon="4.65984">
        <ele>352.5</ele>
        <time>2018-09-02T09:38:51Z</time>
      </trkpt>
      <trkpt lat="45.73038" lon="4.65988">
        <ele>352.4</ele>
        <time>2018-09-02T09:38:53Z</time>
      </trkpt>
      <trkpt lat="45.73038" lon="4.65992">
        <ele>352.4</ele>
        <time>2018-09-02T09:38:55Z</time>
      </trkpt>
      <trkpt lat="45.73039" lon="4.65997">
        <ele>352.3</ele>
        <time>2018-09-02T09:38:58Z</time>
      </trkpt>
      <trkpt lat="45.73039" lon="4.65998">
        <ele>352.3</ele>
        <time>2018-09-02T09:38:59Z</time>
      </trkpt>
      <trkpt lat="45.73039" lon="4.66001">
        <ele>352.3</ele>
        <time>2018-09-02T09:39:01Z</time>
      </trkpt>
      <trkpt lat="45.73039" lon="4.66007">
        <ele>352.2</ele>
        <time>2018-09-02T09:39:04Z</time>
      </trkpt>
      <trkpt lat="45.73039" lon="4.66009">
        <ele>352.2</ele>
        <time>2018-09-02T09:39:05Z</time>
      </trkpt>
      <trkpt lat="45.73039" lon="4.66028">
        <ele>352</ele>
        <time>2018-09-02T09:39:11Z</time>
      </trkpt>
      <trkpt lat="45.73032" lon="4.66044">
        <ele>351.9</ele>
        <time>2018-09-02T09:39:18Z</time>
      </trkpt>
      <trkpt lat="45.73032" lon="4.66048">
        <ele>351.9</ele>
        <time>2018-09-02T09:39:20Z</time>
      </trkpt>
      <trkpt lat="45.73029" lon="4.66056">
        <ele>351.8</ele>
        <time>2018-09-02T09:39:24Z</time>
      </trkpt>
      <trkpt lat="45.73024" lon="4.66071">
        <ele>351.6</ele>
        <time>2018-09-02T09:39:31Z</time>
      </trkpt>
      <trkpt lat="45.73017" lon="4.66092">
        <ele>351.7</ele>
        <time>2018-09-02T09:39:40Z</time>
      </trkpt>
      <trkpt lat="45.73011" lon="4.66108">
        <ele>351.8</ele>
        <time>2018-09-02T09:39:48Z</time>
      </trkpt>
      <trkpt lat="45.73005" lon="4.66132">
        <ele>351.9</ele>
        <time>2018-09-02T09:39:55Z</time>
      </trkpt>
      <trkpt lat="45.72998" lon="4.66165">
        <ele>352.6</ele>
        <time>2018-09-02T09:40:03Z</time>
      </trkpt>
      <trkpt lat="45.72993" lon="4.6619">
        <ele>353.1</ele>
        <time>2018-09-02T09:40:11Z</time>
      </trkpt>
      <trkpt lat="45.72992" lon="4.662">
        <ele>353.6</ele>
        <time>2018-09-02T09:40:16Z</time>
      </trkpt>
      <trkpt lat="45.72991" lon="4.66204">
        <ele>353.8</ele>
        <time>2018-09-02T09:40:18Z</time>
      </trkpt>
      <trkpt lat="45.72992" lon="4.66208">
        <ele>354.1</ele>
        <time>2018-09-02T09:40:20Z</time>
      </trkpt>
      <trkpt lat="45.72992" lon="4.66214">
        <ele>354.3</ele>
        <time>2018-09-02T09:40:23Z</time>
      </trkpt>
      <trkpt lat="45.72992" lon="4.66218">
        <ele>354.6</ele>
        <time>2018-09-02T09:40:25Z</time>
      </trkpt>
      <trkpt lat="45.72993" lon="4.66221">
        <ele>354.8</ele>
        <time>2018-09-02T09:40:27Z</time>
      </trkpt>
      <trkpt lat="45.72993" lon="4.66236">
        <ele>355.7</ele>
        <time>2018-09-02T09:40:34Z</time>
      </trkpt>
      <trkpt lat="45.72994" lon="4.6625">
        <ele>356.9</ele>
        <time>2018-09-02T09:40:41Z</time>
      </trkpt>
      <trkpt lat="45.72994" lon="4.66255">
        <ele>357.5</ele>
        <time>2018-09-02T09:40:43Z</time>
      </trkpt>
      <trkpt lat="45.72994" lon="4.66259">
        <ele>357.4</ele>
        <time>2018-09-02T09:40:45Z</time>
      </trkpt>
      <trkpt lat="45.72994" lon="4.66267">
        <ele>357.9</ele>
        <time>2018-09-02T09:40:49Z</time>
      </trkpt>
      <trkpt lat="45.72994" lon="4.66271">
        <ele>358.4</ele>
        <time>2018-09-02T09:40:51Z</time>
      </trkpt>
      <trkpt lat="45.72994" lon="4.66278">
        <ele>358.5</ele>
        <time>2018-09-02T09:40:54Z</time>
      </trkpt>
      <trkpt lat="45.72994" lon="4.66288">
        <ele>359</ele>
        <time>2018-09-02T09:40:59Z</time>
      </trkpt>
      <trkpt lat="45.72991" lon="4.66298">
        <ele>359</ele>
        <time>2018-09-02T09:41:05Z</time>
      </trkpt>
      <trkpt lat="45.7299" lon="4.663">
        <ele>358.6</ele>
        <time>2018-09-02T09:41:07Z</time>
      </trkpt>
      <trkpt lat="45.7299" lon="4.66302">
        <ele>358.8</ele>
        <time>2018-09-02T09:41:08Z</time>
      </trkpt>
      <trkpt lat="45.72989" lon="4.66307">
        <ele>358.9</ele>
        <time>2018-09-02T09:41:11Z</time>
      </trkpt>
      <trkpt lat="45.72991" lon="4.66311">
        <ele>359</ele>
        <time>2018-09-02T09:41:13Z</time>
      </trkpt>
      <trkpt lat="45.72992" lon="4.66312">
        <ele>359.3</ele>
        <time>2018-09-02T09:41:14Z</time>
      </trkpt>
      <trkpt lat="45.72995" lon="4.66317">
        <ele>359.9</ele>
        <time>2018-09-02T09:41:17Z</time>
      </trkpt>
      <trkpt lat="45.73" lon="4.66321">
        <ele>360.2</ele>
        <time>2018-09-02T09:41:22Z</time>
      </trkpt>
      <trkpt lat="45.73002" lon="4.66322">
        <ele>360.2</ele>
        <time>2018-09-02T09:41:23Z</time>
      </trkpt>
      <trkpt lat="45.73003" lon="4.66325">
        <ele>360.4</ele>
        <time>2018-09-02T09:41:25Z</time>
      </trkpt>
      <trkpt lat="45.73004" lon="4.66334">
        <ele>360.7</ele>
        <time>2018-09-02T09:41:29Z</time>
      </trkpt>
      <trkpt lat="45.73003" lon="4.66346">
        <ele>361.1</ele>
        <time>2018-09-02T09:41:33Z</time>
      </trkpt>
      <trkpt lat="45.73002" lon="4.66357">
        <ele>361.5</ele>
        <time>2018-09-02T09:41:37Z</time>
      </trkpt>
      <trkpt lat="45.73002" lon="4.66374">
        <ele>362.1</ele>
        <time>2018-09-02T09:41:42Z</time>
      </trkpt>
      <trkpt lat="45.73003" lon="4.66378">
        <ele>362.3</ele>
        <time>2018-09-02T09:41:43Z</time>
      </trkpt>
      <trkpt lat="45.73007" lon="4.66409">
        <ele>362.5</ele>
        <time>2018-09-02T09:41:49Z</time>
      </trkpt>
      <trkpt lat="45.73011" lon="4.66434">
        <ele>361.7</ele>
        <time>2018-09-02T09:41:53Z</time>
      </trkpt>
      <trkpt lat="45.73015" lon="4.6646">
        <ele>361.1</ele>
        <time>2018-09-02T09:41:57Z</time>
      </trkpt>
      <trkpt lat="45.73022" lon="4.66519">
        <ele>360</ele>
        <time>2018-09-02T09:42:06Z</time>
      </trkpt>
      <trkpt lat="45.73029" lon="4.6657">
        <ele>360</ele>
        <time>2018-09-02T09:42:14Z</time>
      </trkpt>
      <trkpt lat="45.73033" lon="4.66601">
        <ele>360</ele>
        <time>2018-09-02T09:42:19Z</time>
      </trkpt>
      <trkpt lat="45.73035" lon="4.66614">
        <ele>360.7</ele>
        <time>2018-09-02T09:42:21Z</time>
      </trkpt>
      <trkpt lat="45.73044" lon="4.66659">
        <ele>361</ele>
        <time>2018-09-02T09:42:28Z</time>
      </trkpt>
      <trkpt lat="45.7306" lon="4.66698">
        <ele>363</ele>
        <time>2018-09-02T09:42:34Z</time>
      </trkpt>
      <trkpt lat="45.73079" lon="4.66737">
        <ele>366.1</ele>
        <time>2018-09-02T09:42:41Z</time>
      </trkpt>
      <trkpt lat="45.731" lon="4.66777">
        <ele>366.3</ele>
        <time>2018-09-02T09:42:47Z</time>
      </trkpt>
      <trkpt lat="45.73117" lon="4.6681">
        <ele>365.6</ele>
        <time>2018-09-02T09:42:51Z</time>
      </trkpt>
      <trkpt lat="45.73129" lon="4.66836">
        <ele>365.1</ele>
        <time>2018-09-02T09:42:54Z</time>
      </trkpt>
      <trkpt lat="45.73152" lon="4.66882">
        <ele>364.2</ele>
        <time>2018-09-02T09:43:00Z</time>
      </trkpt>
      <trkpt lat="45.73175" lon="4.66931">
        <ele>363.3</ele>
        <time>2018-09-02T09:43:07Z</time>
      </trkpt>
      <trkpt lat="45.73177" lon="4.66937">
        <ele>363.2</ele>
        <time>2018-09-02T09:43:08Z</time>
      </trkpt>
      <trkpt lat="45.73177" lon="4.66949">
        <ele>362</ele>
        <time>2018-09-02T09:43:10Z</time>
      </trkpt>
      <trkpt lat="45.73169" lon="4.66956">
        <ele>360.7</ele>
        <time>2018-09-02T09:43:12Z</time>
      </trkpt>
      <trkpt lat="45.73165" lon="4.66959">
        <ele>360</ele>
        <time>2018-09-02T09:43:13Z</time>
      </trkpt>
      <trkpt lat="45.73146" lon="4.66971">
        <ele>356.5</ele>
        <time>2018-09-02T09:43:17Z</time>
      </trkpt>
      <trkpt lat="45.73142" lon="4.66974">
        <ele>356</ele>
        <time>2018-09-02T09:43:18Z</time>
      </trkpt>
      <trkpt lat="45.73114" lon="4.66996">
        <ele>351.4</ele>
        <time>2018-09-02T09:43:24Z</time>
      </trkpt>
      <trkpt lat="45.73095" lon="4.67011">
        <ele>346.8</ele>
        <time>2018-09-02T09:43:27Z</time>
      </trkpt>
      <trkpt lat="45.73088" lon="4.67017">
        <ele>345.4</ele>
        <time>2018-09-02T09:43:28Z</time>
      </trkpt>
      <trkpt lat="45.73073" lon="4.67032">
        <ele>343.4</ele>
        <time>2018-09-02T09:43:30Z</time>
      </trkpt>
      <trkpt lat="45.73056" lon="4.67048">
        <ele>342</ele>
        <time>2018-09-02T09:43:32Z</time>
      </trkpt>
      <trkpt lat="45.7304" lon="4.67063">
        <ele>341.2</ele>
        <time>2018-09-02T09:43:34Z</time>
      </trkpt>
      <trkpt lat="45.73025" lon="4.67077">
        <ele>340.5</ele>
        <time>2018-09-02T09:43:36Z</time>
      </trkpt>
      <trkpt lat="45.73018" lon="4.67083">
        <ele>339.8</ele>
        <time>2018-09-02T09:43:37Z</time>
      </trkpt>
      <trkpt lat="45.73011" lon="4.6709">
        <ele>339.3</ele>
        <time>2018-09-02T09:43:38Z</time>
      </trkpt>
      <trkpt lat="45.72998" lon="4.67106">
        <ele>338.5</ele>
        <time>2018-09-02T09:43:40Z</time>
      </trkpt>
      <trkpt lat="45.72992" lon="4.67115">
        <ele>338</ele>
        <time>2018-09-02T09:43:41Z</time>
      </trkpt>
      <trkpt lat="45.72986" lon="4.67125">
        <ele>337.5</ele>
        <time>2018-09-02T09:43:42Z</time>
      </trkpt>
      <trkpt lat="45.72976" lon="4.67146">
        <ele>336.7</ele>
        <time>2018-09-02T09:43:44Z</time>
      </trkpt>
      <trkpt lat="45.72966" lon="4.67166">
        <ele>335.9</ele>
        <time>2018-09-02T09:43:46Z</time>
      </trkpt>
      <trkpt lat="45.72958" lon="4.67187">
        <ele>335.1</ele>
        <time>2018-09-02T09:43:48Z</time>
      </trkpt>
      <trkpt lat="45.7295" lon="4.67208">
        <ele>334.6</ele>
        <time>2018-09-02T09:43:50Z</time>
      </trkpt>
      <trkpt lat="45.72939" lon="4.67237">
        <ele>334</ele>
        <time>2018-09-02T09:43:53Z</time>
      </trkpt>
      <trkpt lat="45.72931" lon="4.67258">
        <ele>333.3</ele>
        <time>2018-09-02T09:43:55Z</time>
      </trkpt>
      <trkpt lat="45.72927" lon="4.67269">
        <ele>333</ele>
        <time>2018-09-02T09:43:56Z</time>
      </trkpt>
      <trkpt lat="45.72916" lon="4.67302">
        <ele>332.2</ele>
        <time>2018-09-02T09:43:59Z</time>
      </trkpt>
      <trkpt lat="45.72908" lon="4.67323">
        <ele>331.4</ele>
        <time>2018-09-02T09:44:01Z</time>
      </trkpt>
      <trkpt lat="45.72903" lon="4.67334">
        <ele>331.2</ele>
        <time>2018-09-02T09:44:02Z</time>
      </trkpt>
      <trkpt lat="45.72894" lon="4.67354">
        <ele>330.8</ele>
        <time>2018-09-02T09:44:04Z</time>
      </trkpt>
      <trkpt lat="45.72878" lon="4.67383">
        <ele>330.4</ele>
        <time>2018-09-02T09:44:07Z</time>
      </trkpt>
      <trkpt lat="45.7286" lon="4.6741">
        <ele>330</ele>
        <time>2018-09-02T09:44:10Z</time>
      </trkpt>
      <trkpt lat="45.72846" lon="4.67425">
        <ele>329.5</ele>
        <time>2018-09-02T09:44:12Z</time>
      </trkpt>
      <trkpt lat="45.72839" lon="4.67433">
        <ele>329.4</ele>
        <time>2018-09-02T09:44:13Z</time>
      </trkpt>
      <trkpt lat="45.72821" lon="4.67454">
        <ele>329</ele>
        <time>2018-09-02T09:44:16Z</time>
      </trkpt>
      <trkpt lat="45.72813" lon="4.67464">
        <ele>329</ele>
        <time>2018-09-02T09:44:18Z</time>
      </trkpt>
      <trkpt lat="45.7281" lon="4.67467">
        <ele>329</ele>
        <time>2018-09-02T09:44:19Z</time>
      </trkpt>
      <trkpt lat="45.72806" lon="4.6747">
        <ele>329</ele>
        <time>2018-09-02T09:44:22Z</time>
      </trkpt>
      <trkpt lat="45.72796" lon="4.67469">
        <ele>329</ele>
        <time>2018-09-02T09:44:26Z</time>
      </trkpt>
      <trkpt lat="45.72778" lon="4.67475">
        <ele>327.4</ele>
        <time>2018-09-02T09:44:30Z</time>
      </trkpt>
      <trkpt lat="45.72769" lon="4.67479">
        <ele>326.7</ele>
        <time>2018-09-02T09:44:32Z</time>
      </trkpt>
      <trkpt lat="45.72756" lon="4.67489">
        <ele>325.4</ele>
        <time>2018-09-02T09:44:35Z</time>
      </trkpt>
      <trkpt lat="45.72752" lon="4.67493">
        <ele>324.8</ele>
        <time>2018-09-02T09:44:36Z</time>
      </trkpt>
      <trkpt lat="45.72743" lon="4.6751">
        <ele>323.5</ele>
        <time>2018-09-02T09:44:39Z</time>
      </trkpt>
      <trkpt lat="45.7274" lon="4.67517">
        <ele>323.1</ele>
        <time>2018-09-02T09:44:40Z</time>
      </trkpt>
      <trkpt lat="45.72731" lon="4.6754">
        <ele>322</ele>
        <time>2018-09-02T09:44:44Z</time>
      </trkpt>
      <trkpt lat="45.72714" lon="4.67557">
        <ele>319.9</ele>
        <time>2018-09-02T09:44:48Z</time>
      </trkpt>
      <trkpt lat="45.72699" lon="4.67563">
        <ele>318.3</ele>
        <time>2018-09-02T09:44:51Z</time>
      </trkpt>
      <trkpt lat="45.72694" lon="4.67564">
        <ele>317.8</ele>
        <time>2018-09-02T09:44:52Z</time>
      </trkpt>
      <trkpt lat="45.72684" lon="4.67566">
        <ele>316.8</ele>
        <time>2018-09-02T09:44:54Z</time>
      </trkpt>
      <trkpt lat="45.72672" lon="4.67568">
        <ele>315.5</ele>
        <time>2018-09-02T09:44:56Z</time>
      </trkpt>
      <trkpt lat="45.72664" lon="4.67571">
        <ele>314.7</ele>
        <time>2018-09-02T09:44:57Z</time>
      </trkpt>
      <trkpt lat="45.72657" lon="4.67573">
        <ele>314</ele>
        <time>2018-09-02T09:44:58Z</time>
      </trkpt>
      <trkpt lat="45.72645" lon="4.67577">
        <ele>312.7</ele>
        <time>2018-09-02T09:45:00Z</time>
      </trkpt>
      <trkpt lat="45.7264" lon="4.67579">
        <ele>312.2</ele>
        <time>2018-09-02T09:45:01Z</time>
      </trkpt>
      <trkpt lat="45.72636" lon="4.67582">
        <ele>312</ele>
        <time>2018-09-02T09:45:02Z</time>
      </trkpt>
      <trkpt lat="45.72626" lon="4.67586">
        <ele>311.9</ele>
        <time>2018-09-02T09:45:04Z</time>
      </trkpt>
      <trkpt lat="45.72613" lon="4.67588">
        <ele>311.5</ele>
        <time>2018-09-02T09:45:06Z</time>
      </trkpt>
      <trkpt lat="45.72606" lon="4.6759">
        <ele>311.3</ele>
        <time>2018-09-02T09:45:07Z</time>
      </trkpt>
      <trkpt lat="45.72599" lon="4.67592">
        <ele>310.9</ele>
        <time>2018-09-02T09:45:08Z</time>
      </trkpt>
      <trkpt lat="45.72585" lon="4.67597">
        <ele>310.4</ele>
        <time>2018-09-02T09:45:10Z</time>
      </trkpt>
      <trkpt lat="45.72578" lon="4.67601">
        <ele>310.3</ele>
        <time>2018-09-02T09:45:11Z</time>
      </trkpt>
      <trkpt lat="45.72572" lon="4.67607">
        <ele>310.3</ele>
        <time>2018-09-02T09:45:12Z</time>
      </trkpt>
      <trkpt lat="45.7256" lon="4.67619">
        <ele>311.2</ele>
        <time>2018-09-02T09:45:14Z</time>
      </trkpt>
      <trkpt lat="45.72552" lon="4.67631">
        <ele>312.1</ele>
        <time>2018-09-02T09:45:16Z</time>
      </trkpt>
      <trkpt lat="45.72546" lon="4.67644">
        <ele>313</ele>
        <time>2018-09-02T09:45:18Z</time>
      </trkpt>
      <trkpt lat="45.72537" lon="4.67664">
        <ele>314.4</ele>
        <time>2018-09-02T09:45:21Z</time>
      </trkpt>
      <trkpt lat="45.72536" lon="4.67671">
        <ele>315</ele>
        <time>2018-09-02T09:45:22Z</time>
      </trkpt>
      <trkpt lat="45.72531" lon="4.67687">
        <ele>314.5</ele>
        <time>2018-09-02T09:45:25Z</time>
      </trkpt>
      <trkpt lat="45.72525" lon="4.67723">
        <ele>312.8</ele>
        <time>2018-09-02T09:45:31Z</time>
      </trkpt>
      <trkpt lat="45.72523" lon="4.67729">
        <ele>312.4</ele>
        <time>2018-09-02T09:45:32Z</time>
      </trkpt>
      <trkpt lat="45.72513" lon="4.67755">
        <ele>310.6</ele>
        <time>2018-09-02T09:45:36Z</time>
      </trkpt>
      <trkpt lat="45.7251" lon="4.67768">
        <ele>310.1</ele>
        <time>2018-09-02T09:45:38Z</time>
      </trkpt>
      <trkpt lat="45.72502" lon="4.67782">
        <ele>310.4</ele>
        <time>2018-09-02T09:45:41Z</time>
      </trkpt>
      <trkpt lat="45.72497" lon="4.67793">
        <ele>309.9</ele>
        <time>2018-09-02T09:45:43Z</time>
      </trkpt>
      <trkpt lat="45.72491" lon="4.67802">
        <ele>309.7</ele>
        <time>2018-09-02T09:45:45Z</time>
      </trkpt>
      <trkpt lat="45.72488" lon="4.67807">
        <ele>309.7</ele>
        <time>2018-09-02T09:45:46Z</time>
      </trkpt>
      <trkpt lat="45.72486" lon="4.67826">
        <ele>309.8</ele>
        <time>2018-09-02T09:45:49Z</time>
      </trkpt>
      <trkpt lat="45.7249" lon="4.67838">
        <ele>310.3</ele>
        <time>2018-09-02T09:45:51Z</time>
      </trkpt>
      <trkpt lat="45.72492" lon="4.67844">
        <ele>310.5</ele>
        <time>2018-09-02T09:45:52Z</time>
      </trkpt>
      <trkpt lat="45.72494" lon="4.67851">
        <ele>310.6</ele>
        <time>2018-09-02T09:45:53Z</time>
      </trkpt>
      <trkpt lat="45.72499" lon="4.67865">
        <ele>310.9</ele>
        <time>2018-09-02T09:45:55Z</time>
      </trkpt>
      <trkpt lat="45.72502" lon="4.67885">
        <ele>311</ele>
        <time>2018-09-02T09:45:58Z</time>
      </trkpt>
      <trkpt lat="45.72505" lon="4.67907">
        <ele>310.9</ele>
        <time>2018-09-02T09:46:01Z</time>
      </trkpt>
      <trkpt lat="45.72506" lon="4.67913">
        <ele>310.7</ele>
        <time>2018-09-02T09:46:02Z</time>
      </trkpt>
      <trkpt lat="45.7251" lon="4.67924">
        <ele>310.5</ele>
        <time>2018-09-02T09:46:04Z</time>
      </trkpt>
      <trkpt lat="45.72516" lon="4.6794">
        <ele>309.8</ele>
        <time>2018-09-02T09:46:09Z</time>
      </trkpt>
      <trkpt lat="45.72526" lon="4.67975">
        <ele>307.7</ele>
        <time>2018-09-02T09:46:39Z</time>
      </trkpt>
      <trkpt lat="45.72527" lon="4.67983">
        <ele>307.3</ele>
        <time>2018-09-02T09:46:41Z</time>
      </trkpt>
      <trkpt lat="45.7253" lon="4.68005">
        <ele>306</ele>
        <time>2018-09-02T09:46:47Z</time>
      </trkpt>
      <trkpt lat="45.72532" lon="4.68016">
        <ele>305.5</ele>
        <time>2018-09-02T09:46:50Z</time>
      </trkpt>
      <trkpt lat="45.72534" lon="4.68027">
        <ele>305</ele>
        <time>2018-09-02T09:46:53Z</time>
      </trkpt>
      <trkpt lat="45.72537" lon="4.68038">
        <ele>304.5</ele>
        <time>2018-09-02T09:46:56Z</time>
      </trkpt>
      <trkpt lat="45.72539" lon="4.68051">
        <ele>304.1</ele>
        <time>2018-09-02T09:47:00Z</time>
      </trkpt>
      <trkpt lat="45.72547" lon="4.68081">
        <ele>302.3</ele>
        <time>2018-09-02T09:47:06Z</time>
      </trkpt>
      <trkpt lat="45.72545" lon="4.68113">
        <ele>300.8</ele>
        <time>2018-09-02T09:47:27Z</time>
      </trkpt>
      <trkpt lat="45.72546" lon="4.68115">
        <ele>300.8</ele>
        <time>2018-09-02T09:47:28Z</time>
      </trkpt>
      <trkpt lat="45.72549" lon="4.68132">
        <ele>300.8</ele>
        <time>2018-09-02T09:47:35Z</time>
      </trkpt>
      <trkpt lat="45.72565" lon="4.68133">
        <ele>301</ele>
        <time>2018-09-02T09:47:48Z</time>
      </trkpt>
      <trkpt lat="45.72568" lon="4.68133">
        <ele>301</ele>
        <time>2018-09-02T09:47:50Z</time>
      </trkpt>
      <trkpt lat="45.72574" lon="4.68137">
        <ele>301.1</ele>
        <time>2018-09-02T09:47:55Z</time>
      </trkpt>
      <trkpt lat="45.72577" lon="4.68139">
        <ele>301.1</ele>
        <time>2018-09-02T09:47:57Z</time>
      </trkpt>
      <trkpt lat="45.72587" lon="4.68143">
        <ele>301.5</ele>
        <time>2018-09-02T09:48:01Z</time>
      </trkpt>
      <trkpt lat="45.72592" lon="4.68147">
        <ele>301.6</ele>
        <time>2018-09-02T09:48:03Z</time>
      </trkpt>
      <trkpt lat="45.72599" lon="4.6815">
        <ele>301.7</ele>
        <time>2018-09-02T09:48:06Z</time>
      </trkpt>
      <trkpt lat="45.7266" lon="4.68171">
        <ele>299.9</ele>
        <time>2018-09-02T09:49:09Z</time>
      </trkpt>
      <trkpt lat="45.72671" lon="4.68183">
        <ele>298.6</ele>
        <time>2018-09-02T09:49:18Z</time>
      </trkpt>
      <trkpt lat="45.72673" lon="4.68185">
        <ele>298.5</ele>
        <time>2018-09-02T09:49:19Z</time>
      </trkpt>
      <trkpt lat="45.72676" lon="4.6819">
        <ele>298.1</ele>
        <time>2018-09-02T09:49:23Z</time>
      </trkpt>
      <trkpt lat="45.7268" lon="4.68192">
        <ele>297.5</ele>
        <time>2018-09-02T09:49:25Z</time>
      </trkpt>
      <trkpt lat="45.72682" lon="4.68192">
        <ele>297.2</ele>
        <time>2018-09-02T09:49:26Z</time>
      </trkpt>
      <trkpt lat="45.72694" lon="4.68196">
        <ele>295.4</ele>
        <time>2018-09-02T09:49:32Z</time>
      </trkpt>
      <trkpt lat="45.72706" lon="4.68208">
        <ele>293.6</ele>
        <time>2018-09-02T09:49:37Z</time>
      </trkpt>
      <trkpt lat="45.72709" lon="4.68222">
        <ele>292.6</ele>
        <time>2018-09-02T09:49:42Z</time>
      </trkpt>
      <trkpt lat="45.72709" lon="4.68228">
        <ele>292.1</ele>
        <time>2018-09-02T09:49:46Z</time>
      </trkpt>
      <trkpt lat="45.72708" lon="4.68232">
        <ele>291.8</ele>
        <time>2018-09-02T09:49:48Z</time>
      </trkpt>
      <trkpt lat="45.72704" lon="4.68251">
        <ele>290.7</ele>
        <time>2018-09-02T09:49:54Z</time>
      </trkpt>
      <trkpt lat="45.72704" lon="4.68254">
        <ele>290.4</ele>
        <time>2018-09-02T09:49:55Z</time>
      </trkpt>
      <trkpt lat="45.72703" lon="4.68262">
        <ele>289.8</ele>
        <time>2018-09-02T09:49:58Z</time>
      </trkpt>
      <trkpt lat="45.72699" lon="4.68274">
        <ele>289</ele>
        <time>2018-09-02T09:50:06Z</time>
      </trkpt>
      <trkpt lat="45.727" lon="4.68285">
        <ele>288.3</ele>
        <time>2018-09-02T09:50:10Z</time>
      </trkpt>
      <trkpt lat="45.72705" lon="4.68297">
        <ele>287.7</ele>
        <time>2018-09-02T09:50:14Z</time>
      </trkpt>
      <trkpt lat="45.72708" lon="4.68303">
        <ele>287.4</ele>
        <time>2018-09-02T09:50:16Z</time>
      </trkpt>
      <trkpt lat="45.7271" lon="4.68307">
        <ele>287.2</ele>
        <time>2018-09-02T09:50:18Z</time>
      </trkpt>
      <trkpt lat="45.72721" lon="4.68325">
        <ele>285.8</ele>
        <time>2018-09-02T09:50:40Z</time>
      </trkpt>
      <trkpt lat="45.72724" lon="4.68327">
        <ele>285.6</ele>
        <time>2018-09-02T09:50:42Z</time>
      </trkpt>
      <trkpt lat="45.72735" lon="4.68336">
        <ele>285</ele>
        <time>2018-09-02T09:51:08Z</time>
      </trkpt>
      <trkpt lat="45.72737" lon="4.68339">
        <ele>285.1</ele>
        <time>2018-09-02T09:51:09Z</time>
      </trkpt>
      <trkpt lat="45.72741" lon="4.68344">
        <ele>285.2</ele>
        <time>2018-09-02T09:51:11Z</time>
      </trkpt>
      <trkpt lat="45.72745" lon="4.68346">
        <ele>285.3</ele>
        <time>2018-09-02T09:51:13Z</time>
      </trkpt>
      <trkpt lat="45.72747" lon="4.68346">
        <ele>285.3</ele>
        <time>2018-09-02T09:51:14Z</time>
      </trkpt>
      <trkpt lat="45.72767" lon="4.6833">
        <ele>286.2</ele>
        <time>2018-09-02T09:51:50Z</time>
      </trkpt>
      <trkpt lat="45.72769" lon="4.68329">
        <ele>286.4</ele>
        <time>2018-09-02T09:51:51Z</time>
      </trkpt>
      <trkpt lat="45.72775" lon="4.68328">
        <ele>286.8</ele>
        <time>2018-09-02T09:51:54Z</time>
      </trkpt>
      <trkpt lat="45.72782" lon="4.68323">
        <ele>287.6</ele>
        <time>2018-09-02T09:51:57Z</time>
      </trkpt>
      <trkpt lat="45.72784" lon="4.68322">
        <ele>287.8</ele>
        <time>2018-09-02T09:51:58Z</time>
      </trkpt>
      <trkpt lat="45.72787" lon="4.68322">
        <ele>288</ele>
        <time>2018-09-02T09:51:59Z</time>
      </trkpt>
      <trkpt lat="45.72793" lon="4.68323">
        <ele>288.2</ele>
        <time>2018-09-02T09:52:01Z</time>
      </trkpt>
      <trkpt lat="45.72796" lon="4.68325">
        <ele>288.3</ele>
        <time>2018-09-02T09:52:02Z</time>
      </trkpt>
      <trkpt lat="45.7281" lon="4.68335">
        <ele>288.9</ele>
        <time>2018-09-02T09:52:07Z</time>
      </trkpt>
      <trkpt lat="45.72811" lon="4.68337">
        <ele>289</ele>
        <time>2018-09-02T09:52:08Z</time>
      </trkpt>
      <trkpt lat="45.72818" lon="4.68349">
        <ele>288.7</ele>
        <time>2018-09-02T09:52:12Z</time>
      </trkpt>
      <trkpt lat="45.72823" lon="4.68368">
        <ele>287.6</ele>
        <time>2018-09-02T09:52:18Z</time>
      </trkpt>
      <trkpt lat="45.72825" lon="4.68382">
        <ele>286.9</ele>
        <time>2018-09-02T09:52:23Z</time>
      </trkpt>
      <trkpt lat="45.72818" lon="4.68402">
        <ele>285.6</ele>
        <time>2018-09-02T09:52:28Z</time>
      </trkpt>
      <trkpt lat="45.72813" lon="4.68415">
        <ele>285</ele>
        <time>2018-09-02T09:52:32Z</time>
      </trkpt>
      <trkpt lat="45.72811" lon="4.68416">
        <ele>284.9</ele>
        <time>2018-09-02T09:52:33Z</time>
      </trkpt>
      <trkpt lat="45.72802" lon="4.68419">
        <ele>284.8</ele>
        <time>2018-09-02T09:52:38Z</time>
      </trkpt>
      <trkpt lat="45.72801" lon="4.68422">
        <ele>284.9</ele>
        <time>2018-09-02T09:52:39Z</time>
      </trkpt>
      <trkpt lat="45.72799" lon="4.68427">
        <ele>285.1</ele>
        <time>2018-09-02T09:52:41Z</time>
      </trkpt>
      <trkpt lat="45.72801" lon="4.68439">
        <ele>285.5</ele>
        <time>2018-09-02T09:52:47Z</time>
      </trkpt>
      <trkpt lat="45.728" lon="4.68449">
        <ele>286.1</ele>
        <time>2018-09-02T09:52:51Z</time>
      </trkpt>
      <trkpt lat="45.728" lon="4.68452">
        <ele>286.2</ele>
        <time>2018-09-02T09:52:52Z</time>
      </trkpt>
      <trkpt lat="45.72802" lon="4.68466">
        <ele>286.8</ele>
        <time>2018-09-02T09:52:58Z</time>
      </trkpt>
      <trkpt lat="45.72807" lon="4.68492">
        <ele>287.9</ele>
        <time>2018-09-02T09:53:04Z</time>
      </trkpt>
      <trkpt lat="45.72809" lon="4.68504">
        <ele>288.1</ele>
        <time>2018-09-02T09:53:07Z</time>
      </trkpt>
      <trkpt lat="45.72813" lon="4.68519">
        <ele>288.1</ele>
        <time>2018-09-02T09:53:11Z</time>
      </trkpt>
      <trkpt lat="45.72815" lon="4.68526">
        <ele>288.3</ele>
        <time>2018-09-02T09:53:13Z</time>
      </trkpt>
      <trkpt lat="45.72822" lon="4.68548">
        <ele>289.1</ele>
        <time>2018-09-02T09:53:19Z</time>
      </trkpt>
      <trkpt lat="45.72824" lon="4.68559">
        <ele>289.6</ele>
        <time>2018-09-02T09:53:22Z</time>
      </trkpt>
      <trkpt lat="45.72827" lon="4.68572">
        <ele>290</ele>
        <time>2018-09-02T09:53:26Z</time>
      </trkpt>
      <trkpt lat="45.72834" lon="4.68594">
        <ele>290.9</ele>
        <time>2018-09-02T09:53:32Z</time>
      </trkpt>
      <trkpt lat="45.72836" lon="4.68598">
        <ele>290.9</ele>
        <time>2018-09-02T09:53:33Z</time>
      </trkpt>
      <trkpt lat="45.72841" lon="4.68618">
        <ele>291.1</ele>
        <time>2018-09-02T09:53:38Z</time>
      </trkpt>
      <trkpt lat="45.72842" lon="4.68642">
        <ele>290.9</ele>
        <time>2018-09-02T09:53:45Z</time>
      </trkpt>
      <trkpt lat="45.72832" lon="4.6866">
        <ele>291.2</ele>
        <time>2018-09-02T09:53:50Z</time>
      </trkpt>
      <trkpt lat="45.72828" lon="4.68685">
        <ele>291.6</ele>
        <time>2018-09-02T09:53:55Z</time>
      </trkpt>
      <trkpt lat="45.72828" lon="4.68699">
        <ele>291.4</ele>
        <time>2018-09-02T09:53:57Z</time>
      </trkpt>
      <trkpt lat="45.72834" lon="4.68719">
        <ele>291</ele>
        <time>2018-09-02T09:54:00Z</time>
      </trkpt>
      <trkpt lat="45.72843" lon="4.68744">
        <ele>291.4</ele>
        <time>2018-09-02T09:54:04Z</time>
      </trkpt>
      <trkpt lat="45.72845" lon="4.6875">
        <ele>291.5</ele>
        <time>2018-09-02T09:54:05Z</time>
      </trkpt>
      <trkpt lat="45.72854" lon="4.68772">
        <ele>291.8</ele>
        <time>2018-09-02T09:54:10Z</time>
      </trkpt>
      <trkpt lat="45.72867" lon="4.68802">
        <ele>292.3</ele>
        <time>2018-09-02T09:54:16Z</time>
      </trkpt>
      <trkpt lat="45.72868" lon="4.68809">
        <ele>292.3</ele>
        <time>2018-09-02T09:54:17Z</time>
      </trkpt>
      <trkpt lat="45.72871" lon="4.6883">
        <ele>292.1</ele>
        <time>2018-09-02T09:54:20Z</time>
      </trkpt>
      <trkpt lat="45.72874" lon="4.68855">
        <ele>291.9</ele>
        <time>2018-09-02T09:54:23Z</time>
      </trkpt>
      <trkpt lat="45.72876" lon="4.68862">
        <ele>291.9</ele>
        <time>2018-09-02T09:54:24Z</time>
      </trkpt>
      <trkpt lat="45.72883" lon="4.68893">
        <ele>291.4</ele>
        <time>2018-09-02T09:54:28Z</time>
      </trkpt>
      <trkpt lat="45.72885" lon="4.68899">
        <ele>291.3</ele>
        <time>2018-09-02T09:54:29Z</time>
      </trkpt>
      <trkpt lat="45.72886" lon="4.68907">
        <ele>291.2</ele>
        <time>2018-09-02T09:54:30Z</time>
      </trkpt>
      <trkpt lat="45.72888" lon="4.68927">
        <ele>290.8</ele>
        <time>2018-09-02T09:54:33Z</time>
      </trkpt>
      <trkpt lat="45.72888" lon="4.68934">
        <ele>290.6</ele>
        <time>2018-09-02T09:54:34Z</time>
      </trkpt>
      <trkpt lat="45.72888" lon="4.68947">
        <ele>290.2</ele>
        <time>2018-09-02T09:54:36Z</time>
      </trkpt>
      <trkpt lat="45.72887" lon="4.68966">
        <ele>289.7</ele>
        <time>2018-09-02T09:54:39Z</time>
      </trkpt>
      <trkpt lat="45.72888" lon="4.68995">
        <ele>288.9</ele>
        <time>2018-09-02T09:54:43Z</time>
      </trkpt>
      <trkpt lat="45.72887" lon="4.69001">
        <ele>288.6</ele>
        <time>2018-09-02T09:54:44Z</time>
      </trkpt>
      <trkpt lat="45.72887" lon="4.69007">
        <ele>288.4</ele>
        <time>2018-09-02T09:54:45Z</time>
      </trkpt>
      <trkpt lat="45.72888" lon="4.69022">
        <ele>287.6</ele>
        <time>2018-09-02T09:54:48Z</time>
      </trkpt>
      <trkpt lat="45.72889" lon="4.69026">
        <ele>287.4</ele>
        <time>2018-09-02T09:54:49Z</time>
      </trkpt>
      <trkpt lat="45.72892" lon="4.69039">
        <ele>286.4</ele>
        <time>2018-09-02T09:54:53Z</time>
      </trkpt>
      <trkpt lat="45.72892" lon="4.69044">
        <ele>286</ele>
        <time>2018-09-02T09:54:54Z</time>
      </trkpt>
      <trkpt lat="45.72891" lon="4.69065">
        <ele>284.5</ele>
        <time>2018-09-02T09:54:58Z</time>
      </trkpt>
      <trkpt lat="45.7289" lon="4.6907">
        <ele>284.1</ele>
        <time>2018-09-02T09:54:59Z</time>
      </trkpt>
      <trkpt lat="45.72889" lon="4.69096">
        <ele>282.7</ele>
        <time>2018-09-02T09:55:04Z</time>
      </trkpt>
      <trkpt lat="45.72889" lon="4.69102">
        <ele>282.5</ele>
        <time>2018-09-02T09:55:05Z</time>
      </trkpt>
      <trkpt lat="45.72886" lon="4.69129">
        <ele>281.4</ele>
        <time>2018-09-02T09:55:10Z</time>
      </trkpt>
      <trkpt lat="45.72886" lon="4.69143">
        <ele>280.1</ele>
        <time>2018-09-02T09:55:14Z</time>
      </trkpt>
      <trkpt lat="45.72887" lon="4.69146">
        <ele>279.8</ele>
        <time>2018-09-02T09:55:15Z</time>
      </trkpt>
      <trkpt lat="45.72896" lon="4.69173">
        <ele>277.6</ele>
        <time>2018-09-02T09:55:21Z</time>
      </trkpt>
      <trkpt lat="45.72898" lon="4.69175">
        <ele>277.4</ele>
        <time>2018-09-02T09:55:22Z</time>
      </trkpt>
      <trkpt lat="45.72905" lon="4.69178">
        <ele>277.2</ele>
        <time>2018-09-02T09:55:25Z</time>
      </trkpt>
      <trkpt lat="45.72916" lon="4.69184">
        <ele>277.7</ele>
        <time>2018-09-02T09:55:29Z</time>
      </trkpt>
      <trkpt lat="45.72922" lon="4.69189">
        <ele>278.8</ele>
        <time>2018-09-02T09:55:31Z</time>
      </trkpt>
      <trkpt lat="45.72936" lon="4.69202">
        <ele>279.5</ele>
        <time>2018-09-02T09:55:36Z</time>
      </trkpt>
      <trkpt lat="45.72942" lon="4.69216">
        <ele>279.3</ele>
        <time>2018-09-02T09:55:39Z</time>
      </trkpt>
      <trkpt lat="45.72942" lon="4.69227">
        <ele>279.1</ele>
        <time>2018-09-02T09:55:41Z</time>
      </trkpt>
      <trkpt lat="45.72942" lon="4.69263">
        <ele>277.5</ele>
        <time>2018-09-02T09:55:46Z</time>
      </trkpt>
      <trkpt lat="45.72942" lon="4.69271">
        <ele>277.4</ele>
        <time>2018-09-02T09:55:47Z</time>
      </trkpt>
      <trkpt lat="45.72943" lon="4.69285">
        <ele>278</ele>
        <time>2018-09-02T09:55:49Z</time>
      </trkpt>
      <trkpt lat="45.72945" lon="4.69291">
        <ele>278.4</ele>
        <time>2018-09-02T09:55:50Z</time>
      </trkpt>
      <trkpt lat="45.72949" lon="4.69294">
        <ele>278.8</ele>
        <time>2018-09-02T09:55:51Z</time>
      </trkpt>
      <trkpt lat="45.72962" lon="4.69299">
        <ele>279</ele>
        <time>2018-09-02T09:55:54Z</time>
      </trkpt>
      <trkpt lat="45.72966" lon="4.69301">
        <ele>278.9</ele>
        <time>2018-09-02T09:55:55Z</time>
      </trkpt>
      <trkpt lat="45.7298" lon="4.69303">
        <ele>278.8</ele>
        <time>2018-09-02T09:55:58Z</time>
      </trkpt>
      <trkpt lat="45.72984" lon="4.69303">
        <ele>278.7</ele>
        <time>2018-09-02T09:55:59Z</time>
      </trkpt>
      <trkpt lat="45.72995" lon="4.69302">
        <ele>278.6</ele>
        <time>2018-09-02T09:56:01Z</time>
      </trkpt>
      <trkpt lat="45.73" lon="4.69301">
        <ele>278.7</ele>
        <time>2018-09-02T09:56:02Z</time>
      </trkpt>
      <trkpt lat="45.73022" lon="4.69301">
        <ele>279.5</ele>
        <time>2018-09-02T09:56:07Z</time>
      </trkpt>
      <trkpt lat="45.73033" lon="4.69299">
        <ele>280.4</ele>
        <time>2018-09-02T09:56:12Z</time>
      </trkpt>
      <trkpt lat="45.73041" lon="4.69297">
        <ele>280.9</ele>
        <time>2018-09-02T09:56:17Z</time>
      </trkpt>
      <trkpt lat="45.73064" lon="4.69296">
        <ele>282.2</ele>
        <time>2018-09-02T09:56:46Z</time>
      </trkpt>
      <trkpt lat="45.73068" lon="4.69299">
        <ele>282.4</ele>
        <time>2018-09-02T09:56:49Z</time>
      </trkpt>
      <trkpt lat="45.73082" lon="4.69306">
        <ele>282.3</ele>
        <time>2018-09-02T09:56:54Z</time>
      </trkpt>
      <trkpt lat="45.73084" lon="4.69307">
        <ele>282.2</ele>
        <time>2018-09-02T09:56:55Z</time>
      </trkpt>
      <trkpt lat="45.73091" lon="4.69312">
        <ele>281.8</ele>
        <time>2018-09-02T09:56:58Z</time>
      </trkpt>
      <trkpt lat="45.73096" lon="4.69317">
        <ele>281.5</ele>
        <time>2018-09-02T09:57:00Z</time>
      </trkpt>
      <trkpt lat="45.73097" lon="4.6932">
        <ele>281.4</ele>
        <time>2018-09-02T09:57:01Z</time>
      </trkpt>
      <trkpt lat="45.73098" lon="4.69335">
        <ele>281</ele>
        <time>2018-09-02T09:57:04Z</time>
      </trkpt>
      <trkpt lat="45.73105" lon="4.6936">
        <ele>279.7</ele>
        <time>2018-09-02T09:57:09Z</time>
      </trkpt>
      <trkpt lat="45.73118" lon="4.69365">
        <ele>279.6</ele>
        <time>2018-09-02T09:57:13Z</time>
      </trkpt>
      <trkpt lat="45.73125" lon="4.69369">
        <ele>279.9</ele>
        <time>2018-09-02T09:57:15Z</time>
      </trkpt>
      <trkpt lat="45.73134" lon="4.69373">
        <ele>280.2</ele>
        <time>2018-09-02T09:57:18Z</time>
      </trkpt>
      <trkpt lat="45.73147" lon="4.69371">
        <ele>280.8</ele>
        <time>2018-09-02T09:57:24Z</time>
      </trkpt>
      <trkpt lat="45.73151" lon="4.69366">
        <ele>281.3</ele>
        <time>2018-09-02T09:57:28Z</time>
      </trkpt>
      <trkpt lat="45.73151" lon="4.69371">
        <ele>281.7</ele>
        <time>2018-09-02T09:57:41Z</time>
      </trkpt>
      <trkpt lat="45.73149" lon="4.69377">
        <ele>282</ele>
        <time>2018-09-02T09:57:44Z</time>
      </trkpt>
      <trkpt lat="45.73147" lon="4.69382">
        <ele>282</ele>
        <time>2018-09-02T09:57:47Z</time>
      </trkpt>
      <trkpt lat="45.73144" lon="4.69396">
        <ele>282</ele>
        <time>2018-09-02T09:57:58Z</time>
      </trkpt>
      <trkpt lat="45.73142" lon="4.69398">
        <ele>282</ele>
        <time>2018-09-02T09:57:59Z</time>
      </trkpt>
      <trkpt lat="45.73138" lon="4.69404">
        <ele>282</ele>
        <time>2018-09-02T09:58:04Z</time>
      </trkpt>
      <trkpt lat="45.73132" lon="4.69405">
        <ele>282</ele>
        <time>2018-09-02T09:58:11Z</time>
      </trkpt>
      <trkpt lat="45.73129" lon="4.69402">
        <ele>282</ele>
        <time>2018-09-02T09:58:13Z</time>
      </trkpt>
      <trkpt lat="45.73111" lon="4.69389">
        <ele>282</ele>
        <time>2018-09-02T09:58:21Z</time>
      </trkpt>
      <trkpt lat="45.73091" lon="4.69384">
        <ele>282.5</ele>
        <time>2018-09-02T09:58:29Z</time>
      </trkpt>
      <trkpt lat="45.73076" lon="4.69384">
        <ele>282.9</ele>
        <time>2018-09-02T09:58:36Z</time>
      </trkpt>
      <trkpt lat="45.73071" lon="4.69385">
        <ele>284.1</ele>
        <time>2018-09-02T09:58:40Z</time>
      </trkpt>
      <trkpt lat="45.7307" lon="4.69387">
        <ele>284.5</ele>
        <time>2018-09-02T09:58:42Z</time>
      </trkpt>
      <trkpt lat="45.7307" lon="4.69388">
        <ele>284.8</ele>
        <time>2018-09-02T09:58:43Z</time>
      </trkpt>
      <trkpt lat="45.73061" lon="4.69418">
        <ele>289.6</ele>
        <time>2018-09-02T09:59:18Z</time>
      </trkpt>
      <trkpt lat="45.73061" lon="4.69419">
        <ele>289.8</ele>
        <time>2018-09-02T09:59:19Z</time>
      </trkpt>
      <trkpt lat="45.73059" lon="4.69425">
        <ele>290.5</ele>
        <time>2018-09-02T09:59:22Z</time>
      </trkpt>
      <trkpt lat="45.73057" lon="4.69432">
        <ele>291.4</ele>
        <time>2018-09-02T09:59:26Z</time>
      </trkpt>
      <trkpt lat="45.73055" lon="4.69437">
        <ele>292.1</ele>
        <time>2018-09-02T09:59:29Z</time>
      </trkpt>
      <trkpt lat="45.73053" lon="4.69443">
        <ele>292.9</ele>
        <time>2018-09-02T09:59:32Z</time>
      </trkpt>
      <trkpt lat="45.73052" lon="4.69447">
        <ele>293.3</ele>
        <time>2018-09-02T09:59:34Z</time>
      </trkpt>
      <trkpt lat="45.73046" lon="4.69464">
        <ele>295.1</ele>
        <time>2018-09-02T10:01:07Z</time>
      </trkpt>
      <trkpt lat="45.73045" lon="4.69469">
        <ele>295.4</ele>
        <time>2018-09-02T10:01:09Z</time>
      </trkpt>
      <trkpt lat="45.73043" lon="4.69475">
        <ele>295.9</ele>
        <time>2018-09-02T10:01:12Z</time>
      </trkpt>
      <trkpt lat="45.7304" lon="4.69484">
        <ele>296.6</ele>
        <time>2018-09-02T10:01:16Z</time>
      </trkpt>
      <trkpt lat="45.73037" lon="4.69492">
        <ele>297.2</ele>
        <time>2018-09-02T10:01:20Z</time>
      </trkpt>
      <trkpt lat="45.73033" lon="4.69503">
        <ele>298</ele>
        <time>2018-09-02T10:01:25Z</time>
      </trkpt>
      <trkpt lat="45.73029" lon="4.69515">
        <ele>299.1</ele>
        <time>2018-09-02T10:01:31Z</time>
      </trkpt>
      <trkpt lat="45.73028" lon="4.69516">
        <ele>299.3</ele>
        <time>2018-09-02T10:01:32Z</time>
      </trkpt>
      <trkpt lat="45.73026" lon="4.6952">
        <ele>299.7</ele>
        <time>2018-09-02T10:01:34Z</time>
      </trkpt>
      <trkpt lat="45.73025" lon="4.69524">
        <ele>300.2</ele>
        <time>2018-09-02T10:01:36Z</time>
      </trkpt>
      <trkpt lat="45.73024" lon="4.69529">
        <ele>300.8</ele>
        <time>2018-09-02T10:01:38Z</time>
      </trkpt>
      <trkpt lat="45.73023" lon="4.69533">
        <ele>301.4</ele>
        <time>2018-09-02T10:01:40Z</time>
      </trkpt>
      <trkpt lat="45.73022" lon="4.69537">
        <ele>301.8</ele>
        <time>2018-09-02T10:01:42Z</time>
      </trkpt>
      <trkpt lat="45.73021" lon="4.69541">
        <ele>302.4</ele>
        <time>2018-09-02T10:01:44Z</time>
      </trkpt>
      <trkpt lat="45.73021" lon="4.69544">
        <ele>302.6</ele>
        <time>2018-09-02T10:01:45Z</time>
      </trkpt>
      <trkpt lat="45.73022" lon="4.69548">
        <ele>303.1</ele>
        <time>2018-09-02T10:01:47Z</time>
      </trkpt>
      <trkpt lat="45.73022" lon="4.69556">
        <ele>303.8</ele>
        <time>2018-09-02T10:01:50Z</time>
      </trkpt>
      <trkpt lat="45.73021" lon="4.69563">
        <ele>304.4</ele>
        <time>2018-09-02T10:01:53Z</time>
      </trkpt>
      <trkpt lat="45.7302" lon="4.69573">
        <ele>305.3</ele>
        <time>2018-09-02T10:01:57Z</time>
      </trkpt>
      <trkpt lat="45.73017" lon="4.69586">
        <ele>306.3</ele>
        <time>2018-09-02T10:02:02Z</time>
      </trkpt>
      <trkpt lat="45.73013" lon="4.69597">
        <ele>306.9</ele>
        <time>2018-09-02T10:02:07Z</time>
      </trkpt>
      <trkpt lat="45.73012" lon="4.69602">
        <ele>307.1</ele>
        <time>2018-09-02T10:03:41Z</time>
      </trkpt>
      <trkpt lat="45.73011" lon="4.69608">
        <ele>307.3</ele>
        <time>2018-09-02T10:03:43Z</time>
      </trkpt>
      <trkpt lat="45.73007" lon="4.69617">
        <ele>307.6</ele>
        <time>2018-09-02T10:03:46Z</time>
      </trkpt>
      <trkpt lat="45.73006" lon="4.69619">
        <ele>307.7</ele>
        <time>2018-09-02T10:03:47Z</time>
      </trkpt>
      <trkpt lat="45.73004" lon="4.69624">
        <ele>308</ele>
        <time>2018-09-02T10:03:49Z</time>
      </trkpt>
      <trkpt lat="45.73" lon="4.69629">
        <ele>308.4</ele>
        <time>2018-09-02T10:03:52Z</time>
      </trkpt>
      <trkpt lat="45.72998" lon="4.69633">
        <ele>308.7</ele>
        <time>2018-09-02T10:03:54Z</time>
      </trkpt>
      <trkpt lat="45.72996" lon="4.69635">
        <ele>309</ele>
        <time>2018-09-02T10:03:56Z</time>
      </trkpt>
      <trkpt lat="45.72994" lon="4.69638">
        <ele>309.3</ele>
        <time>2018-09-02T10:03:58Z</time>
      </trkpt>
      <trkpt lat="45.7299" lon="4.69644">
        <ele>309.9</ele>
        <time>2018-09-02T10:04:02Z</time>
      </trkpt>
      <trkpt lat="45.72989" lon="4.69646">
        <ele>310</ele>
        <time>2018-09-02T10:04:03Z</time>
      </trkpt>
      <trkpt lat="45.72982" lon="4.69657">
        <ele>311.3</ele>
        <time>2018-09-02T10:04:11Z</time>
      </trkpt>
      <trkpt lat="45.7298" lon="4.69659">
        <ele>311.5</ele>
        <time>2018-09-02T10:04:13Z</time>
      </trkpt>
      <trkpt lat="45.72974" lon="4.69664">
        <ele>312.1</ele>
        <time>2018-09-02T10:04:18Z</time>
      </trkpt>
      <trkpt lat="45.72962" lon="4.69664">
        <ele>313.1</ele>
        <time>2018-09-02T10:04:24Z</time>
      </trkpt>
      <trkpt lat="45.72948" lon="4.69663">
        <ele>313.9</ele>
        <time>2018-09-02T10:04:31Z</time>
      </trkpt>
      <trkpt lat="45.72932" lon="4.69666">
        <ele>315.3</ele>
        <time>2018-09-02T10:04:38Z</time>
      </trkpt>
      <trkpt lat="45.7292" lon="4.69668">
        <ele>316.4</ele>
        <time>2018-09-02T10:04:43Z</time>
      </trkpt>
      <trkpt lat="45.72916" lon="4.69669">
        <ele>316.7</ele>
        <time>2018-09-02T10:04:45Z</time>
      </trkpt>
      <trkpt lat="45.72895" lon="4.69674">
        <ele>317.3</ele>
        <time>2018-09-02T10:04:54Z</time>
      </trkpt>
      <trkpt lat="45.72874" lon="4.6968">
        <ele>317.8</ele>
        <time>2018-09-02T10:05:02Z</time>
      </trkpt>
      <trkpt lat="45.72869" lon="4.69681">
        <ele>317.9</ele>
        <time>2018-09-02T10:05:04Z</time>
      </trkpt>
      <trkpt lat="45.72853" lon="4.69684">
        <ele>318.2</ele>
        <time>2018-09-02T10:05:11Z</time>
      </trkpt>
      <trkpt lat="45.72841" lon="4.69696">
        <ele>318.4</ele>
        <time>2018-09-02T10:05:17Z</time>
      </trkpt>
      <trkpt lat="45.72829" lon="4.69708">
        <ele>318.6</ele>
        <time>2018-09-02T10:05:23Z</time>
      </trkpt>
      <trkpt lat="45.72814" lon="4.69723">
        <ele>318.8</ele>
        <time>2018-09-02T10:05:30Z</time>
      </trkpt>
      <trkpt lat="45.72803" lon="4.69735">
        <ele>319.1</ele>
        <time>2018-09-02T10:05:36Z</time>
      </trkpt>
      <trkpt lat="45.72781" lon="4.69756">
        <ele>319.6</ele>
        <time>2018-09-02T10:05:44Z</time>
      </trkpt>
      <trkpt lat="45.72773" lon="4.69765">
        <ele>319.8</ele>
        <time>2018-09-02T10:05:47Z</time>
      </trkpt>
      <trkpt lat="45.72769" lon="4.69772">
        <ele>320</ele>
        <time>2018-09-02T10:05:50Z</time>
      </trkpt>
      <trkpt lat="45.72769" lon="4.69778">
        <ele>319.9</ele>
        <time>2018-09-02T10:05:52Z</time>
      </trkpt>
      <trkpt lat="45.72774" lon="4.69785">
        <ele>319.7</ele>
        <time>2018-09-02T10:05:54Z</time>
      </trkpt>
      <trkpt lat="45.72785" lon="4.69799">
        <ele>319.4</ele>
        <time>2018-09-02T10:05:58Z</time>
      </trkpt>
      <trkpt lat="45.72791" lon="4.69808">
        <ele>319.3</ele>
        <time>2018-09-02T10:06:00Z</time>
      </trkpt>
      <trkpt lat="45.72815" lon="4.69841">
        <ele>318.4</ele>
        <time>2018-09-02T10:06:07Z</time>
      </trkpt>
      <trkpt lat="45.72836" lon="4.69869">
        <ele>317.9</ele>
        <time>2018-09-02T10:06:12Z</time>
      </trkpt>
      <trkpt lat="45.72851" lon="4.69883">
        <ele>318</ele>
        <time>2018-09-02T10:06:15Z</time>
      </trkpt>
      <trkpt lat="45.72867" lon="4.69897">
        <ele>318</ele>
        <time>2018-09-02T10:06:18Z</time>
      </trkpt>
      <trkpt lat="45.72896" lon="4.69919">
        <ele>316.9</ele>
        <time>2018-09-02T10:06:23Z</time>
      </trkpt>
      <trkpt lat="45.72926" lon="4.69939">
        <ele>316.3</ele>
        <time>2018-09-02T10:06:28Z</time>
      </trkpt>
      <trkpt lat="45.72955" lon="4.6996">
        <ele>315.2</ele>
        <time>2018-09-02T10:06:33Z</time>
      </trkpt>
      <trkpt lat="45.72961" lon="4.69964">
        <ele>315</ele>
        <time>2018-09-02T10:06:34Z</time>
      </trkpt>
      <trkpt lat="45.7299" lon="4.69981">
        <ele>314.2</ele>
        <time>2018-09-02T10:06:39Z</time>
      </trkpt>
      <trkpt lat="45.73007" lon="4.69991">
        <ele>313.9</ele>
        <time>2018-09-02T10:06:42Z</time>
      </trkpt>
      <trkpt lat="45.73028" lon="4.70008">
        <ele>312.7</ele>
        <time>2018-09-02T10:06:46Z</time>
      </trkpt>
      <trkpt lat="45.73039" lon="4.70019">
        <ele>311.9</ele>
        <time>2018-09-02T10:06:48Z</time>
      </trkpt>
      <trkpt lat="45.73059" lon="4.70044">
        <ele>310.3</ele>
        <time>2018-09-02T10:06:52Z</time>
      </trkpt>
      <trkpt lat="45.73077" lon="4.70065">
        <ele>308.6</ele>
        <time>2018-09-02T10:06:55Z</time>
      </trkpt>
      <trkpt lat="45.73096" lon="4.70089">
        <ele>307</ele>
        <time>2018-09-02T10:06:58Z</time>
      </trkpt>
      <trkpt lat="45.73109" lon="4.70106">
        <ele>306.1</ele>
        <time>2018-09-02T10:07:00Z</time>
      </trkpt>
      <trkpt lat="45.73121" lon="4.70124">
        <ele>304.4</ele>
        <time>2018-09-02T10:07:02Z</time>
      </trkpt>
      <trkpt lat="45.73125" lon="4.70136">
        <ele>303.5</ele>
        <time>2018-09-02T10:07:03Z</time>
      </trkpt>
      <trkpt lat="45.73133" lon="4.70158">
        <ele>301.8</ele>
        <time>2018-09-02T10:07:05Z</time>
      </trkpt>
      <trkpt lat="45.7314" lon="4.70178">
        <ele>300.9</ele>
        <time>2018-09-02T10:07:08Z</time>
      </trkpt>
      <trkpt lat="45.7314" lon="4.70185">
        <ele>300.8</ele>
        <time>2018-09-02T10:07:09Z</time>
      </trkpt>
      <trkpt lat="45.73137" lon="4.70191">
        <ele>300.7</ele>
        <time>2018-09-02T10:07:10Z</time>
      </trkpt>
      <trkpt lat="45.73133" lon="4.70196">
        <ele>300.5</ele>
        <time>2018-09-02T10:07:11Z</time>
      </trkpt>
      <trkpt lat="45.7312" lon="4.70215">
        <ele>299.6</ele>
        <time>2018-09-02T10:07:14Z</time>
      </trkpt>
      <trkpt lat="45.73107" lon="4.70236">
        <ele>298.4</ele>
        <time>2018-09-02T10:07:17Z</time>
      </trkpt>
      <trkpt lat="45.73096" lon="4.70251">
        <ele>297.7</ele>
        <time>2018-09-02T10:07:19Z</time>
      </trkpt>
      <trkpt lat="45.73085" lon="4.70267">
        <ele>297.1</ele>
        <time>2018-09-02T10:07:21Z</time>
      </trkpt>
      <trkpt lat="45.73082" lon="4.70275">
        <ele>296.8</ele>
        <time>2018-09-02T10:07:22Z</time>
      </trkpt>
      <trkpt lat="45.73079" lon="4.70285">
        <ele>296.4</ele>
        <time>2018-09-02T10:07:23Z</time>
      </trkpt>
      <trkpt lat="45.73078" lon="4.70295">
        <ele>295.9</ele>
        <time>2018-09-02T10:07:24Z</time>
      </trkpt>
      <trkpt lat="45.73078" lon="4.70318">
        <ele>294.5</ele>
        <time>2018-09-02T10:07:26Z</time>
      </trkpt>
      <trkpt lat="45.73078" lon="4.7033">
        <ele>293.7</ele>
        <time>2018-09-02T10:07:27Z</time>
      </trkpt>
      <trkpt lat="45.7308" lon="4.70355">
        <ele>292</ele>
        <time>2018-09-02T10:07:29Z</time>
      </trkpt>
      <trkpt lat="45.73082" lon="4.70376">
        <ele>290.8</ele>
        <time>2018-09-02T10:07:31Z</time>
      </trkpt>
      <trkpt lat="45.73081" lon="4.70383">
        <ele>290.4</ele>
        <time>2018-09-02T10:07:32Z</time>
      </trkpt>
      <trkpt lat="45.73079" lon="4.70386">
        <ele>290.2</ele>
        <time>2018-09-02T10:07:33Z</time>
      </trkpt>
      <trkpt lat="45.73078" lon="4.70389">
        <ele>290.1</ele>
        <time>2018-09-02T10:07:34Z</time>
      </trkpt>
      <trkpt lat="45.73079" lon="4.70394">
        <ele>289.7</ele>
        <time>2018-09-02T10:07:35Z</time>
      </trkpt>
      <trkpt lat="45.73082" lon="4.70402">
        <ele>289.5</ele>
        <time>2018-09-02T10:07:37Z</time>
      </trkpt>
      <trkpt lat="45.73085" lon="4.70405">
        <ele>289.6</ele>
        <time>2018-09-02T10:07:38Z</time>
      </trkpt>
      <trkpt lat="45.73099" lon="4.70409">
        <ele>289.7</ele>
        <time>2018-09-02T10:07:41Z</time>
      </trkpt>
      <trkpt lat="45.73104" lon="4.7041">
        <ele>289.7</ele>
        <time>2018-09-02T10:07:42Z</time>
      </trkpt>
      <trkpt lat="45.7313" lon="4.70415">
        <ele>289.8</ele>
        <time>2018-09-02T10:07:47Z</time>
      </trkpt>
      <trkpt lat="45.73135" lon="4.70416">
        <ele>290</ele>
        <time>2018-09-02T10:07:48Z</time>
      </trkpt>
      <trkpt lat="45.73184" lon="4.70426">
        <ele>290.4</ele>
        <time>2018-09-02T10:07:56Z</time>
      </trkpt>
      <trkpt lat="45.73196" lon="4.70428">
        <ele>290.6</ele>
        <time>2018-09-02T10:07:58Z</time>
      </trkpt>
      <trkpt lat="45.73228" lon="4.70432">
        <ele>291.1</ele>
        <time>2018-09-02T10:08:03Z</time>
      </trkpt>
      <trkpt lat="45.73268" lon="4.70443">
        <ele>290.6</ele>
        <time>2018-09-02T10:08:10Z</time>
      </trkpt>
      <trkpt lat="45.73273" lon="4.70444">
        <ele>290.4</ele>
        <time>2018-09-02T10:08:11Z</time>
      </trkpt>
      <trkpt lat="45.7331" lon="4.70452">
        <ele>288.3</ele>
        <time>2018-09-02T10:08:17Z</time>
      </trkpt>
      <trkpt lat="45.73356" lon="4.70461">
        <ele>285.7</ele>
        <time>2018-09-02T10:08:25Z</time>
      </trkpt>
      <trkpt lat="45.73379" lon="4.70468">
        <ele>284.2</ele>
        <time>2018-09-02T10:08:30Z</time>
      </trkpt>
      <trkpt lat="45.7338" lon="4.70471">
        <ele>283.6</ele>
        <time>2018-09-02T10:08:31Z</time>
      </trkpt>
      <trkpt lat="45.7338" lon="4.70481">
        <ele>282.4</ele>
        <time>2018-09-02T10:08:33Z</time>
      </trkpt>
      <trkpt lat="45.73376" lon="4.70493">
        <ele>281.1</ele>
        <time>2018-09-02T10:08:35Z</time>
      </trkpt>
      <trkpt lat="45.73372" lon="4.70517">
        <ele>278.4</ele>
        <time>2018-09-02T10:08:38Z</time>
      </trkpt>
      <trkpt lat="45.7337" lon="4.70526">
        <ele>277.6</ele>
        <time>2018-09-02T10:08:39Z</time>
      </trkpt>
      <trkpt lat="45.73364" lon="4.7055">
        <ele>276</ele>
        <time>2018-09-02T10:08:42Z</time>
      </trkpt>
      <trkpt lat="45.73363" lon="4.7056">
        <ele>276</ele>
        <time>2018-09-02T10:08:44Z</time>
      </trkpt>
      <trkpt lat="45.73367" lon="4.70565">
        <ele>275.9</ele>
        <time>2018-09-02T10:08:46Z</time>
      </trkpt>
      <trkpt lat="45.73369" lon="4.70565">
        <ele>276</ele>
        <time>2018-09-02T10:08:47Z</time>
      </trkpt>
      <trkpt lat="45.73384" lon="4.70559">
        <ele>276.6</ele>
        <time>2018-09-02T10:08:51Z</time>
      </trkpt>
      <trkpt lat="45.73389" lon="4.70561">
        <ele>276.9</ele>
        <time>2018-09-02T10:08:52Z</time>
      </trkpt>
      <trkpt lat="45.73394" lon="4.70561">
        <ele>277.2</ele>
        <time>2018-09-02T10:08:53Z</time>
      </trkpt>
      <trkpt lat="45.73403" lon="4.70561">
        <ele>277.8</ele>
        <time>2018-09-02T10:08:55Z</time>
      </trkpt>
      <trkpt lat="45.73412" lon="4.70558">
        <ele>278.5</ele>
        <time>2018-09-02T10:08:57Z</time>
      </trkpt>
      <trkpt lat="45.73427" lon="4.70552">
        <ele>279.5</ele>
        <time>2018-09-02T10:09:00Z</time>
      </trkpt>
      <trkpt lat="45.73442" lon="4.70547">
        <ele>280.8</ele>
        <time>2018-09-02T10:09:04Z</time>
      </trkpt>
      <trkpt lat="45.7345" lon="4.70541">
        <ele>281.6</ele>
        <time>2018-09-02T10:09:06Z</time>
      </trkpt>
      <trkpt lat="45.73454" lon="4.70537">
        <ele>282.1</ele>
        <time>2018-09-02T10:09:07Z</time>
      </trkpt>
      <trkpt lat="45.73465" lon="4.7053">
        <ele>282.9</ele>
        <time>2018-09-02T10:09:09Z</time>
      </trkpt>
      <trkpt lat="45.73471" lon="4.70519">
        <ele>283.7</ele>
        <time>2018-09-02T10:09:11Z</time>
      </trkpt>
      <trkpt lat="45.73473" lon="4.70517">
        <ele>283.9</ele>
        <time>2018-09-02T10:09:12Z</time>
      </trkpt>
      <trkpt lat="45.73474" lon="4.70515">
        <ele>284</ele>
        <time>2018-09-02T10:09:13Z</time>
      </trkpt>
      <trkpt lat="45.73479" lon="4.70509">
        <ele>284</ele>
        <time>2018-09-02T10:09:16Z</time>
      </trkpt>
      <trkpt lat="45.73484" lon="4.705">
        <ele>284.4</ele>
        <time>2018-09-02T10:09:18Z</time>
      </trkpt>
      <trkpt lat="45.73487" lon="4.70495">
        <ele>284.7</ele>
        <time>2018-09-02T10:09:20Z</time>
      </trkpt>
      <trkpt lat="45.73488" lon="4.70497">
        <ele>284.8</ele>
        <time>2018-09-02T10:09:22Z</time>
      </trkpt>
      <trkpt lat="45.73488" lon="4.705">
        <ele>284.6</ele>
        <time>2018-09-02T10:09:23Z</time>
      </trkpt>
      <trkpt lat="45.73487" lon="4.7051">
        <ele>284.3</ele>
        <time>2018-09-02T10:09:26Z</time>
      </trkpt>
      <trkpt lat="45.73486" lon="4.70514">
        <ele>284.1</ele>
        <time>2018-09-02T10:09:27Z</time>
      </trkpt>
      <trkpt lat="45.7348" lon="4.70529">
        <ele>283.7</ele>
        <time>2018-09-02T10:09:30Z</time>
      </trkpt>
      <trkpt lat="45.73473" lon="4.70541">
        <ele>283.5</ele>
        <time>2018-09-02T10:09:33Z</time>
      </trkpt>
      <trkpt lat="45.73465" lon="4.70555">
        <ele>283.1</ele>
        <time>2018-09-02T10:09:37Z</time>
      </trkpt>
      <trkpt lat="45.73459" lon="4.70568">
        <ele>282.7</ele>
        <time>2018-09-02T10:09:40Z</time>
      </trkpt>
      <trkpt lat="45.73452" lon="4.70579">
        <ele>282</ele>
        <time>2018-09-02T10:09:44Z</time>
      </trkpt>
      <trkpt lat="45.73451" lon="4.70581">
        <ele>281.9</ele>
        <time>2018-09-02T10:09:45Z</time>
      </trkpt>
      <trkpt lat="45.73443" lon="4.706">
        <ele>280.4</ele>
        <time>2018-09-02T10:09:50Z</time>
      </trkpt>
      <trkpt lat="45.73435" lon="4.70618">
        <ele>278.9</ele>
        <time>2018-09-02T10:09:55Z</time>
      </trkpt>
      <trkpt lat="45.73433" lon="4.70621">
        <ele>278.5</ele>
        <time>2018-09-02T10:09:56Z</time>
      </trkpt>
      <trkpt lat="45.73428" lon="4.70624">
        <ele>277.8</ele>
        <time>2018-09-02T10:09:58Z</time>
      </trkpt>
      <trkpt lat="45.73426" lon="4.70629">
        <ele>277.2</ele>
        <time>2018-09-02T10:10:00Z</time>
      </trkpt>
      <trkpt lat="45.73424" lon="4.70632">
        <ele>276.9</ele>
        <time>2018-09-02T10:10:02Z</time>
      </trkpt>
      <trkpt lat="45.73417" lon="4.70646">
        <ele>275.5</ele>
        <time>2018-09-02T10:10:07Z</time>
      </trkpt>
      <trkpt lat="45.73407" lon="4.70656">
        <ele>274.3</ele>
        <time>2018-09-02T10:10:12Z</time>
      </trkpt>
      <trkpt lat="45.73405" lon="4.70663">
        <ele>273.9</ele>
        <time>2018-09-02T10:10:15Z</time>
      </trkpt>
      <trkpt lat="45.73407" lon="4.70673">
        <ele>273.3</ele>
        <time>2018-09-02T10:10:18Z</time>
      </trkpt>
      <trkpt lat="45.73409" lon="4.70692">
        <ele>272.5</ele>
        <time>2018-09-02T10:10:25Z</time>
      </trkpt>
      <trkpt lat="45.73413" lon="4.70705">
        <ele>271.8</ele>
        <time>2018-09-02T10:10:29Z</time>
      </trkpt>
      <trkpt lat="45.73416" lon="4.70711">
        <ele>271.6</ele>
        <time>2018-09-02T10:10:31Z</time>
      </trkpt>
      <trkpt lat="45.7342" lon="4.7072">
        <ele>271.1</ele>
        <time>2018-09-02T10:10:34Z</time>
      </trkpt>
      <trkpt lat="45.73422" lon="4.70721">
        <ele>270.9</ele>
        <time>2018-09-02T10:10:35Z</time>
      </trkpt>
      <trkpt lat="45.73433" lon="4.70727">
        <ele>269.6</ele>
        <time>2018-09-02T10:10:40Z</time>
      </trkpt>
      <trkpt lat="45.73435" lon="4.70728">
        <ele>269.4</ele>
        <time>2018-09-02T10:10:41Z</time>
      </trkpt>
      <trkpt lat="45.73443" lon="4.70727">
        <ele>268.6</ele>
        <time>2018-09-02T10:10:46Z</time>
      </trkpt>
      <trkpt lat="45.73444" lon="4.70726">
        <ele>268.4</ele>
        <time>2018-09-02T10:10:47Z</time>
      </trkpt>
      <trkpt lat="45.73448" lon="4.70726">
        <ele>268.2</ele>
        <time>2018-09-02T10:10:49Z</time>
      </trkpt>
      <trkpt lat="45.73451" lon="4.70726">
        <ele>268</ele>
        <time>2018-09-02T10:10:51Z</time>
      </trkpt>
      <trkpt lat="45.73453" lon="4.70727">
        <ele>267.8</ele>
        <time>2018-09-02T10:10:52Z</time>
      </trkpt>
      <trkpt lat="45.73456" lon="4.70732">
        <ele>267.5</ele>
        <time>2018-09-02T10:10:55Z</time>
      </trkpt>
      <trkpt lat="45.73467" lon="4.70737">
        <ele>266.3</ele>
        <time>2018-09-02T10:11:07Z</time>
      </trkpt>
      <trkpt lat="45.73468" lon="4.70737">
        <ele>266</ele>
        <time>2018-09-02T10:11:08Z</time>
      </trkpt>
      <trkpt lat="45.73483" lon="4.70735">
        <ele>265</ele>
        <time>2018-09-02T10:11:14Z</time>
      </trkpt>
      <trkpt lat="45.73498" lon="4.70723">
        <ele>265</ele>
        <time>2018-09-02T10:11:33Z</time>
      </trkpt>
      <trkpt lat="45.73499" lon="4.70722">
        <ele>265</ele>
        <time>2018-09-02T10:11:34Z</time>
      </trkpt>
      <trkpt lat="45.73505" lon="4.7072">
        <ele>265</ele>
        <time>2018-09-02T10:11:38Z</time>
      </trkpt>
      <trkpt lat="45.7352" lon="4.7072">
        <ele>265</ele>
        <time>2018-09-02T10:11:46Z</time>
      </trkpt>
      <trkpt lat="45.73522" lon="4.70719">
        <ele>265</ele>
        <time>2018-09-02T10:11:47Z</time>
      </trkpt>
      <trkpt lat="45.73524" lon="4.70717">
        <ele>265.4</ele>
        <time>2018-09-02T10:11:48Z</time>
      </trkpt>
      <trkpt lat="45.73525" lon="4.70715">
        <ele>265.8</ele>
        <time>2018-09-02T10:11:50Z</time>
      </trkpt>
      <trkpt lat="45.73525" lon="4.70713">
        <ele>266</ele>
        <time>2018-09-02T10:11:51Z</time>
      </trkpt>
      <trkpt lat="45.73524" lon="4.70712">
        <ele>266.2</ele>
        <time>2018-09-02T10:11:52Z</time>
      </trkpt>
      <trkpt lat="45.73522" lon="4.70711">
        <ele>266.6</ele>
        <time>2018-09-02T10:11:54Z</time>
      </trkpt>
      <trkpt lat="45.7352" lon="4.7071">
        <ele>266.8</ele>
        <time>2018-09-02T10:11:55Z</time>
      </trkpt>
      <trkpt lat="45.73519" lon="4.70709">
        <ele>266.9</ele>
        <time>2018-09-02T10:11:56Z</time>
      </trkpt>
      <trkpt lat="45.73515" lon="4.70702">
        <ele>267.7</ele>
        <time>2018-09-02T10:12:02Z</time>
      </trkpt>
      <trkpt lat="45.73514" lon="4.70701">
        <ele>267.8</ele>
        <time>2018-09-02T10:12:03Z</time>
      </trkpt>
      <trkpt lat="45.7351" lon="4.70692">
        <ele>268.5</ele>
        <time>2018-09-02T10:12:09Z</time>
      </trkpt>
      <trkpt lat="45.73509" lon="4.7069">
        <ele>268.7</ele>
        <time>2018-09-02T10:12:11Z</time>
      </trkpt>
      <trkpt lat="45.73508" lon="4.70688">
        <ele>268.8</ele>
        <time>2018-09-02T10:12:12Z</time>
      </trkpt>
      <trkpt lat="45.73504" lon="4.70685">
        <ele>268.9</ele>
        <time>2018-09-02T10:12:15Z</time>
      </trkpt>
      <trkpt lat="45.73502" lon="4.70683">
        <ele>268.9</ele>
        <time>2018-09-02T10:12:17Z</time>
      </trkpt>
      <trkpt lat="45.73498" lon="4.7068">
        <ele>268.9</ele>
        <time>2018-09-02T10:12:20Z</time>
      </trkpt>
      <trkpt lat="45.73494" lon="4.70679">
        <ele>268.9</ele>
        <time>2018-09-02T10:12:23Z</time>
      </trkpt>
      <trkpt lat="45.73486" lon="4.70675">
        <ele>269</ele>
        <time>2018-09-02T10:12:46Z</time>
      </trkpt>
      <trkpt lat="45.73483" lon="4.70672">
        <ele>269.1</ele>
        <time>2018-09-02T10:12:48Z</time>
      </trkpt>
      <trkpt lat="45.73476" lon="4.70666">
        <ele>269.3</ele>
        <time>2018-09-02T10:12:54Z</time>
      </trkpt>
      <trkpt lat="45.73472" lon="4.70661">
        <ele>269.4</ele>
        <time>2018-09-02T10:12:57Z</time>
      </trkpt>
      <trkpt lat="45.7347" lon="4.70656">
        <ele>269.6</ele>
        <time>2018-09-02T10:12:59Z</time>
      </trkpt>
      <trkpt lat="45.73469" lon="4.70652">
        <ele>269.9</ele>
        <time>2018-09-02T10:13:01Z</time>
      </trkpt>
      <trkpt lat="45.73469" lon="4.7065">
        <ele>270</ele>
        <time>2018-09-02T10:13:02Z</time>
      </trkpt>
      <trkpt lat="45.73472" lon="4.70642">
        <ele>270.4</ele>
        <time>2018-09-02T10:13:07Z</time>
      </trkpt>
      <trkpt lat="45.73473" lon="4.70641">
        <ele>270.4</ele>
        <time>2018-09-02T10:13:08Z</time>
      </trkpt>
      <trkpt lat="45.735" lon="4.70652">
        <ele>270</ele>
        <time>2018-09-02T10:13:31Z</time>
      </trkpt>
      <trkpt lat="45.73503" lon="4.70652">
        <ele>269.8</ele>
        <time>2018-09-02T10:13:33Z</time>
      </trkpt>
      <trkpt lat="45.73506" lon="4.70652">
        <ele>269.8</ele>
        <time>2018-09-02T10:13:35Z</time>
      </trkpt>
      <trkpt lat="45.73556" lon="4.70636">
        <ele>273.4</ele>
        <time>2018-09-02T10:15:00Z</time>
      </trkpt>
      <trkpt lat="45.7356" lon="4.70636">
        <ele>273.6</ele>
        <time>2018-09-02T10:15:02Z</time>
      </trkpt>
      <trkpt lat="45.73562" lon="4.70637">
        <ele>273.9</ele>
        <time>2018-09-02T10:15:04Z</time>
      </trkpt>
      <trkpt lat="45.73567" lon="4.70636">
        <ele>274.4</ele>
        <time>2018-09-02T10:15:07Z</time>
      </trkpt>
      <trkpt lat="45.73568" lon="4.70636">
        <ele>274.5</ele>
        <time>2018-09-02T10:15:08Z</time>
      </trkpt>
      <trkpt lat="45.73598" lon="4.7063">
        <ele>277.6</ele>
        <time>2018-09-02T10:15:29Z</time>
      </trkpt>
      <trkpt lat="45.73602" lon="4.70625">
        <ele>278.7</ele>
        <time>2018-09-02T10:15:32Z</time>
      </trkpt>
      <trkpt lat="45.73605" lon="4.70624">
        <ele>279.3</ele>
        <time>2018-09-02T10:15:34Z</time>
      </trkpt>
      <trkpt lat="45.73609" lon="4.70619">
        <ele>280</ele>
        <time>2018-09-02T10:15:37Z</time>
      </trkpt>
      <trkpt lat="45.73611" lon="4.70618">
        <ele>280</ele>
        <time>2018-09-02T10:15:38Z</time>
      </trkpt>
      <trkpt lat="45.73614" lon="4.70615">
        <ele>280</ele>
        <time>2018-09-02T10:15:40Z</time>
      </trkpt>
      <trkpt lat="45.7362" lon="4.70612">
        <ele>280</ele>
        <time>2018-09-02T10:15:44Z</time>
      </trkpt>
      <trkpt lat="45.73623" lon="4.70615">
        <ele>279.9</ele>
        <time>2018-09-02T10:17:24Z</time>
      </trkpt>
      <trkpt lat="45.73625" lon="4.70616">
        <ele>279.8</ele>
        <time>2018-09-02T10:17:25Z</time>
      </trkpt>
      <trkpt lat="45.73627" lon="4.70618">
        <ele>279.8</ele>
        <time>2018-09-02T10:17:26Z</time>
      </trkpt>
      <trkpt lat="45.73636" lon="4.70623">
        <ele>279.6</ele>
        <time>2018-09-02T10:17:30Z</time>
      </trkpt>
      <trkpt lat="45.73653" lon="4.70631">
        <ele>279.7</ele>
        <time>2018-09-02T10:17:35Z</time>
      </trkpt>
      <trkpt lat="45.73668" lon="4.70633">
        <ele>280.1</ele>
        <time>2018-09-02T10:17:39Z</time>
      </trkpt>
      <trkpt lat="45.73676" lon="4.70636">
        <ele>280.3</ele>
        <time>2018-09-02T10:17:41Z</time>
      </trkpt>
      <trkpt lat="45.737" lon="4.70639">
        <ele>280.3</ele>
        <time>2018-09-02T10:17:47Z</time>
      </trkpt>
      <trkpt lat="45.73714" lon="4.70639">
        <ele>280.3</ele>
        <time>2018-09-02T10:17:50Z</time>
      </trkpt>
      <trkpt lat="45.73733" lon="4.70641">
        <ele>280.7</ele>
        <time>2018-09-02T10:17:54Z</time>
      </trkpt>
      <trkpt lat="45.73755" lon="4.70648">
        <ele>281.6</ele>
        <time>2018-09-02T10:17:59Z</time>
      </trkpt>
      <trkpt lat="45.7376" lon="4.70649">
        <ele>281.8</ele>
        <time>2018-09-02T10:18:00Z</time>
      </trkpt>
      <trkpt lat="45.73781" lon="4.70658">
        <ele>282.7</ele>
        <time>2018-09-02T10:18:04Z</time>
      </trkpt>
      <trkpt lat="45.73792" lon="4.70665">
        <ele>283.1</ele>
        <time>2018-09-02T10:18:06Z</time>
      </trkpt>
      <trkpt lat="45.73815" lon="4.70681">
        <ele>283</ele>
        <time>2018-09-02T10:18:12Z</time>
      </trkpt>
      <trkpt lat="45.73825" lon="4.70688">
        <ele>283.1</ele>
        <time>2018-09-02T10:18:15Z</time>
      </trkpt>
      <trkpt lat="45.73835" lon="4.70696">
        <ele>283.4</ele>
        <time>2018-09-02T10:18:18Z</time>
      </trkpt>
      <trkpt lat="45.73842" lon="4.70701">
        <ele>283.8</ele>
        <time>2018-09-02T10:18:20Z</time>
      </trkpt>
      <trkpt lat="45.73856" lon="4.70713">
        <ele>284.4</ele>
        <time>2018-09-02T10:18:24Z</time>
      </trkpt>
      <trkpt lat="45.73879" lon="4.70729">
        <ele>285.8</ele>
        <time>2018-09-02T10:18:31Z</time>
      </trkpt>
      <trkpt lat="45.73891" lon="4.70735">
        <ele>286.1</ele>
        <time>2018-09-02T10:18:35Z</time>
      </trkpt>
      <trkpt lat="45.73897" lon="4.70738">
        <ele>286</ele>
        <time>2018-09-02T10:18:37Z</time>
      </trkpt>
      <trkpt lat="45.7392" lon="4.70746">
        <ele>285.4</ele>
        <time>2018-09-02T10:18:44Z</time>
      </trkpt>
      <trkpt lat="45.73925" lon="4.70749">
        <ele>285.3</ele>
        <time>2018-09-02T10:18:46Z</time>
      </trkpt>
      <trkpt lat="45.7394" lon="4.70753">
        <ele>285.2</ele>
        <time>2018-09-02T10:18:51Z</time>
      </trkpt>
      <trkpt lat="45.73951" lon="4.70754">
        <ele>285.3</ele>
        <time>2018-09-02T10:18:54Z</time>
      </trkpt>
      <trkpt lat="45.73961" lon="4.70755">
        <ele>285.5</ele>
        <time>2018-09-02T10:18:57Z</time>
      </trkpt>
      <trkpt lat="45.73969" lon="4.70755">
        <ele>285.6</ele>
        <time>2018-09-02T10:18:59Z</time>
      </trkpt>
      <trkpt lat="45.73989" lon="4.70753">
        <ele>286</ele>
        <time>2018-09-02T10:19:04Z</time>
      </trkpt>
      <trkpt lat="45.73992" lon="4.70752">
        <ele>286.6</ele>
        <time>2018-09-02T10:19:05Z</time>
      </trkpt>
      <trkpt lat="45.74015" lon="4.70747">
        <ele>291.2</ele>
        <time>2018-09-02T10:19:11Z</time>
      </trkpt>
      <trkpt lat="45.74018" lon="4.70746">
        <ele>291.4</ele>
        <time>2018-09-02T10:19:12Z</time>
      </trkpt>
      <trkpt lat="45.7405" lon="4.70732">
        <ele>293.1</ele>
        <time>2018-09-02T10:19:21Z</time>
      </trkpt>
      <trkpt lat="45.74054" lon="4.7073">
        <ele>293.2</ele>
        <time>2018-09-02T10:19:22Z</time>
      </trkpt>
      <trkpt lat="45.74066" lon="4.70727">
        <ele>293.3</ele>
        <time>2018-09-02T10:19:25Z</time>
      </trkpt>
      <trkpt lat="45.7408" lon="4.70722">
        <ele>293.4</ele>
        <time>2018-09-02T10:19:29Z</time>
      </trkpt>
      <trkpt lat="45.74095" lon="4.70718">
        <ele>293.5</ele>
        <time>2018-09-02T10:19:33Z</time>
      </trkpt>
      <trkpt lat="45.74106" lon="4.70716">
        <ele>293.6</ele>
        <time>2018-09-02T10:19:36Z</time>
      </trkpt>
      <trkpt lat="45.74109" lon="4.70715">
        <ele>293.8</ele>
        <time>2018-09-02T10:19:37Z</time>
      </trkpt>
      <trkpt lat="45.74134" lon="4.70707">
        <ele>295.4</ele>
        <time>2018-09-02T10:19:43Z</time>
      </trkpt>
      <trkpt lat="45.74153" lon="4.707">
        <ele>295.6</ele>
        <time>2018-09-02T10:19:48Z</time>
      </trkpt>
      <trkpt lat="45.74161" lon="4.70696">
        <ele>295.7</ele>
        <time>2018-09-02T10:19:50Z</time>
      </trkpt>
      <trkpt lat="45.74188" lon="4.70688">
        <ele>295.7</ele>
        <time>2018-09-02T10:19:56Z</time>
      </trkpt>
      <trkpt lat="45.74214" lon="4.70683">
        <ele>295.8</ele>
        <time>2018-09-02T10:20:02Z</time>
      </trkpt>
      <trkpt lat="45.74228" lon="4.70681">
        <ele>296</ele>
        <time>2018-09-02T10:20:06Z</time>
      </trkpt>
      <trkpt lat="45.74236" lon="4.70678">
        <ele>296.2</ele>
        <time>2018-09-02T10:20:08Z</time>
      </trkpt>
      <trkpt lat="45.74243" lon="4.70674">
        <ele>296.7</ele>
        <time>2018-09-02T10:20:10Z</time>
      </trkpt>
      <trkpt lat="45.74254" lon="4.70672">
        <ele>297.6</ele>
        <time>2018-09-02T10:20:14Z</time>
      </trkpt>
      <trkpt lat="45.7426" lon="4.70671">
        <ele>297.9</ele>
        <time>2018-09-02T10:20:17Z</time>
      </trkpt>
      <trkpt lat="45.74261" lon="4.70674">
        <ele>297.9</ele>
        <time>2018-09-02T10:20:18Z</time>
      </trkpt>
      <trkpt lat="45.74262" lon="4.70677">
        <ele>298</ele>
        <time>2018-09-02T10:20:19Z</time>
      </trkpt>
      <trkpt lat="45.74261" lon="4.70693">
        <ele>298</ele>
        <time>2018-09-02T10:20:23Z</time>
      </trkpt>
      <trkpt lat="45.74259" lon="4.70702">
        <ele>298</ele>
        <time>2018-09-02T10:20:25Z</time>
      </trkpt>
      <trkpt lat="45.74255" lon="4.70735">
        <ele>297.8</ele>
        <time>2018-09-02T10:20:31Z</time>
      </trkpt>
      <trkpt lat="45.74252" lon="4.70769">
        <ele>297.6</ele>
        <time>2018-09-02T10:20:37Z</time>
      </trkpt>
      <trkpt lat="45.74251" lon="4.70791">
        <ele>297.8</ele>
        <time>2018-09-02T10:20:41Z</time>
      </trkpt>
      <trkpt lat="45.74252" lon="4.708">
        <ele>297.9</ele>
        <time>2018-09-02T10:20:43Z</time>
      </trkpt>
      <trkpt lat="45.74253" lon="4.70818">
        <ele>298.3</ele>
        <time>2018-09-02T10:20:47Z</time>
      </trkpt>
      <trkpt lat="45.74253" lon="4.70822">
        <ele>298.4</ele>
        <time>2018-09-02T10:20:48Z</time>
      </trkpt>
      <trkpt lat="45.74254" lon="4.70843">
        <ele>298.8</ele>
        <time>2018-09-02T10:20:52Z</time>
      </trkpt>
      <trkpt lat="45.74254" lon="4.70882">
        <ele>299.1</ele>
        <time>2018-09-02T10:20:59Z</time>
      </trkpt>
      <trkpt lat="45.74255" lon="4.70921">
        <ele>299.5</ele>
        <time>2018-09-02T10:21:06Z</time>
      </trkpt>
      <trkpt lat="45.74258" lon="4.70943">
        <ele>299.9</ele>
        <time>2018-09-02T10:21:10Z</time>
      </trkpt>
      <trkpt lat="45.74261" lon="4.70946">
        <ele>299.9</ele>
        <time>2018-09-02T10:21:11Z</time>
      </trkpt>
      <trkpt lat="45.74276" lon="4.70947">
        <ele>299.7</ele>
        <time>2018-09-02T10:21:14Z</time>
      </trkpt>
      <trkpt lat="45.74281" lon="4.70946">
        <ele>299.6</ele>
        <time>2018-09-02T10:21:15Z</time>
      </trkpt>
      <trkpt lat="45.74312" lon="4.70944">
        <ele>299.2</ele>
        <time>2018-09-02T10:21:21Z</time>
      </trkpt>
      <trkpt lat="45.74317" lon="4.70947">
        <ele>299.1</ele>
        <time>2018-09-02T10:21:22Z</time>
      </trkpt>
      <trkpt lat="45.74329" lon="4.70966">
        <ele>298.9</ele>
        <time>2018-09-02T10:21:25Z</time>
      </trkpt>
      <trkpt lat="45.74332" lon="4.70973">
        <ele>298.8</ele>
        <time>2018-09-02T10:21:26Z</time>
      </trkpt>
      <trkpt lat="45.74336" lon="4.7098">
        <ele>298.8</ele>
        <time>2018-09-02T10:21:27Z</time>
      </trkpt>
      <trkpt lat="45.74345" lon="4.70991">
        <ele>298.6</ele>
        <time>2018-09-02T10:21:29Z</time>
      </trkpt>
      <trkpt lat="45.74364" lon="4.70996">
        <ele>298.4</ele>
        <time>2018-09-02T10:21:32Z</time>
      </trkpt>
      <trkpt lat="45.74381" lon="4.70992">
        <ele>298.4</ele>
        <time>2018-09-02T10:21:35Z</time>
      </trkpt>
      <trkpt lat="45.74392" lon="4.70989">
        <ele>298.3</ele>
        <time>2018-09-02T10:21:37Z</time>
      </trkpt>
      <trkpt lat="45.74414" lon="4.70982">
        <ele>298.2</ele>
        <time>2018-09-02T10:21:41Z</time>
      </trkpt>
      <trkpt lat="45.74437" lon="4.70977">
        <ele>298</ele>
        <time>2018-09-02T10:21:45Z</time>
      </trkpt>
      <trkpt lat="45.74482" lon="4.70969">
        <ele>298.8</ele>
        <time>2018-09-02T10:21:53Z</time>
      </trkpt>
      <trkpt lat="45.74492" lon="4.70969">
        <ele>299.3</ele>
        <time>2018-09-02T10:21:55Z</time>
      </trkpt>
      <trkpt lat="45.74501" lon="4.70976">
        <ele>299.6</ele>
        <time>2018-09-02T10:21:57Z</time>
      </trkpt>
      <trkpt lat="45.74504" lon="4.70983">
        <ele>299.4</ele>
        <time>2018-09-02T10:21:58Z</time>
      </trkpt>
      <trkpt lat="45.74508" lon="4.70999">
        <ele>299</ele>
        <time>2018-09-02T10:22:00Z</time>
      </trkpt>
      <trkpt lat="45.7451" lon="4.71007">
        <ele>298.9</ele>
        <time>2018-09-02T10:22:01Z</time>
      </trkpt>
      <trkpt lat="45.74515" lon="4.71034">
        <ele>298.3</ele>
        <time>2018-09-02T10:22:04Z</time>
      </trkpt>
      <trkpt lat="45.74521" lon="4.71061">
        <ele>298</ele>
        <time>2018-09-02T10:22:07Z</time>
      </trkpt>
      <trkpt lat="45.74528" lon="4.71096">
        <ele>297</ele>
        <time>2018-09-02T10:22:11Z</time>
      </trkpt>
      <trkpt lat="45.74535" lon="4.71132">
        <ele>296.1</ele>
        <time>2018-09-02T10:22:15Z</time>
      </trkpt>
      <trkpt lat="45.74537" lon="4.7114">
        <ele>295.8</ele>
        <time>2018-09-02T10:22:16Z</time>
      </trkpt>
      <trkpt lat="45.74547" lon="4.71194">
        <ele>295</ele>
        <time>2018-09-02T10:22:22Z</time>
      </trkpt>
      <trkpt lat="45.74551" lon="4.71212">
        <ele>294.9</ele>
        <time>2018-09-02T10:22:24Z</time>
      </trkpt>
      <trkpt lat="45.74565" lon="4.71278">
        <ele>294</ele>
        <time>2018-09-02T10:22:32Z</time>
      </trkpt>
      <trkpt lat="45.7457" lon="4.71302">
        <ele>293.5</ele>
        <time>2018-09-02T10:22:35Z</time>
      </trkpt>
      <trkpt lat="45.74575" lon="4.71338">
        <ele>293</ele>
        <time>2018-09-02T10:22:39Z</time>
      </trkpt>
      <trkpt lat="45.74583" lon="4.71407">
        <ele>291.9</ele>
        <time>2018-09-02T10:22:47Z</time>
      </trkpt>
      <trkpt lat="45.7459" lon="4.71492">
        <ele>291</ele>
        <time>2018-09-02T10:22:56Z</time>
      </trkpt>
      <trkpt lat="45.74591" lon="4.71502">
        <ele>291.2</ele>
        <time>2018-09-02T10:22:57Z</time>
      </trkpt>
      <trkpt lat="45.74591" lon="4.71576">
        <ele>291.6</ele>
        <time>2018-09-02T10:23:05Z</time>
      </trkpt>
      <trkpt lat="45.74589" lon="4.71645">
        <ele>291.2</ele>
        <time>2018-09-02T10:23:13Z</time>
      </trkpt>
      <trkpt lat="45.74588" lon="4.71702">
        <ele>291.5</ele>
        <time>2018-09-02T10:23:20Z</time>
      </trkpt>
      <trkpt lat="45.74588" lon="4.71711">
        <ele>291.6</ele>
        <time>2018-09-02T10:23:21Z</time>
      </trkpt>
      <trkpt lat="45.74588" lon="4.71777">
        <ele>290.6</ele>
        <time>2018-09-02T10:23:29Z</time>
      </trkpt>
      <trkpt lat="45.74586" lon="4.71824">
        <ele>290.7</ele>
        <time>2018-09-02T10:23:34Z</time>
      </trkpt>
      <trkpt lat="45.74586" lon="4.71852">
        <ele>291</ele>
        <time>2018-09-02T10:23:37Z</time>
      </trkpt>
      <trkpt lat="45.74584" lon="4.71906">
        <ele>290.6</ele>
        <time>2018-09-02T10:23:43Z</time>
      </trkpt>
      <trkpt lat="45.74584" lon="4.71926">
        <ele>290.2</ele>
        <time>2018-09-02T10:23:45Z</time>
      </trkpt>
      <trkpt lat="45.74583" lon="4.71966">
        <ele>288.8</ele>
        <time>2018-09-02T10:23:49Z</time>
      </trkpt>
      <trkpt lat="45.74582" lon="4.72021">
        <ele>288.2</ele>
        <time>2018-09-02T10:23:55Z</time>
      </trkpt>
      <trkpt lat="45.74582" lon="4.7203">
        <ele>288.1</ele>
        <time>2018-09-02T10:23:56Z</time>
      </trkpt>
      <trkpt lat="45.7458" lon="4.72088">
        <ele>287.8</ele>
        <time>2018-09-02T10:24:03Z</time>
      </trkpt>
      <trkpt lat="45.74579" lon="4.72105">
        <ele>287.7</ele>
        <time>2018-09-02T10:24:05Z</time>
      </trkpt>
      <trkpt lat="45.74579" lon="4.72153">
        <ele>286.2</ele>
        <time>2018-09-02T10:24:11Z</time>
      </trkpt>
      <trkpt lat="45.7458" lon="4.72195">
        <ele>285.4</ele>
        <time>2018-09-02T10:24:16Z</time>
      </trkpt>
      <trkpt lat="45.74581" lon="4.72212">
        <ele>285.3</ele>
        <time>2018-09-02T10:24:18Z</time>
      </trkpt>
      <trkpt lat="45.74582" lon="4.72239">
        <ele>285.1</ele>
        <time>2018-09-02T10:24:22Z</time>
      </trkpt>
      <trkpt lat="45.74582" lon="4.72248">
        <ele>285.1</ele>
        <time>2018-09-02T10:24:26Z</time>
      </trkpt>
      <trkpt lat="45.74582" lon="4.72254">
        <ele>285</ele>
        <time>2018-09-02T10:24:35Z</time>
      </trkpt>
      <trkpt lat="45.74583" lon="4.7227">
        <ele>284.8</ele>
        <time>2018-09-02T10:24:40Z</time>
      </trkpt>
      <trkpt lat="45.74585" lon="4.72291">
        <ele>284.4</ele>
        <time>2018-09-02T10:24:44Z</time>
      </trkpt>
      <trkpt lat="45.74585" lon="4.72298">
        <ele>284.2</ele>
        <time>2018-09-02T10:24:45Z</time>
      </trkpt>
      <trkpt lat="45.74586" lon="4.72343">
        <ele>283</ele>
        <time>2018-09-02T10:24:51Z</time>
      </trkpt>
      <trkpt lat="45.74586" lon="4.72351">
        <ele>283</ele>
        <time>2018-09-02T10:24:52Z</time>
      </trkpt>
      <trkpt lat="45.74587" lon="4.72426">
        <ele>284</ele>
        <time>2018-09-02T10:25:01Z</time>
      </trkpt>
      <trkpt lat="45.74589" lon="4.725">
        <ele>284</ele>
        <time>2018-09-02T10:25:10Z</time>
      </trkpt>
      <trkpt lat="45.74592" lon="4.72515">
        <ele>283.2</ele>
        <time>2018-09-02T10:25:12Z</time>
      </trkpt>
      <trkpt lat="45.74598" lon="4.72526">
        <ele>283</ele>
        <time>2018-09-02T10:25:14Z</time>
      </trkpt>
      <trkpt lat="45.74601" lon="4.72532">
        <ele>283.1</ele>
        <time>2018-09-02T10:25:15Z</time>
      </trkpt>
      <trkpt lat="45.74607" lon="4.72551">
        <ele>283</ele>
        <time>2018-09-02T10:25:18Z</time>
      </trkpt>
      <trkpt lat="45.74613" lon="4.72561">
        <ele>283</ele>
        <time>2018-09-02T10:25:21Z</time>
      </trkpt>
    </trkseg>
  </trk>
</gpx>